Wetterdaten: Donnerstag, 17.05.2018
Datum Zeit Temp. A. Pool Temp. Feuchte A. Luftdruck Regen Wind Richtung Richtung Sonnenschein ET UV Solar Taupunkt Windchill Windben Empfang
17.05.2018 00:00 11,7 C 16,1 C 87 % 1013,0 hPa 0,0 l/m 10,8 km/h (2 Bft) W-SW 250 0 min 0,000 mm 0,0 UV-I 0 W/m 9,6 C 9,1 C 14,5 km/h (3 Bft) 93,33 %
17.05.2018 00:02 11,7 C 16,1 C 87 % 1013,0 hPa 0,0 l/m 10,7 km/h (2 Bft) W 267 0 min 0,000 mm 0,0 UV-I 0 W/m 9,6 C 9,1 C 16,1 km/h (3 Bft) 95,65 %
17.05.2018 00:03 11,7 C 16,1 C 87 % 1013,0 hPa 0,0 l/m 10,4 km/h (2 Bft) SW 225 0 min 0,000 mm 0,0 UV-I 0 W/m 9,6 C 9,3 C 16,1 km/h (3 Bft) 95,65 %
17.05.2018 00:04 11,7 C 16,1 C 87 % 1013,0 hPa 0,0 l/m 11,6 km/h (2 Bft) W 271 0 min 0,000 mm 0,0 UV-I 0 W/m 9,6 C 8,7 C 14,5 km/h (3 Bft) 96,15 %
17.05.2018 00:05 11,7 C 16,1 C 87 % 1013,0 hPa 0,0 l/m 8,0 km/h (2 Bft) W-NW 282 0 min 0,000 mm 0,0 UV-I 0 W/m 9,6 C 10,6 C 11,3 km/h (2 Bft) 97,37 %
17.05.2018 00:06 11,7 C 16,1 C 87 % 1013,0 hPa 0,0 l/m 9,4 km/h (2 Bft) W-SW 250 0 min 0,000 mm 0,0 UV-I 0 W/m 9,6 C 9,8 C 16,1 km/h (3 Bft) 100,00 %
17.05.2018 00:07 11,7 C 16,1 C 88 % 1013,0 hPa 0,0 l/m 15,4 km/h (3 Bft) SW 229 0 min 0,000 mm 0,0 UV-I 0 W/m 9,8 C 7,0 C 19,3 km/h (3 Bft) 91,67 %
17.05.2018 00:08 11,7 C 16,1 C 88 % 1013,0 hPa 0,0 l/m 12,9 km/h (3 Bft) W-SW 244 0 min 0,000 mm 0,0 UV-I 0 W/m 9,8 C 8,1 C 19,3 km/h (3 Bft) 100,00 %
17.05.2018 00:09 11,7 C 16,1 C 88 % 1013,0 hPa 0,0 l/m 14,6 km/h (3 Bft) W-SW 244 0 min 0,000 mm 0,0 UV-I 0 W/m 9,8 C 7,4 C 17,7 km/h (3 Bft) 96,15 %
17.05.2018 00:10 11,7 C 16,1 C 88 % 1013,0 hPa 0,0 l/m 13,9 km/h (3 Bft) SW 227 0 min 0,000 mm 0,0 UV-I 0 W/m 9,8 C 7,6 C 19,3 km/h (3 Bft) 100,00 %
17.05.2018 00:11 11,7 C 16,1 C 88 % 1013,0 hPa 0,0 l/m 12,6 km/h (3 Bft) W-SW 243 0 min 0,000 mm 0,0 UV-I 0 W/m 9,8 C 8,2 C 20,9 km/h (4 Bft) 100,00 %
17.05.2018 00:12 11,7 C 16,1 C 88 % 1013,0 hPa 0,0 l/m 13,2 km/h (3 Bft) W 261 0 min 0,000 mm 0,0 UV-I 0 W/m 9,8 C 7,9 C 20,9 km/h (4 Bft) 100,00 %
17.05.2018 00:13 11,7 C 16,1 C 88 % 1013,0 hPa 0,0 l/m 15,9 km/h (3 Bft) W-SW 239 0 min 0,000 mm 0,0 UV-I 0 W/m 9,8 C 6,9 C 22,5 km/h (4 Bft) 96,30 %
17.05.2018 00:14 11,7 C 16,1 C 87 % 1013,1 hPa 0,0 l/m 17,3 km/h (3 Bft) S-SW 205 0 min 0,000 mm 0,0 UV-I 0 W/m 9,6 C 6,4 C 22,5 km/h (4 Bft) 100,00 %
17.05.2018 00:15 11,7 C 16,1 C 87 % 1013,0 hPa 0,0 l/m 13,6 km/h (3 Bft) W-SW 240 0 min 0,000 mm 0,0 UV-I 0 W/m 9,6 C 7,8 C 20,9 km/h (4 Bft) 96,30 %
17.05.2018 00:16 11,7 C 16,1 C 87 % 1013,0 hPa 0,0 l/m 15,3 km/h (3 Bft) W-SW 252 0 min 0,000 mm 0,0 UV-I 0 W/m 9,6 C 7,1 C 20,9 km/h (4 Bft) 96,15 %
17.05.2018 00:17 11,6 C 16,1 C 87 % 1013,0 hPa 0,0 l/m 15,2 km/h (3 Bft) W-SW 250 0 min 0,000 mm 0,0 UV-I 0 W/m 9,5 C 7,0 C 22,5 km/h (4 Bft) 100,00 %
17.05.2018 00:18 11,6 C 16,1 C 87 % 1013,0 hPa 0,0 l/m 13,1 km/h (3 Bft) W 265 0 min 0,000 mm 0,0 UV-I 0 W/m 9,5 C 7,9 C 17,7 km/h (3 Bft) 96,15 %
17.05.2018 00:19 11,7 C 16,1 C 87 % 1013,0 hPa 0,0 l/m 13,4 km/h (3 Bft) W-SW 242 0 min 0,000 mm 0,0 UV-I 0 W/m 9,6 C 7,8 C 19,3 km/h (3 Bft) 93,33 %
17.05.2018 00:20 11,6 C 16,1 C 87 % 1013,0 hPa 0,0 l/m 11,1 km/h (2 Bft) W-SW 248 0 min 0,000 mm 0,0 UV-I 0 W/m 9,5 C 8,8 C 17,7 km/h (3 Bft) 96,55 %
17.05.2018 00:21 11,6 C 16,1 C 87 % 1013,0 hPa 0,0 l/m 14,5 km/h (3 Bft) W 271 0 min 0,000 mm 0,0 UV-I 0 W/m 9,5 C 7,3 C 20,9 km/h (4 Bft) 100,00 %
17.05.2018 00:22 11,6 C 16,1 C 87 % 1013,0 hPa 0,0 l/m 10,8 km/h (2 Bft) W-SW 246 0 min 0,000 mm 0,0 UV-I 0 W/m 9,5 C 8,9 C 14,5 km/h (3 Bft) 92,31 %
17.05.2018 00:23 11,6 C 16,1 C 87 % 1013,0 hPa 0,0 l/m 14,6 km/h (3 Bft) SW 232 0 min 0,000 mm 0,0 UV-I 0 W/m 9,5 C 7,2 C 19,3 km/h (3 Bft) 100,00 %
17.05.2018 00:24 11,6 C 16,1 C 87 % 1013,0 hPa 0,0 l/m 14,1 km/h (3 Bft) SW 217 0 min 0,000 mm 0,0 UV-I 0 W/m 9,5 C 7,4 C 17,7 km/h (3 Bft) 95,65 %
17.05.2018 00:25 11,6 C 16,1 C 87 % 1013,0 hPa 0,0 l/m 13,8 km/h (3 Bft) W-SW 247 0 min 0,000 mm 0,0 UV-I 0 W/m 9,5 C 7,6 C 17,7 km/h (3 Bft) 100,00 %
17.05.2018 00:26 11,6 C 16,1 C 87 % 1013,0 hPa 0,0 l/m 10,6 km/h (2 Bft) SW 222 0 min 0,000 mm 0,0 UV-I 0 W/m 9,5 C 9,0 C 16,1 km/h (3 Bft) 100,00 %
17.05.2018 00:27 11,6 C 16,1 C 87 % 1013,0 hPa 0,0 l/m 13,0 km/h (3 Bft) W-SW 257 0 min 0,000 mm 0,0 UV-I 0 W/m 9,5 C 7,9 C 20,9 km/h (4 Bft) 93,33 %
17.05.2018 00:28 11,6 C 16,1 C 87 % 1013,1 hPa 0,0 l/m 13,2 km/h (3 Bft) W-SW 252 0 min 0,000 mm 0,0 UV-I 0 W/m 9,5 C 7,8 C 19,3 km/h (3 Bft) 100,00 %
17.05.2018 00:29 11,6 C 16,1 C 87 % 1013,0 hPa 0,0 l/m 13,1 km/h (3 Bft) W-SW 246 0 min 0,000 mm 0,0 UV-I 0 W/m 9,5 C 7,9 C 20,9 km/h (4 Bft) 100,00 %
17.05.2018 00:30 11,6 C 16,1 C 87 % 1013,0 hPa 0,0 l/m 10,1 km/h (2 Bft) W 261 0 min 0,000 mm 0,0 UV-I 0 W/m 9,5 C 9,3 C 17,7 km/h (3 Bft) 95,65 %
17.05.2018 00:31 11,6 C 16,1 C 87 % 1013,0 hPa 0,0 l/m 14,5 km/h (3 Bft) SW 228 0 min 0,000 mm 0,0 UV-I 0 W/m 9,5 C 7,3 C 19,3 km/h (3 Bft) 100,00 %
17.05.2018 00:32 11,6 C 16,1 C 87 % 1013,0 hPa 0,0 l/m 17,1 km/h (3 Bft) W 259 0 min 0,000 mm 0,0 UV-I 0 W/m 9,5 C 6,3 C 24,1 km/h (4 Bft) 100,00 %
17.05.2018 00:33 11,6 C 16,1 C 87 % 1013,0 hPa 0,0 l/m 13,1 km/h (3 Bft) W-SW 253 0 min 0,000 mm 0,0 UV-I 0 W/m 9,5 C 7,9 C 19,3 km/h (3 Bft) 100,00 %
17.05.2018 00:34 11,6 C 16,1 C 87 % 1013,0 hPa 0,0 l/m 12,8 km/h (3 Bft) SW 226 0 min 0,000 mm 0,0 UV-I 0 W/m 9,5 C 8,0 C 19,3 km/h (3 Bft) 100,00 %
17.05.2018 00:35 11,6 C 16,1 C 87 % 1013,0 hPa 0,0 l/m 10,9 km/h (2 Bft) W-SW 242 0 min 0,000 mm 0,0 UV-I 0 W/m 9,5 C 8,9 C 14,5 km/h (3 Bft) 100,00 %
17.05.2018 00:36 11,6 C 16,1 C 87 % 1013,0 hPa 0,0 l/m 12,1 km/h (2 Bft) W-SW 244 0 min 0,000 mm 0,0 UV-I 0 W/m 9,5 C 8,3 C 17,7 km/h (3 Bft) 100,00 %
17.05.2018 00:37 11,6 C 16,1 C 87 % 1013,0 hPa 0,0 l/m 12,8 km/h (3 Bft) W-SW 242 0 min 0,000 mm 0,0 UV-I 0 W/m 9,5 C 8,0 C 20,9 km/h (4 Bft) 96,15 %
17.05.2018 00:38 11,6 C 16,1 C 87 % 1013,0 hPa 0,0 l/m 13,0 km/h (3 Bft) SW 232 0 min 0,000 mm 0,0 UV-I 0 W/m 9,5 C 7,9 C 17,7 km/h (3 Bft) 96,30 %
17.05.2018 00:39 11,6 C 16,1 C 87 % 1013,0 hPa 0,0 l/m 11,3 km/h (2 Bft) W-SW 241 0 min 0,000 mm 0,0 UV-I 0 W/m 9,5 C 8,7 C 19,3 km/h (3 Bft) 100,00 %
17.05.2018 00:40 11,6 C 16,1 C 87 % 1013,0 hPa 0,0 l/m 15,5 km/h (3 Bft) W-SW 240 0 min 0,000 mm 0,0 UV-I 0 W/m 9,5 C 6,9 C 19,3 km/h (3 Bft) 100,00 %
17.05.2018 00:41 11,6 C 16,1 C 87 % 1013,1 hPa 0,0 l/m 13,3 km/h (3 Bft) W-SW 238 0 min 0,000 mm 0,0 UV-I 0 W/m 9,5 C 7,8 C 19,3 km/h (3 Bft) 100,00 %
17.05.2018 00:42 11,6 C 16,1 C 87 % 1013,0 hPa 0,0 l/m 14,2 km/h (3 Bft) SW 219 0 min 0,000 mm 0,0 UV-I 0 W/m 9,5 C 7,4 C 22,5 km/h (4 Bft) 96,30 %
17.05.2018 00:43 11,6 C 16,1 C 87 % 1013,0 hPa 0,0 l/m 15,0 km/h (3 Bft) W-SW 248 0 min 0,000 mm 0,0 UV-I 0 W/m 9,5 C 7,1 C 20,9 km/h (4 Bft) 100,00 %
17.05.2018 00:44 11,6 C 16,1 C 87 % 1013,0 hPa 0,0 l/m 14,2 km/h (3 Bft) SW 234 0 min 0,000 mm 0,0 UV-I 0 W/m 9,5 C 7,4 C 19,3 km/h (3 Bft) 100,00 %
17.05.2018 00:45 11,6 C 16,1 C 87 % 1013,0 hPa 0,0 l/m 10,3 km/h (2 Bft) W-SW 238 0 min 0,000 mm 0,0 UV-I 0 W/m 9,5 C 9,2 C 19,3 km/h (3 Bft) 100,00 %
17.05.2018 00:46 11,6 C 16,1 C 87 % 1013,0 hPa 0,0 l/m 14,5 km/h (3 Bft) SW 225 0 min 0,000 mm 0,0 UV-I 0 W/m 9,5 C 7,3 C 17,7 km/h (3 Bft) 100,00 %
17.05.2018 00:47 11,6 C 16,1 C 87 % 1013,0 hPa 0,0 l/m 15,1 km/h (3 Bft) W-SW 257 0 min 0,000 mm 0,0 UV-I 0 W/m 9,5 C 7,0 C 22,5 km/h (4 Bft) 100,00 %
17.05.2018 00:48 11,6 C 16,1 C 87 % 1012,9 hPa 0,0 l/m 13,7 km/h (3 Bft) W-SW 246 0 min 0,000 mm 0,0 UV-I 0 W/m 9,5 C 7,6 C 19,3 km/h (3 Bft) 100,00 %
17.05.2018 00:49 11,5 C 16,1 C 87 % 1012,9 hPa 0,0 l/m 15,4 km/h (3 Bft) SW 236 0 min 0,000 mm 0,0 UV-I 0 W/m 9,4 C 6,8 C 20,9 km/h (4 Bft) 100,00 %
17.05.2018 00:50 11,5 C 16,1 C 87 % 1012,9 hPa 0,0 l/m 13,9 km/h (3 Bft) W-SW 252 0 min 0,000 mm 0,0 UV-I 0 W/m 9,4 C 7,4 C 19,3 km/h (3 Bft) 100,00 %
17.05.2018 00:51 11,5 C 16,1 C 87 % 1012,9 hPa 0,0 l/m 13,9 km/h (3 Bft) SW 231 0 min 0,000 mm 0,0 UV-I 0 W/m 9,4 C 7,4 C 19,3 km/h (3 Bft) 100,00 %
17.05.2018 00:52 11,5 C 16,1 C 87 % 1012,9 hPa 0,0 l/m 12,0 km/h (2 Bft) W-SW 250 0 min 0,000 mm 0,0 UV-I 0 W/m 9,4 C 8,2 C 16,1 km/h (3 Bft) 100,00 %
17.05.2018 00:53 11,5 C 16,1 C 87 % 1012,9 hPa 0,0 l/m 11,5 km/h (2 Bft) W-SW 246 0 min 0,000 mm 0,0 UV-I 0 W/m 9,4 C 8,5 C 16,1 km/h (3 Bft) 100,00 %
17.05.2018 00:54 11,5 C 16,1 C 87 % 1013,0 hPa 0,0 l/m 11,1 km/h (2 Bft) W-SW 254 0 min 0,000 mm 0,0 UV-I 0 W/m 9,4 C 8,7 C 16,1 km/h (3 Bft) 100,00 %
17.05.2018 00:55 11,5 C 16,1 C 87 % 1013,0 hPa 0,0 l/m 15,3 km/h (3 Bft) W-SW 250 0 min 0,000 mm 0,0 UV-I 0 W/m 9,4 C 6,8 C 24,1 km/h (4 Bft) 100,00 %
17.05.2018 00:56 11,5 C 16,1 C 87 % 1013,0 hPa 0,0 l/m 13,3 km/h (3 Bft) SW 229 0 min 0,000 mm 0,0 UV-I 0 W/m 9,4 C 7,7 C 19,3 km/h (3 Bft) 100,00 %
17.05.2018 00:57 11,4 C 16,1 C 87 % 1012,9 hPa 0,0 l/m 14,8 km/h (3 Bft) W-SW 244 0 min 0,000 mm 0,0 UV-I 0 W/m 9,3 C 6,9 C 19,3 km/h (3 Bft) 100,00 %
17.05.2018 00:58 11,4 C 16,1 C 87 % 1012,9 hPa 0,0 l/m 12,4 km/h (3 Bft) SW 214 0 min 0,000 mm 0,0 UV-I 0 W/m 9,3 C 7,9 C 16,1 km/h (3 Bft) 92,86 %
17.05.2018 00:59 11,4 C 16,1 C 87 % 1012,9 hPa 0,0 l/m 15,8 km/h (3 Bft) W 259 0 min 0,000 mm 0,0 UV-I 0 W/m 9,3 C 6,5 C 20,9 km/h (4 Bft) 97,44 %
17.05.2018 01:00 11,5 C 16,1 C 87 % 1013,0 hPa 0,0 l/m 13,4 km/h (3 Bft) W-SW 241 0 min 0,025 mm 0,0 UV-I 0 W/m 9,4 C 7,6 C 17,7 km/h (3 Bft) 100,00 %
17.05.2018 01:01 11,5 C 16,1 C 87 % 1012,9 hPa 0,0 l/m 13,1 km/h (3 Bft) SW 231 0 min 0,000 mm 0,0 UV-I 0 W/m 9,4 C 7,7 C 17,7 km/h (3 Bft) 100,00 %
17.05.2018 01:02 11,5 C 16,1 C 87 % 1012,9 hPa 0,0 l/m 13,6 km/h (3 Bft) W-SW 240 0 min 0,000 mm 0,0 UV-I 0 W/m 9,4 C 7,5 C 17,7 km/h (3 Bft) 100,00 %
17.05.2018 01:03 11,5 C 16,1 C 87 % 1012,9 hPa 0,0 l/m 11,7 km/h (2 Bft) W-SW 253 0 min 0,000 mm 0,0 UV-I 0 W/m 9,4 C 8,4 C 16,1 km/h (3 Bft) 100,00 %
17.05.2018 01:04 11,4 C 16,1 C 87 % 1012,9 hPa 0,0 l/m 12,6 km/h (3 Bft) W-SW 238 0 min 0,000 mm 0,0 UV-I 0 W/m 9,3 C 7,8 C 17,7 km/h (3 Bft) 100,00 %
17.05.2018 01:05 11,4 C 16,1 C 87 % 1012,9 hPa 0,0 l/m 9,5 km/h (2 Bft) SW 227 0 min 0,000 mm 0,0 UV-I 0 W/m 9,3 C 9,4 C 12,9 km/h (3 Bft) 100,00 %
17.05.2018 01:06 11,4 C 16,1 C 87 % 1012,9 hPa 0,0 l/m 9,9 km/h (2 Bft) W 271 0 min 0,000 mm 0,0 UV-I 0 W/m 9,3 C 9,2 C 12,9 km/h (3 Bft) 100,00 %
17.05.2018 01:07 11,4 C 16,1 C 87 % 1013,0 hPa 0,0 l/m 10,4 km/h (2 Bft) SW 236 0 min 0,000 mm 0,0 UV-I 0 W/m 9,3 C 8,9 C 14,5 km/h (3 Bft) 100,00 %
17.05.2018 01:08 11,4 C 16,1 C 87 % 1013,0 hPa 0,0 l/m 11,7 km/h (2 Bft) W-SW 250 0 min 0,000 mm 0,0 UV-I 0 W/m 9,3 C 8,3 C 16,1 km/h (3 Bft) 100,00 %
17.05.2018 01:09 11,4 C 16,1 C 87 % 1013,0 hPa 0,0 l/m 11,3 km/h (2 Bft) W-SW 238 0 min 0,000 mm 0,0 UV-I 0 W/m 9,3 C 8,5 C 20,9 km/h (4 Bft) 100,00 %
17.05.2018 01:10 11,4 C 16,1 C 87 % 1013,0 hPa 0,0 l/m 12,5 km/h (3 Bft) W 267 0 min 0,000 mm 0,0 UV-I 0 W/m 9,3 C 7,9 C 19,3 km/h (3 Bft) 100,00 %
17.05.2018 01:11 11,4 C 16,1 C 87 % 1012,9 hPa 0,0 l/m 13,3 km/h (3 Bft) W-SW 246 0 min 0,000 mm 0,0 UV-I 0 W/m 9,3 C 7,5 C 19,3 km/h (3 Bft) 100,00 %
17.05.2018 01:12 11,4 C 16,1 C 87 % 1012,9 hPa 0,0 l/m 13,1 km/h (3 Bft) W-SW 245 0 min 0,000 mm 0,0 UV-I 0 W/m 9,3 C 7,6 C 17,7 km/h (3 Bft) 98,67 %
17.05.2018 01:13 11,4 C 16,1 C 87 % 1013,0 hPa 0,0 l/m 11,5 km/h (2 Bft) W-SW 245 0 min 0,000 mm 0,0 UV-I 0 W/m 9,3 C 8,4 C 16,1 km/h (3 Bft) 100,00 %
17.05.2018 01:14 11,5 C 16,1 C 86 % 1013,0 hPa 0,0 l/m 14,0 km/h (3 Bft) SW 233 0 min 0,000 mm 0,0 UV-I 0 W/m 9,2 C 7,4 C 20,9 km/h (4 Bft) 100,00 %
17.05.2018 01:15 11,5 C 16,1 C 86 % 1013,0 hPa 0,0 l/m 13,1 km/h (3 Bft) W-SW 257 0 min 0,000 mm 0,0 UV-I 0 W/m 9,2 C 7,7 C 16,1 km/h (3 Bft) 100,00 %
17.05.2018 01:16 11,5 C 16,1 C 86 % 1012,9 hPa 0,0 l/m 12,5 km/h (3 Bft) W-SW 240 0 min 0,000 mm 0,0 UV-I 0 W/m 9,2 C 8,0 C 17,7 km/h (3 Bft) 100,00 %
17.05.2018 01:17 11,5 C 16,1 C 86 % 1012,9 hPa 0,0 l/m 10,3 km/h (2 Bft) W 262 0 min 0,000 mm 0,0 UV-I 0 W/m 9,2 C 9,1 C 12,9 km/h (3 Bft) 100,00 %
17.05.2018 01:18 11,5 C 16,1 C 86 % 1012,9 hPa 0,0 l/m 8,3 km/h (2 Bft) SW 231 0 min 0,000 mm 0,0 UV-I 0 W/m 9,2 C 10,2 C 12,9 km/h (3 Bft) 100,00 %
17.05.2018 01:19 11,5 C 16,1 C 86 % 1013,0 hPa 0,0 l/m 10,6 km/h (2 Bft) W-SW 249 0 min 0,000 mm 0,0 UV-I 0 W/m 9,2 C 8,9 C 14,5 km/h (3 Bft) 100,00 %
17.05.2018 01:20 11,5 C 16,1 C 86 % 1013,0 hPa 0,0 l/m 9,7 km/h (2 Bft) SW 233 0 min 0,000 mm 0,0 UV-I 0 W/m 9,2 C 9,4 C 16,1 km/h (3 Bft) 100,00 %
17.05.2018 01:21 11,5 C 16,1 C 86 % 1013,0 hPa 0,0 l/m 10,2 km/h (2 Bft) SW 225 0 min 0,000 mm 0,0 UV-I 0 W/m 9,2 C 9,1 C 14,5 km/h (3 Bft) 100,00 %
17.05.2018 01:22 11,6 C 16,1 C 87 % 1012,9 hPa 0,0 l/m 11,3 km/h (2 Bft) W-SW 257 0 min 0,000 mm 0,0 UV-I 0 W/m 9,5 C 8,7 C 16,1 km/h (3 Bft) 100,00 %
17.05.2018 01:23 11,5 C 16,1 C 86 % 1012,9 hPa 0,0 l/m 8,4 km/h (2 Bft) W-SW 250 0 min 0,000 mm 0,0 UV-I 0 W/m 9,2 C 10,2 C 12,9 km/h (3 Bft) 100,00 %
17.05.2018 01:24 11,5 C 16,1 C 87 % 1013,0 hPa 0,0 l/m 13,5 km/h (3 Bft) SW 228 0 min 0,000 mm 0,0 UV-I 0 W/m 9,4 C 7,6 C 22,5 km/h (4 Bft) 100,00 %
17.05.2018 01:25 11,5 C 16,1 C 87 % 1013,0 hPa 0,0 l/m 15,5 km/h (3 Bft) SW 216 0 min 0,000 mm 0,0 UV-I 0 W/m 9,4 C 6,8 C 19,3 km/h (3 Bft) 100,00 %
17.05.2018 01:26 11,6 C 16,1 C 86 % 1013,0 hPa 0,0 l/m 14,4 km/h (3 Bft) W-SW 244 0 min 0,000 mm 0,0 UV-I 0 W/m 9,3 C 7,3 C 20,9 km/h (4 Bft) 100,00 %
17.05.2018 01:27 11,5 C 16,1 C 86 % 1012,9 hPa 0,0 l/m 10,8 km/h (2 Bft) W-SW 246 0 min 0,000 mm 0,0 UV-I 0 W/m 9,2 C 8,8 C 16,1 km/h (3 Bft) 100,00 %
17.05.2018 01:28 11,6 C 16,1 C 86 % 1012,8 hPa 0,0 l/m 8,6 km/h (2 Bft) W 262 0 min 0,000 mm 0,0 UV-I 0 W/m 9,3 C 10,2 C 12,9 km/h (3 Bft) 100,00 %
17.05.2018 01:29 11,6 C 16,1 C 86 % 1012,9 hPa 0,0 l/m 12,6 km/h (3 Bft) W-SW 241 0 min 0,000 mm 0,0 UV-I 0 W/m 9,3 C 8,1 C 24,1 km/h (4 Bft) 91,67 %
17.05.2018 01:30 11,6 C 16,1 C 86 % 1012,9 hPa 0,0 l/m 14,0 km/h (3 Bft) W-SW 251 0 min 0,000 mm 0,0 UV-I 0 W/m 9,3 C 7,5 C 24,1 km/h (4 Bft) 100,00 %
17.05.2018 01:31 11,6 C 16,1 C 86 % 1012,9 hPa 0,0 l/m 15,7 km/h (3 Bft) W-SW 246 0 min 0,000 mm 0,0 UV-I 0 W/m 9,3 C 6,8 C 24,1 km/h (4 Bft) 100,00 %
17.05.2018 01:32 11,6 C 16,1 C 86 % 1012,9 hPa 0,0 l/m 14,1 km/h (3 Bft) SW 235 0 min 0,000 mm 0,0 UV-I 0 W/m 9,3 C 7,4 C 16,1 km/h (3 Bft) 92,86 %
17.05.2018 01:33 11,6 C 16,1 C 86 % 1012,9 hPa 0,0 l/m 10,6 km/h (2 Bft) W-SW 239 0 min 0,000 mm 0,0 UV-I 0 W/m 9,3 C 9,0 C 14,5 km/h (3 Bft) 100,00 %
17.05.2018 01:34 11,6 C 16,1 C 86 % 1012,9 hPa 0,0 l/m 7,8 km/h (2 Bft) W-SW 252 0 min 0,000 mm 0,0 UV-I 0 W/m 9,3 C 10,7 C 12,9 km/h (3 Bft) 100,00 %
17.05.2018 01:35 11,6 C 16,1 C 86 % 1012,9 hPa 0,0 l/m 9,8 km/h (2 Bft) SW 233 0 min 0,000 mm 0,0 UV-I 0 W/m 9,3 C 9,5 C 12,9 km/h (3 Bft) 100,00 %
17.05.2018 01:36 11,6 C 16,1 C 86 % 1012,9 hPa 0,0 l/m 9,5 km/h (2 Bft) W-SW 242 0 min 0,000 mm 0,0 UV-I 0 W/m 9,3 C 9,6 C 11,3 km/h (2 Bft) 100,00 %
17.05.2018 01:37 11,6 C 16,1 C 86 % 1012,9 hPa 0,0 l/m 14,2 km/h (3 Bft) W-SW 253 0 min 0,000 mm 0,0 UV-I 0 W/m 9,3 C 7,4 C 17,7 km/h (3 Bft) 100,00 %
17.05.2018 01:38 11,6 C 16,1 C 86 % 1012,9 hPa 0,0 l/m 11,0 km/h (2 Bft) W-SW 250 0 min 0,000 mm 0,0 UV-I 0 W/m 9,3 C 8,8 C 17,7 km/h (3 Bft) 100,00 %
17.05.2018 01:39 11,6 C 16,1 C 86 % 1012,9 hPa 0,0 l/m 6,6 km/h (2 Bft) W-SW 246 0 min 0,000 mm 0,0 UV-I 0 W/m 9,3 C 11,5 C 8,0 km/h (2 Bft) 100,00 %
17.05.2018 01:40 11,6 C 16,1 C 86 % 1012,9 hPa 0,0 l/m 10,4 km/h (2 Bft) SW 229 0 min 0,000 mm 0,0 UV-I 0 W/m 9,3 C 9,1 C 16,1 km/h (3 Bft) 100,00 %
17.05.2018 01:41 11,6 C 16,1 C 87 % 1012,8 hPa 0,0 l/m 11,3 km/h (2 Bft) W 262 0 min 0,000 mm 0,0 UV-I 0 W/m 9,5 C 8,7 C 12,9 km/h (3 Bft) 100,00 %
17.05.2018 01:42 11,6 C 16,1 C 86 % 1012,8 hPa 0,0 l/m 12,0 km/h (2 Bft) SW 235 0 min 0,000 mm 0,0 UV-I 0 W/m 9,3 C 8,4 C 16,1 km/h (3 Bft) 100,00 %
17.05.2018 01:43 11,6 C 16,1 C 87 % 1012,8 hPa 0,0 l/m 9,7 km/h (2 Bft) W-SW 245 0 min 0,000 mm 0,0 UV-I 0 W/m 9,5 C 9,5 C 12,9 km/h (3 Bft) 100,00 %
17.05.2018 01:44 11,6 C 16,1 C 87 % 1012,8 hPa 0,0 l/m 9,5 km/h (2 Bft) SW 236 0 min 0,000 mm 0,0 UV-I 0 W/m 9,5 C 9,6 C 14,5 km/h (3 Bft) 98,96 %
17.05.2018 01:45 11,6 C 16,1 C 87 % 1012,8 hPa 0,0 l/m 15,5 km/h (3 Bft) W-SW 238 0 min 0,000 mm 0,0 UV-I 0 W/m 9,5 C 6,9 C 22,5 km/h (4 Bft) 97,73 %
17.05.2018 01:46 11,6 C 16,1 C 87 % 1012,8 hPa 0,0 l/m 11,5 km/h (2 Bft) W-SW 245 0 min 0,000 mm 0,0 UV-I 0 W/m 9,5 C 8,6 C 17,7 km/h (3 Bft) 100,00 %
17.05.2018 01:47 11,5 C 16,1 C 87 % 1012,8 hPa 0,0 l/m 9,7 km/h (2 Bft) W-SW 240 0 min 0,000 mm 0,0 UV-I 0 W/m 9,4 C 9,4 C 16,1 km/h (3 Bft) 96,15 %
17.05.2018 01:48 11,5 C 16,1 C 87 % 1012,8 hPa 0,0 l/m 9,0 km/h (2 Bft) W-SW 252 0 min 0,000 mm 0,0 UV-I 0 W/m 9,4 C 9,8 C 14,5 km/h (3 Bft) 100,00 %
17.05.2018 01:49 11,5 C 16,1 C 87 % 1012,8 hPa 0,0 l/m 6,6 km/h (2 Bft) W-SW 250 0 min 0,000 mm 0,0 UV-I 0 W/m 9,4 C 11,4 C 8,0 km/h (2 Bft) 91,30 %
17.05.2018 01:50 11,5 C 16,1 C 87 % 1012,8 hPa 0,0 l/m 8,9 km/h (2 Bft) W-SW 238 0 min 0,000 mm 0,0 UV-I 0 W/m 9,4 C 9,9 C 12,9 km/h (3 Bft) 100,00 %
17.05.2018 01:51 11,5 C 16,1 C 87 % 1012,8 hPa 0,0 l/m 8,9 km/h (2 Bft) W-SW 246 0 min 0,000 mm 0,0 UV-I 0 W/m 9,4 C 9,9 C 12,9 km/h (3 Bft) 95,65 %
17.05.2018 01:52 11,4 C 16,1 C 87 % 1012,8 hPa 0,0 l/m 8,6 km/h (2 Bft) SW 229 0 min 0,000 mm 0,0 UV-I 0 W/m 9,3 C 9,9 C 12,9 km/h (3 Bft) 100,00 %
17.05.2018 01:53 11,4 C 16,1 C 87 % 1012,8 hPa 0,0 l/m 12,3 km/h (3 Bft) W-SW 256 0 min 0,000 mm 0,0 UV-I 0 W/m 9,3 C 8,0 C 16,1 km/h (3 Bft) 91,30 %
17.05.2018 01:54 11,5 C 16,1 C 87 % 1012,8 hPa 0,0 l/m 11,2 km/h (2 Bft) S-SW 213 0 min 0,000 mm 0,0 UV-I 0 W/m 9,4 C 8,6 C 16,1 km/h (3 Bft) 100,00 %
17.05.2018 01:55 11,4 C 16,1 C 87 % 1012,7 hPa 0,0 l/m 7,9 km/h (2 Bft) W-SW 251 0 min 0,000 mm 0,0 UV-I 0 W/m 9,3 C 10,4 C 14,5 km/h (3 Bft) 96,55 %
17.05.2018 01:56 11,5 C 16,1 C 87 % 1012,7 hPa 0,0 l/m 8,1 km/h (2 Bft) W-SW 251 0 min 0,000 mm 0,0 UV-I 0 W/m 9,4 C 10,4 C 11,3 km/h (2 Bft) 93,33 %
17.05.2018 01:57 11,4 C 16,1 C 87 % 1012,7 hPa 0,0 l/m 9,9 km/h (2 Bft) W-SW 255 0 min 0,000 mm 0,0 UV-I 0 W/m 9,3 C 9,2 C 14,5 km/h (3 Bft) 96,15 %
17.05.2018 01:58 11,4 C 16,1 C 88 % 1012,7 hPa 0,0 l/m 10,0 km/h (2 Bft) SW 236 0 min 0,000 mm 0,0 UV-I 0 W/m 9,5 C 9,1 C 16,1 km/h (3 Bft) 92,00 %
17.05.2018 01:59 11,4 C 16,1 C 87 % 1012,8 hPa 0,0 l/m 12,2 km/h (2 Bft) SW 229 0 min 0,000 mm 0,0 UV-I 0 W/m 9,3 C 8,0 C 17,7 km/h (3 Bft) 91,30 %
17.05.2018 02:00 11,4 C 16,1 C 87 % 1012,8 hPa 0,0 l/m 11,1 km/h (2 Bft) W 269 0 min 0,026 mm 0,0 UV-I 0 W/m 9,3 C 8,6 C 14,5 km/h (3 Bft) 92,59 %
17.05.2018 02:01 11,4 C 16,1 C 88 % 1012,8 hPa 0,0 l/m 10,7 km/h (2 Bft) W-SW 250 0 min 0,000 mm 0,0 UV-I 0 W/m 9,5 C 8,8 C 14,5 km/h (3 Bft) 100,00 %
17.05.2018 02:02 11,5 C 16,1 C 88 % 1012,8 hPa 0,0 l/m 10,3 km/h (2 Bft) W 273 0 min 0,000 mm 0,0 UV-I 0 W/m 9,6 C 9,1 C 14,5 km/h (3 Bft) 93,10 %
17.05.2018 02:03 11,4 C 16,1 C 88 % 1012,8 hPa 0,0 l/m 13,0 km/h (3 Bft) W 277 0 min 0,000 mm 0,0 UV-I 0 W/m 9,5 C 7,7 C 16,1 km/h (3 Bft) 100,00 %
17.05.2018 02:04 11,4 C 16,1 C 88 % 1012,8 hPa 0,0 l/m 11,4 km/h (2 Bft) W 259 0 min 0,000 mm 0,0 UV-I 0 W/m 9,5 C 8,4 C 16,1 km/h (3 Bft) 92,31 %
17.05.2018 02:05 11,4 C 16,1 C 88 % 1012,8 hPa 0,0 l/m 12,0 km/h (2 Bft) W 266 0 min 0,000 mm 0,0 UV-I 0 W/m 9,5 C 8,1 C 17,7 km/h (3 Bft) 91,67 %
17.05.2018 02:06 11,4 C 16,1 C 88 % 1012,8 hPa 0,0 l/m 9,1 km/h (2 Bft) W 271 0 min 0,000 mm 0,0 UV-I 0 W/m 9,5 C 9,6 C 12,9 km/h (3 Bft) 95,65 %
17.05.2018 02:07 11,4 C 16,1 C 88 % 1012,8 hPa 0,0 l/m 8,7 km/h (2 Bft) W-SW 255 0 min 0,000 mm 0,0 UV-I 0 W/m 9,5 C 9,9 C 14,5 km/h (3 Bft) 100,00 %
17.05.2018 02:08 11,4 C 16,1 C 88 % 1012,8 hPa 0,0 l/m 14,1 km/h (3 Bft) W 266 0 min 0,000 mm 0,0 UV-I 0 W/m 9,5 C 7,2 C 17,7 km/h (3 Bft) 93,10 %
17.05.2018 02:09 11,4 C 16,1 C 88 % 1012,7 hPa 0,0 l/m 11,0 km/h (2 Bft) W-SW 241 0 min 0,000 mm 0,0 UV-I 0 W/m 9,5 C 8,6 C 14,5 km/h (3 Bft) 92,59 %
17.05.2018 02:10 11,4 C 16,1 C 88 % 1012,8 hPa 0,0 l/m 11,3 km/h (2 Bft) W-SW 246 0 min 0,000 mm 0,0 UV-I 0 W/m 9,5 C 8,5 C 17,7 km/h (3 Bft) 100,00 %
17.05.2018 02:11 11,4 C 16,1 C 89 % 1012,7 hPa 0,0 l/m 10,4 km/h (2 Bft) W-SW 252 0 min 0,000 mm 0,0 UV-I 0 W/m 9,7 C 8,9 C 16,1 km/h (3 Bft) 92,59 %
17.05.2018 02:12 11,4 C 16,1 C 89 % 1012,8 hPa 0,0 l/m 11,0 km/h (2 Bft) W-SW 246 0 min 0,000 mm 0,0 UV-I 0 W/m 9,7 C 8,6 C 14,5 km/h (3 Bft) 100,00 %
17.05.2018 02:13 11,4 C 16,1 C 89 % 1012,7 hPa 0,0 l/m 10,8 km/h (2 Bft) W 263 0 min 0,000 mm 0,0 UV-I 0 W/m 9,7 C 8,7 C 16,1 km/h (3 Bft) 92,59 %
17.05.2018 02:14 11,4 C 16,1 C 89 % 1012,7 hPa 0,0 l/m 10,8 km/h (2 Bft) W 259 0 min 0,000 mm 0,0 UV-I 0 W/m 9,7 C 8,7 C 12,9 km/h (3 Bft) 100,00 %
17.05.2018 02:15 11,4 C 16,1 C 89 % 1012,7 hPa 0,0 l/m 10,7 km/h (2 Bft) W 280 0 min 0,000 mm 0,0 UV-I 0 W/m 9,7 C 8,8 C 17,7 km/h (3 Bft) 95,83 %
17.05.2018 02:16 11,4 C 16,1 C 89 % 1012,7 hPa 0,0 l/m 9,4 km/h (2 Bft) W 262 0 min 0,000 mm 0,0 UV-I 0 W/m 9,7 C 9,5 C 12,9 km/h (3 Bft) 91,30 %
17.05.2018 02:17 11,4 C 16,1 C 89 % 1012,7 hPa 0,0 l/m 9,3 km/h (2 Bft) SW 234 0 min 0,000 mm 0,0 UV-I 0 W/m 9,7 C 9,5 C 12,9 km/h (3 Bft) 100,00 %
17.05.2018 02:18 11,3 C 16,1 C 89 % 1012,7 hPa 0,0 l/m 9,0 km/h (2 Bft) W-SW 242 0 min 0,000 mm 0,0 UV-I 0 W/m 9,6 C 9,6 C 17,7 km/h (3 Bft) 86,96 %
17.05.2018 02:19 11,3 C 16,1 C 89 % 1012,6 hPa 0,0 l/m 9,9 km/h (2 Bft) W-SW 256 0 min 0,000 mm 0,0 UV-I 0 W/m 9,6 C 9,1 C 12,9 km/h (3 Bft) 100,00 %
17.05.2018 02:20 11,3 C 16,1 C 89 % 1012,7 hPa 0,0 l/m 6,1 km/h (2 Bft) W 265 0 min 0,000 mm 0,0 UV-I 0 W/m 9,6 C 11,3 C 9,7 km/h (2 Bft) 92,31 %
17.05.2018 02:21 11,3 C 16,1 C 89 % 1012,7 hPa 0,0 l/m 10,3 km/h (2 Bft) W 278 0 min 0,000 mm 0,0 UV-I 0 W/m 9,6 C 8,9 C 16,1 km/h (3 Bft) 100,00 %
17.05.2018 02:22 11,3 C 16,1 C 89 % 1012,6 hPa 0,0 l/m 13,5 km/h (3 Bft) SW 219 0 min 0,000 mm 0,0 UV-I 0 W/m 9,6 C 7,3 C 20,9 km/h (4 Bft) 91,30 %
17.05.2018 02:23 11,3 C 16,1 C 89 % 1012,6 hPa 0,0 l/m 12,6 km/h (3 Bft) W 276 0 min 0,000 mm 0,0 UV-I 0 W/m 9,6 C 7,7 C 17,7 km/h (3 Bft) 100,00 %
17.05.2018 02:24 11,3 C 16,1 C 89 % 1012,6 hPa 0,0 l/m 9,8 km/h (2 Bft) W-SW 243 0 min 0,000 mm 0,0 UV-I 0 W/m 9,6 C 9,1 C 12,9 km/h (3 Bft) 91,67 %
17.05.2018 02:25 11,4 C 16,1 C 89 % 1012,6 hPa 0,0 l/m 9,0 km/h (2 Bft) W 261 0 min 0,000 mm 0,0 UV-I 0 W/m 9,7 C 9,7 C 12,9 km/h (3 Bft) 100,00 %
17.05.2018 02:26 11,4 C 16,1 C 89 % 1012,6 hPa 0,0 l/m 13,5 km/h (3 Bft) W-SW 252 0 min 0,000 mm 0,0 UV-I 0 W/m 9,7 C 7,4 C 17,7 km/h (3 Bft) 96,30 %
17.05.2018 02:27 11,4 C 16,1 C 89 % 1012,5 hPa 0,0 l/m 11,6 km/h (2 Bft) W-SW 255 0 min 0,000 mm 0,0 UV-I 0 W/m 9,7 C 8,3 C 17,7 km/h (3 Bft) 96,15 %
17.05.2018 02:28 11,4 C 16,1 C 89 % 1012,5 hPa 0,0 l/m 8,3 km/h (2 Bft) W 259 0 min 0,000 mm 0,0 UV-I 0 W/m 9,7 C 10,1 C 12,9 km/h (3 Bft) 100,00 %
17.05.2018 02:29 11,4 C 16,1 C 89 % 1012,6 hPa 0,0 l/m 6,8 km/h (2 Bft) W-NW 285 0 min 0,000 mm 0,0 UV-I 0 W/m 9,7 C 11,1 C 11,3 km/h (2 Bft) 92,86 %
17.05.2018 02:30 11,4 C 16,1 C 89 % 1012,6 hPa 0,0 l/m 10,3 km/h (2 Bft) W-SW 254 0 min 0,000 mm 0,0 UV-I 0 W/m 9,7 C 9,0 C 12,9 km/h (3 Bft) 100,00 %
17.05.2018 02:31 11,3 C 16,1 C 89 % 1012,6 hPa 0,0 l/m 7,9 km/h (2 Bft) W-SW 237 0 min 0,000 mm 0,0 UV-I 0 W/m 9,6 C 10,3 C 11,3 km/h (2 Bft) 95,65 %
17.05.2018 02:32 11,3 C 16,1 C 89 % 1012,6 hPa 0,0 l/m 7,1 km/h (2 Bft) W-SW 238 0 min 0,000 mm 0,0 UV-I 0 W/m 9,6 C 10,8 C 12,9 km/h (3 Bft) 91,67 %
17.05.2018 02:33 11,3 C 16,1 C 89 % 1012,6 hPa 0,0 l/m 5,4 km/h (1 Bft) SW 225 0 min 0,000 mm 0,0 UV-I 0 W/m 9,6 C 11,3 C 8,0 km/h (2 Bft) 96,15 %
17.05.2018 02:34 11,3 C 16,1 C 90 % 1012,6 hPa 0,0 l/m 8,1 km/h (2 Bft) W-SW 237 0 min 0,000 mm 0,0 UV-I 0 W/m 9,7 C 10,2 C 14,5 km/h (3 Bft) 100,00 %
17.05.2018 02:35 11,3 C 16,1 C 90 % 1012,5 hPa 0,0 l/m 10,3 km/h (2 Bft) W 259 0 min 0,000 mm 0,0 UV-I 0 W/m 9,7 C 8,9 C 14,5 km/h (3 Bft) 93,10 %
17.05.2018 02:36 11,3 C 16,1 C 90 % 1012,5 hPa 0,0 l/m 12,5 km/h (3 Bft) W-SW 252 0 min 0,000 mm 0,0 UV-I 0 W/m 9,7 C 7,8 C 14,5 km/h (3 Bft) 100,00 %
17.05.2018 02:37 11,3 C 16,1 C 90 % 1012,6 hPa 0,0 l/m 7,3 km/h (2 Bft) W-NW 290 0 min 0,000 mm 0,0 UV-I 0 W/m 9,7 C 10,7 C 9,7 km/h (2 Bft) 96,15 %
17.05.2018 02:38 11,3 C 16,1 C 90 % 1012,5 hPa 0,0 l/m 8,9 km/h (2 Bft) W-SW 248 0 min 0,000 mm 0,0 UV-I 0 W/m 9,7 C 9,7 C 16,1 km/h (3 Bft) 96,67 %
17.05.2018 02:39 11,3 C 16,1 C 90 % 1012,5 hPa 0,0 l/m 9,8 km/h (2 Bft) SW 225 0 min 0,000 mm 0,0 UV-I 0 W/m 9,7 C 9,1 C 12,9 km/h (3 Bft) 100,00 %
17.05.2018 02:40 11,3 C 16,1 C 90 % 1012,5 hPa 0,0 l/m 12,1 km/h (2 Bft) W 260 0 min 0,000 mm 0,0 UV-I 0 W/m 9,7 C 8,0 C 14,5 km/h (3 Bft) 100,00 %
17.05.2018 02:41 11,3 C 16,1 C 90 % 1012,5 hPa 0,0 l/m 9,7 km/h (2 Bft) W 273 0 min 0,000 mm 0,0 UV-I 0 W/m 9,7 C 9,2 C 12,9 km/h (3 Bft) 94,44 %
17.05.2018 02:42 11,3 C 16,1 C 90 % 1012,5 hPa 0,0 l/m 12,1 km/h (2 Bft) W-SW 237 0 min 0,000 mm 0,0 UV-I 0 W/m 9,7 C 8,0 C 16,1 km/h (3 Bft) 95,12 %
17.05.2018 02:43 11,3 C 16,1 C 90 % 1012,5 hPa 0,0 l/m 10,7 km/h (2 Bft) W 263 0 min 0,000 mm 0,0 UV-I 0 W/m 9,7 C 8,7 C 14,5 km/h (3 Bft) 100,00 %
17.05.2018 02:44 11,3 C 16,1 C 90 % 1012,5 hPa 0,0 l/m 11,6 km/h (2 Bft) W-SW 239 0 min 0,000 mm 0,0 UV-I 0 W/m 9,7 C 8,2 C 12,9 km/h (3 Bft) 91,67 %
17.05.2018 02:45 11,3 C 16,1 C 90 % 1012,5 hPa 0,0 l/m 12,9 km/h (3 Bft) W 261 0 min 0,000 mm 0,0 UV-I 0 W/m 9,7 C 7,6 C 16,1 km/h (3 Bft) 100,00 %
17.05.2018 02:46 11,3 C 16,1 C 90 % 1012,5 hPa 0,0 l/m 14,0 km/h (3 Bft) W-SW 253 0 min 0,000 mm 0,0 UV-I 0 W/m 9,7 C 7,1 C 19,3 km/h (3 Bft) 91,30 %
17.05.2018 02:47 11,4 C 16,1 C 90 % 1012,5 hPa 0,0 l/m 10,9 km/h (2 Bft) W 279 0 min 0,000 mm 0,0 UV-I 0 W/m 9,8 C 8,7 C 12,9 km/h (3 Bft) 96,30 %
17.05.2018 02:48 11,4 C 16,1 C 90 % 1012,5 hPa 0,0 l/m 10,9 km/h (2 Bft) SW 223 0 min 0,000 mm 0,0 UV-I 0 W/m 9,8 C 8,7 C 14,5 km/h (3 Bft) 100,00 %
17.05.2018 02:49 11,4 C 16,1 C 90 % 1012,5 hPa 0,0 l/m 11,7 km/h (2 Bft) W-SW 250 0 min 0,000 mm 0,0 UV-I 0 W/m 9,8 C 8,3 C 14,5 km/h (3 Bft) 100,00 %
17.05.2018 02:50 11,4 C 16,1 C 89 % 1012,5 hPa 0,0 l/m 13,5 km/h (3 Bft) W 265 0 min 0,000 mm 0,0 UV-I 0 W/m 9,7 C 7,4 C 19,3 km/h (3 Bft) 92,31 %
17.05.2018 02:51 11,4 C 16,1 C 89 % 1012,5 hPa 0,0 l/m 11,5 km/h (2 Bft) W-SW 258 0 min 0,000 mm 0,0 UV-I 0 W/m 9,7 C 8,4 C 16,1 km/h (3 Bft) 96,30 %
17.05.2018 02:52 11,4 C 16,1 C 89 % 1012,5 hPa 0,0 l/m 11,9 km/h (2 Bft) W 267 0 min 0,000 mm 0,0 UV-I 0 W/m 9,7 C 8,2 C 14,5 km/h (3 Bft) 100,00 %
17.05.2018 02:53 11,4 C 16,1 C 89 % 1012,4 hPa 0,0 l/m 12,3 km/h (3 Bft) W 281 0 min 0,000 mm 0,0 UV-I 0 W/m 9,7 C 8,0 C 17,7 km/h (3 Bft) 93,33 %
17.05.2018 02:54 11,4 C 16,1 C 89 % 1012,5 hPa 0,0 l/m 13,5 km/h (3 Bft) W-SW 249 0 min 0,000 mm 0,0 UV-I 0 W/m 9,7 C 7,4 C 19,3 km/h (3 Bft) 100,00 %
17.05.2018 02:55 11,4 C 16,1 C 89 % 1012,5 hPa 0,0 l/m 10,0 km/h (2 Bft) W-SW 256 0 min 0,000 mm 0,0 UV-I 0 W/m 9,7 C 9,1 C 17,7 km/h (3 Bft) 96,15 %
17.05.2018 02:56 11,4 C 16,1 C 89 % 1012,5 hPa 0,0 l/m 11,2 km/h (2 Bft) SW 223 0 min 0,000 mm 0,0 UV-I 0 W/m 9,7 C 8,5 C 17,7 km/h (3 Bft) 96,15 %
17.05.2018 02:57 11,4 C 16,1 C 89 % 1012,5 hPa 0,0 l/m 7,3 km/h (2 Bft) W 269 0 min 0,000 mm 0,0 UV-I 0 W/m 9,7 C 10,8 C 12,9 km/h (3 Bft) 96,30 %
17.05.2018 02:58 11,4 C 16,1 C 89 % 1012,5 hPa 0,0 l/m 11,6 km/h (2 Bft) SW 232 0 min 0,000 mm 0,0 UV-I 0 W/m 9,7 C 8,3 C 14,5 km/h (3 Bft) 100,00 %
17.05.2018 02:59 11,4 C 16,1 C 89 % 1012,5 hPa 0,0 l/m 14,8 km/h (3 Bft) W 278 0 min 0,000 mm 0,0 UV-I 0 W/m 9,7 C 6,9 C 17,7 km/h (3 Bft) 100,00 %
17.05.2018 03:00 11,5 C 16,1 C 89 % 1012,5 hPa 0,0 l/m 9,4 km/h (2 Bft) W-SW 244 0 min 0,025 mm 0,0 UV-I 0 W/m 9,8 C 9,6 C 11,3 km/h (2 Bft) 100,00 %
17.05.2018 03:01 11,5 C 16,1 C 89 % 1012,5 hPa 0,0 l/m 12,6 km/h (3 Bft) W 270 0 min 0,000 mm 0,0 UV-I 0 W/m 9,8 C 8,0 C 19,3 km/h (3 Bft) 100,00 %
17.05.2018 03:02 11,5 C 16,1 C 89 % 1012,4 hPa 0,0 l/m 11,0 km/h (2 Bft) W-SW 241 0 min 0,000 mm 0,0 UV-I 0 W/m 9,8 C 8,7 C 14,5 km/h (3 Bft) 100,00 %
17.05.2018 03:03 11,5 C 16,1 C 89 % 1012,4 hPa 0,0 l/m 12,2 km/h (2 Bft) W-SW 253 0 min 0,000 mm 0,0 UV-I 0 W/m 9,8 C 8,1 C 14,5 km/h (3 Bft) 95,65 %
17.05.2018 03:04 11,5 C 16,1 C 89 % 1012,4 hPa 0,0 l/m 11,9 km/h (2 Bft) W 270 0 min 0,000 mm 0,0 UV-I 0 W/m 9,8 C 8,3 C 16,1 km/h (3 Bft) 100,00 %
17.05.2018 03:05 11,5 C 16,1 C 89 % 1012,4 hPa 0,0 l/m 10,8 km/h (2 Bft) W 260 0 min 0,000 mm 0,0 UV-I 0 W/m 9,8 C 8,8 C 16,1 km/h (3 Bft) 100,00 %
17.05.2018 03:06 11,5 C 16,1 C 89 % 1012,4 hPa 0,0 l/m 13,4 km/h (3 Bft) W 263 0 min 0,000 mm 0,0 UV-I 0 W/m 9,8 C 7,6 C 17,7 km/h (3 Bft) 100,00 %
17.05.2018 03:07 11,5 C 16,1 C 89 % 1012,5 hPa 0,0 l/m 11,7 km/h (2 Bft) W 272 0 min 0,000 mm 0,0 UV-I 0 W/m 9,8 C 8,4 C 14,5 km/h (3 Bft) 100,00 %
17.05.2018 03:08 11,5 C 16,1 C 89 % 1012,5 hPa 0,0 l/m 14,1 km/h (3 Bft) W 272 0 min 0,000 mm 0,0 UV-I 0 W/m 9,8 C 7,3 C 17,7 km/h (3 Bft) 100,00 %
17.05.2018 03:09 11,5 C 16,1 C 89 % 1012,5 hPa 0,0 l/m 11,4 km/h (2 Bft) W 264 0 min 0,000 mm 0,0 UV-I 0 W/m 9,8 C 8,5 C 14,5 km/h (3 Bft) 92,31 %
17.05.2018 03:10 11,6 C 16,1 C 89 % 1012,5 hPa 0,0 l/m 14,6 km/h (3 Bft) W 263 0 min 0,000 mm 0,0 UV-I 0 W/m 9,8 C 7,2 C 19,3 km/h (3 Bft) 100,00 %
17.05.2018 03:11 11,6 C 16,1 C 89 % 1012,5 hPa 0,0 l/m 14,7 km/h (3 Bft) W-SW 249 0 min 0,000 mm 0,0 UV-I 0 W/m 9,8 C 7,2 C 19,3 km/h (3 Bft) 100,00 %
17.05.2018 03:12 11,6 C 16,1 C 88 % 1012,5 hPa 0,0 l/m 13,3 km/h (3 Bft) W 260 0 min 0,000 mm 0,0 UV-I 0 W/m 9,7 C 7,8 C 17,7 km/h (3 Bft) 100,00 %
17.05.2018 03:13 11,6 C 16,1 C 88 % 1012,5 hPa 0,0 l/m 12,6 km/h (3 Bft) W 268 0 min 0,000 mm 0,0 UV-I 0 W/m 9,7 C 8,1 C 17,7 km/h (3 Bft) 100,00 %
17.05.2018 03:14 11,6 C 16,1 C 89 % 1012,5 hPa 0,0 l/m 11,4 km/h (2 Bft) W-SW 248 0 min 0,000 mm 0,0 UV-I 0 W/m 9,8 C 8,6 C 14,5 km/h (3 Bft) 100,00 %
17.05.2018 03:15 11,6 C 16,1 C 88 % 1012,5 hPa 0,0 l/m 8,2 km/h (2 Bft) W-NW 282 0 min 0,000 mm 0,0 UV-I 0 W/m 9,7 C 10,4 C 11,3 km/h (2 Bft) 95,65 %
17.05.2018 03:16 11,6 C 16,1 C 89 % 1012,5 hPa 0,0 l/m 9,0 km/h (2 Bft) W 262 0 min 0,000 mm 0,0 UV-I 0 W/m 9,8 C 9,9 C 12,9 km/h (3 Bft) 100,00 %
17.05.2018 03:17 11,6 C 16,1 C 89 % 1012,5 hPa 0,0 l/m 6,6 km/h (2 Bft) W-SW 243 0 min 0,000 mm 0,0 UV-I 0 W/m 9,8 C 11,5 C 11,3 km/h (2 Bft) 95,65 %
17.05.2018 03:18 11,5 C 16,1 C 89 % 1012,5 hPa 0,0 l/m 7,7 km/h (2 Bft) W 267 0 min 0,000 mm 0,0 UV-I 0 W/m 9,8 C 10,6 C 11,3 km/h (2 Bft) 100,00 %
17.05.2018 03:19 11,5 C 16,1 C 89 % 1012,5 hPa 0,0 l/m 7,5 km/h (2 Bft) W 265 0 min 0,000 mm 0,0 UV-I 0 W/m 9,8 C 10,8 C 11,3 km/h (2 Bft) 100,00 %
17.05.2018 03:20 11,5 C 16,1 C 89 % 1012,5 hPa 0,0 l/m 5,7 km/h (1 Bft) W 270 0 min 0,000 mm 0,0 UV-I 0 W/m 9,8 C 11,5 C 6,4 km/h (2 Bft) 96,30 %
17.05.2018 03:21 11,5 C 16,1 C 89 % 1012,5 hPa 0,0 l/m 5,7 km/h (1 Bft) W 267 0 min 0,000 mm 0,0 UV-I 0 W/m 9,8 C 11,5 C 6,4 km/h (2 Bft) 100,00 %
17.05.2018 03:22 11,5 C 16,1 C 89 % 1012,5 hPa 0,0 l/m 9,0 km/h (2 Bft) W-SW 257 0 min 0,000 mm 0,0 UV-I 0 W/m 9,8 C 9,8 C 12,9 km/h (3 Bft) 100,00 %
17.05.2018 03:23 11,5 C 16,1 C 89 % 1012,4 hPa 0,0 l/m 8,9 km/h (2 Bft) W 270 0 min 0,000 mm 0,0 UV-I 0 W/m 9,8 C 9,9 C 12,9 km/h (3 Bft) 100,00 %
17.05.2018 03:24 11,5 C 16,1 C 89 % 1012,5 hPa 0,0 l/m 6,6 km/h (2 Bft) W 265 0 min 0,000 mm 0,0 UV-I 0 W/m 9,8 C 11,4 C 9,7 km/h (2 Bft) 100,00 %
17.05.2018 03:25 11,5 C 16,1 C 89 % 1012,4 hPa 0,0 l/m 8,6 km/h (2 Bft) W 272 0 min 0,000 mm 0,0 UV-I 0 W/m 9,8 C 10,1 C 11,3 km/h (2 Bft) 100,00 %
17.05.2018 03:26 11,5 C 16,1 C 89 % 1012,5 hPa 0,0 l/m 7,2 km/h (2 Bft) W 269 0 min 0,000 mm 0,0 UV-I 0 W/m 9,8 C 11,0 C 11,3 km/h (2 Bft) 95,65 %
17.05.2018 03:27 11,5 C 16,1 C 89 % 1012,5 hPa 0,0 l/m 4,5 km/h (1 Bft) W 281 0 min 0,000 mm 0,0 UV-I 0 W/m 9,8 C 11,5 C 6,4 km/h (2 Bft) 100,00 %
17.05.2018 03:28 11,5 C 16,1 C 89 % 1012,4 hPa 0,0 l/m 5,9 km/h (2 Bft) W 264 0 min 0,000 mm 0,0 UV-I 0 W/m 9,8 C 11,5 C 9,7 km/h (2 Bft) 100,00 %
17.05.2018 03:29 11,4 C 16,1 C 89 % 1012,5 hPa 0,0 l/m 4,2 km/h (1 Bft) W 264 0 min 0,000 mm 0,0 UV-I 0 W/m 9,7 C 11,4 C 6,4 km/h (2 Bft) 100,00 %
17.05.2018 03:30 11,5 C 16,1 C 89 % 1012,5 hPa 0,0 l/m 5,0 km/h (1 Bft) W 271 0 min 0,000 mm 0,0 UV-I 0 W/m 9,8 C 11,5 C 6,4 km/h (2 Bft) 100,00 %
17.05.2018 03:31 11,5 C 16,1 C 89 % 1012,5 hPa 0,0 l/m 5,5 km/h (1 Bft) W 261 0 min 0,000 mm 0,0 UV-I 0 W/m 9,8 C 11,5 C 8,0 km/h (2 Bft) 95,83 %
17.05.2018 03:32 11,4 C 16,1 C 89 % 1012,5 hPa 0,0 l/m 5,7 km/h (1 Bft) W 273 0 min 0,000 mm 0,0 UV-I 0 W/m 9,7 C 11,4 C 9,7 km/h (2 Bft) 100,00 %
17.05.2018 03:33 11,4 C 16,1 C 89 % 1012,5 hPa 0,0 l/m 5,5 km/h (1 Bft) W 277 0 min 0,000 mm 0,0 UV-I 0 W/m 9,7 C 11,4 C 8,0 km/h (2 Bft) 100,00 %
17.05.2018 03:34 11,4 C 16,1 C 89 % 1012,5 hPa 0,0 l/m 8,7 km/h (2 Bft) W 259 0 min 0,000 mm 0,0 UV-I 0 W/m 9,7 C 9,9 C 11,3 km/h (2 Bft) 100,00 %
17.05.2018 03:35 11,4 C 16,1 C 89 % 1012,5 hPa 0,0 l/m 5,1 km/h (1 Bft) W-NW 289 0 min 0,000 mm 0,0 UV-I 0 W/m 9,7 C 11,4 C 6,4 km/h (2 Bft) 100,00 %
17.05.2018 03:36 11,4 C 16,1 C 89 % 1012,5 hPa 0,0 l/m 7,8 km/h (2 Bft) W 270 0 min 0,000 mm 0,0 UV-I 0 W/m 9,7 C 10,5 C 12,9 km/h (3 Bft) 95,65 %
17.05.2018 03:37 11,4 C 16,1 C 89 % 1012,5 hPa 0,0 l/m 5,2 km/h (1 Bft) W-NW 295 0 min 0,000 mm 0,0 UV-I 0 W/m 9,7 C 11,4 C 11,3 km/h (2 Bft) 100,00 %
17.05.2018 03:38 11,4 C 16,1 C 89 % 1012,5 hPa 0,0 l/m 10,9 km/h (2 Bft) W 273 0 min 0,000 mm 0,0 UV-I 0 W/m 9,7 C 8,7 C 17,7 km/h (3 Bft) 100,00 %
17.05.2018 03:39 11,4 C 16,1 C 89 % 1012,5 hPa 0,0 l/m 6,3 km/h (2 Bft) W-NW 286 0 min 0,000 mm 0,0 UV-I 0 W/m 9,7 C 11,4 C 11,3 km/h (2 Bft) 100,00 %
17.05.2018 03:40 11,4 C 16,1 C 89 % 1012,5 hPa 0,0 l/m 7,6 km/h (2 Bft) SW 224 0 min 0,000 mm 0,0 UV-I 0 W/m 9,7 C 10,6 C 14,5 km/h (3 Bft) 100,00 %
17.05.2018 03:41 11,4 C 16,1 C 89 % 1012,5 hPa 0,0 l/m 10,1 km/h (2 Bft) W 261 0 min 0,000 mm 0,0 UV-I 0 W/m 9,7 C 9,1 C 14,5 km/h (3 Bft) 100,00 %
17.05.2018 03:42 11,4 C 16,1 C 89 % 1012,5 hPa 0,0 l/m 9,1 km/h (2 Bft) W 267 0 min 0,000 mm 0,0 UV-I 0 W/m 9,7 C 9,6 C 12,9 km/h (3 Bft) 100,00 %
17.05.2018 03:43 11,4 C 16,1 C 89 % 1012,6 hPa 0,0 l/m 10,5 km/h (2 Bft) W 269 0 min 0,000 mm 0,0 UV-I 0 W/m 9,7 C 8,9 C 16,1 km/h (3 Bft) 95,65 %
17.05.2018 03:44 11,4 C 16,1 C 89 % 1012,5 hPa 0,0 l/m 11,7 km/h (2 Bft) W-NW 298 0 min 0,000 mm 0,0 UV-I 0 W/m 9,7 C 8,3 C 14,5 km/h (3 Bft) 100,00 %
17.05.2018 03:45 11,4 C 16,1 C 89 % 1012,5 hPa 0,0 l/m 10,5 km/h (2 Bft) W-NW 290 0 min 0,000 mm 0,0 UV-I 0 W/m 9,7 C 8,9 C 14,5 km/h (3 Bft) 100,00 %
17.05.2018 03:46 11,4 C 16,1 C 89 % 1012,5 hPa 0,0 l/m 11,0 km/h (2 Bft) W 276 0 min 0,000 mm 0,0 UV-I 0 W/m 9,7 C 8,6 C 12,9 km/h (3 Bft) 95,83 %
17.05.2018 03:47 11,4 C 16,1 C 89 % 1012,6 hPa 0,0 l/m 13,6 km/h (3 Bft) W-SW 253 0 min 0,000 mm 0,0 UV-I 0 W/m 9,7 C 7,4 C 22,5 km/h (4 Bft) 96,15 %
17.05.2018 03:48 11,4 C 16,1 C 89 % 1012,6 hPa 0,0 l/m 11,3 km/h (2 Bft) W-SW 254 0 min 0,000 mm 0,0 UV-I 0 W/m 9,7 C 8,5 C 22,5 km/h (4 Bft) 100,00 %
17.05.2018 03:49 11,3 C 16,1 C 89 % 1012,6 hPa 0,0 l/m 10,2 km/h (2 Bft) W 259 0 min 0,000 mm 0,0 UV-I 0 W/m 9,6 C 8,9 C 14,5 km/h (3 Bft) 96,55 %
17.05.2018 03:50 11,3 C 16,1 C 89 % 1012,6 hPa 0,0 l/m 10,7 km/h (2 Bft) W 264 0 min 0,000 mm 0,0 UV-I 0 W/m 9,6 C 8,7 C 16,1 km/h (3 Bft) 100,00 %
17.05.2018 03:51 11,3 C 16,1 C 89 % 1012,6 hPa 0,0 l/m 9,5 km/h (2 Bft) W-SW 248 0 min 0,000 mm 0,0 UV-I 0 W/m 9,6 C 9,3 C 14,5 km/h (3 Bft) 95,65 %
17.05.2018 03:52 11,3 C 16,1 C 89 % 1012,6 hPa 0,0 l/m 12,6 km/h (3 Bft) W 279 0 min 0,000 mm 0,0 UV-I 0 W/m 9,6 C 7,7 C 16,1 km/h (3 Bft) 100,00 %
17.05.2018 03:53 11,2 C 16,1 C 89 % 1012,6 hPa 0,0 l/m 11,5 km/h (2 Bft) W 272 0 min 0,000 mm 0,0 UV-I 0 W/m 9,5 C 8,1 C 16,1 km/h (3 Bft) 98,03 %
17.05.2018 03:54 11,2 C 16,1 C 89 % 1012,6 hPa 0,0 l/m 12,4 km/h (3 Bft) W 273 0 min 0,000 mm 0,0 UV-I 0 W/m 9,5 C 7,7 C 17,7 km/h (3 Bft) 95,65 %
17.05.2018 03:55 11,2 C 16,1 C 89 % 1012,6 hPa 0,0 l/m 10,3 km/h (2 Bft) NW 319 0 min 0,000 mm 0,0 UV-I 0 W/m 9,5 C 8,8 C 14,5 km/h (3 Bft) 96,15 %
17.05.2018 03:56 11,2 C 16,1 C 89 % 1012,6 hPa 0,0 l/m 11,6 km/h (2 Bft) SW 224 0 min 0,000 mm 0,0 UV-I 0 W/m 9,5 C 8,1 C 14,5 km/h (3 Bft) 100,00 %
17.05.2018 03:57 11,2 C 16,1 C 90 % 1012,6 hPa 0,0 l/m 12,6 km/h (3 Bft) W-NW 285 0 min 0,000 mm 0,0 UV-I 0 W/m 9,6 C 7,6 C 20,9 km/h (4 Bft) 95,83 %
17.05.2018 03:58 11,2 C 16,1 C 89 % 1012,6 hPa 0,0 l/m 17,2 km/h (3 Bft) W 272 0 min 0,000 mm 0,0 UV-I 0 W/m 9,5 C 5,8 C 22,5 km/h (4 Bft) 96,15 %
17.05.2018 03:59 11,2 C 16,1 C 89 % 1012,5 hPa 0,0 l/m 13,5 km/h (3 Bft) W 269 0 min 0,000 mm 0,0 UV-I 0 W/m 9,5 C 7,2 C 22,5 km/h (4 Bft) 100,00 %
17.05.2018 04:00 11,2 C 16,1 C 89 % 1012,5 hPa 0,0 l/m 12,0 km/h (2 Bft) NW 306 0 min 0,026 mm 0,0 UV-I 0 W/m 9,5 C 7,9 C 17,7 km/h (3 Bft) 95,83 %
17.05.2018 04:02 11,2 C 16,1 C 89 % 1012,5 hPa 0,0 l/m 15,9 km/h (3 Bft) W-SW 247 0 min 0,000 mm 0,0 UV-I 0 W/m 9,5 C 6,2 C 16,1 km/h (3 Bft) 87,50 %
17.05.2018 04:03 11,2 C 16,1 C 89 % 1012,5 hPa 0,0 l/m 16,1 km/h (3 Bft) W-SW 247 0 min 0,000 mm 0,0 UV-I 0 W/m 9,5 C 6,2 C 16,1 km/h (3 Bft) 100,00 %
17.05.2018 04:04 11,2 C 16,1 C 89 % 1012,5 hPa 0,0 l/m 16,1 km/h (3 Bft) W-SW 247 0 min 0,000 mm 0,0 UV-I 0 W/m 9,5 C 6,2 C 16,1 km/h (3 Bft) 95,65 %
17.05.2018 04:05 11,2 C 16,1 C 90 % 1012,5 hPa 0,0 l/m 16,1 km/h (3 Bft) W-SW 247 0 min 0,000 mm 0,0 UV-I 0 W/m 9,6 C 6,2 C 16,1 km/h (3 Bft) 100,00 %
17.05.2018 04:06 11,2 C 16,1 C 90 % 1012,5 hPa 0,0 l/m 16,1 km/h (3 Bft) W-SW 247 0 min 0,000 mm 0,0 UV-I 0 W/m 9,6 C 6,2 C 16,1 km/h (3 Bft) 100,00 %
17.05.2018 04:07 11,2 C 16,1 C 90 % 1012,5 hPa 0,0 l/m 11,4 km/h (2 Bft) W 274 0 min 0,000 mm 0,0 UV-I 0 W/m 9,6 C 8,2 C 16,1 km/h (3 Bft) 95,83 %
17.05.2018 04:08 11,2 C 16,1 C 90 % 1012,6 hPa 0,0 l/m 10,7 km/h (2 Bft) W 265 0 min 0,000 mm 0,0 UV-I 0 W/m 9,6 C 8,5 C 14,5 km/h (3 Bft) 100,00 %
17.05.2018 04:09 11,2 C 16,1 C 90 % 1012,5 hPa 0,0 l/m 11,8 km/h (2 Bft) W 266 0 min 0,000 mm 0,0 UV-I 0 W/m 9,6 C 8,0 C 16,1 km/h (3 Bft) 94,44 %
17.05.2018 04:10 11,2 C 16,1 C 90 % 1012,5 hPa 0,0 l/m 11,4 km/h (2 Bft) W-NW 287 0 min 0,000 mm 0,0 UV-I 0 W/m 9,6 C 8,2 C 14,5 km/h (3 Bft) 100,00 %
17.05.2018 04:11 11,1 C 16,1 C 90 % 1012,5 hPa 0,0 l/m 11,9 km/h (2 Bft) W 262 0 min 0,000 mm 0,0 UV-I 0 W/m 9,5 C 7,8 C 16,1 km/h (3 Bft) 96,55 %
17.05.2018 04:12 11,1 C 16,1 C 90 % 1012,5 hPa 0,0 l/m 11,2 km/h (2 Bft) W 259 0 min 0,000 mm 0,0 UV-I 0 W/m 9,5 C 8,2 C 14,5 km/h (3 Bft) 100,00 %
17.05.2018 04:13 11,2 C 16,1 C 90 % 1012,5 hPa 0,0 l/m 9,9 km/h (2 Bft) W-SW 252 0 min 0,000 mm 0,0 UV-I 0 W/m 9,6 C 9,0 C 14,5 km/h (3 Bft) 97,37 %
17.05.2018 04:14 11,1 C 16,1 C 90 % 1012,5 hPa 0,0 l/m 8,9 km/h (2 Bft) W-NW 286 0 min 0,000 mm 0,0 UV-I 0 W/m 9,5 C 9,4 C 12,9 km/h (3 Bft) 86,96 %
17.05.2018 04:15 11,2 C 16,1 C 90 % 1012,5 hPa 0,0 l/m 8,1 km/h (2 Bft) W 263 0 min 0,000 mm 0,0 UV-I 0 W/m 9,6 C 10,0 C 14,5 km/h (3 Bft) 100,00 %
17.05.2018 04:16 11,2 C 16,1 C 90 % 1012,5 hPa 0,0 l/m 7,9 km/h (2 Bft) W-SW 257 0 min 0,000 mm 0,0 UV-I 0 W/m 9,6 C 10,2 C 11,3 km/h (2 Bft) 96,30 %
17.05.2018 04:17 11,2 C 16,1 C 90 % 1012,6 hPa 0,0 l/m 6,4 km/h (2 Bft) W 267 0 min 0,000 mm 0,0 UV-I 0 W/m 9,6 C 11,2 C 8,0 km/h (2 Bft) 100,00 %
17.05.2018 04:18 11,2 C 16,1 C 90 % 1012,6 hPa 0,0 l/m 7,1 km/h (2 Bft) W 259 0 min 0,000 mm 0,0 UV-I 0 W/m 9,6 C 10,7 C 9,7 km/h (2 Bft) 93,33 %
17.05.2018 04:19 11,2 C 16,1 C 90 % 1012,6 hPa 0,0 l/m 7,3 km/h (2 Bft) W 267 0 min 0,000 mm 0,0 UV-I 0 W/m 9,6 C 10,6 C 11,3 km/h (2 Bft) 100,00 %
17.05.2018 04:20 11,1 C 16,1 C 90 % 1012,6 hPa 0,0 l/m 10,0 km/h (2 Bft) W 264 0 min 0,000 mm 0,0 UV-I 0 W/m 9,5 C 8,8 C 14,5 km/h (3 Bft) 96,30 %
17.05.2018 04:21 11,1 C 16,1 C 90 % 1012,6 hPa 0,0 l/m 11,8 km/h (2 Bft) W 273 0 min 0,000 mm 0,0 UV-I 0 W/m 9,5 C 7,9 C 14,5 km/h (3 Bft) 94,12 %
17.05.2018 04:22 11,1 C 16,1 C 90 % 1012,6 hPa 0,0 l/m 9,0 km/h (2 Bft) W 261 0 min 0,000 mm 0,0 UV-I 0 W/m 9,5 C 9,4 C 11,3 km/h (2 Bft) 100,00 %
17.05.2018 04:23 11,1 C 16,1 C 90 % 1012,5 hPa 0,0 l/m 8,3 km/h (2 Bft) W 260 0 min 0,000 mm 0,0 UV-I 0 W/m 9,5 C 9,8 C 11,3 km/h (2 Bft) 100,00 %
17.05.2018 04:24 11,1 C 16,1 C 89 % 1012,5 hPa 0,0 l/m 9,7 km/h (2 Bft) W 259 0 min 0,000 mm 0,0 UV-I 0 W/m 9,4 C 9,0 C 12,9 km/h (3 Bft) 100,00 %
17.05.2018 04:25 11,1 C 16,1 C 90 % 1012,5 hPa 0,0 l/m 7,4 km/h (2 Bft) W-SW 244 0 min 0,000 mm 0,0 UV-I 0 W/m 9,5 C 10,4 C 11,3 km/h (2 Bft) 100,00 %
17.05.2018 04:26 11,1 C 16,1 C 90 % 1012,5 hPa 0,0 l/m 5,9 km/h (2 Bft) W 267 0 min 0,000 mm 0,0 UV-I 0 W/m 9,5 C 11,1 C 9,7 km/h (2 Bft) 96,30 %
17.05.2018 04:27 11,1 C 16,1 C 89 % 1012,6 hPa 0,0 l/m 8,6 km/h (2 Bft) W 279 0 min 0,000 mm 0,0 UV-I 0 W/m 9,4 C 9,6 C 11,3 km/h (2 Bft) 100,00 %
17.05.2018 04:28 11,1 C 16,1 C 89 % 1012,5 hPa 0,0 l/m 8,5 km/h (2 Bft) W-SW 252 0 min 0,000 mm 0,0 UV-I 0 W/m 9,4 C 9,7 C 12,9 km/h (3 Bft) 100,00 %
17.05.2018 04:29 11,1 C 16,1 C 89 % 1012,5 hPa 0,0 l/m 7,9 km/h (2 Bft) SW 226 0 min 0,000 mm 0,0 UV-I 0 W/m 9,4 C 10,1 C 9,7 km/h (2 Bft) 88,89 %
17.05.2018 04:30 11,1 C 16,1 C 90 % 1012,5 hPa 0,0 l/m 7,6 km/h (2 Bft) SW 214 0 min 0,000 mm 0,0 UV-I 0 W/m 9,5 C 10,3 C 9,7 km/h (2 Bft) 100,00 %
17.05.2018 04:31 11,1 C 16,1 C 90 % 1012,6 hPa 0,0 l/m 5,8 km/h (2 Bft) W-SW 255 0 min 0,000 mm 0,0 UV-I 0 W/m 9,5 C 11,1 C 8,0 km/h (2 Bft) 100,00 %
17.05.2018 04:32 11,1 C 16,1 C 90 % 1012,6 hPa 0,0 l/m 7,2 km/h (2 Bft) SW 233 0 min 0,000 mm 0,0 UV-I 0 W/m 9,5 C 10,5 C 11,3 km/h (2 Bft) 100,00 %
17.05.2018 04:33 11,1 C 16,1 C 90 % 1012,6 hPa 0,0 l/m 9,7 km/h (2 Bft) W 263 0 min 0,000 mm 0,0 UV-I 0 W/m 9,5 C 9,0 C 12,9 km/h (3 Bft) 100,00 %
17.05.2018 04:34 11,1 C 16,1 C 90 % 1012,6 hPa 0,0 l/m 6,9 km/h (2 Bft) W 273 0 min 0,000 mm 0,0 UV-I 0 W/m 9,5 C 10,8 C 12,9 km/h (3 Bft) 95,83 %
17.05.2018 04:35 11,1 C 16,1 C 90 % 1012,6 hPa 0,0 l/m 8,4 km/h (2 Bft) W-SW 246 0 min 0,000 mm 0,0 UV-I 0 W/m 9,5 C 9,8 C 12,9 km/h (3 Bft) 100,00 %
17.05.2018 04:36 11,0 C 16,1 C 90 % 1012,6 hPa 0,0 l/m 7,7 km/h (2 Bft) SW 232 0 min 0,000 mm 0,0 UV-I 0 W/m 9,4 C 10,1 C 14,5 km/h (3 Bft) 100,00 %
17.05.2018 04:37 11,0 C 16,1 C 91 % 1012,6 hPa 0,0 l/m 9,5 km/h (2 Bft) W-SW 248 0 min 0,000 mm 0,0 UV-I 0 W/m 9,6 C 9,0 C 14,5 km/h (3 Bft) 100,00 %
17.05.2018 04:38 11,0 C 16,1 C 91 % 1012,6 hPa 0,0 l/m 5,2 km/h (1 Bft) SW 221 0 min 0,000 mm 0,0 UV-I 0 W/m 9,6 C 11,0 C 6,4 km/h (2 Bft) 91,30 %
17.05.2018 04:39 11,0 C 16,1 C 91 % 1012,6 hPa 0,0 l/m 6,0 km/h (2 Bft) SW 223 0 min 0,000 mm 0,0 UV-I 0 W/m 9,6 C 11,0 C 8,0 km/h (2 Bft) 100,00 %
17.05.2018 04:40 11,0 C 16,1 C 91 % 1012,7 hPa 0,0 l/m 11,0 km/h (2 Bft) W-SW 243 0 min 0,000 mm 0,0 UV-I 0 W/m 9,6 C 8,2 C 14,5 km/h (3 Bft) 100,00 %
17.05.2018 04:41 10,9 C 16,1 C 91 % 1012,7 hPa 0,0 l/m 8,3 km/h (2 Bft) W 271 0 min 0,000 mm 0,0 UV-I 0 W/m 9,5 C 9,6 C 12,9 km/h (3 Bft) 100,00 %
17.05.2018 04:42 10,9 C 16,1 C 91 % 1012,6 hPa 0,0 l/m 12,3 km/h (3 Bft) SW 224 0 min 0,000 mm 0,0 UV-I 0 W/m 9,5 C 7,4 C 16,1 km/h (3 Bft) 100,00 %
17.05.2018 04:43 10,9 C 16,1 C 91 % 1012,6 hPa 0,0 l/m 11,4 km/h (2 Bft) W-SW 242 0 min 0,000 mm 0,0 UV-I 0 W/m 9,5 C 7,8 C 14,5 km/h (3 Bft) 95,83 %
17.05.2018 04:44 10,9 C 16,1 C 91 % 1012,6 hPa 0,0 l/m 11,8 km/h (2 Bft) W-SW 238 0 min 0,000 mm 0,0 UV-I 0 W/m 9,5 C 7,6 C 16,1 km/h (3 Bft) 100,00 %
17.05.2018 04:45 10,9 C 16,1 C 91 % 1012,6 hPa 0,0 l/m 10,6 km/h (2 Bft) W-SW 248 0 min 0,000 mm 0,0 UV-I 0 W/m 9,5 C 8,3 C 16,1 km/h (3 Bft) 100,00 %
17.05.2018 04:46 10,9 C 16,1 C 91 % 1012,6 hPa 0,0 l/m 13,3 km/h (3 Bft) W-SW 250 0 min 0,000 mm 0,0 UV-I 0 W/m 9,5 C 6,9 C 14,5 km/h (3 Bft) 100,00 %
17.05.2018 04:47 10,9 C 16,1 C 91 % 1012,6 hPa 0,0 l/m 11,3 km/h (2 Bft) W-SW 245 0 min 0,000 mm 0,0 UV-I 0 W/m 9,5 C 7,9 C 16,1 km/h (3 Bft) 100,00 %
17.05.2018 04:48 10,9 C 16,1 C 91 % 1012,6 hPa 0,0 l/m 12,5 km/h (3 Bft) W-SW 244 0 min 0,000 mm 0,0 UV-I 0 W/m 9,5 C 7,3 C 16,1 km/h (3 Bft) 100,00 %
17.05.2018 04:49 10,9 C 16,1 C 92 % 1012,6 hPa 0,0 l/m 11,3 km/h (2 Bft) W-SW 250 0 min 0,000 mm 0,0 UV-I 0 W/m 9,7 C 7,9 C 14,5 km/h (3 Bft) 100,00 %
17.05.2018 04:50 10,9 C 16,1 C 92 % 1012,6 hPa 0,0 l/m 11,0 km/h (2 Bft) W-SW 250 0 min 0,000 mm 0,0 UV-I 0 W/m 9,7 C 8,1 C 14,5 km/h (3 Bft) 100,00 %
17.05.2018 04:51 10,9 C 16,1 C 92 % 1012,6 hPa 0,0 l/m 13,0 km/h (3 Bft) W-SW 245 0 min 0,000 mm 0,0 UV-I 0 W/m 9,7 C 7,1 C 17,7 km/h (3 Bft) 100,00 %
17.05.2018 04:52 10,9 C 16,1 C 92 % 1012,6 hPa 0,0 l/m 10,2 km/h (2 Bft) W 261 0 min 0,000 mm 0,0 UV-I 0 W/m 9,7 C 8,5 C 12,9 km/h (3 Bft) 100,00 %
17.05.2018 04:53 10,9 C 16,1 C 92 % 1012,6 hPa 0,0 l/m 10,5 km/h (2 Bft) W-SW 245 0 min 0,000 mm 0,0 UV-I 0 W/m 9,7 C 8,3 C 16,1 km/h (3 Bft) 100,00 %
17.05.2018 04:54 10,9 C 16,1 C 92 % 1012,6 hPa 0,0 l/m 11,7 km/h (2 Bft) W-SW 240 0 min 0,000 mm 0,0 UV-I 0 W/m 9,7 C 7,7 C 16,1 km/h (3 Bft) 100,00 %
17.05.2018 04:55 10,9 C 16,1 C 92 % 1012,6 hPa 0,0 l/m 14,5 km/h (3 Bft) W-SW 241 0 min 0,000 mm 0,0 UV-I 0 W/m 9,7 C 6,4 C 19,3 km/h (3 Bft) 100,00 %
17.05.2018 04:56 10,9 C 16,1 C 92 % 1012,6 hPa 0,0 l/m 8,7 km/h (2 Bft) SW 229 0 min 0,000 mm 0,0 UV-I 0 W/m 9,7 C 9,4 C 11,3 km/h (2 Bft) 100,00 %
17.05.2018 04:57 10,9 C 16,1 C 92 % 1012,6 hPa 0,0 l/m 10,4 km/h (2 Bft) W-SW 240 0 min 0,000 mm 0,0 UV-I 0 W/m 9,7 C 8,4 C 20,9 km/h (4 Bft) 100,00 %
17.05.2018 04:58 10,9 C 16,1 C 92 % 1012,6 hPa 0,0 l/m 13,7 km/h (3 Bft) W-SW 239 0 min 0,000 mm 0,0 UV-I 0 W/m 9,7 C 6,8 C 19,3 km/h (3 Bft) 96,30 %
17.05.2018 04:59 10,9 C 16,1 C 92 % 1012,6 hPa 0,0 l/m 8,5 km/h (2 Bft) SW 232 0 min 0,000 mm 0,0 UV-I 0 W/m 9,7 C 9,5 C 12,9 km/h (3 Bft) 100,00 %
17.05.2018 05:00 10,9 C 16,1 C 92 % 1012,6 hPa 0,0 l/m 16,0 km/h (3 Bft) W-SW 238 0 min 0,025 mm 0,0 UV-I 0 W/m 9,7 C 5,8 C 19,3 km/h (3 Bft) 100,00 %
17.05.2018 05:01 10,9 C 16,1 C 92 % 1012,6 hPa 0,0 l/m 14,0 km/h (3 Bft) W-SW 242 0 min 0,000 mm 0,0 UV-I 0 W/m 9,7 C 6,6 C 17,7 km/h (3 Bft) 100,00 %
17.05.2018 05:02 10,9 C 16,1 C 92 % 1012,6 hPa 0,0 l/m 14,0 km/h (3 Bft) W-SW 239 0 min 0,000 mm 0,0 UV-I 0 W/m 9,7 C 6,6 C 17,7 km/h (3 Bft) 100,00 %
17.05.2018 05:03 10,9 C 16,1 C 92 % 1012,6 hPa 0,0 l/m 11,3 km/h (2 Bft) SW 232 0 min 0,000 mm 0,0 UV-I 0 W/m 9,7 C 7,9 C 16,1 km/h (3 Bft) 100,00 %
17.05.2018 05:04 10,9 C 16,1 C 92 % 1012,6 hPa 0,0 l/m 7,6 km/h (2 Bft) SW 223 0 min 0,000 mm 0,0 UV-I 0 W/m 9,7 C 10,1 C 11,3 km/h (2 Bft) 100,00 %
17.05.2018 05:05 10,9 C 16,1 C 92 % 1012,6 hPa 0,0 l/m 8,6 km/h (2 Bft) W-SW 254 0 min 0,000 mm 0,0 UV-I 0 W/m 9,7 C 9,4 C 12,9 km/h (3 Bft) 100,00 %
17.05.2018 05:06 10,9 C 16,1 C 92 % 1012,6 hPa 0,0 l/m 11,8 km/h (2 Bft) W-SW 246 0 min 0,000 mm 0,0 UV-I 0 W/m 9,7 C 7,6 C 17,7 km/h (3 Bft) 100,00 %
17.05.2018 05:07 10,9 C 16,1 C 92 % 1012,6 hPa 0,0 l/m 10,3 km/h (2 Bft) W-SW 257 0 min 0,000 mm 0,0 UV-I 0 W/m 9,7 C 8,4 C 16,1 km/h (3 Bft) 100,00 %
17.05.2018 05:09 10,9 C 16,1 C 92 % 1012,6 hPa 0,0 l/m 11,2 km/h (2 Bft) SW 228 0 min 0,000 mm 0,0 UV-I 0 W/m 9,7 C 7,9 C 14,5 km/h (3 Bft) 96,30 %
17.05.2018 05:10 10,9 C 16,1 C 91 % 1012,6 hPa 0,0 l/m 12,0 km/h (2 Bft) SW 235 0 min 0,000 mm 0,0 UV-I 0 W/m 9,5 C 7,6 C 16,1 km/h (3 Bft) 100,00 %
17.05.2018 05:11 10,9 C 16,1 C 91 % 1012,6 hPa 0,0 l/m 11,0 km/h (2 Bft) W-SW 238 0 min 0,000 mm 0,0 UV-I 0 W/m 9,5 C 8,1 C 19,3 km/h (3 Bft) 100,00 %
17.05.2018 05:12 10,9 C 16,1 C 91 % 1012,6 hPa 0,0 l/m 11,9 km/h (2 Bft) W-SW 254 0 min 0,000 mm 0,0 UV-I 0 W/m 9,5 C 7,6 C 16,1 km/h (3 Bft) 100,00 %
17.05.2018 05:13 10,9 C 16,1 C 91 % 1012,6 hPa 0,0 l/m 12,5 km/h (3 Bft) W-SW 244 0 min 0,000 mm 0,0 UV-I 0 W/m 9,5 C 7,3 C 16,1 km/h (3 Bft) 100,00 %
17.05.2018 05:14 10,9 C 16,1 C 91 % 1012,6 hPa 0,0 l/m 12,6 km/h (3 Bft) SW 230 0 min 0,000 mm 0,0 UV-I 0 W/m 9,5 C 7,3 C 16,1 km/h (3 Bft) 100,00 %
17.05.2018 05:15 10,9 C 16,1 C 91 % 1012,6 hPa 0,0 l/m 13,2 km/h (3 Bft) W-SW 253 0 min 0,000 mm 0,0 UV-I 0 W/m 9,5 C 7,0 C 17,7 km/h (3 Bft) 100,00 %
17.05.2018 05:16 10,9 C 16,1 C 91 % 1012,6 hPa 0,0 l/m 12,0 km/h (2 Bft) W-SW 246 0 min 0,000 mm 0,0 UV-I 0 W/m 9,5 C 7,6 C 19,3 km/h (3 Bft) 100,00 %
17.05.2018 05:17 10,9 C 16,1 C 91 % 1012,6 hPa 0,0 l/m 14,8 km/h (3 Bft) SW 229 0 min 0,000 mm 0,0 UV-I 0 W/m 9,5 C 6,3 C 20,9 km/h (4 Bft) 100,00 %
17.05.2018 05:18 10,9 C 16,1 C 91 % 1012,6 hPa 0,0 l/m 14,7 km/h (3 Bft) W-SW 257 0 min 0,000 mm 0,0 UV-I 0 W/m 9,5 C 6,3 C 19,3 km/h (3 Bft) 100,00 %
17.05.2018 05:19 10,9 C 16,1 C 91 % 1012,6 hPa 0,0 l/m 13,0 km/h (3 Bft) SW 230 0 min 0,000 mm 0,0 UV-I 0 W/m 9,5 C 7,1 C 16,1 km/h (3 Bft) 100,00 %
17.05.2018 05:20 10,9 C 16,1 C 91 % 1012,6 hPa 0,0 l/m 14,8 km/h (3 Bft) SW 220 0 min 0,000 mm 0,0 UV-I 0 W/m 9,5 C 6,3 C 20,9 km/h (4 Bft) 100,00 %
17.05.2018 05:21 11,0 C 16,1 C 91 % 1012,6 hPa 0,0 l/m 16,1 km/h (3 Bft) W 281 0 min 0,000 mm 0,0 UV-I 0 W/m 9,6 C 5,9 C 22,5 km/h (4 Bft) 100,00 %
17.05.2018 05:22 10,9 C 16,1 C 91 % 1012,6 hPa 0,0 l/m 19,4 km/h (3 Bft) W-SW 257 0 min 0,000 mm 0,0 UV-I 0 W/m 9,5 C 4,6 C 25,7 km/h (4 Bft) 91,67 %
17.05.2018 05:23 11,0 C 16,1 C 91 % 1012,6 hPa 0,0 l/m 16,7 km/h (3 Bft) W-SW 242 0 min 0,000 mm 0,0 UV-I 0 W/m 9,6 C 5,7 C 20,9 km/h (4 Bft) 100,00 %
17.05.2018 05:24 11,0 C 16,1 C 91 % 1012,6 hPa 0,0 l/m 10,5 km/h (2 Bft) W 269 0 min 0,000 mm 0,0 UV-I 0 W/m 9,6 C 8,4 C 17,7 km/h (3 Bft) 100,00 %
17.05.2018 05:25 11,0 C 16,1 C 91 % 1012,6 hPa 0,0 l/m 9,3 km/h (2 Bft) W 269 0 min 0,000 mm 0,0 UV-I 0 W/m 9,6 C 9,1 C 14,5 km/h (3 Bft) 100,00 %
17.05.2018 05:26 10,9 C 16,1 C 91 % 1012,6 hPa 0,0 l/m 12,1 km/h (2 Bft) SW 228 0 min 0,000 mm 0,0 UV-I 0 W/m 9,5 C 7,5 C 14,5 km/h (3 Bft) 100,00 %
17.05.2018 05:27 11,0 C 16,1 C 91 % 1012,6 hPa 0,0 l/m 13,3 km/h (3 Bft) W 271 0 min 0,000 mm 0,0 UV-I 1 W/m 9,6 C 7,1 C 19,3 km/h (3 Bft) 96,15 %
17.05.2018 05:28 11,0 C 16,1 C 90 % 1012,6 hPa 0,0 l/m 17,5 km/h (3 Bft) W 273 0 min 0,000 mm 0,0 UV-I 5 W/m 9,4 C 5,4 C 22,5 km/h (4 Bft) 100,00 %
17.05.2018 05:29 11,0 C 16,1 C 90 % 1012,6 hPa 0,0 l/m 11,7 km/h (2 Bft) SW 229 0 min 0,000 mm 0,0 UV-I 5 W/m 9,4 C 7,8 C 17,7 km/h (3 Bft) 100,00 %
17.05.2018 05:30 11,0 C 16,1 C 90 % 1012,5 hPa 0,0 l/m 13,0 km/h (3 Bft) W 259 0 min 0,000 mm 0,0 UV-I 5 W/m 9,4 C 7,2 C 17,7 km/h (3 Bft) 100,00 %
17.05.2018 05:31 11,0 C 16,1 C 90 % 1012,6 hPa 0,0 l/m 12,7 km/h (3 Bft) W-SW 254 0 min 0,000 mm 0,0 UV-I 5 W/m 9,4 C 7,3 C 16,1 km/h (3 Bft) 100,00 %
17.05.2018 05:32 11,0 C 16,1 C 90 % 1012,6 hPa 0,0 l/m 13,8 km/h (3 Bft) SW 224 0 min 0,000 mm 0,0 UV-I 5 W/m 9,4 C 6,8 C 16,1 km/h (3 Bft) 100,00 %
17.05.2018 05:33 11,0 C 16,1 C 90 % 1012,6 hPa 0,0 l/m 14,4 km/h (3 Bft) W 269 0 min 0,000 mm 0,0 UV-I 5 W/m 9,4 C 6,6 C 19,3 km/h (3 Bft) 100,00 %
17.05.2018 05:34 11,0 C 16,1 C 90 % 1012,6 hPa 0,0 l/m 14,1 km/h (3 Bft) W-SW 252 0 min 0,000 mm 0,0 UV-I 5 W/m 9,4 C 6,7 C 17,7 km/h (3 Bft) 100,00 %
17.05.2018 05:35 11,0 C 16,1 C 90 % 1012,6 hPa 0,0 l/m 11,1 km/h (2 Bft) W-SW 239 0 min 0,000 mm 0,0 UV-I 5 W/m 9,4 C 8,1 C 16,1 km/h (3 Bft) 100,00 %
17.05.2018 05:36 11,0 C 16,1 C 90 % 1012,6 hPa 0,0 l/m 13,1 km/h (3 Bft) W-SW 255 0 min 0,000 mm 0,0 UV-I 5 W/m 9,4 C 7,2 C 22,5 km/h (4 Bft) 100,00 %
17.05.2018 05:37 11,0 C 16,1 C 90 % 1012,6 hPa 0,0 l/m 11,3 km/h (2 Bft) W-SW 242 0 min 0,000 mm 0,0 UV-I 7 W/m 9,4 C 8,0 C 14,5 km/h (3 Bft) 100,00 %
17.05.2018 05:38 11,0 C 16,1 C 90 % 1012,7 hPa 0,0 l/m 9,8 km/h (2 Bft) S-SW 208 0 min 0,000 mm 0,0 UV-I 7 W/m 9,4 C 8,8 C 14,5 km/h (3 Bft) 100,00 %
17.05.2018 05:39 11,0 C 16,1 C 90 % 1012,6 hPa 0,0 l/m 15,7 km/h (3 Bft) W 275 0 min 0,000 mm 0,0 UV-I 7 W/m 9,4 C 6,1 C 24,1 km/h (4 Bft) 100,00 %
17.05.2018 05:40 11,0 C 16,1 C 90 % 1012,6 hPa 0,0 l/m 13,4 km/h (3 Bft) W-SW 238 0 min 0,000 mm 0,0 UV-I 8 W/m 9,4 C 7,0 C 17,7 km/h (3 Bft) 96,30 %
17.05.2018 05:41 11,0 C 15,6 C 90 % 1012,6 hPa 0,0 l/m 16,8 km/h (3 Bft) W 269 0 min 0,000 mm 0,0 UV-I 9 W/m 9,4 C 5,7 C 20,9 km/h (4 Bft) 100,00 %
17.05.2018 05:42 11,0 C 15,6 C 90 % 1012,6 hPa 0,0 l/m 16,2 km/h (3 Bft) SW 232 0 min 0,000 mm 0,0 UV-I 9 W/m 9,4 C 5,9 C 22,5 km/h (4 Bft) 100,00 %
17.05.2018 05:43 11,0 C 15,6 C 90 % 1012,6 hPa 0,0 l/m 13,1 km/h (3 Bft) W-SW 257 0 min 0,000 mm 0,0 UV-I 9 W/m 9,4 C 7,2 C 17,7 km/h (3 Bft) 100,00 %
17.05.2018 05:44 11,0 C 16,1 C 90 % 1012,6 hPa 0,0 l/m 11,5 km/h (2 Bft) W-SW 250 0 min 0,000 mm 0,0 UV-I 9 W/m 9,4 C 7,9 C 16,1 km/h (3 Bft) 100,00 %
17.05.2018 05:45 11,0 C 16,1 C 90 % 1012,6 hPa 0,0 l/m 11,7 km/h (2 Bft) W-SW 247 0 min 0,000 mm 0,0 UV-I 9 W/m 9,4 C 7,8 C 17,7 km/h (3 Bft) 100,00 %
17.05.2018 05:46 11,0 C 15,6 C 90 % 1012,6 hPa 0,0 l/m 11,4 km/h (2 Bft) W 270 0 min 0,000 mm 0,0 UV-I 9 W/m 9,4 C 8,0 C 14,5 km/h (3 Bft) 100,00 %
17.05.2018 05:47 11,0 C 15,6 C 90 % 1012,6 hPa 0,0 l/m 13,1 km/h (3 Bft) SW 234 0 min 0,000 mm 0,0 UV-I 10 W/m 9,4 C 7,2 C 16,1 km/h (3 Bft) 100,00 %
17.05.2018 05:48 11,0 C 15,6 C 90 % 1012,5 hPa 0,0 l/m 16,2 km/h (3 Bft) SW 232 0 min 0,000 mm 0,0 UV-I 11 W/m 9,4 C 5,9 C 22,5 km/h (4 Bft) 100,00 %
17.05.2018 05:49 11,0 C 15,6 C 90 % 1012,6 hPa 0,0 l/m 16,2 km/h (3 Bft) W-SW 243 0 min 0,000 mm 0,0 UV-I 12 W/m 9,4 C 5,9 C 20,9 km/h (4 Bft) 100,00 %
17.05.2018 05:50 11,0 C 15,6 C 90 % 1012,6 hPa 0,0 l/m 14,7 km/h (3 Bft) W-SW 252 0 min 0,000 mm 0,0 UV-I 14 W/m 9,4 C 6,5 C 20,9 km/h (4 Bft) 91,30 %
17.05.2018 05:51 11,0 C 15,6 C 90 % 1012,5 hPa 0,0 l/m 12,5 km/h (3 Bft) SW 215 0 min 0,000 mm 0,0 UV-I 16 W/m 9,4 C 7,4 C 14,5 km/h (3 Bft) 100,00 %
17.05.2018 05:52 11,0 C 15,6 C 90 % 1012,5 hPa 0,0 l/m 12,8 km/h (3 Bft) W-SW 248 0 min 0,000 mm 0,0 UV-I 19 W/m 9,4 C 7,3 C 17,7 km/h (3 Bft) 93,10 %
17.05.2018 05:53 11,0 C 15,6 C 90 % 1012,5 hPa 0,0 l/m 11,6 km/h (2 Bft) W 274 0 min 0,000 mm 0,0 UV-I 22 W/m 9,4 C 7,9 C 16,1 km/h (3 Bft) 100,00 %
17.05.2018 05:54 11,0 C 15,6 C 90 % 1012,6 hPa 0,0 l/m 12,2 km/h (2 Bft) W 267 0 min 0,000 mm 0,0 UV-I 24 W/m 9,4 C 7,6 C 17,7 km/h (3 Bft) 92,68 %
17.05.2018 05:55 11,0 C 15,6 C 90 % 1012,6 hPa 0,0 l/m 11,3 km/h (2 Bft) SW 234 0 min 0,000 mm 0,0 UV-I 25 W/m 9,4 C 8,0 C 16,1 km/h (3 Bft) 91,67 %
17.05.2018 05:56 11,0 C 15,6 C 90 % 1012,6 hPa 0,0 l/m 15,3 km/h (3 Bft) W-SW 245 0 min 0,000 mm 0,0 UV-I 26 W/m 9,4 C 6,2 C 19,3 km/h (3 Bft) 100,00 %
17.05.2018 05:57 11,0 C 15,6 C 90 % 1012,6 hPa 0,0 l/m 12,5 km/h (3 Bft) SW 227 0 min 0,000 mm 0,0 UV-I 27 W/m 9,4 C 7,4 C 20,9 km/h (4 Bft) 97,37 %
17.05.2018 05:58 11,0 C 15,6 C 91 % 1012,6 hPa 0,0 l/m 15,6 km/h (3 Bft) W-SW 247 0 min 0,000 mm 0,0 UV-I 27 W/m 9,6 C 6,1 C 19,3 km/h (3 Bft) 93,10 %
17.05.2018 05:59 11,0 C 15,6 C 91 % 1012,6 hPa 0,0 l/m 13,6 km/h (3 Bft) W-SW 243 0 min 0,000 mm 0,0 UV-I 29 W/m 9,6 C 6,9 C 17,7 km/h (3 Bft) 100,00 %
17.05.2018 06:00 10,9 C 15,6 C 91 % 1012,6 hPa 0,0 l/m 15,4 km/h (3 Bft) W 263 0 min 0,025 mm 0,0 UV-I 30 W/m 9,5 C 6,1 C 20,9 km/h (4 Bft) 92,31 %
17.05.2018 06:01 11,0 C 15,6 C 91 % 1012,6 hPa 0,0 l/m 13,1 km/h (3 Bft) SW 231 0 min 0,000 mm 0,0 UV-I 30 W/m 9,6 C 7,2 C 19,3 km/h (3 Bft) 87,50 %
17.05.2018 06:02 11,0 C 15,6 C 90 % 1012,6 hPa 0,0 l/m 16,0 km/h (3 Bft) W-SW 246 0 min 0,000 mm 0,0 UV-I 34 W/m 9,4 C 6,0 C 20,9 km/h (4 Bft) 95,65 %
17.05.2018 06:03 11,0 C 15,6 C 91 % 1012,6 hPa 0,0 l/m 13,3 km/h (3 Bft) SW 229 0 min 0,000 mm 0,0 UV-I 38 W/m 9,6 C 7,1 C 17,7 km/h (3 Bft) 96,30 %
17.05.2018 06:04 11,0 C 15,6 C 90 % 1012,7 hPa 0,0 l/m 10,9 km/h (2 Bft) SW 229 0 min 0,000 mm 0,0 UV-I 41 W/m 9,4 C 8,2 C 12,9 km/h (3 Bft) 96,15 %
17.05.2018 06:05 11,0 C 15,6 C 90 % 1012,7 hPa 0,0 l/m 13,5 km/h (3 Bft) W-SW 239 0 min 0,000 mm 0,0 UV-I 45 W/m 9,4 C 7,0 C 24,1 km/h (4 Bft) 92,59 %
17.05.2018 06:06 11,0 C 15,6 C 91 % 1012,7 hPa 0,0 l/m 13,0 km/h (3 Bft) W-SW 250 0 min 0,000 mm 0,0 UV-I 46 W/m 9,6 C 7,2 C 17,7 km/h (3 Bft) 100,00 %
17.05.2018 06:07 11,0 C 15,6 C 90 % 1012,7 hPa 0,0 l/m 8,0 km/h (2 Bft) W-SW 250 0 min 0,000 mm 0,0 UV-I 47 W/m 9,4 C 9,9 C 11,3 km/h (2 Bft) 96,15 %
17.05.2018 06:08 11,0 C 15,6 C 91 % 1012,7 hPa 0,0 l/m 10,9 km/h (2 Bft) SW 234 0 min 0,000 mm 0,0 UV-I 47 W/m 9,6 C 8,2 C 14,5 km/h (3 Bft) 91,67 %
17.05.2018 06:09 11,0 C 15,6 C 91 % 1012,7 hPa 0,0 l/m 12,6 km/h (3 Bft) SW 235 0 min 0,000 mm 0,0 UV-I 50 W/m 9,6 C 7,4 C 17,7 km/h (3 Bft) 96,55 %
17.05.2018 06:10 11,1 C 15,6 C 91 % 1012,8 hPa 0,0 l/m 11,2 km/h (2 Bft) W-SW 247 0 min 0,000 mm 0,0 UV-I 52 W/m 9,7 C 8,2 C 17,7 km/h (3 Bft) 95,83 %
17.05.2018 06:11 11,0 C 15,6 C 91 % 1012,8 hPa 0,0 l/m 10,4 km/h (2 Bft) W 261 0 min 0,000 mm 0,0 UV-I 56 W/m 9,6 C 8,5 C 12,9 km/h (3 Bft) 93,10 %
17.05.2018 06:12 11,1 C 15,6 C 90 % 1012,8 hPa 0,0 l/m 12,0 km/h (2 Bft) W-SW 256 0 min 0,000 mm 0,0 UV-I 56 W/m 9,5 C 7,8 C 17,7 km/h (3 Bft) 92,59 %
17.05.2018 06:13 11,1 C 15,6 C 91 % 1012,8 hPa 0,0 l/m 10,8 km/h (2 Bft) W-SW 254 0 min 0,000 mm 0,0 UV-I 56 W/m 9,7 C 8,4 C 14,5 km/h (3 Bft) 95,65 %
17.05.2018 06:14 11,1 C 15,6 C 91 % 1012,8 hPa 0,0 l/m 12,2 km/h (2 Bft) W 259 0 min 0,000 mm 0,0 UV-I 55 W/m 9,7 C 7,7 C 16,1 km/h (3 Bft) 91,67 %
17.05.2018 06:15 11,1 C 15,6 C 91 % 1012,8 hPa 0,0 l/m 9,1 km/h (2 Bft) SW 230 0 min 0,000 mm 0,0 UV-I 54 W/m 9,7 C 9,3 C 14,5 km/h (3 Bft) 92,31 %
17.05.2018 06:16 11,1 C 15,6 C 90 % 1012,8 hPa 0,0 l/m 7,8 km/h (2 Bft) W 264 0 min 0,000 mm 0,0 UV-I 55 W/m 9,5 C 10,1 C 14,5 km/h (3 Bft) 95,83 %
17.05.2018 06:17 11,1 C 15,6 C 91 % 1012,8 hPa 0,0 l/m 9,8 km/h (2 Bft) W 262 0 min 0,000 mm 0,0 UV-I 57 W/m 9,7 C 8,9 C 12,9 km/h (3 Bft) 91,30 %
17.05.2018 06:18 11,1 C 15,6 C 91 % 1012,8 hPa 0,0 l/m 8,5 km/h (2 Bft) W-SW 257 0 min 0,000 mm 0,0 UV-I 56 W/m 9,7 C 9,7 C 14,5 km/h (3 Bft) 92,59 %
17.05.2018 06:19 11,1 C 15,6 C 90 % 1012,8 hPa 0,0 l/m 12,4 km/h (3 Bft) W-SW 237 0 min 0,000 mm 0,0 UV-I 54 W/m 9,5 C 7,6 C 17,7 km/h (3 Bft) 100,00 %
17.05.2018 06:20 11,1 C 15,6 C 90 % 1012,9 hPa 0,0 l/m 9,7 km/h (2 Bft) W 267 0 min 0,000 mm 0,0 UV-I 54 W/m 9,5 C 9,0 C 16,1 km/h (3 Bft) 92,59 %
17.05.2018 06:21 11,1 C 15,6 C 90 % 1012,8 hPa 0,0 l/m 9,4 km/h (2 Bft) W-SW 248 0 min 0,000 mm 0,0 UV-I 57 W/m 9,5 C 9,1 C 12,9 km/h (3 Bft) 93,75 %
17.05.2018 06:22 11,2 C 15,6 C 90 % 1012,8 hPa 0,0 l/m 8,6 km/h (2 Bft) W 260 0 min 0,000 mm 0,0 UV-I 58 W/m 9,6 C 9,7 C 12,9 km/h (3 Bft) 100,00 %
17.05.2018 06:23 11,2 C 15,6 C 91 % 1012,8 hPa 0,0 l/m 8,7 km/h (2 Bft) W-SW 249 0 min 0,000 mm 0,0 UV-I 58 W/m 9,8 C 9,7 C 11,3 km/h (2 Bft) 100,00 %
17.05.2018 06:24 11,2 C 15,6 C 90 % 1012,8 hPa 0,0 l/m 6,6 km/h (2 Bft) W 266 0 min 0,000 mm 0,0 UV-I 58 W/m 9,6 C 11,1 C 9,7 km/h (2 Bft) 97,73 %
17.05.2018 06:25 11,2 C 15,6 C 90 % 1012,9 hPa 0,0 l/m 7,8 km/h (2 Bft) SW 236 0 min 0,000 mm 0,0 UV-I 58 W/m 9,6 C 10,2 C 12,9 km/h (3 Bft) 91,30 %
17.05.2018 06:26 11,2 C 15,6 C 90 % 1012,9 hPa 0,0 l/m 10,4 km/h (2 Bft) SW 226 0 min 0,000 mm 0,0 UV-I 60 W/m 9,6 C 8,7 C 14,5 km/h (3 Bft) 100,00 %
17.05.2018 06:27 11,2 C 15,6 C 90 % 1012,8 hPa 0,0 l/m 12,5 km/h (3 Bft) W-SW 239 0 min 0,000 mm 0,0 UV-I 60 W/m 9,6 C 7,7 C 17,7 km/h (3 Bft) 91,67 %
17.05.2018 06:28 11,2 C 15,6 C 90 % 1012,8 hPa 0,0 l/m 7,9 km/h (2 Bft) SW 220 0 min 0,000 mm 0,0 UV-I 60 W/m 9,6 C 10,2 C 12,9 km/h (3 Bft) 100,00 %
17.05.2018 06:29 11,2 C 15,6 C 90 % 1012,9 hPa 0,0 l/m 11,2 km/h (2 Bft) W-SW 240 0 min 0,000 mm 0,0 UV-I 58 W/m 9,6 C 8,3 C 14,5 km/h (3 Bft) 95,83 %
17.05.2018 06:30 11,2 C 15,6 C 90 % 1012,9 hPa 0,0 l/m 14,2 km/h (3 Bft) W 271 0 min 0,000 mm 0,0 UV-I 58 W/m 9,6 C 6,9 C 19,3 km/h (3 Bft) 91,30 %
17.05.2018 06:31 11,2 C 15,6 C 90 % 1012,9 hPa 0,0 l/m 14,1 km/h (3 Bft) W-SW 248 0 min 0,000 mm 0,0 UV-I 56 W/m 9,6 C 7,0 C 19,3 km/h (3 Bft) 96,67 %
17.05.2018 06:32 11,3 C 15,6 C 90 % 1012,9 hPa 0,0 l/m 9,8 km/h (2 Bft) W-SW 237 0 min 0,000 mm 0,0 UV-I 56 W/m 9,7 C 9,1 C 16,1 km/h (3 Bft) 100,00 %
17.05.2018 06:33 11,3 C 15,6 C 90 % 1012,9 hPa 0,0 l/m 12,9 km/h (3 Bft) W-SW 239 0 min 0,000 mm 0,0 UV-I 57 W/m 9,7 C 7,6 C 17,7 km/h (3 Bft) 96,30 %
17.05.2018 06:34 11,3 C 15,6 C 90 % 1012,8 hPa 0,0 l/m 11,8 km/h (2 Bft) W-SW 249 0 min 0,000 mm 0,0 UV-I 58 W/m 9,7 C 8,1 C 16,1 km/h (3 Bft) 92,31 %
17.05.2018 06:35 11,3 C 15,6 C 90 % 1012,9 hPa 0,0 l/m 11,3 km/h (2 Bft) SW 233 0 min 0,000 mm 0,0 UV-I 58 W/m 9,7 C 8,4 C 17,7 km/h (3 Bft) 100,00 %
17.05.2018 06:36 11,3 C 15,6 C 90 % 1012,9 hPa 0,0 l/m 12,5 km/h (3 Bft) W-SW 243 0 min 0,000 mm 0,0 UV-I 56 W/m 9,7 C 7,8 C 17,7 km/h (3 Bft) 85,71 %
17.05.2018 06:37 11,3 C 15,6 C 90 % 1012,8 hPa 0,0 l/m 12,7 km/h (3 Bft) W-SW 245 0 min 0,000 mm 0,0 UV-I 56 W/m 9,7 C 7,7 C 17,7 km/h (3 Bft) 100,00 %
17.05.2018 06:38 11,3 C 15,6 C 90 % 1012,9 hPa 0,0 l/m 12,6 km/h (3 Bft) W-SW 254 0 min 0,000 mm 0,0 UV-I 54 W/m 9,7 C 7,7 C 17,7 km/h (3 Bft) 95,65 %
17.05.2018 06:39 11,4 C 15,6 C 90 % 1012,9 hPa 0,0 l/m 15,2 km/h (3 Bft) SW 229 0 min 0,000 mm 0,0 UV-I 53 W/m 9,8 C 6,8 C 17,7 km/h (3 Bft) 94,44 %
17.05.2018 06:40 11,4 C 15,6 C 90 % 1012,9 hPa 0,0 l/m 13,8 km/h (3 Bft) SW 234 0 min 0,000 mm 0,0 UV-I 53 W/m 9,8 C 7,3 C 17,7 km/h (3 Bft) 96,15 %
17.05.2018 06:41 11,4 C 15,6 C 90 % 1012,9 hPa 0,0 l/m 16,6 km/h (3 Bft) SW 235 0 min 0,000 mm 0,0 UV-I 53 W/m 9,8 C 6,2 C 22,5 km/h (4 Bft) 100,00 %
17.05.2018 06:42 11,4 C 15,6 C 90 % 1012,9 hPa 0,0 l/m 11,8 km/h (2 Bft) W-SW 239 0 min 0,000 mm 0,0 UV-I 54 W/m 9,8 C 8,2 C 16,1 km/h (3 Bft) 96,15 %
17.05.2018 06:43 11,4 C 15,6 C 90 % 1012,9 hPa 0,0 l/m 12,0 km/h (2 Bft) W-NW 293 0 min 0,000 mm 0,0 UV-I 57 W/m 9,8 C 8,1 C 17,7 km/h (3 Bft) 96,30 %
17.05.2018 06:44 11,4 C 15,6 C 90 % 1012,9 hPa 0,0 l/m 13,6 km/h (3 Bft) W-SW 244 0 min 0,000 mm 0,0 UV-I 59 W/m 9,8 C 7,4 C 17,7 km/h (3 Bft) 100,00 %
17.05.2018 06:45 11,4 C 15,6 C 90 % 1012,9 hPa 0,0 l/m 11,9 km/h (2 Bft) SW 236 0 min 0,000 mm 0,0 UV-I 60 W/m 9,8 C 8,2 C 16,1 km/h (3 Bft) 94,44 %
17.05.2018 06:46 11,4 C 15,6 C 90 % 1012,9 hPa 0,0 l/m 11,5 km/h (2 Bft) SW 221 0 min 0,000 mm 0,0 UV-I 62 W/m 9,8 C 8,4 C 16,1 km/h (3 Bft) 100,00 %
17.05.2018 06:47 11,4 C 15,6 C 90 % 1012,9 hPa 0,0 l/m 11,9 km/h (2 Bft) W-SW 258 0 min 0,000 mm 0,0 UV-I 63 W/m 9,8 C 8,2 C 17,7 km/h (3 Bft) 93,33 %
17.05.2018 06:48 11,5 C 15,6 C 89 % 1012,9 hPa 0,0 l/m 13,2 km/h (3 Bft) SW 228 0 min 0,000 mm 0,0 UV-I 65 W/m 9,8 C 7,7 C 17,7 km/h (3 Bft) 96,67 %
17.05.2018 06:49 11,5 C 15,6 C 90 % 1013,0 hPa 0,0 l/m 13,3 km/h (3 Bft) W-SW 239 0 min 0,000 mm 0,0 UV-I 65 W/m 9,9 C 7,7 C 17,7 km/h (3 Bft) 92,31 %
17.05.2018 06:50 11,5 C 15,6 C 89 % 1012,9 hPa 0,0 l/m 13,4 km/h (3 Bft) W-SW 254 0 min 0,000 mm 0,0 UV-I 69 W/m 9,8 C 7,6 C 19,3 km/h (3 Bft) 100,00 %
17.05.2018 06:51 11,5 C 15,6 C 89 % 1012,9 hPa 0,0 l/m 12,3 km/h (3 Bft) W 267 0 min 0,000 mm 0,0 UV-I 71 W/m 9,8 C 8,1 C 17,7 km/h (3 Bft) 95,65 %
17.05.2018 06:52 11,5 C 15,6 C 89 % 1013,0 hPa 0,0 l/m 11,5 km/h (2 Bft) SW 217 0 min 0,000 mm 0,0 UV-I 72 W/m 9,8 C 8,5 C 16,1 km/h (3 Bft) 100,00 %
17.05.2018 06:53 11,6 C 15,6 C 89 % 1013,0 hPa 0,0 l/m 14,8 km/h (3 Bft) W-SW 248 0 min 0,000 mm 0,0 UV-I 72 W/m 9,8 C 7,2 C 19,3 km/h (3 Bft) 96,15 %
17.05.2018 06:54 11,6 C 15,6 C 89 % 1013,0 hPa 0,0 l/m 12,8 km/h (3 Bft) W-SW 248 0 min 0,000 mm 0,0 UV-I 70 W/m 9,8 C 8,0 C 17,7 km/h (3 Bft) 100,00 %
17.05.2018 06:55 11,6 C 15,6 C 89 % 1013,1 hPa 0,0 l/m 13,8 km/h (3 Bft) W 265 0 min 0,000 mm 0,0 UV-I 70 W/m 9,8 C 7,6 C 22,5 km/h (4 Bft) 93,10 %
17.05.2018 06:56 11,6 C 15,6 C 89 % 1013,1 hPa 0,0 l/m 11,5 km/h (2 Bft) SW 217 0 min 0,000 mm 0,0 UV-I 69 W/m 9,8 C 8,6 C 14,5 km/h (3 Bft) 100,00 %
17.05.2018 06:57 11,6 C 15,6 C 89 % 1013,1 hPa 0,0 l/m 14,5 km/h (3 Bft) W 264 0 min 0,000 mm 0,0 UV-I 67 W/m 9,8 C 7,3 C 19,3 km/h (3 Bft) 96,15 %
17.05.2018 06:58 11,6 C 15,6 C 88 % 1013,2 hPa 0,0 l/m 13,8 km/h (3 Bft) W 264 0 min 0,000 mm 0,0 UV-I 64 W/m 9,7 C 7,6 C 17,7 km/h (3 Bft) 96,67 %
17.05.2018 06:59 11,6 C 15,6 C 88 % 1013,2 hPa 0,0 l/m 14,3 km/h (3 Bft) W-SW 252 0 min 0,000 mm 0,0 UV-I 62 W/m 9,7 C 7,4 C 22,5 km/h (4 Bft) 100,00 %
17.05.2018 07:00 11,6 C 15,6 C 88 % 1013,2 hPa 0,0 l/m 15,4 km/h (3 Bft) W 277 0 min 0,051 mm 0,0 UV-I 62 W/m 9,7 C 6,9 C 17,7 km/h (3 Bft) 100,00 %
17.05.2018 07:02 11,6 C 15,6 C 88 % 1013,1 hPa 0,0 l/m 9,7 km/h (2 Bft) SW 230 0 min 0,000 mm 0,0 UV-I 65 W/m 9,7 C 9,5 C 17,7 km/h (3 Bft) 100,00 %
17.05.2018 07:03 11,7 C 15,6 C 88 % 1013,1 hPa 0,0 l/m 13,1 km/h (3 Bft) W 272 0 min 0,000 mm 0,0 UV-I 70 W/m 9,8 C 8,0 C 24,1 km/h (4 Bft) 100,00 %
17.05.2018 07:04 11,7 C 15,6 C 88 % 1013,1 hPa 0,0 l/m 13,0 km/h (3 Bft) W 271 0 min 0,000 mm 0,0 UV-I 75 W/m 9,8 C 8,0 C 17,7 km/h (3 Bft) 100,00 %
17.05.2018 07:05 11,7 C 15,6 C 88 % 1013,1 hPa 0,0 l/m 10,6 km/h (2 Bft) W 263 0 min 0,000 mm 0,0 UV-I 79 W/m 9,8 C 9,2 C 14,5 km/h (3 Bft) 100,00 %
17.05.2018 07:06 11,7 C 15,6 C 88 % 1013,1 hPa 0,0 l/m 12,2 km/h (2 Bft) W-SW 250 0 min 0,000 mm 0,0 UV-I 81 W/m 9,8 C 8,4 C 19,3 km/h (3 Bft) 97,76 %
17.05.2018 07:07 11,7 C 15,6 C 88 % 1013,1 hPa 0,0 l/m 13,0 km/h (3 Bft) W-SW 252 0 min 0,000 mm 0,0 UV-I 84 W/m 9,8 C 8,0 C 20,9 km/h (4 Bft) 100,00 %
17.05.2018 07:08 11,7 C 15,6 C 88 % 1013,1 hPa 0,0 l/m 12,3 km/h (3 Bft) SW 233 0 min 0,000 mm 0,0 UV-I 86 W/m 9,8 C 8,3 C 17,7 km/h (3 Bft) 100,00 %
17.05.2018 07:09 11,7 C 15,6 C 88 % 1013,1 hPa 0,0 l/m 15,2 km/h (3 Bft) W 275 0 min 0,000 mm 0,0 UV-I 85 W/m 9,8 C 7,1 C 17,7 km/h (3 Bft) 100,00 %
17.05.2018 07:10 11,7 C 15,6 C 88 % 1013,1 hPa 0,0 l/m 11,7 km/h (2 Bft) SW 236 0 min 0,000 mm 0,0 UV-I 82 W/m 9,8 C 8,6 C 16,1 km/h (3 Bft) 100,00 %
17.05.2018 07:11 11,7 C 15,6 C 88 % 1013,1 hPa 0,0 l/m 7,2 km/h (2 Bft) W-SW 246 0 min 0,000 mm 0,0 UV-I 75 W/m 9,8 C 11,2 C 11,3 km/h (2 Bft) 100,00 %
17.05.2018 07:12 11,7 C 15,6 C 88 % 1013,1 hPa 0,0 l/m 8,6 km/h (2 Bft) SW 225 0 min 0,000 mm 0,0 UV-I 68 W/m 9,8 C 10,3 C 14,5 km/h (3 Bft) 100,00 %
17.05.2018 07:13 11,7 C 15,6 C 88 % 1013,1 hPa 0,0 l/m 11,3 km/h (2 Bft) SW 233 0 min 0,000 mm 0,0 UV-I 62 W/m 9,8 C 8,8 C 17,7 km/h (3 Bft) 100,00 %
17.05.2018 07:14 11,7 C 15,6 C 88 % 1013,2 hPa 0,0 l/m 12,9 km/h (3 Bft) W 279 0 min 0,000 mm 0,0 UV-I 57 W/m 9,8 C 8,1 C 16,1 km/h (3 Bft) 100,00 %
17.05.2018 07:15 11,7 C 15,6 C 88 % 1013,1 hPa 0,0 l/m 12,2 km/h (2 Bft) W 275 0 min 0,000 mm 0,0 UV-I 54 W/m 9,8 C 8,4 C 14,5 km/h (3 Bft) 96,30 %
17.05.2018 07:16 11,7 C 15,6 C 88 % 1013,2 hPa 0,0 l/m 10,7 km/h (2 Bft) W 271 0 min 0,000 mm 0,0 UV-I 51 W/m 9,8 C 9,1 C 14,5 km/h (3 Bft) 100,00 %
17.05.2018 07:17 11,7 C 15,6 C 88 % 1013,2 hPa 0,0 l/m 14,2 km/h (3 Bft) W 261 0 min 0,000 mm 0,0 UV-I 49 W/m 9,8 C 7,5 C 19,3 km/h (3 Bft) 100,00 %
17.05.2018 07:18 11,7 C 15,6 C 88 % 1013,2 hPa 0,0 l/m 14,3 km/h (3 Bft) W-SW 248 0 min 0,000 mm 0,0 UV-I 45 W/m 9,8 C 7,5 C 20,9 km/h (4 Bft) 91,30 %
17.05.2018 07:19 11,7 C 15,6 C 88 % 1013,2 hPa 0,0 l/m 15,9 km/h (3 Bft) W 274 0 min 0,000 mm 0,0 UV-I 40 W/m 9,8 C 6,9 C 22,5 km/h (4 Bft) 100,00 %
17.05.2018 07:20 11,7 C 15,6 C 88 % 1013,2 hPa 0,0 l/m 15,5 km/h (3 Bft) W 269 0 min 0,000 mm 0,0 UV-I 35 W/m 9,8 C 7,0 C 19,3 km/h (3 Bft) 100,00 %
17.05.2018 07:21 11,7 C 15,6 C 87 % 1013,2 hPa 0,0 l/m 12,5 km/h (3 Bft) W-SW 249 0 min 0,000 mm 0,0 UV-I 31 W/m 9,6 C 8,2 C 17,7 km/h (3 Bft) 100,00 %
17.05.2018 07:22 11,7 C 15,6 C 87 % 1013,2 hPa 0,0 l/m 13,1 km/h (3 Bft) W-SW 250 0 min 0,000 mm 0,0 UV-I 27 W/m 9,6 C 8,0 C 16,1 km/h (3 Bft) 100,00 %
17.05.2018 07:23 11,7 C 15,6 C 87 % 1013,2 hPa 0,0 l/m 13,9 km/h (3 Bft) W-NW 289 0 min 0,000 mm 0,0 UV-I 25 W/m 9,6 C 7,6 C 17,7 km/h (3 Bft) 100,00 %
17.05.2018 07:24 11,7 C 15,6 C 87 % 1013,2 hPa 0,0 l/m 12,7 km/h (3 Bft) W 277 0 min 0,000 mm 0,0 UV-I 24 W/m 9,6 C 8,2 C 17,7 km/h (3 Bft) 100,00 %
17.05.2018 07:25 11,7 C 15,6 C 87 % 1013,2 hPa 0,0 l/m 15,7 km/h (3 Bft) W-SW 237 0 min 0,000 mm 0,0 UV-I 25 W/m 9,6 C 6,9 C 20,9 km/h (4 Bft) 95,83 %
17.05.2018 07:26 11,7 C 15,6 C 87 % 1013,2 hPa 0,0 l/m 15,9 km/h (3 Bft) W-SW 250 0 min 0,000 mm 0,0 UV-I 27 W/m 9,6 C 6,9 C 22,5 km/h (4 Bft) 100,00 %
17.05.2018 07:27 11,7 C 15,6 C 87 % 1013,2 hPa 0,0 l/m 16,6 km/h (3 Bft) W 274 0 min 0,000 mm 0,0 UV-I 29 W/m 9,6 C 6,6 C 20,9 km/h (4 Bft) 91,67 %
17.05.2018 07:28 11,7 C 15,6 C 87 % 1013,2 hPa 0,0 l/m 12,5 km/h (3 Bft) SW 234 0 min 0,000 mm 0,0 UV-I 32 W/m 9,6 C 8,2 C 19,3 km/h (3 Bft) 96,30 %
17.05.2018 07:29 11,7 C 15,6 C 87 % 1013,2 hPa 0,0 l/m 13,9 km/h (3 Bft) SW 232 0 min 0,000 mm 0,0 UV-I 33 W/m 9,6 C 7,6 C 19,3 km/h (3 Bft) 100,00 %
17.05.2018 07:30 11,7 C 15,6 C 87 % 1013,3 hPa 0,0 l/m 9,7 km/h (2 Bft) W-SW 250 0 min 0,000 mm 0,0 UV-I 36 W/m 9,6 C 9,6 C 12,9 km/h (3 Bft) 100,00 %
17.05.2018 07:31 11,7 C 15,6 C 87 % 1013,2 hPa 0,0 l/m 13,6 km/h (3 Bft) SW 235 0 min 0,000 mm 0,0 UV-I 39 W/m 9,6 C 7,8 C 16,1 km/h (3 Bft) 100,00 %
17.05.2018 07:32 11,7 C 15,6 C 87 % 1013,2 hPa 0,0 l/m 11,0 km/h (2 Bft) W-SW 257 0 min 0,000 mm 0,0 UV-I 39 W/m 9,6 C 9,0 C 12,9 km/h (3 Bft) 100,00 %
17.05.2018 07:33 11,7 C 15,6 C 87 % 1013,2 hPa 0,0 l/m 11,3 km/h (2 Bft) W 259 0 min 0,000 mm 0,0 UV-I 37 W/m 9,6 C 8,8 C 16,1 km/h (3 Bft) 100,00 %
17.05.2018 07:34 11,7 C 15,6 C 88 % 1013,2 hPa 0,0 l/m 15,0 km/h (3 Bft) W-SW 246 0 min 0,000 mm 0,0 UV-I 39 W/m 9,8 C 7,2 C 19,3 km/h (3 Bft) 100,00 %
17.05.2018 07:35 11,7 C 15,6 C 88 % 1013,2 hPa 0,0 l/m 14,6 km/h (3 Bft) W-SW 241 0 min 0,000 mm 0,0 UV-I 40 W/m 9,8 C 7,4 C 19,3 km/h (3 Bft) 100,00 %
17.05.2018 07:36 11,7 C 15,6 C 88 % 1013,1 hPa 0,0 l/m 11,1 km/h (2 Bft) SW 219 0 min 0,000 mm 0,0 UV-I 45 W/m 9,8 C 8,9 C 16,1 km/h (3 Bft) 95,83 %
17.05.2018 07:37 11,7 C 15,6 C 88 % 1013,1 hPa 0,0 l/m 12,4 km/h (3 Bft) W-SW 254 0 min 0,000 mm 0,0 UV-I 46 W/m 9,8 C 8,3 C 14,5 km/h (3 Bft) 95,65 %
17.05.2018 07:38 11,7 C 15,6 C 88 % 1013,1 hPa 0,0 l/m 11,0 km/h (2 Bft) SW 227 0 min 0,000 mm 0,0 UV-I 48 W/m 9,8 C 9,0 C 17,7 km/h (3 Bft) 100,00 %
17.05.2018 07:39 11,7 C 15,6 C 88 % 1013,1 hPa 0,0 l/m 16,5 km/h (3 Bft) W-SW 244 0 min 0,000 mm 0,0 UV-I 49 W/m 9,8 C 6,6 C 24,1 km/h (4 Bft) 100,00 %
17.05.2018 07:40 11,7 C 15,6 C 88 % 1013,1 hPa 0,0 l/m 15,4 km/h (3 Bft) SW 226 0 min 0,000 mm 0,0 UV-I 51 W/m 9,8 C 7,0 C 22,5 km/h (4 Bft) 100,00 %
17.05.2018 07:41 11,7 C 15,6 C 88 % 1013,1 hPa 0,0 l/m 20,0 km/h (4 Bft) W-SW 244 0 min 0,000 mm 0,0 UV-I 53 W/m 9,8 C 5,5 C 29,0 km/h (5 Bft) 100,00 %
17.05.2018 07:42 11,7 C 15,6 C 87 % 1013,1 hPa 0,0 l/m 12,9 km/h (3 Bft) W-SW 247 0 min 0,000 mm 0,0 UV-I 50 W/m 9,6 C 8,1 C 25,7 km/h (4 Bft) 100,00 %
17.05.2018 07:43 11,7 C 15,6 C 88 % 1013,1 hPa 0,0 l/m 12,6 km/h (3 Bft) W-SW 254 0 min 0,000 mm 0,0 UV-I 49 W/m 9,8 C 8,2 C 17,7 km/h (3 Bft) 100,00 %
17.05.2018 07:44 11,7 C 15,6 C 88 % 1013,1 hPa 0,0 l/m 17,2 km/h (3 Bft) W-SW 248 0 min 0,000 mm 0,0 UV-I 49 W/m 9,8 C 6,4 C 24,1 km/h (4 Bft) 100,00 %
17.05.2018 07:45 11,7 C 15,6 C 88 % 1013,2 hPa 0,0 l/m 11,7 km/h (2 Bft) W 263 0 min 0,000 mm 0,0 UV-I 49 W/m 9,8 C 8,6 C 16,1 km/h (3 Bft) 100,00 %
17.05.2018 07:46 11,7 C 15,6 C 88 % 1013,2 hPa 0,0 l/m 13,0 km/h (3 Bft) W-SW 251 0 min 0,000 mm 0,0 UV-I 46 W/m 9,8 C 8,0 C 16,1 km/h (3 Bft) 100,00 %
17.05.2018 07:47 11,7 C 15,6 C 88 % 1013,2 hPa 0,0 l/m 12,5 km/h (3 Bft) W 262 0 min 0,000 mm 0,0 UV-I 44 W/m 9,8 C 8,2 C 22,5 km/h (4 Bft) 100,00 %
17.05.2018 07:48 11,7 C 15,6 C 88 % 1013,2 hPa 0,0 l/m 14,8 km/h (3 Bft) W-NW 290 0 min 0,000 mm 0,0 UV-I 45 W/m 9,8 C 7,3 C 22,5 km/h (4 Bft) 96,15 %
17.05.2018 07:49 11,7 C 15,6 C 88 % 1013,2 hPa 0,0 l/m 13,6 km/h (3 Bft) SW 215 0 min 0,000 mm 0,0 UV-I 44 W/m 9,8 C 7,8 C 19,3 km/h (3 Bft) 100,00 %
17.05.2018 07:50 11,7 C 15,6 C 88 % 1013,2 hPa 0,0 l/m 18,0 km/h (3 Bft) W-SW 248 0 min 0,000 mm 0,0 UV-I 43 W/m 9,8 C 6,1 C 25,7 km/h (4 Bft) 95,65 %
17.05.2018 07:51 11,7 C 15,6 C 87 % 1013,2 hPa 0,0 l/m 14,7 km/h (3 Bft) SW 232 0 min 0,000 mm 0,0 UV-I 40 W/m 9,6 C 7,3 C 19,3 km/h (3 Bft) 95,83 %
17.05.2018 07:53 11,7 C 15,6 C 87 % 1013,2 hPa 0,0 l/m 15,4 km/h (3 Bft) SW 221 0 min 0,000 mm 0,0 UV-I 39 W/m 9,6 C 7,0 C 24,1 km/h (4 Bft) 97,56 %
17.05.2018 07:54 11,7 C 15,6 C 87 % 1013,2 hPa 0,0 l/m 14,4 km/h (3 Bft) W-SW 253 0 min 0,000 mm 0,0 UV-I 39 W/m 9,6 C 7,4 C 19,3 km/h (3 Bft) 100,00 %
17.05.2018 07:55 11,7 C 15,6 C 88 % 1013,2 hPa 0,0 l/m 19,1 km/h (3 Bft) SW 231 0 min 0,000 mm 0,0 UV-I 40 W/m 9,8 C 5,8 C 22,5 km/h (4 Bft) 96,67 %
17.05.2018 07:56 11,7 C 15,6 C 88 % 1013,2 hPa 0,0 l/m 14,4 km/h (3 Bft) SW 231 0 min 0,000 mm 0,0 UV-I 39 W/m 9,8 C 7,4 C 20,9 km/h (4 Bft) 100,00 %
17.05.2018 07:57 11,7 C 15,6 C 88 % 1013,2 hPa 0,0 l/m 13,4 km/h (3 Bft) W 275 0 min 0,000 mm 0,0 UV-I 36 W/m 9,8 C 7,8 C 19,3 km/h (3 Bft) 96,30 %
17.05.2018 07:58 11,7 C 15,6 C 88 % 1013,2 hPa 0,0 l/m 15,5 km/h (3 Bft) W 272 0 min 0,000 mm 0,0 UV-I 33 W/m 9,8 C 7,0 C 20,9 km/h (4 Bft) 100,00 %
17.05.2018 07:59 11,7 C 15,6 C 87 % 1013,2 hPa 0,0 l/m 12,8 km/h (3 Bft) SW 227 0 min 0,000 mm 0,0 UV-I 33 W/m 9,6 C 8,1 C 17,7 km/h (3 Bft) 96,15 %
17.05.2018 08:00 11,7 C 15,6 C 87 % 1013,2 hPa 0,0 l/m 11,7 km/h (2 Bft) W 263 0 min 0,051 mm 0,0 UV-I 30 W/m 9,6 C 8,6 C 17,7 km/h (3 Bft) 100,00 %
17.05.2018 08:01 11,7 C 15,6 C 87 % 1013,2 hPa 0,0 l/m 13,6 km/h (3 Bft) W-NW 286 0 min 0,000 mm 0,0 UV-I 28 W/m 9,6 C 7,8 C 17,7 km/h (3 Bft) 93,75 %
17.05.2018 08:02 11,7 C 15,6 C 87 % 1013,2 hPa 0,0 l/m 10,4 km/h (2 Bft) W-SW 254 0 min 0,000 mm 0,0 UV-I 28 W/m 9,6 C 9,3 C 19,3 km/h (3 Bft) 100,00 %
17.05.2018 08:03 11,8 C 15,6 C 87 % 1013,2 hPa 0,0 l/m 11,8 km/h (2 Bft) SW 219 0 min 0,000 mm 0,0 UV-I 29 W/m 9,7 C 8,7 C 17,7 km/h (3 Bft) 96,88 %
17.05.2018 08:04 11,7 C 15,6 C 87 % 1013,2 hPa 0,0 l/m 14,2 km/h (3 Bft) W-NW 287 0 min 0,000 mm 0,0 UV-I 30 W/m 9,6 C 7,5 C 19,3 km/h (3 Bft) 96,30 %
17.05.2018 08:05 11,8 C 15,6 C 88 % 1013,2 hPa 0,0 l/m 14,2 km/h (3 Bft) W 270 0 min 0,000 mm 0,0 UV-I 30 W/m 9,9 C 7,6 C 17,7 km/h (3 Bft) 100,00 %
17.05.2018 08:06 11,8 C 15,6 C 87 % 1013,2 hPa 0,0 l/m 16,2 km/h (3 Bft) W 272 0 min 0,000 mm 0,0 UV-I 32 W/m 9,7 C 6,9 C 20,9 km/h (4 Bft) 95,83 %
17.05.2018 08:08 11,8 C 15,6 C 87 % 1013,2 hPa 0,0 l/m 13,7 km/h (3 Bft) W-SW 254 0 min 0,000 mm 0,0 UV-I 34 W/m 9,7 C 7,8 C 22,5 km/h (4 Bft) 98,11 %
17.05.2018 08:09 11,8 C 15,6 C 87 % 1013,3 hPa 0,0 l/m 14,7 km/h (3 Bft) SW 232 0 min 0,000 mm 0,0 UV-I 37 W/m 9,7 C 7,4 C 20,9 km/h (4 Bft) 100,00 %
17.05.2018 08:10 11,8 C 15,6 C 87 % 1013,3 hPa 0,0 l/m 13,6 km/h (3 Bft) W-SW 238 0 min 0,000 mm 0,0 UV-I 40 W/m 9,7 C 7,9 C 20,9 km/h (4 Bft) 96,97 %
17.05.2018 08:11 11,8 C 15,6 C 87 % 1013,3 hPa 0,0 l/m 12,1 km/h (2 Bft) W-SW 250 0 min 0,000 mm 0,0 UV-I 45 W/m 9,7 C 8,5 C 14,5 km/h (3 Bft) 92,31 %
17.05.2018 08:12 11,8 C 15,6 C 87 % 1013,3 hPa 0,0 l/m 12,1 km/h (2 Bft) SW 229 0 min 0,000 mm 0,0 UV-I 47 W/m 9,7 C 8,5 C 19,3 km/h (3 Bft) 100,00 %
17.05.2018 08:13 11,8 C 15,6 C 87 % 1013,2 hPa 0,0 l/m 13,8 km/h (3 Bft) W 264 0 min 0,000 mm 0,0 UV-I 47 W/m 9,7 C 7,8 C 19,3 km/h (3 Bft) 95,65 %
17.05.2018 08:14 11,8 C 15,6 C 87 % 1013,2 hPa 0,0 l/m 13,4 km/h (3 Bft) SW 217 0 min 0,000 mm 0,0 UV-I 46 W/m 9,7 C 8,0 C 19,3 km/h (3 Bft) 100,00 %
17.05.2018 08:15 11,8 C 15,6 C 87 % 1013,3 hPa 0,0 l/m 8,5 km/h (2 Bft) W-SW 246 0 min 0,000 mm 0,0 UV-I 47 W/m 9,7 C 10,4 C 12,9 km/h (3 Bft) 94,12 %
17.05.2018 08:16 11,8 C 15,6 C 87 % 1013,3 hPa 0,0 l/m 14,7 km/h (3 Bft) W-SW 251 0 min 0,000 mm 0,0 UV-I 49 W/m 9,7 C 7,4 C 27,4 km/h (4 Bft) 95,83 %
17.05.2018 08:17 11,8 C 15,6 C 87 % 1013,3 hPa 0,0 l/m 11,6 km/h (2 Bft) W-SW 250 0 min 0,000 mm 0,0 UV-I 50 W/m 9,7 C 8,8 C 17,7 km/h (3 Bft) 92,31 %
17.05.2018 08:18 11,8 C 15,6 C 87 % 1013,3 hPa 0,0 l/m 11,5 km/h (2 Bft) W-SW 248 0 min 0,000 mm 0,0 UV-I 53 W/m 9,7 C 8,8 C 14,5 km/h (3 Bft) 96,67 %
17.05.2018 08:19 11,9 C 15,6 C 87 % 1013,3 hPa 0,0 l/m 12,2 km/h (2 Bft) W 273 0 min 0,000 mm 0,0 UV-I 55 W/m 9,8 C 8,6 C 14,5 km/h (3 Bft) 100,00 %
17.05.2018 08:20 11,9 C 15,6 C 87 % 1013,3 hPa 0,0 l/m 14,9 km/h (3 Bft) W-SW 248 0 min 0,000 mm 0,0 UV-I 57 W/m 9,8 C 7,5 C 20,9 km/h (4 Bft) 96,15 %
17.05.2018 08:21 11,9 C 15,6 C 87 % 1013,3 hPa 0,0 l/m 15,3 km/h (3 Bft) W-SW 240 0 min 0,000 mm 0,0 UV-I 58 W/m 9,8 C 7,3 C 22,5 km/h (4 Bft) 100,00 %
17.05.2018 08:22 11,9 C 15,6 C 87 % 1013,3 hPa 0,0 l/m 14,7 km/h (3 Bft) W-SW 238 0 min 0,000 mm 0,0 UV-I 58 W/m 9,8 C 7,6 C 17,7 km/h (3 Bft) 95,65 %
17.05.2018 08:23 11,9 C 15,6 C 87 % 1013,4 hPa 0,0 l/m 16,4 km/h (3 Bft) W-SW 255 0 min 0,000 mm 0,0 UV-I 61 W/m 9,8 C 6,9 C 24,1 km/h (4 Bft) 96,30 %
17.05.2018 08:24 11,9 C 15,6 C 87 % 1013,4 hPa 0,0 l/m 17,5 km/h (3 Bft) W-SW 246 0 min 0,000 mm 0,0 UV-I 61 W/m 9,8 C 6,5 C 27,4 km/h (4 Bft) 96,15 %
17.05.2018 08:25 11,9 C 15,6 C 87 % 1013,4 hPa 0,0 l/m 15,5 km/h (3 Bft) W-SW 243 0 min 0,000 mm 0,0 UV-I 61 W/m 9,8 C 7,2 C 22,5 km/h (4 Bft) 100,00 %
17.05.2018 08:26 11,9 C 15,6 C 87 % 1013,4 hPa 0,0 l/m 16,0 km/h (3 Bft) SW 216 0 min 0,000 mm 0,0 UV-I 65 W/m 9,8 C 7,1 C 22,5 km/h (4 Bft) 100,00 %
17.05.2018 08:27 11,9 C 15,6 C 87 % 1013,4 hPa 0,0 l/m 14,7 km/h (3 Bft) SW 234 0 min 0,000 mm 0,0 UV-I 67 W/m 9,8 C 7,6 C 20,9 km/h (4 Bft) 100,00 %
17.05.2018 08:28 11,9 C 15,6 C 87 % 1013,3 hPa 0,0 l/m 16,6 km/h (3 Bft) W 263 0 min 0,000 mm 0,0 UV-I 65 W/m 9,8 C 6,8 C 19,3 km/h (3 Bft) 100,00 %
17.05.2018 08:29 11,9 C 15,6 C 87 % 1013,4 hPa 0,0 l/m 15,5 km/h (3 Bft) W 266 0 min 0,000 mm 0,0 UV-I 61 W/m 9,8 C 7,2 C 19,3 km/h (3 Bft) 100,00 %
17.05.2018 08:30 11,9 C 15,6 C 87 % 1013,3 hPa 0,0 l/m 11,4 km/h (2 Bft) W-SW 243 0 min 0,000 mm 0,0 UV-I 56 W/m 9,8 C 9,0 C 17,7 km/h (3 Bft) 100,00 %
17.05.2018 08:31 11,9 C 15,6 C 87 % 1013,3 hPa 0,0 l/m 14,1 km/h (3 Bft) W 261 0 min 0,000 mm 0,0 UV-I 53 W/m 9,8 C 7,8 C 19,3 km/h (3 Bft) 93,33 %
17.05.2018 08:32 11,9 C 15,6 C 87 % 1013,4 hPa 0,0 l/m 13,2 km/h (3 Bft) SW 232 0 min 0,000 mm 0,0 UV-I 51 W/m 9,8 C 8,2 C 19,3 km/h (3 Bft) 100,00 %
17.05.2018 08:33 11,9 C 15,6 C 87 % 1013,3 hPa 0,0 l/m 14,1 km/h (3 Bft) SW 234 0 min 0,000 mm 0,0 UV-I 54 W/m 9,8 C 7,8 C 17,7 km/h (3 Bft) 100,00 %
17.05.2018 08:34 11,9 C 15,6 C 86 % 1013,4 hPa 0,0 l/m 14,2 km/h (3 Bft) W 261 0 min 0,000 mm 0,0 UV-I 61 W/m 9,6 C 7,8 C 19,3 km/h (3 Bft) 100,00 %
17.05.2018 08:35 12,0 C 15,6 C 87 % 1013,4 hPa 0,0 l/m 10,0 km/h (2 Bft) W-SW 244 0 min 0,000 mm 0,0 UV-I 66 W/m 9,9 C 9,8 C 14,5 km/h (3 Bft) 100,00 %
17.05.2018 08:36 12,0 C 15,6 C 87 % 1013,4 hPa 0,0 l/m 11,5 km/h (2 Bft) SW 226 0 min 0,000 mm 0,0 UV-I 65 W/m 9,9 C 9,1 C 14,5 km/h (3 Bft) 100,00 %
17.05.2018 08:37 12,0 C 15,6 C 87 % 1013,4 hPa 0,0 l/m 16,1 km/h (3 Bft) W 265 0 min 0,000 mm 0,0 UV-I 61 W/m 9,9 C 7,1 C 19,3 km/h (3 Bft) 100,00 %
17.05.2018 08:38 12,0 C 15,6 C 87 % 1013,4 hPa 0,0 l/m 12,6 km/h (3 Bft) W-SW 246 0 min 0,000 mm 0,0 UV-I 57 W/m 9,9 C 8,5 C 16,1 km/h (3 Bft) 100,00 %
17.05.2018 08:39 12,0 C 15,6 C 86 % 1013,4 hPa 0,0 l/m 11,3 km/h (2 Bft) W 259 0 min 0,000 mm 0,0 UV-I 58 W/m 9,7 C 9,1 C 16,1 km/h (3 Bft) 100,00 %
17.05.2018 08:40 12,0 C 15,6 C 87 % 1013,4 hPa 0,0 l/m 12,2 km/h (2 Bft) W-SW 258 0 min 0,000 mm 0,0 UV-I 61 W/m 9,9 C 8,7 C 17,7 km/h (3 Bft) 100,00 %
17.05.2018 08:41 12,0 C 15,6 C 86 % 1013,4 hPa 0,0 l/m 14,6 km/h (3 Bft) W-SW 251 0 min 0,000 mm 0,0 UV-I 64 W/m 9,7 C 7,7 C 22,5 km/h (4 Bft) 100,00 %
17.05.2018 08:42 12,1 C 15,6 C 86 % 1013,4 hPa 0,0 l/m 16,6 km/h (3 Bft) W 260 0 min 0,000 mm 0,0 UV-I 68 W/m 9,8 C 7,1 C 22,5 km/h (4 Bft) 100,00 %
17.05.2018 08:43 12,1 C 15,6 C 86 % 1013,4 hPa 0,0 l/m 13,3 km/h (3 Bft) W-SW 251 0 min 0,000 mm 0,0 UV-I 69 W/m 9,8 C 8,4 C 16,1 km/h (3 Bft) 100,00 %
17.05.2018 08:44 12,1 C 15,6 C 86 % 1013,4 hPa 0,0 l/m 14,7 km/h (3 Bft) W 266 0 min 0,000 mm 0,0 UV-I 69 W/m 9,8 C 7,8 C 19,3 km/h (3 Bft) 100,00 %
17.05.2018 08:45 12,1 C 15,6 C 86 % 1013,3 hPa 0,0 l/m 12,6 km/h (3 Bft) W-SW 256 0 min 0,000 mm 0,0 UV-I 70 W/m 9,8 C 8,7 C 17,7 km/h (3 Bft) 100,00 %
17.05.2018 08:46 12,1 C 15,6 C 86 % 1013,3 hPa 0,0 l/m 13,6 km/h (3 Bft) W 267 0 min 0,000 mm 0,0 UV-I 75 W/m 9,8 C 8,2 C 16,1 km/h (3 Bft) 100,00 %
17.05.2018 08:47 12,1 C 15,6 C 86 % 1013,4 hPa 0,0 l/m 17,3 km/h (3 Bft) W-SW 246 0 min 0,000 mm 0,0 UV-I 75 W/m 9,8 C 6,9 C 22,5 km/h (4 Bft) 100,00 %
17.05.2018 08:48 12,1 C 15,6 C 86 % 1013,4 hPa 0,0 l/m 16,3 km/h (3 Bft) W-SW 238 0 min 0,000 mm 0,0 UV-I 74 W/m 9,8 C 7,2 C 20,9 km/h (4 Bft) 100,00 %
17.05.2018 08:49 12,1 C 15,6 C 86 % 1013,4 hPa 0,0 l/m 11,1 km/h (2 Bft) W 263 0 min 0,000 mm 0,0 UV-I 74 W/m 9,8 C 9,4 C 19,3 km/h (3 Bft) 100,00 %
17.05.2018 08:50 12,1 C 15,6 C 86 % 1013,4 hPa 0,0 l/m 12,3 km/h (3 Bft) W-SW 253 0 min 0,000 mm 0,0 UV-I 71 W/m 9,8 C 8,8 C 17,7 km/h (3 Bft) 100,00 %
17.05.2018 08:51 12,1 C 15,6 C 86 % 1013,4 hPa 0,0 l/m 15,3 km/h (3 Bft) W-SW 254 0 min 0,000 mm 0,0 UV-I 63 W/m 9,8 C 7,6 C 20,9 km/h (4 Bft) 100,00 %
17.05.2018 08:52 12,2 C 15,6 C 86 % 1013,4 hPa 0,0 l/m 15,9 km/h (3 Bft) W-SW 241 0 min 0,000 mm 0,0 UV-I 62 W/m 9,9 C 7,5 C 19,3 km/h (3 Bft) 100,00 %
17.05.2018 08:53 12,2 C 15,6 C 86 % 1013,4 hPa 0,0 l/m 17,5 km/h (3 Bft) W 268 0 min 0,000 mm 0,0 UV-I 64 W/m 9,9 C 6,9 C 22,5 km/h (4 Bft) 100,00 %
17.05.2018 08:54 12,1 C 15,6 C 86 % 1013,5 hPa 0,0 l/m 13,2 km/h (3 Bft) SW 234 0 min 0,000 mm 0,0 UV-I 66 W/m 9,8 C 8,4 C 20,9 km/h (4 Bft) 100,00 %
17.05.2018 08:55 12,2 C 15,6 C 86 % 1013,4 hPa 0,0 l/m 16,7 km/h (3 Bft) SW 231 0 min 0,000 mm 0,0 UV-I 67 W/m 9,9 C 7,2 C 20,9 km/h (4 Bft) 100,00 %
17.05.2018 08:56 12,2 C 15,6 C 86 % 1013,4 hPa 0,0 l/m 10,6 km/h (2 Bft) W 281 0 min 0,000 mm 0,0 UV-I 63 W/m 9,9 C 9,7 C 12,9 km/h (3 Bft) 100,00 %
17.05.2018 08:57 12,2 C 15,6 C 86 % 1013,5 hPa 0,0 l/m 13,8 km/h (3 Bft) W-SW 248 0 min 0,000 mm 0,0 UV-I 60 W/m 9,9 C 8,3 C 20,9 km/h (4 Bft) 100,00 %
17.05.2018 08:58 12,2 C 15,6 C 86 % 1013,5 hPa 0,0 l/m 11,7 km/h (2 Bft) W 267 0 min 0,000 mm 0,0 UV-I 50 W/m 9,9 C 9,2 C 14,5 km/h (3 Bft) 100,00 %
17.05.2018 08:59 12,2 C 15,6 C 86 % 1013,5 hPa 0,0 l/m 17,5 km/h (3 Bft) W 277 0 min 0,000 mm 0,0 UV-I 44 W/m 9,9 C 6,9 C 20,9 km/h (4 Bft) 100,00 %
17.05.2018 09:00 12,2 C 15,6 C 86 % 1013,5 hPa 0,0 l/m 14,1 km/h (3 Bft) SW 234 0 min 0,051 mm 0,0 UV-I 43 W/m 9,9 C 8,2 C 16,1 km/h (3 Bft) 100,00 %
17.05.2018 09:01 12,2 C 15,6 C 86 % 1013,5 hPa 0,0 l/m 13,3 km/h (3 Bft) W 268 0 min 0,000 mm 0,0 UV-I 46 W/m 9,9 C 8,5 C 19,3 km/h (3 Bft) 100,00 %
17.05.2018 09:02 12,2 C 15,6 C 86 % 1013,5 hPa 0,0 l/m 16,1 km/h (3 Bft) W 274 0 min 0,000 mm 0,0 UV-I 47 W/m 9,9 C 7,4 C 20,9 km/h (4 Bft) 100,00 %
17.05.2018 09:03 12,2 C 15,6 C 86 % 1013,5 hPa 0,0 l/m 16,8 km/h (3 Bft) W 267 0 min 0,000 mm 0,0 UV-I 47 W/m 9,9 C 7,1 C 20,9 km/h (4 Bft) 100,00 %
17.05.2018 09:04 12,2 C 15,6 C 86 % 1013,5 hPa 0,0 l/m 13,5 km/h (3 Bft) SW 225 0 min 0,000 mm 0,0 UV-I 47 W/m 9,9 C 8,4 C 19,3 km/h (3 Bft) 95,65 %
17.05.2018 09:05 12,2 C 15,6 C 86 % 1013,5 hPa 0,0 l/m 15,3 km/h (3 Bft) W 261 0 min 0,000 mm 0,0 UV-I 48 W/m 9,9 C 7,7 C 17,7 km/h (3 Bft) 100,00 %
17.05.2018 09:06 12,2 C 15,6 C 86 % 1013,5 hPa 0,0 l/m 14,5 km/h (3 Bft) W-SW 242 0 min 0,000 mm 0,0 UV-I 50 W/m 9,9 C 8,0 C 20,9 km/h (4 Bft) 96,15 %
17.05.2018 09:07 12,2 C 15,6 C 86 % 1013,5 hPa 0,0 l/m 13,0 km/h (3 Bft) W-SW 250 0 min 0,000 mm 0,0 UV-I 53 W/m 9,9 C 8,6 C 22,5 km/h (4 Bft) 100,00 %
17.05.2018 09:08 12,2 C 15,6 C 86 % 1013,5 hPa 0,0 l/m 16,2 km/h (3 Bft) W-SW 240 0 min 0,000 mm 0,0 UV-I 62 W/m 9,9 C 7,4 C 19,3 km/h (3 Bft) 100,00 %
17.05.2018 09:09 12,2 C 15,6 C 86 % 1013,5 hPa 0,0 l/m 11,4 km/h (2 Bft) W-SW 246 0 min 0,000 mm 0,0 UV-I 75 W/m 9,9 C 9,3 C 16,1 km/h (3 Bft) 96,77 %
17.05.2018 09:10 12,2 C 15,6 C 86 % 1013,5 hPa 0,0 l/m 16,1 km/h (3 Bft) W 273 0 min 0,000 mm 0,0 UV-I 79 W/m 9,9 C 7,4 C 24,1 km/h (4 Bft) 95,65 %
17.05.2018 09:11 12,2 C 15,6 C 85 % 1013,5 hPa 0,0 l/m 12,9 km/h (3 Bft) W 269 0 min 0,000 mm 0,0 UV-I 88 W/m 9,8 C 8,6 C 16,1 km/h (3 Bft) 100,00 %
17.05.2018 09:12 12,2 C 15,6 C 86 % 1013,6 hPa 0,0 l/m 7,8 km/h (2 Bft) SW 234 0 min 0,000 mm 0,0 UV-I 99 W/m 9,9 C 11,3 C 12,9 km/h (3 Bft) 100,00 %
17.05.2018 09:13 12,3 C 15,6 C 86 % 1013,5 hPa 0,0 l/m 10,1 km/h (2 Bft) W 275 0 min 0,000 mm 0,2 UV-I 111 W/m 10,0 C 10,1 C 11,3 km/h (2 Bft) 100,00 %
17.05.2018 09:14 12,3 C 15,6 C 86 % 1013,5 hPa 0,0 l/m 13,4 km/h (3 Bft) W 266 0 min 0,000 mm 0,5 UV-I 124 W/m 10,0 C 8,6 C 19,3 km/h (3 Bft) 95,83 %
17.05.2018 09:15 12,3 C 15,6 C 86 % 1013,5 hPa 0,0 l/m 11,5 km/h (2 Bft) W-SW 250 0 min 0,000 mm 0,6 UV-I 132 W/m 10,0 C 9,4 C 17,7 km/h (3 Bft) 96,15 %
17.05.2018 09:16 12,4 C 15,6 C 86 % 1013,5 hPa 0,0 l/m 9,6 km/h (2 Bft) SW 236 0 min 0,000 mm 0,6 UV-I 159 W/m 10,1 C 10,5 C 16,1 km/h (3 Bft) 95,65 %
17.05.2018 09:17 12,4 C 15,6 C 86 % 1013,5 hPa 0,0 l/m 13,8 km/h (3 Bft) W 281 0 min 0,000 mm 0,7 UV-I 176 W/m 10,1 C 8,5 C 16,1 km/h (3 Bft) 100,00 %
17.05.2018 09:18 12,5 C 15,6 C 86 % 1013,5 hPa 0,0 l/m 14,3 km/h (3 Bft) W 259 0 min 0,000 mm 0,8 UV-I 187 W/m 10,2 C 8,4 C 20,9 km/h (4 Bft) 100,00 %
17.05.2018 09:19 12,5 C 15,6 C 85 % 1013,5 hPa 0,0 l/m 16,2 km/h (3 Bft) W 272 0 min 0,000 mm 0,7 UV-I 187 W/m 10,0 C 7,7 C 20,9 km/h (4 Bft) 100,00 %
17.05.2018 09:20 12,6 C 15,6 C 85 % 1013,4 hPa 0,0 l/m 18,7 km/h (3 Bft) SW 231 0 min 0,000 mm 0,8 UV-I 190 W/m 10,1 C 7,0 C 22,5 km/h (4 Bft) 95,83 %
17.05.2018 09:21 12,6 C 15,6 C 85 % 1013,5 hPa 0,0 l/m 13,2 km/h (3 Bft) W-SW 255 0 min 0,000 mm 0,8 UV-I 196 W/m 10,1 C 9,0 C 19,3 km/h (3 Bft) 100,00 %
17.05.2018 09:22 12,6 C 15,6 C 85 % 1013,5 hPa 0,0 l/m 17,8 km/h (3 Bft) S-SW 210 0 min 0,000 mm 0,7 UV-I 180 W/m 10,1 C 7,3 C 22,5 km/h (4 Bft) 100,00 %
17.05.2018 09:23 12,7 C 15,6 C 85 % 1013,5 hPa 0,0 l/m 17,7 km/h (3 Bft) W-SW 243 0 min 0,000 mm 0,7 UV-I 171 W/m 10,2 C 7,5 C 22,5 km/h (4 Bft) 100,00 %
17.05.2018 09:24 12,7 C 15,6 C 84 % 1013,4 hPa 0,0 l/m 15,6 km/h (3 Bft) W 263 0 min 0,000 mm 0,7 UV-I 179 W/m 10,1 C 8,2 C 19,3 km/h (3 Bft) 100,00 %
17.05.2018 09:25 12,7 C 15,6 C 84 % 1013,5 hPa 0,0 l/m 12,5 km/h (3 Bft) SW 233 0 min 0,000 mm 0,8 UV-I 192 W/m 10,1 C 9,4 C 19,3 km/h (3 Bft) 100,00 %
17.05.2018 09:26 12,8 C 15,6 C 84 % 1013,5 hPa 0,0 l/m 12,3 km/h (3 Bft) W-SW 252 0 min 0,000 mm 0,8 UV-I 196 W/m 10,2 C 9,6 C 19,3 km/h (3 Bft) 100,00 %
17.05.2018 09:27 12,8 C 15,6 C 84 % 1013,4 hPa 0,0 l/m 17,7 km/h (3 Bft) W-SW 249 0 min 0,000 mm 0,8 UV-I 189 W/m 10,2 C 7,6 C 22,5 km/h (4 Bft) 92,86 %
17.05.2018 09:28 12,8 C 15,6 C 84 % 1013,5 hPa 0,0 l/m 17,6 km/h (3 Bft) W 263 0 min 0,000 mm 0,8 UV-I 186 W/m 10,2 C 7,6 C 22,5 km/h (4 Bft) 100,00 %
17.05.2018 09:29 12,8 C 15,6 C 84 % 1013,5 hPa 0,0 l/m 14,5 km/h (3 Bft) W 259 0 min 0,000 mm 0,8 UV-I 192 W/m 10,2 C 8,7 C 20,9 km/h (4 Bft) 100,00 %
17.05.2018 09:30 12,8 C 15,6 C 84 % 1013,5 hPa 0,0 l/m 13,0 km/h (3 Bft) SW 225 0 min 0,000 mm 0,8 UV-I 200 W/m 10,2 C 9,3 C 20,9 km/h (4 Bft) 100,00 %
17.05.2018 09:31 12,8 C 15,6 C 84 % 1013,5 hPa 0,0 l/m 11,5 km/h (2 Bft) W 264 0 min 0,000 mm 0,9 UV-I 209 W/m 10,2 C 10,0 C 14,5 km/h (3 Bft) 93,33 %
17.05.2018 09:32 12,9 C 15,6 C 84 % 1013,5 hPa 0,0 l/m 15,3 km/h (3 Bft) W 267 0 min 0,000 mm 0,8 UV-I 211 W/m 10,3 C 8,5 C 24,1 km/h (4 Bft) 100,00 %
17.05.2018 09:33 12,9 C 15,6 C 83 % 1013,6 hPa 0,0 l/m 19,4 km/h (3 Bft) SW 226 0 min 0,000 mm 0,8 UV-I 192 W/m 10,1 C 7,2 C 24,1 km/h (4 Bft) 96,15 %
17.05.2018 09:34 12,9 C 15,6 C 83 % 1013,5 hPa 0,0 l/m 15,2 km/h (3 Bft) W 265 0 min 0,000 mm 0,7 UV-I 171 W/m 10,1 C 8,6 C 20,9 km/h (4 Bft) 100,00 %
17.05.2018 09:35 12,9 C 15,6 C 83 % 1013,5 hPa 0,0 l/m 15,0 km/h (3 Bft) W-SW 243 0 min 0,000 mm 0,6 UV-I 142 W/m 10,1 C 8,6 C 19,3 km/h (3 Bft) 100,00 %
17.05.2018 09:36 12,9 C 15,6 C 83 % 1013,6 hPa 0,0 l/m 19,4 km/h (3 Bft) SW 234 0 min 0,000 mm 0,6 UV-I 129 W/m 10,1 C 7,2 C 22,5 km/h (4 Bft) 91,67 %
17.05.2018 09:37 12,9 C 15,6 C 82 % 1013,5 hPa 0,0 l/m 17,0 km/h (3 Bft) W 261 0 min 0,000 mm 0,5 UV-I 122 W/m 9,9 C 8,0 C 20,9 km/h (4 Bft) 100,00 %
17.05.2018 09:38 12,9 C 15,6 C 83 % 1013,5 hPa 0,0 l/m 14,8 km/h (3 Bft) SW 235 0 min 0,000 mm 0,5 UV-I 117 W/m 10,1 C 8,7 C 19,3 km/h (3 Bft) 100,00 %
17.05.2018 09:39 12,9 C 15,6 C 82 % 1013,6 hPa 0,0 l/m 12,2 km/h (2 Bft) W 261 0 min 0,000 mm 0,5 UV-I 120 W/m 9,9 C 9,8 C 14,5 km/h (3 Bft) 100,00 %
17.05.2018 09:40 12,9 C 15,6 C 83 % 1013,6 hPa 0,0 l/m 10,2 km/h (2 Bft) W 277 0 min 0,000 mm 0,5 UV-I 120 W/m 10,1 C 10,7 C 14,5 km/h (3 Bft) 88,46 %
17.05.2018 09:41 12,9 C 15,6 C 82 % 1013,6 hPa 0,0 l/m 15,6 km/h (3 Bft) W-SW 247 0 min 0,000 mm 0,5 UV-I 120 W/m 9,9 C 8,4 C 22,5 km/h (4 Bft) 100,00 %
17.05.2018 09:42 12,9 C 15,6 C 83 % 1013,6 hPa 0,0 l/m 16,2 km/h (3 Bft) SW 234 0 min 0,000 mm 0,5 UV-I 113 W/m 10,1 C 8,2 C 24,1 km/h (4 Bft) 100,00 %
17.05.2018 09:43 12,9 C 15,6 C 83 % 1013,6 hPa 0,0 l/m 17,1 km/h (3 Bft) W-SW 258 0 min 0,000 mm 0,5 UV-I 106 W/m 10,1 C 7,9 C 24,1 km/h (4 Bft) 100,00 %
17.05.2018 09:44 12,9 C 15,6 C 82 % 1013,6 hPa 0,0 l/m 20,1 km/h (4 Bft) W 267 0 min 0,000 mm 0,1 UV-I 98 W/m 9,9 C 7,0 C 25,7 km/h (4 Bft) 100,00 %
17.05.2018 09:45 12,9 C 15,6 C 82 % 1013,6 hPa 0,0 l/m 13,0 km/h (3 Bft) W 277 0 min 0,000 mm 0,1 UV-I 100 W/m 9,9 C 9,4 C 17,7 km/h (3 Bft) 100,00 %
17.05.2018 09:46 12,9 C 15,6 C 82 % 1013,6 hPa 0,0 l/m 8,1 km/h (2 Bft) W 260 0 min 0,000 mm 0,4 UV-I 102 W/m 9,9 C 11,8 C 11,3 km/h (2 Bft) 96,15 %
17.05.2018 09:47 12,9 C 15,6 C 83 % 1013,7 hPa 0,0 l/m 10,7 km/h (2 Bft) W 267 0 min 0,000 mm 0,0 UV-I 97 W/m 10,1 C 10,5 C 11,3 km/h (2 Bft) 100,00 %
17.05.2018 09:48 13,0 C 15,6 C 83 % 1013,6 hPa 0,0 l/m 9,7 km/h (2 Bft) W 271 0 min 0,000 mm 0,0 UV-I 97 W/m 10,2 C 11,1 C 14,5 km/h (3 Bft) 95,65 %
17.05.2018 09:49 13,0 C 15,6 C 83 % 1013,6 hPa 0,0 l/m 10,2 km/h (2 Bft) W-SW 254 0 min 0,000 mm 0,0 UV-I 97 W/m 10,2 C 10,8 C 19,3 km/h (3 Bft) 100,00 %
17.05.2018 09:50 13,0 C 15,6 C 83 % 1013,6 hPa 0,0 l/m 15,5 km/h (3 Bft) W 259 0 min 0,000 mm 0,4 UV-I 104 W/m 10,2 C 8,6 C 20,9 km/h (4 Bft) 96,15 %
17.05.2018 09:51 13,0 C 15,6 C 83 % 1013,6 hPa 0,0 l/m 14,8 km/h (3 Bft) W-SW 255 0 min 0,000 mm 0,4 UV-I 103 W/m 10,2 C 8,8 C 20,9 km/h (4 Bft) 100,00 %
17.05.2018 09:52 13,0 C 15,6 C 83 % 1013,6 hPa 0,0 l/m 13,5 km/h (3 Bft) W-SW 242 0 min 0,000 mm 0,0 UV-I 96 W/m 10,2 C 9,3 C 17,7 km/h (3 Bft) 95,83 %
17.05.2018 09:53 13,0 C 15,6 C 83 % 1013,6 hPa 0,0 l/m 11,1 km/h (2 Bft) W-NW 286 0 min 0,000 mm 0,0 UV-I 91 W/m 10,2 C 10,4 C 16,1 km/h (3 Bft) 96,55 %
17.05.2018 09:54 13,0 C 15,6 C 83 % 1013,7 hPa 0,0 l/m 17,4 km/h (3 Bft) SW 229 0 min 0,000 mm 0,4 UV-I 105 W/m 10,2 C 7,9 C 27,4 km/h (4 Bft) 100,00 %
17.05.2018 09:55 13,0 C 15,6 C 83 % 1013,7 hPa 0,0 l/m 13,8 km/h (3 Bft) W 275 0 min 0,000 mm 0,5 UV-I 122 W/m 10,2 C 9,2 C 17,7 km/h (3 Bft) 94,44 %
17.05.2018 09:56 13,1 C 15,6 C 83 % 1013,7 hPa 0,0 l/m 20,0 km/h (4 Bft) W 271 0 min 0,000 mm 0,6 UV-I 132 W/m 10,3 C 7,3 C 29,0 km/h (5 Bft) 100,00 %
17.05.2018 09:58 13,1 C 15,6 C 82 % 1013,7 hPa 0,0 l/m 17,3 km/h (3 Bft) W-SW 252 0 min 0,000 mm 0,6 UV-I 138 W/m 10,1 C 8,1 C 25,7 km/h (4 Bft) 97,73 %
17.05.2018 09:59 13,1 C 15,6 C 82 % 1013,7 hPa 0,0 l/m 16,5 km/h (3 Bft) SW 225 0 min 0,000 mm 0,6 UV-I 146 W/m 10,1 C 8,4 C 20,9 km/h (4 Bft) 92,31 %
17.05.2018 10:00 13,1 C 15,6 C 82 % 1013,7 hPa 0,0 l/m 17,8 km/h (3 Bft) W 261 0 min 0,000 mm 0,6 UV-I 148 W/m 10,1 C 7,9 C 24,1 km/h (4 Bft) 100,00 %
17.05.2018 10:01 13,1 C 15,6 C 82 % 1013,7 hPa 0,0 l/m 15,9 km/h (3 Bft) W 262 0 min 0,101 mm 0,6 UV-I 146 W/m 10,1 C 8,6 C 22,5 km/h (4 Bft) 92,31 %
17.05.2018 10:02 13,1 C 15,6 C 82 % 1013,7 hPa 0,0 l/m 13,3 km/h (3 Bft) N-NW 346 0 min 0,000 mm 0,6 UV-I 148 W/m 10,1 C 9,5 C 20,9 km/h (4 Bft) 95,83 %
17.05.2018 10:03 13,1 C 15,6 C 82 % 1013,7 hPa 0,0 l/m 15,2 km/h (3 Bft) W 272 0 min 0,000 mm 0,6 UV-I 146 W/m 10,1 C 8,8 C 22,5 km/h (4 Bft) 98,11 %
17.05.2018 10:04 13,2 C 15,6 C 82 % 1013,7 hPa 0,0 l/m 14,9 km/h (3 Bft) W-NW 284 0 min 0,000 mm 0,6 UV-I 148 W/m 10,2 C 9,0 C 17,7 km/h (3 Bft) 95,74 %
17.05.2018 10:05 13,2 C 15,6 C 82 % 1013,7 hPa 0,0 l/m 11,7 km/h (2 Bft) W-NW 283 0 min 0,000 mm 0,7 UV-I 165 W/m 10,2 C 10,3 C 14,5 km/h (3 Bft) 94,12 %
17.05.2018 10:06 13,2 C 15,6 C 82 % 1013,7 hPa 0,0 l/m 18,0 km/h (3 Bft) W-NW 298 0 min 0,000 mm 0,8 UV-I 176 W/m 10,2 C 8,0 C 22,5 km/h (4 Bft) 96,30 %
17.05.2018 10:07 13,2 C 15,6 C 82 % 1013,7 hPa 0,0 l/m 16,6 km/h (3 Bft) W 262 0 min 0,000 mm 0,8 UV-I 178 W/m 10,2 C 8,5 C 19,3 km/h (3 Bft) 93,10 %
17.05.2018 10:08 13,2 C 15,6 C 82 % 1013,7 hPa 0,0 l/m 8,8 km/h (2 Bft) W 270 0 min 0,000 mm 0,8 UV-I 181 W/m 10,2 C 11,8 C 14,5 km/h (3 Bft) 87,50 %
17.05.2018 10:09 13,3 C 15,6 C 82 % 1013,7 hPa 0,0 l/m 8,2 km/h (2 Bft) W-SW 258 0 min 0,000 mm 0,7 UV-I 165 W/m 10,3 C 12,2 C 11,3 km/h (2 Bft) 88,46 %
17.05.2018 10:10 13,3 C 15,6 C 82 % 1013,7 hPa 0,0 l/m 11,1 km/h (2 Bft) W 262 0 min 0,000 mm 0,6 UV-I 147 W/m 10,3 C 10,7 C 16,1 km/h (3 Bft) 91,67 %
17.05.2018 10:11 13,3 C 15,6 C 82 % 1013,7 hPa 0,0 l/m 13,5 km/h (3 Bft) W 260 0 min 0,000 mm 0,6 UV-I 143 W/m 10,3 C 9,7 C 17,7 km/h (3 Bft) 96,55 %
17.05.2018 10:12 13,3 C 15,6 C 81 % 1013,7 hPa 0,0 l/m 13,2 km/h (3 Bft) W-SW 257 0 min 0,000 mm 0,8 UV-I 144 W/m 10,1 C 9,8 C 22,5 km/h (4 Bft) 96,30 %
17.05.2018 10:13 13,3 C 15,6 C 81 % 1013,7 hPa 0,0 l/m 13,3 km/h (3 Bft) SW 224 0 min 0,000 mm 0,9 UV-I 188 W/m 10,1 C 9,8 C 17,7 km/h (3 Bft) 96,15 %
17.05.2018 10:14 13,3 C 15,6 C 81 % 1013,7 hPa 0,0 l/m 12,2 km/h (2 Bft) W-SW 257 0 min 0,000 mm 1,0 UV-I 213 W/m 10,1 C 10,2 C 19,3 km/h (3 Bft) 97,99 %
17.05.2018 10:15 13,3 C 15,6 C 82 % 1013,7 hPa 0,0 l/m 13,4 km/h (3 Bft) W 281 0 min 0,000 mm 1,1 UV-I 240 W/m 10,3 C 9,7 C 24,1 km/h (4 Bft) 95,24 %
17.05.2018 10:16 13,4 C 15,6 C 82 % 1013,7 hPa 0,0 l/m 11,6 km/h (2 Bft) W-SW 243 0 min 0,000 mm 1,1 UV-I 236 W/m 10,4 C 10,6 C 16,1 km/h (3 Bft) 96,15 %
17.05.2018 10:17 13,4 C 15,6 C 82 % 1013,7 hPa 0,0 l/m 17,9 km/h (3 Bft) W 271 0 min 0,000 mm 1,0 UV-I 211 W/m 10,4 C 8,3 C 24,1 km/h (4 Bft) 91,67 %
17.05.2018 10:18 13,4 C 15,6 C 82 % 1013,7 hPa 0,0 l/m 19,1 km/h (3 Bft) W-NW 286 0 min 0,000 mm 0,8 UV-I 190 W/m 10,4 C 7,9 C 30,6 km/h (5 Bft) 96,67 %
17.05.2018 10:19 13,4 C 15,6 C 81 % 1013,7 hPa 0,0 l/m 20,8 km/h (4 Bft) W-SW 237 0 min 0,000 mm 0,8 UV-I 187 W/m 10,2 C 7,5 C 25,7 km/h (4 Bft) 91,67 %
17.05.2018 10:20 13,4 C 15,6 C 81 % 1013,8 hPa 0,0 l/m 17,2 km/h (3 Bft) W-SW 249 0 min 0,000 mm 0,9 UV-I 196 W/m 10,2 C 8,5 C 24,1 km/h (4 Bft) 100,00 %
17.05.2018 10:21 13,4 C 15,6 C 81 % 1013,7 hPa 0,0 l/m 16,5 km/h (3 Bft) W 263 0 min 0,000 mm 1,1 UV-I 231 W/m 10,2 C 8,7 C 19,3 km/h (3 Bft) 88,89 %
17.05.2018 10:22 13,4 C 15,6 C 82 % 1013,7 hPa 0,0 l/m 11,3 km/h (2 Bft) W-SW 252 0 min 0,000 mm 1,3 UV-I 299 W/m 10,4 C 10,7 C 19,3 km/h (3 Bft) 100,00 %
17.05.2018 10:23 13,5 C 15,6 C 82 % 1013,8 hPa 0,0 l/m 13,4 km/h (3 Bft) W 271 0 min 0,000 mm 1,6 UV-I 373 W/m 10,5 C 10,0 C 16,1 km/h (3 Bft) 96,30 %
17.05.2018 10:24 13,6 C 15,6 C 81 % 1013,8 hPa 0,0 l/m 15,3 km/h (3 Bft) W-SW 251 0 min 0,000 mm 1,6 UV-I 384 W/m 10,4 C 9,4 C 20,9 km/h (4 Bft) 100,00 %
17.05.2018 10:25 13,7 C 15,6 C 81 % 1013,8 hPa 0,0 l/m 11,3 km/h (2 Bft) W-SW 254 0 min 0,000 mm 1,6 UV-I 366 W/m 10,5 C 11,1 C 17,7 km/h (3 Bft) 86,67 %
17.05.2018 10:26 13,8 C 15,6 C 82 % 1013,9 hPa 0,0 l/m 13,4 km/h (3 Bft) W 268 0 min 0,000 mm 1,6 UV-I 348 W/m 10,8 C 10,3 C 19,3 km/h (3 Bft) 100,00 %
17.05.2018 10:27 13,8 C 15,6 C 81 % 1013,9 hPa 0,0 l/m 19,1 km/h (3 Bft) W-SW 246 0 min 0,000 mm 1,5 UV-I 304 W/m 10,6 C 8,4 C 27,4 km/h (4 Bft) 92,59 %
17.05.2018 10:28 13,8 C 15,6 C 80 % 1013,7 hPa 0,0 l/m 20,3 km/h (4 Bft) W-SW 257 0 min 0,000 mm 1,3 UV-I 288 W/m 10,4 C 8,1 C 27,4 km/h (4 Bft) 96,15 %
17.05.2018 10:29 13,9 C 15,6 C 80 % 1013,9 hPa 0,0 l/m 14,4 km/h (3 Bft) W 273 0 min 0,000 mm 1,2 UV-I 284 W/m 10,5 C 10,1 C 20,9 km/h (4 Bft) 100,00 %
17.05.2018 10:30 13,9 C 15,6 C 80 % 1013,9 hPa 0,0 l/m 11,7 km/h (2 Bft) W 272 0 min 0,000 mm 1,2 UV-I 279 W/m 10,5 C 11,1 C 14,5 km/h (3 Bft) 96,55 %
17.05.2018 10:31 13,9 C 15,6 C 81 % 1013,7 hPa 0,0 l/m 13,6 km/h (3 Bft) W-NW 288 0 min 0,000 mm 1,3 UV-I 302 W/m 10,7 C 10,4 C 22,5 km/h (4 Bft) 96,30 %
17.05.2018 10:32 13,9 C 15,6 C 80 % 1013,9 hPa 0,0 l/m 8,8 km/h (2 Bft) W-SW 241 0 min 0,000 mm 1,3 UV-I 311 W/m 10,5 C 12,5 C 14,5 km/h (3 Bft) 91,67 %
17.05.2018 10:33 14,0 C 15,6 C 81 % 1013,8 hPa 0,0 l/m 11,9 km/h (2 Bft) W 267 0 min 0,000 mm 1,2 UV-I 279 W/m 10,8 C 11,2 C 17,7 km/h (3 Bft) 100,00 %
17.05.2018 10:34 14,0 C 15,6 C 80 % 1013,9 hPa 0,0 l/m 18,8 km/h (3 Bft) W 270 0 min 0,000 mm 1,1 UV-I 254 W/m 10,6 C 8,8 C 25,7 km/h (4 Bft) 95,83 %
17.05.2018 10:35 13,9 C 15,6 C 80 % 1013,9 hPa 0,0 l/m 20,2 km/h (4 Bft) W 267 0 min 0,000 mm 1,1 UV-I 246 W/m 10,5 C 8,3 C 24,1 km/h (4 Bft) 100,00 %
17.05.2018 10:36 13,9 C 15,6 C 80 % 1013,9 hPa 0,0 l/m 18,5 km/h (3 Bft) W 271 0 min 0,000 mm 1,1 UV-I 242 W/m 10,5 C 8,7 C 24,1 km/h (4 Bft) 96,30 %
17.05.2018 10:37 13,9 C 15,6 C 80 % 1013,7 hPa 0,0 l/m 17,3 km/h (3 Bft) W-SW 248 0 min 0,000 mm 1,0 UV-I 223 W/m 10,5 C 9,1 C 25,7 km/h (4 Bft) 100,00 %
17.05.2018 10:38 13,9 C 15,6 C 80 % 1013,8 hPa 0,0 l/m 15,2 km/h (3 Bft) W-SW 242 0 min 0,000 mm 1,0 UV-I 215 W/m 10,5 C 9,8 C 20,9 km/h (4 Bft) 96,30 %
17.05.2018 10:39 13,9 C 15,6 C 80 % 1013,8 hPa 0,0 l/m 14,5 km/h (3 Bft) W 259 0 min 0,000 mm 1,0 UV-I 207 W/m 10,5 C 10,0 C 17,7 km/h (3 Bft) 97,87 %
17.05.2018 10:40 13,9 C 15,6 C 80 % 1013,9 hPa 0,0 l/m 10,4 km/h (2 Bft) W 265 0 min 0,000 mm 0,9 UV-I 199 W/m 10,5 C 11,7 C 16,1 km/h (3 Bft) 95,45 %
17.05.2018 10:41 13,9 C 15,6 C 80 % 1013,8 hPa 0,0 l/m 9,9 km/h (2 Bft) W-NW 286 0 min 0,000 mm 0,9 UV-I 197 W/m 10,5 C 12,0 C 14,5 km/h (3 Bft) 96,55 %
17.05.2018 10:42 13,9 C 15,6 C 80 % 1013,8 hPa 0,0 l/m 11,8 km/h (2 Bft) W 276 0 min 0,000 mm 0,9 UV-I 196 W/m 10,5 C 11,1 C 17,7 km/h (3 Bft) 100,00 %
17.05.2018 10:43 13,9 C 15,6 C 81 % 1013,8 hPa 0,0 l/m 11,3 km/h (2 Bft) W 261 0 min 0,000 mm 1,0 UV-I 198 W/m 10,7 C 11,3 C 14,5 km/h (3 Bft) 97,14 %
17.05.2018 10:44 13,9 C 15,6 C 80 % 1013,8 hPa 0,0 l/m 7,0 km/h (2 Bft) W 262 0 min 0,000 mm 0,9 UV-I 192 W/m 10,5 C 13,5 C 11,3 km/h (2 Bft) 100,00 %
17.05.2018 10:45 13,9 C 15,6 C 80 % 1013,8 hPa 0,0 l/m 12,1 km/h (2 Bft) SW 235 0 min 0,000 mm 0,9 UV-I 192 W/m 10,5 C 11,0 C 17,7 km/h (3 Bft) 95,65 %
17.05.2018 10:46 14,0 C 15,6 C 80 % 1013,7 hPa 0,0 l/m 11,7 km/h (2 Bft) W-NW 294 0 min 0,000 mm 1,0 UV-I 198 W/m 10,6 C 11,2 C 17,7 km/h (3 Bft) 100,00 %
17.05.2018 10:47 14,0 C 15,6 C 80 % 1013,8 hPa 0,0 l/m 15,7 km/h (3 Bft) W-NW 282 0 min 0,000 mm 1,0 UV-I 196 W/m 10,6 C 9,7 C 20,9 km/h (4 Bft) 91,30 %
17.05.2018 10:48 14,0 C 15,6 C 80 % 1013,8 hPa 0,0 l/m 11,6 km/h (2 Bft) W 268 0 min 0,000 mm 1,0 UV-I 199 W/m 10,6 C 11,3 C 16,1 km/h (3 Bft) 95,83 %
17.05.2018 10:49 14,0 C 15,6 C 80 % 1013,8 hPa 0,0 l/m 13,7 km/h (3 Bft) W 262 0 min 0,000 mm 1,1 UV-I 206 W/m 10,6 C 10,4 C 22,5 km/h (4 Bft) 100,00 %
17.05.2018 10:50 14,0 C 15,6 C 80 % 1013,7 hPa 0,0 l/m 14,3 km/h (3 Bft) SW 229 0 min 0,000 mm 1,1 UV-I 223 W/m 10,6 C 10,2 C 22,5 km/h (4 Bft) 100,00 %
17.05.2018 10:51 14,0 C 15,6 C 80 % 1013,7 hPa 0,0 l/m 17,0 km/h (3 Bft) W-SW 253 0 min 0,000 mm 1,0 UV-I 208 W/m 10,6 C 9,3 C 22,5 km/h (4 Bft) 96,55 %
17.05.2018 10:52 14,0 C 15,6 C 79 % 1013,8 hPa 0,0 l/m 22,7 km/h (4 Bft) W 259 0 min 0,000 mm 0,9 UV-I 185 W/m 10,4 C 7,8 C 27,4 km/h (4 Bft) 96,30 %
17.05.2018 10:53 14,0 C 15,6 C 79 % 1013,8 hPa 0,0 l/m 13,4 km/h (3 Bft) W-SW 246 0 min 0,000 mm 1,0 UV-I 195 W/m 10,4 C 10,6 C 19,3 km/h (3 Bft) 100,00 %
17.05.2018 10:54 14,0 C 15,6 C 79 % 1013,9 hPa 0,0 l/m 15,2 km/h (3 Bft) W 267 0 min 0,000 mm 1,0 UV-I 216 W/m 10,4 C 9,9 C 24,1 km/h (4 Bft) 91,30 %
17.05.2018 10:55 14,0 C 15,6 C 79 % 1013,8 hPa 0,0 l/m 15,2 km/h (3 Bft) W-SW 252 0 min 0,000 mm 1,0 UV-I 204 W/m 10,4 C 9,9 C 22,5 km/h (4 Bft) 100,00 %
17.05.2018 10:56 14,0 C 15,6 C 79 % 1013,9 hPa 0,0 l/m 12,3 km/h (3 Bft) W 272 0 min 0,000 mm 0,9 UV-I 188 W/m 10,4 C 11,0 C 17,7 km/h (3 Bft) 95,65 %
17.05.2018 10:57 14,0 C 15,6 C 79 % 1013,8 hPa 0,0 l/m 14,7 km/h (3 Bft) W-NW 290 0 min 0,000 mm 0,8 UV-I 164 W/m 10,4 C 10,1 C 19,3 km/h (3 Bft) 100,00 %
17.05.2018 10:58 14,0 C 15,6 C 80 % 1013,9 hPa 0,0 l/m 9,3 km/h (2 Bft) W 272 0 min 0,000 mm 0,7 UV-I 157 W/m 10,6 C 12,4 C 19,3 km/h (3 Bft) 95,65 %
17.05.2018 10:59 14,0 C 15,6 C 80 % 1013,9 hPa 0,0 l/m 16,4 km/h (3 Bft) W-SW 239 0 min 0,000 mm 0,8 UV-I 161 W/m 10,6 C 9,5 C 19,3 km/h (3 Bft) 100,00 %
17.05.2018 11:00 14,0 C 15,6 C 80 % 1013,8 hPa 0,0 l/m 19,5 km/h (3 Bft) W 270 0 min 0,153 mm 0,8 UV-I 162 W/m 10,6 C 8,6 C 25,7 km/h (4 Bft) 92,31 %
17.05.2018 11:01 14,0 C 15,6 C 79 % 1013,9 hPa 0,0 l/m 16,1 km/h (3 Bft) W-SW 250 0 min 0,000 mm 0,7 UV-I 152 W/m 10,4 C 9,6 C 20,9 km/h (4 Bft) 100,00 %
17.05.2018 11:02 13,9 C 15,6 C 79 % 1013,9 hPa 0,0 l/m 12,5 km/h (3 Bft) W-SW 251 0 min 0,000 mm 0,7 UV-I 140 W/m 10,3 C 10,8 C 19,3 km/h (3 Bft) 95,65 %
17.05.2018 11:03 13,9 C 15,6 C 79 % 1013,9 hPa 0,0 l/m 13,6 km/h (3 Bft) SW 229 0 min 0,000 mm 0,6 UV-I 131 W/m 10,3 C 10,4 C 17,7 km/h (3 Bft) 96,30 %
17.05.2018 11:04 13,9 C 15,6 C 79 % 1013,9 hPa 0,0 l/m 12,3 km/h (3 Bft) W 263 0 min 0,000 mm 0,6 UV-I 124 W/m 10,3 C 10,9 C 17,7 km/h (3 Bft) 100,00 %
17.05.2018 11:05 13,9 C 15,6 C 80 % 1013,9 hPa 0,0 l/m 15,0 km/h (3 Bft) W-NW 286 0 min 0,000 mm 0,5 UV-I 116 W/m 10,5 C 9,9 C 20,9 km/h (4 Bft) 92,31 %
17.05.2018 11:06 13,9 C 15,6 C 80 % 1013,9 hPa 0,0 l/m 7,5 km/h (2 Bft) SW 229 0 min 0,000 mm 0,5 UV-I 107 W/m 10,5 C 13,2 C 14,5 km/h (3 Bft) 100,00 %
17.05.2018 11:07 13,9 C 15,6 C 80 % 1013,9 hPa 0,0 l/m 7,8 km/h (2 Bft) W-SW 257 0 min 0,000 mm 0,5 UV-I 106 W/m 10,5 C 13,1 C 12,9 km/h (3 Bft) 93,33 %
17.05.2018 11:08 13,9 C 15,6 C 80 % 1013,9 hPa 0,0 l/m 12,4 km/h (3 Bft) W 264 0 min 0,000 mm 0,5 UV-I 113 W/m 10,5 C 10,8 C 14,5 km/h (3 Bft) 100,00 %
17.05.2018 11:09 13,9 C 15,6 C 80 % 1013,9 hPa 0,0 l/m 12,9 km/h (3 Bft) W 263 0 min 0,000 mm 0,6 UV-I 120 W/m 10,5 C 10,6 C 16,1 km/h (3 Bft) 95,00 %
17.05.2018 11:10 13,9 C 15,6 C 80 % 1013,9 hPa 0,0 l/m 9,5 km/h (2 Bft) W-SW 243 0 min 0,000 mm 0,5 UV-I 116 W/m 10,5 C 12,1 C 14,5 km/h (3 Bft) 100,00 %
17.05.2018 11:11 13,9 C 15,6 C 80 % 1013,9 hPa 0,0 l/m 10,9 km/h (2 Bft) W-SW 253 0 min 0,000 mm 0,5 UV-I 107 W/m 10,5 C 11,5 C 14,5 km/h (3 Bft) 95,65 %
17.05.2018 11:12 13,9 C 15,6 C 80 % 1013,9 hPa 0,0 l/m 12,2 km/h (2 Bft) W-SW 254 0 min 0,000 mm 0,1 UV-I 94 W/m 10,5 C 10,9 C 17,7 km/h (3 Bft) 96,88 %
17.05.2018 11:13 13,9 C 15,6 C 80 % 1014,0 hPa 0,0 l/m 15,8 km/h (3 Bft) W 266 0 min 0,000 mm 0,0 UV-I 88 W/m 10,5 C 9,6 C 32,2 km/h (5 Bft) 100,00 %
17.05.2018 11:14 13,9 C 15,6 C 79 % 1014,0 hPa 0,0 l/m 19,1 km/h (3 Bft) NW 311 0 min 0,000 mm 0,0 UV-I 88 W/m 10,3 C 8,6 C 25,7 km/h (4 Bft) 100,00 %
17.05.2018 11:15 13,9 C 15,6 C 79 % 1013,9 hPa 0,0 l/m 17,2 km/h (3 Bft) W-NW 287 0 min 0,000 mm 0,0 UV-I 88 W/m 10,3 C 9,1 C 22,5 km/h (4 Bft) 96,15 %
17.05.2018 11:16 13,9 C 15,6 C 79 % 1013,9 hPa 0,0 l/m 16,2 km/h (3 Bft) W 263 0 min 0,000 mm 0,0 UV-I 87 W/m 10,3 C 9,5 C 22,5 km/h (4 Bft) 100,00 %
17.05.2018 11:18 13,9 C 15,6 C 79 % 1013,9 hPa 0,0 l/m 12,1 km/h (2 Bft) W-NW 296 0 min 0,000 mm 0,2 UV-I 90 W/m 10,3 C 11,0 C 19,3 km/h (3 Bft) 97,73 %
17.05.2018 11:19 13,8 C 15,6 C 79 % 1013,9 hPa 0,0 l/m 13,0 km/h (3 Bft) W 268 0 min 0,000 mm 0,0 UV-I 90 W/m 10,2 C 10,5 C 16,1 km/h (3 Bft) 100,00 %
17.05.2018 11:20 13,8 C 15,6 C 79 % 1013,9 hPa 0,0 l/m 14,8 km/h (3 Bft) W-SW 253 0 min 0,000 mm 0,0 UV-I 90 W/m 10,2 C 9,8 C 19,3 km/h (3 Bft) 97,82 %
17.05.2018 11:21 13,8 C 15,6 C 79 % 1013,9 hPa 0,0 l/m 12,5 km/h (3 Bft) W 266 0 min 0,000 mm 0,2 UV-I 93 W/m 10,2 C 10,7 C 17,7 km/h (3 Bft) 100,00 %
17.05.2018 11:22 13,8 C 15,6 C 79 % 1013,9 hPa 0,0 l/m 13,9 km/h (3 Bft) W 278 0 min 0,000 mm 0,5 UV-I 99 W/m 10,2 C 10,1 C 19,3 km/h (3 Bft) 100,00 %
17.05.2018 11:23 13,8 C 15,6 C 79 % 1013,9 hPa 0,0 l/m 18,5 km/h (3 Bft) W 265 0 min 0,000 mm 0,5 UV-I 100 W/m 10,2 C 8,6 C 24,1 km/h (4 Bft) 100,00 %
17.05.2018 11:24 13,8 C 15,6 C 79 % 1013,9 hPa 0,0 l/m 13,5 km/h (3 Bft) W 262 0 min 0,000 mm 0,5 UV-I 95 W/m 10,2 C 10,3 C 19,3 km/h (3 Bft) 100,00 %
17.05.2018 11:25 13,8 C 15,6 C 79 % 1013,9 hPa 0,0 l/m 17,4 km/h (3 Bft) W-SW 252 0 min 0,000 mm 0,5 UV-I 87 W/m 10,2 C 8,9 C 24,1 km/h (4 Bft) 100,00 %
17.05.2018 11:26 13,8 C 15,6 C 79 % 1014,0 hPa 0,0 l/m 13,3 km/h (3 Bft) W-SW 251 0 min 0,000 mm 0,5 UV-I 87 W/m 10,2 C 10,4 C 24,1 km/h (4 Bft) 100,00 %
17.05.2018 11:27 13,8 C 15,6 C 79 % 1014,0 hPa 0,0 l/m 13,9 km/h (3 Bft) W 267 0 min 0,000 mm 0,5 UV-I 88 W/m 10,2 C 10,1 C 17,7 km/h (3 Bft) 100,00 %
17.05.2018 11:28 13,8 C 15,6 C 80 % 1014,0 hPa 0,0 l/m 13,0 km/h (3 Bft) W 271 0 min 0,000 mm 0,5 UV-I 91 W/m 10,4 C 10,5 C 16,1 km/h (3 Bft) 100,00 %
17.05.2018 11:29 13,8 C 15,6 C 80 % 1014,0 hPa 0,0 l/m 15,2 km/h (3 Bft) W-SW 248 0 min 0,000 mm 0,5 UV-I 93 W/m 10,4 C 9,7 C 20,9 km/h (4 Bft) 100,00 %
17.05.2018 11:30 13,8 C 15,6 C 80 % 1013,9 hPa 0,0 l/m 12,7 km/h (3 Bft) W 281 0 min 0,000 mm 0,5 UV-I 98 W/m 10,4 C 10,6 C 16,1 km/h (3 Bft) 100,00 %
17.05.2018 11:31 13,8 C 15,6 C 80 % 1013,9 hPa 0,0 l/m 14,6 km/h (3 Bft) W-SW 253 0 min 0,000 mm 0,5 UV-I 100 W/m 10,4 C 9,9 C 19,3 km/h (3 Bft) 100,00 %
17.05.2018 11:32 13,8 C 15,6 C 79 % 1014,0 hPa 0,0 l/m 23,0 km/h (4 Bft) W 262 0 min 0,000 mm 0,5 UV-I 98 W/m 10,2 C 7,4 C 30,6 km/h (5 Bft) 100,00 %
17.05.2018 11:33 13,8 C 15,6 C 79 % 1014,0 hPa 0,0 l/m 21,5 km/h (4 Bft) W 275 0 min 0,000 mm 0,5 UV-I 93 W/m 10,2 C 7,8 C 27,4 km/h (4 Bft) 100,00 %
17.05.2018 11:34 13,8 C 15,6 C 79 % 1014,0 hPa 0,0 l/m 18,4 km/h (3 Bft) SW 233 0 min 0,000 mm 0,5 UV-I 96 W/m 10,2 C 8,6 C 25,7 km/h (4 Bft) 96,15 %
17.05.2018 11:35 13,8 C 15,6 C 79 % 1014,0 hPa 0,0 l/m 15,4 km/h (3 Bft) S-SW 211 0 min 0,000 mm 0,5 UV-I 97 W/m 10,2 C 9,6 C 19,3 km/h (3 Bft) 95,83 %
17.05.2018 11:36 13,8 C 15,6 C 79 % 1014,0 hPa 0,0 l/m 20,7 km/h (4 Bft) W 275 0 min 0,000 mm 0,5 UV-I 97 W/m 10,2 C 8,0 C 30,6 km/h (5 Bft) 96,15 %
17.05.2018 11:37 13,8 C 15,6 C 79 % 1014,0 hPa 0,0 l/m 16,6 km/h (3 Bft) W 271 0 min 0,000 mm 0,5 UV-I 105 W/m 10,2 C 9,2 C 24,1 km/h (4 Bft) 100,00 %
17.05.2018 11:38 13,8 C 15,6 C 79 % 1014,0 hPa 0,0 l/m 15,7 km/h (3 Bft) W 273 0 min 0,000 mm 0,6 UV-I 114 W/m 10,2 C 9,5 C 19,3 km/h (3 Bft) 100,00 %
17.05.2018 11:39 13,8 C 15,6 C 79 % 1014,0 hPa 0,0 l/m 13,3 km/h (3 Bft) W-SW 245 0 min 0,000 mm 0,6 UV-I 121 W/m 10,2 C 10,4 C 17,7 km/h (3 Bft) 100,00 %
17.05.2018 11:40 13,8 C 15,6 C 79 % 1014,0 hPa 0,0 l/m 15,8 km/h (3 Bft) W 263 0 min 0,000 mm 0,7 UV-I 127 W/m 10,2 C 9,5 C 19,3 km/h (3 Bft) 100,00 %
17.05.2018 11:41 13,8 C 15,6 C 79 % 1014,0 hPa 0,0 l/m 10,7 km/h (2 Bft) W 263 0 min 0,000 mm 0,7 UV-I 126 W/m 10,2 C 11,5 C 16,1 km/h (3 Bft) 100,00 %
17.05.2018 11:42 13,8 C 15,6 C 79 % 1014,0 hPa 0,0 l/m 18,9 km/h (3 Bft) W 269 0 min 0,000 mm 0,6 UV-I 120 W/m 10,2 C 8,5 C 25,7 km/h (4 Bft) 96,15 %
17.05.2018 11:43 13,8 C 15,6 C 79 % 1014,1 hPa 0,0 l/m 18,3 km/h (3 Bft) W-SW 258 0 min 0,000 mm 0,6 UV-I 112 W/m 10,2 C 8,7 C 25,7 km/h (4 Bft) 100,00 %
17.05.2018 11:44 13,9 C 15,6 C 79 % 1014,1 hPa 0,0 l/m 17,8 km/h (3 Bft) W-SW 249 0 min 0,000 mm 0,6 UV-I 107 W/m 10,3 C 9,0 C 22,5 km/h (4 Bft) 95,65 %
17.05.2018 11:45 13,9 C 15,6 C 79 % 1014,0 hPa 0,0 l/m 24,7 km/h (4 Bft) W 267 0 min 0,000 mm 0,6 UV-I 105 W/m 10,3 C 7,2 C 33,8 km/h (5 Bft) 100,00 %
17.05.2018 11:46 13,9 C 15,6 C 78 % 1014,1 hPa 0,0 l/m 19,2 km/h (3 Bft) W 273 0 min 0,000 mm 0,6 UV-I 108 W/m 10,1 C 8,5 C 27,4 km/h (4 Bft) 100,00 %
17.05.2018 11:47 13,9 C 15,6 C 78 % 1014,1 hPa 0,0 l/m 18,2 km/h (3 Bft) W 268 0 min 0,000 mm 0,6 UV-I 115 W/m 10,1 C 8,8 C 24,1 km/h (4 Bft) 95,65 %
17.05.2018 11:48 13,9 C 15,6 C 79 % 1014,1 hPa 0,0 l/m 22,1 km/h (4 Bft) W 271 0 min 0,000 mm 0,6 UV-I 119 W/m 10,3 C 7,8 C 29,0 km/h (5 Bft) 93,75 %
17.05.2018 11:49 13,9 C 15,6 C 78 % 1014,1 hPa 0,0 l/m 24,9 km/h (4 Bft) W 261 0 min 0,000 mm 0,6 UV-I 123 W/m 10,1 C 7,1 C 35,4 km/h (5 Bft) 100,00 %
17.05.2018 11:50 13,9 C 15,6 C 78 % 1014,1 hPa 0,0 l/m 18,4 km/h (3 Bft) W 267 0 min 0,000 mm 0,7 UV-I 126 W/m 10,1 C 8,8 C 29,0 km/h (5 Bft) 95,83 %
17.05.2018 11:51 13,9 C 15,6 C 78 % 1014,1 hPa 0,0 l/m 18,2 km/h (3 Bft) W-SW 257 0 min 0,000 mm 0,7 UV-I 132 W/m 10,1 C 8,8 C 25,7 km/h (4 Bft) 100,00 %
17.05.2018 11:52 13,9 C 15,6 C 78 % 1014,1 hPa 0,0 l/m 17,2 km/h (3 Bft) W 259 0 min 0,000 mm 0,7 UV-I 137 W/m 10,1 C 9,1 C 25,7 km/h (4 Bft) 95,83 %
17.05.2018 11:53 13,9 C 15,6 C 78 % 1014,1 hPa 0,0 l/m 22,1 km/h (4 Bft) W 271 0 min 0,000 mm 0,8 UV-I 146 W/m 10,1 C 7,8 C 27,4 km/h (4 Bft) 95,65 %
17.05.2018 11:54 13,9 C 15,6 C 78 % 1014,1 hPa 0,0 l/m 16,5 km/h (3 Bft) W-SW 254 0 min 0,000 mm 1,0 UV-I 158 W/m 10,1 C 9,4 C 20,9 km/h (4 Bft) 100,00 %
17.05.2018 11:55 13,9 C 15,6 C 78 % 1014,0 hPa 0,0 l/m 19,5 km/h (3 Bft) SW 230 0 min 0,000 mm 1,1 UV-I 213 W/m 10,1 C 8,5 C 29,0 km/h (5 Bft) 96,88 %
17.05.2018 11:56 13,9 C 15,6 C 78 % 1014,0 hPa 0,0 l/m 19,5 km/h (3 Bft) W-SW 252 0 min 0,000 mm 1,2 UV-I 226 W/m 10,1 C 8,5 C 27,4 km/h (4 Bft) 100,00 %
17.05.2018 11:57 13,9 C 15,6 C 78 % 1014,1 hPa 0,0 l/m 18,3 km/h (3 Bft) W 277 0 min 0,000 mm 1,2 UV-I 230 W/m 10,1 C 8,8 C 29,0 km/h (5 Bft) 92,86 %
17.05.2018 11:58 14,0 C 15,6 C 78 % 1014,1 hPa 0,0 l/m 17,3 km/h (3 Bft) W 276 0 min 0,000 mm 1,2 UV-I 232 W/m 10,2 C 9,2 C 30,6 km/h (5 Bft) 100,00 %
17.05.2018 11:59 14,0 C 15,6 C 78 % 1014,0 hPa 0,0 l/m 21,6 km/h (4 Bft) W-SW 241 0 min 0,000 mm 1,3 UV-I 235 W/m 10,2 C 8,0 C 29,0 km/h (5 Bft) 96,15 %
17.05.2018 12:00 14,1 C 15,6 C 78 % 1014,1 hPa 0,0 l/m 15,6 km/h (3 Bft) W 269 0 min 0,101 mm 1,2 UV-I 227 W/m 10,3 C 9,9 C 20,9 km/h (4 Bft) 100,00 %
17.05.2018 12:02 14,1 C 15,6 C 78 % 1014,1 hPa 0,0 l/m 17,7 km/h (3 Bft) W-SW 242 0 min 0,000 mm 1,1 UV-I 211 W/m 10,3 C 9,2 C 29,0 km/h (5 Bft) 98,00 %
17.05.2018 12:03 14,1 C 15,6 C 78 % 1014,1 hPa 0,0 l/m 22,5 km/h (4 Bft) W 263 0 min 0,000 mm 1,1 UV-I 212 W/m 10,3 C 8,0 C 30,6 km/h (5 Bft) 95,65 %
17.05.2018 12:04 14,1 C 15,6 C 77 % 1014,1 hPa 0,0 l/m 17,3 km/h (3 Bft) W 278 0 min 0,000 mm 1,2 UV-I 224 W/m 10,1 C 9,4 C 25,7 km/h (4 Bft) 96,30 %
17.05.2018 12:05 14,1 C 15,6 C 78 % 1014,1 hPa 0,0 l/m 18,0 km/h (3 Bft) W 275 0 min 0,000 mm 1,3 UV-I 239 W/m 10,3 C 9,1 C 25,7 km/h (4 Bft) 100,00 %
17.05.2018 12:06 14,1 C 15,6 C 78 % 1014,1 hPa 0,0 l/m 18,6 km/h (3 Bft) W-NW 284 0 min 0,000 mm 1,3 UV-I 247 W/m 10,3 C 9,0 C 22,5 km/h (4 Bft) 89,66 %
17.05.2018 12:07 14,2 C 15,6 C 78 % 1014,1 hPa 0,0 l/m 17,1 km/h (3 Bft) W 269 0 min 0,000 mm 1,3 UV-I 240 W/m 10,4 C 9,5 C 20,9 km/h (4 Bft) 96,15 %
17.05.2018 12:08 14,2 C 15,6 C 78 % 1014,1 hPa 0,0 l/m 20,1 km/h (4 Bft) W 262 0 min 0,000 mm 1,2 UV-I 233 W/m 10,4 C 8,7 C 25,7 km/h (4 Bft) 93,33 %
17.05.2018 12:09 14,2 C 15,6 C 78 % 1014,1 hPa 0,0 l/m 16,8 km/h (3 Bft) W-SW 245 0 min 0,000 mm 1,2 UV-I 228 W/m 10,4 C 9,6 C 24,1 km/h (4 Bft) 100,00 %
17.05.2018 12:10 14,2 C 15,6 C 78 % 1014,1 hPa 0,0 l/m 14,8 km/h (3 Bft) W 261 0 min 0,000 mm 1,1 UV-I 217 W/m 10,4 C 10,3 C 20,9 km/h (4 Bft) 95,65 %
17.05.2018 12:11 14,2 C 15,6 C 78 % 1014,1 hPa 0,0 l/m 15,4 km/h (3 Bft) SW 225 0 min 0,000 mm 1,1 UV-I 204 W/m 10,4 C 10,1 C 19,3 km/h (3 Bft) 100,00 %
17.05.2018 12:12 14,2 C 15,6 C 78 % 1014,1 hPa 0,0 l/m 20,0 km/h (4 Bft) W 269 0 min 0,000 mm 1,0 UV-I 201 W/m 10,4 C 8,7 C 30,6 km/h (5 Bft) 92,86 %
17.05.2018 12:13 14,2 C 15,6 C 78 % 1014,1 hPa 0,0 l/m 17,9 km/h (3 Bft) W 268 0 min 0,000 mm 1,0 UV-I 185 W/m 10,4 C 9,3 C 22,5 km/h (4 Bft) 96,67 %
17.05.2018 12:14 14,2 C 15,6 C 78 % 1014,1 hPa 0,0 l/m 14,7 km/h (3 Bft) W-SW 253 0 min 0,000 mm 1,0 UV-I 187 W/m 10,4 C 10,3 C 17,7 km/h (3 Bft) 100,00 %
17.05.2018 12:15 14,2 C 15,6 C 78 % 1014,1 hPa 0,0 l/m 19,4 km/h (3 Bft) W 260 0 min 0,000 mm 1,0 UV-I 195 W/m 10,4 C 8,9 C 24,1 km/h (4 Bft) 96,30 %
17.05.2018 12:16 14,2 C 15,6 C 78 % 1014,1 hPa 0,0 l/m 18,5 km/h (3 Bft) W-SW 258 0 min 0,000 mm 1,1 UV-I 210 W/m 10,4 C 9,1 C 25,7 km/h (4 Bft) 100,00 %
17.05.2018 12:17 14,2 C 15,6 C 78 % 1014,1 hPa 0,0 l/m 17,9 km/h (3 Bft) SW 234 0 min 0,000 mm 1,3 UV-I 232 W/m 10,4 C 9,3 C 22,5 km/h (4 Bft) 96,30 %
17.05.2018 12:18 14,2 C 15,6 C 78 % 1014,1 hPa 0,0 l/m 13,9 km/h (3 Bft) W-SW 257 0 min 0,000 mm 1,4 UV-I 253 W/m 10,4 C 10,6 C 19,3 km/h (3 Bft) 100,00 %
17.05.2018 12:19 14,3 C 15,6 C 78 % 1014,1 hPa 0,0 l/m 19,4 km/h (3 Bft) W 277 0 min 0,000 mm 1,5 UV-I 271 W/m 10,5 C 9,0 C 29,0 km/h (5 Bft) 100,00 %
17.05.2018 12:20 14,3 C 15,6 C 78 % 1014,1 hPa 0,0 l/m 15,7 km/h (3 Bft) W-SW 240 0 min 0,000 mm 1,5 UV-I 280 W/m 10,5 C 10,1 C 20,9 km/h (4 Bft) 100,00 %
17.05.2018 12:21 14,3 C 15,6 C 78 % 1014,1 hPa 0,0 l/m 13,3 km/h (3 Bft) W-SW 238 0 min 0,000 mm 1,5 UV-I 274 W/m 10,5 C 11,0 C 17,7 km/h (3 Bft) 100,00 %
17.05.2018 12:22 14,3 C 15,6 C 78 % 1014,1 hPa 0,0 l/m 13,5 km/h (3 Bft) SW 232 0 min 0,000 mm 1,4 UV-I 255 W/m 10,5 C 10,9 C 17,7 km/h (3 Bft) 100,00 %
17.05.2018 12:23 14,3 C 15,6 C 78 % 1014,1 hPa 0,0 l/m 11,7 km/h (2 Bft) W-NW 286 0 min 0,000 mm 1,3 UV-I 228 W/m 10,5 C 11,6 C 19,3 km/h (3 Bft) 100,00 %
17.05.2018 12:24 14,3 C 15,6 C 79 % 1014,1 hPa 0,0 l/m 14,4 km/h (3 Bft) W 267 0 min 0,000 mm 1,1 UV-I 207 W/m 10,7 C 10,6 C 19,3 km/h (3 Bft) 91,67 %
17.05.2018 12:25 14,4 C 15,6 C 78 % 1014,1 hPa 0,0 l/m 15,8 km/h (3 Bft) W 264 0 min 0,000 mm 1,0 UV-I 190 W/m 10,6 C 10,2 C 19,3 km/h (3 Bft) 100,00 %
17.05.2018 12:26 14,4 C 15,6 C 78 % 1014,2 hPa 0,0 l/m 16,6 km/h (3 Bft) W-NW 287 0 min 0,000 mm 0,9 UV-I 179 W/m 10,6 C 9,9 C 20,9 km/h (4 Bft) 100,00 %
17.05.2018 12:27 14,4 C 15,6 C 77 % 1014,1 hPa 0,0 l/m 9,7 km/h (2 Bft) S-SW 213 0 min 0,000 mm 0,9 UV-I 176 W/m 10,4 C 12,6 C 14,5 km/h (3 Bft) 100,00 %
17.05.2018 12:28 14,3 C 15,6 C 77 % 1014,1 hPa 0,0 l/m 15,1 km/h (3 Bft) W-SW 252 0 min 0,000 mm 0,9 UV-I 176 W/m 10,3 C 10,3 C 20,9 km/h (4 Bft) 100,00 %
17.05.2018 12:29 14,3 C 15,6 C 77 % 1014,1 hPa 0,0 l/m 15,2 km/h (3 Bft) W 263 0 min 0,000 mm 0,9 UV-I 173 W/m 10,3 C 10,3 C 20,9 km/h (4 Bft) 100,00 %
17.05.2018 12:30 14,3 C 15,6 C 77 % 1014,1 hPa 0,0 l/m 15,9 km/h (3 Bft) W 270 0 min 0,000 mm 0,9 UV-I 172 W/m 10,3 C 10,0 C 22,5 km/h (4 Bft) 100,00 %
17.05.2018 12:31 14,3 C 15,6 C 77 % 1014,1 hPa 0,0 l/m 17,5 km/h (3 Bft) W 276 0 min 0,000 mm 1,0 UV-I 175 W/m 10,3 C 9,5 C 22,5 km/h (4 Bft) 100,00 %
17.05.2018 12:32 14,3 C 15,6 C 78 % 1014,1 hPa 0,0 l/m 18,5 km/h (3 Bft) W-SW 239 0 min 0,000 mm 1,0 UV-I 183 W/m 10,5 C 9,3 C 24,1 km/h (4 Bft) 100,00 %
17.05.2018 12:33 14,3 C 15,6 C 78 % 1014,1 hPa 0,0 l/m 18,7 km/h (3 Bft) W 259 0 min 0,000 mm 1,1 UV-I 194 W/m 10,5 C 9,2 C 22,5 km/h (4 Bft) 100,00 %
17.05.2018 12:34 14,2 C 15,6 C 78 % 1014,1 hPa 0,0 l/m 16,1 km/h (3 Bft) W-NW 286 0 min 0,000 mm 1,1 UV-I 206 W/m 10,4 C 9,9 C 20,9 km/h (4 Bft) 100,00 %
17.05.2018 12:35 14,3 C 15,6 C 78 % 1014,1 hPa 0,0 l/m 14,5 km/h (3 Bft) W-SW 252 0 min 0,000 mm 1,1 UV-I 215 W/m 10,5 C 10,5 C 19,3 km/h (3 Bft) 100,00 %
17.05.2018 12:36 14,3 C 15,6 C 78 % 1014,1 hPa 0,0 l/m 12,8 km/h (3 Bft) W-SW 243 0 min 0,000 mm 1,2 UV-I 217 W/m 10,5 C 11,1 C 17,7 km/h (3 Bft) 100,00 %
17.05.2018 12:37 14,3 C 15,6 C 79 % 1014,1 hPa 0,0 l/m 15,5 km/h (3 Bft) W 281 0 min 0,000 mm 1,1 UV-I 215 W/m 10,7 C 10,2 C 19,3 km/h (3 Bft) 100,00 %
17.05.2018 12:38 14,3 C 15,6 C 79 % 1014,1 hPa 0,0 l/m 12,5 km/h (3 Bft) W 263 0 min 0,000 mm 1,1 UV-I 212 W/m 10,7 C 11,3 C 19,3 km/h (3 Bft) 100,00 %
17.05.2018 12:39 14,3 C 15,6 C 79 % 1014,1 hPa 0,0 l/m 11,3 km/h (2 Bft) W 265 0 min 0,000 mm 1,1 UV-I 209 W/m 10,7 C 11,8 C 16,1 km/h (3 Bft) 100,00 %
17.05.2018 12:40 14,3 C 15,6 C 79 % 1014,1 hPa 0,0 l/m 14,0 km/h (3 Bft) SW 232 0 min 0,000 mm 1,1 UV-I 205 W/m 10,7 C 10,7 C 17,7 km/h (3 Bft) 100,00 %
17.05.2018 12:41 14,3 C 15,6 C 79 % 1014,2 hPa 0,0 l/m 12,9 km/h (3 Bft) W 271 0 min 0,000 mm 1,1 UV-I 199 W/m 10,7 C 11,1 C 17,7 km/h (3 Bft) 100,00 %
17.05.2018 12:42 14,3 C 15,6 C 79 % 1014,2 hPa 0,0 l/m 15,7 km/h (3 Bft) W-SW 243 0 min 0,000 mm 1,0 UV-I 193 W/m 10,7 C 10,1 C 22,5 km/h (4 Bft) 100,00 %
17.05.2018 12:43 14,3 C 15,6 C 79 % 1014,2 hPa 0,0 l/m 18,0 km/h (3 Bft) SW 228 0 min 0,000 mm 1,0 UV-I 192 W/m 10,7 C 9,4 C 22,5 km/h (4 Bft) 100,00 %
17.05.2018 12:44 14,3 C 15,6 C 79 % 1014,2 hPa 0,0 l/m 13,8 km/h (3 Bft) W-SW 254 0 min 0,000 mm 1,0 UV-I 194 W/m 10,7 C 10,8 C 17,7 km/h (3 Bft) 100,00 %
17.05.2018 12:45 14,3 C 15,6 C 79 % 1014,2 hPa 0,0 l/m 13,9 km/h (3 Bft) W 267 0 min 0,000 mm 1,1 UV-I 202 W/m 10,7 C 10,7 C 19,3 km/h (3 Bft) 93,33 %
17.05.2018 12:46 14,3 C 15,6 C 79 % 1014,2 hPa 0,0 l/m 11,6 km/h (2 Bft) W-SW 245 0 min 0,000 mm 1,1 UV-I 209 W/m 10,7 C 11,6 C 12,9 km/h (3 Bft) 95,65 %
17.05.2018 12:47 14,3 C 15,6 C 80 % 1014,2 hPa 0,0 l/m 14,8 km/h (3 Bft) W-SW 252 0 min 0,000 mm 1,1 UV-I 215 W/m 10,9 C 10,4 C 19,3 km/h (3 Bft) 100,00 %
17.05.2018 12:48 14,3 C 15,6 C 81 % 1014,2 hPa 0,0 l/m 13,9 km/h (3 Bft) W 266 0 min 0,000 mm 1,2 UV-I 214 W/m 11,1 C 10,7 C 17,7 km/h (3 Bft) 100,00 %
17.05.2018 12:49 14,3 C 15,6 C 80 % 1014,2 hPa 0,0 l/m 13,7 km/h (3 Bft) W-NW 294 0 min 0,000 mm 1,1 UV-I 210 W/m 10,9 C 10,8 C 17,7 km/h (3 Bft) 100,00 %
17.05.2018 12:50 14,3 C 15,6 C 80 % 1014,2 hPa 0,0 l/m 16,9 km/h (3 Bft) W 269 0 min 0,000 mm 1,1 UV-I 205 W/m 10,9 C 9,7 C 19,3 km/h (3 Bft) 95,65 %
17.05.2018 12:51 14,3 C 15,6 C 80 % 1014,2 hPa 0,0 l/m 10,6 km/h (2 Bft) SW 219 0 min 0,000 mm 1,1 UV-I 199 W/m 10,9 C 12,1 C 16,1 km/h (3 Bft) 100,00 %
17.05.2018 12:52 14,3 C 15,6 C 80 % 1014,2 hPa 0,0 l/m 12,2 km/h (2 Bft) W-SW 246 0 min 0,000 mm 1,0 UV-I 194 W/m 10,9 C 11,4 C 16,1 km/h (3 Bft) 100,00 %
17.05.2018 12:53 14,2 C 15,6 C 80 % 1014,2 hPa 0,0 l/m 11,7 km/h (2 Bft) W-SW 252 0 min 0,000 mm 1,0 UV-I 191 W/m 10,8 C 11,5 C 17,7 km/h (3 Bft) 100,00 %
17.05.2018 12:54 14,2 C 15,6 C 81 % 1014,2 hPa 0,0 l/m 10,1 km/h (2 Bft) SW 227 0 min 0,000 mm 1,0 UV-I 189 W/m 11,0 C 12,2 C 14,5 km/h (3 Bft) 100,00 %
17.05.2018 12:55 14,2 C 15,6 C 81 % 1014,2 hPa 0,0 l/m 16,0 km/h (3 Bft) W-NW 289 0 min 0,000 mm 1,0 UV-I 187 W/m 11,0 C 9,9 C 20,9 km/h (4 Bft) 100,00 %
17.05.2018 12:56 14,2 C 15,6 C 81 % 1014,2 hPa 0,0 l/m 12,6 km/h (3 Bft) W 271 0 min 0,000 mm 1,0 UV-I 186 W/m 11,0 C 11,1 C 17,7 km/h (3 Bft) 92,31 %
17.05.2018 12:57 14,2 C 15,6 C 81 % 1014,2 hPa 0,0 l/m 7,8 km/h (2 Bft) W 263 0 min 0,000 mm 1,0 UV-I 186 W/m 11,0 C 13,4 C 11,3 km/h (2 Bft) 97,94 %
17.05.2018 12:58 14,2 C 15,6 C 81 % 1014,2 hPa 0,0 l/m 14,5 km/h (3 Bft) W 269 0 min 0,000 mm 1,0 UV-I 184 W/m 11,0 C 10,4 C 19,3 km/h (3 Bft) 100,00 %
17.05.2018 12:59 14,2 C 15,6 C 82 % 1014,2 hPa 0,0 l/m 14,8 km/h (3 Bft) W 269 0 min 0,000 mm 1,0 UV-I 180 W/m 11,2 C 10,3 C 17,7 km/h (3 Bft) 100,00 %
17.05.2018 13:00 14,2 C 15,6 C 82 % 1014,2 hPa 0,0 l/m 10,3 km/h (2 Bft) W 269 0 min 0,153 mm 1,0 UV-I 178 W/m 11,2 C 12,1 C 16,1 km/h (3 Bft) 100,00 %
17.05.2018 13:02 14,2 C 15,6 C 83 % 1014,3 hPa 0,0 l/m 8,0 km/h (2 Bft) W 268 0 min 0,000 mm 1,0 UV-I 180 W/m 11,4 C 13,3 C 12,9 km/h (3 Bft) 98,00 %
17.05.2018 13:03 14,2 C 15,6 C 83 % 1014,3 hPa 0,0 l/m 7,2 km/h (2 Bft) SW 234 0 min 0,000 mm 1,0 UV-I 178 W/m 11,4 C 13,7 C 11,3 km/h (2 Bft) 95,83 %
17.05.2018 13:04 14,2 C 15,6 C 82 % 1014,3 hPa 0,0 l/m 7,3 km/h (2 Bft) W-SW 242 0 min 0,000 mm 0,9 UV-I 171 W/m 11,2 C 13,7 C 11,3 km/h (2 Bft) 100,00 %
17.05.2018 13:05 14,1 C 15,6 C 83 % 1014,2 hPa 0,0 l/m 8,9 km/h (2 Bft) W 279 0 min 0,000 mm 0,9 UV-I 157 W/m 11,3 C 12,7 C 12,9 km/h (3 Bft) 100,00 %
17.05.2018 13:06 14,1 C 15,6 C 83 % 1014,3 hPa 0,0 l/m 7,8 km/h (2 Bft) W 263 0 min 0,000 mm 0,8 UV-I 141 W/m 11,3 C 13,3 C 12,9 km/h (3 Bft) 100,00 %
17.05.2018 13:08 14,1 C 15,6 C 83 % 1014,3 hPa 0,0 l/m 7,1 km/h (2 Bft) W 270 0 min 0,000 mm 0,8 UV-I 150 W/m 11,3 C 13,7 C 12,9 km/h (3 Bft) 98,11 %
17.05.2018 13:09 14,1 C 15,6 C 83 % 1014,3 hPa 0,0 l/m 8,4 km/h (2 Bft) W 268 0 min 0,000 mm 0,8 UV-I 152 W/m 11,3 C 12,9 C 12,9 km/h (3 Bft) 100,00 %
17.05.2018 13:10 14,1 C 15,6 C 83 % 1014,3 hPa 0,0 l/m 5,4 km/h (1 Bft) W-NW 295 0 min 0,000 mm 0,8 UV-I 148 W/m 11,3 C 14,1 C 6,4 km/h (2 Bft) 100,00 %
17.05.2018 13:11 14,1 C 15,6 C 83 % 1014,3 hPa 0,0 l/m 6,2 km/h (2 Bft) W 262 0 min 0,000 mm 0,8 UV-I 144 W/m 11,3 C 14,1 C 9,7 km/h (2 Bft) 100,00 %
17.05.2018 13:12 14,1 C 15,6 C 83 % 1014,3 hPa 0,0 l/m 6,8 km/h (2 Bft) W 279 0 min 0,000 mm 0,7 UV-I 139 W/m 11,3 C 13,9 C 11,3 km/h (2 Bft) 96,30 %
17.05.2018 13:13 14,1 C 15,6 C 83 % 1014,3 hPa 0,0 l/m 9,3 km/h (2 Bft) W-SW 256 0 min 0,000 mm 0,7 UV-I 137 W/m 11,3 C 12,5 C 17,7 km/h (3 Bft) 100,00 %
17.05.2018 13:14 14,0 C 15,6 C 83 % 1014,3 hPa 0,0 l/m 10,7 km/h (2 Bft) W-SW 257 0 min 0,000 mm 0,7 UV-I 139 W/m 11,2 C 11,7 C 17,7 km/h (3 Bft) 100,00 %
17.05.2018 13:15 14,0 C 15,6 C 83 % 1014,3 hPa 0,0 l/m 8,1 km/h (2 Bft) W 259 0 min 0,000 mm 0,8 UV-I 141 W/m 11,2 C 13,0 C 14,5 km/h (3 Bft) 100,00 %
17.05.2018 13:16 14,0 C 15,6 C 83 % 1014,3 hPa 0,0 l/m 9,2 km/h (2 Bft) W 275 0 min 0,000 mm 0,7 UV-I 142 W/m 11,2 C 12,4 C 12,9 km/h (3 Bft) 100,00 %
17.05.2018 13:17 14,0 C 15,6 C 83 % 1014,4 hPa 0,0 l/m 4,9 km/h (1 Bft) SW 233 0 min 0,000 mm 0,7 UV-I 141 W/m 11,2 C 14,0 C 9,7 km/h (2 Bft) 100,00 %
17.05.2018 13:18 14,0 C 15,6 C 83 % 1014,3 hPa 0,0 l/m 4,7 km/h (1 Bft) W 266 0 min 0,000 mm 0,7 UV-I 141 W/m 11,2 C 14,0 C 6,4 km/h (2 Bft) 100,00 %
17.05.2018 13:19 14,0 C 15,6 C 84 % 1014,3 hPa 0,0 l/m 7,3 km/h (2 Bft) W 274 0 min 0,000 mm 0,7 UV-I 141 W/m 11,3 C 13,5 C 11,3 km/h (2 Bft) 100,00 %
17.05.2018 13:20 14,0 C 15,6 C 84 % 1014,3 hPa 0,0 l/m 6,2 km/h (2 Bft) W 265 0 min 0,000 mm 0,8 UV-I 142 W/m 11,3 C 14,0 C 12,9 km/h (3 Bft) 100,00 %
17.05.2018 13:21 14,0 C 15,6 C 84 % 1014,3 hPa 0,0 l/m 9,7 km/h (2 Bft) W 263 0 min 0,000 mm 0,8 UV-I 146 W/m 11,3 C 12,2 C 14,5 km/h (3 Bft) 100,00 %
17.05.2018 13:22 14,0 C 15,6 C 83 % 1014,4 hPa 0,0 l/m 10,5 km/h (2 Bft) W-NW 282 0 min 0,000 mm 0,8 UV-I 151 W/m 11,2 C 11,8 C 14,5 km/h (3 Bft) 100,00 %
17.05.2018 13:23 14,0 C 15,6 C 83 % 1014,3 hPa 0,0 l/m 7,3 km/h (2 Bft) SW 230 0 min 0,000 mm 0,8 UV-I 158 W/m 11,2 C 13,5 C 12,9 km/h (3 Bft) 100,00 %
17.05.2018 13:24 14,0 C 15,6 C 83 % 1014,3 hPa 0,0 l/m 11,2 km/h (2 Bft) NW 304 0 min 0,000 mm 0,8 UV-I 163 W/m 11,2 C 11,5 C 16,1 km/h (3 Bft) 100,00 %
17.05.2018 13:25 14,1 C 15,6 C 82 % 1014,4 hPa 0,0 l/m 10,0 km/h (2 Bft) W 260 0 min 0,000 mm 0,9 UV-I 169 W/m 11,1 C 12,1 C 14,5 km/h (3 Bft) 96,30 %
17.05.2018 13:26 14,1 C 15,6 C 82 % 1014,3 hPa 0,0 l/m 7,3 km/h (2 Bft) W 279 0 min 0,000 mm 0,9 UV-I 172 W/m 11,1 C 13,6 C 12,9 km/h (3 Bft) 100,00 %
17.05.2018 13:27 14,1 C 15,6 C 82 % 1014,4 hPa 0,0 l/m 10,7 km/h (2 Bft) W-NW 286 0 min 0,000 mm 0,9 UV-I 172 W/m 11,1 C 11,8 C 16,1 km/h (3 Bft) 100,00 %
17.05.2018 13:28 14,1 C 15,6 C 82 % 1014,3 hPa 0,0 l/m 11,1 km/h (2 Bft) W 259 0 min 0,000 mm 0,9 UV-I 175 W/m 11,1 C 11,6 C 16,1 km/h (3 Bft) 100,00 %
17.05.2018 13:29 14,1 C 15,6 C 82 % 1014,3 hPa 0,0 l/m 9,3 km/h (2 Bft) W 279 0 min 0,000 mm 0,9 UV-I 177 W/m 11,1 C 12,5 C 16,1 km/h (3 Bft) 100,00 %
17.05.2018 13:30 14,2 C 15,6 C 83 % 1014,3 hPa 0,0 l/m 8,0 km/h (2 Bft) W 271 0 min 0,000 mm 0,9 UV-I 179 W/m 11,4 C 13,3 C 12,9 km/h (3 Bft) 100,00 %
17.05.2018 13:31 14,2 C 15,6 C 82 % 1014,3 hPa 0,0 l/m 10,5 km/h (2 Bft) W-SW 254 0 min 0,000 mm 0,9 UV-I 179 W/m 11,2 C 12,0 C 17,7 km/h (3 Bft) 96,67 %
17.05.2018 13:32 14,2 C 15,6 C 82 % 1014,4 hPa 0,0 l/m 9,7 km/h (2 Bft) S-SW 206 0 min 0,000 mm 0,9 UV-I 181 W/m 11,2 C 12,4 C 14,5 km/h (3 Bft) 100,00 %
17.05.2018 13:33 14,2 C 15,6 C 81 % 1014,4 hPa 0,0 l/m 10,7 km/h (2 Bft) W-SW 258 0 min 0,000 mm 1,0 UV-I 185 W/m 11,0 C 11,9 C 17,7 km/h (3 Bft) 100,00 %
17.05.2018 13:34 14,2 C 15,6 C 82 % 1014,4 hPa 0,0 l/m 12,0 km/h (2 Bft) W-SW 249 0 min 0,000 mm 1,0 UV-I 186 W/m 11,2 C 11,4 C 17,7 km/h (3 Bft) 100,00 %
17.05.2018 13:35 14,2 C 15,6 C 82 % 1014,3 hPa 0,0 l/m 7,5 km/h (2 Bft) NW 313 0 min 0,000 mm 0,9 UV-I 185 W/m 11,2 C 13,5 C 12,9 km/h (3 Bft) 100,00 %
17.05.2018 13:36 14,2 C 15,6 C 82 % 1014,3 hPa 0,0 l/m 7,3 km/h (2 Bft) W-SW 248 0 min 0,000 mm 0,9 UV-I 182 W/m 11,2 C 13,7 C 12,9 km/h (3 Bft) 100,00 %
17.05.2018 13:37 14,2 C 15,6 C 82 % 1014,4 hPa 0,0 l/m 11,7 km/h (2 Bft) W-SW 254 0 min 0,000 mm 0,9 UV-I 177 W/m 11,2 C 11,5 C 17,7 km/h (3 Bft) 100,00 %
17.05.2018 13:38 14,2 C 15,6 C 82 % 1014,4 hPa 0,0 l/m 10,4 km/h (2 Bft) NW 324 0 min 0,000 mm 0,8 UV-I 169 W/m 11,2 C 12,0 C 14,5 km/h (3 Bft) 95,65 %
17.05.2018 13:39 14,2 C 15,6 C 82 % 1014,3 hPa 0,0 l/m 10,7 km/h (2 Bft) W-NW 288 0 min 0,000 mm 0,8 UV-I 164 W/m 11,2 C 11,9 C 14,5 km/h (3 Bft) 100,00 %
17.05.2018 13:40 14,2 C 15,6 C 82 % 1014,4 hPa 0,0 l/m 13,2 km/h (3 Bft) W 265 0 min 0,000 mm 0,8 UV-I 164 W/m 11,2 C 10,9 C 16,1 km/h (3 Bft) 95,83 %
17.05.2018 13:41 14,2 C 15,6 C 82 % 1014,3 hPa 0,0 l/m 9,7 km/h (2 Bft) W-NW 286 0 min 0,000 mm 0,8 UV-I 161 W/m 11,2 C 12,4 C 14,5 km/h (3 Bft) 96,55 %
17.05.2018 13:43 14,2 C 15,6 C 83 % 1014,4 hPa 0,0 l/m 8,3 km/h (2 Bft) W-SW 256 0 min 0,000 mm 0,7 UV-I 147 W/m 11,4 C 13,1 C 12,9 km/h (3 Bft) 97,56 %
17.05.2018 13:44 14,2 C 15,6 C 83 % 1014,4 hPa 0,0 l/m 6,8 km/h (2 Bft) SW 234 0 min 0,000 mm 0,7 UV-I 139 W/m 11,4 C 14,0 C 11,3 km/h (2 Bft) 100,00 %
17.05.2018 13:45 14,2 C 15,6 C 83 % 1014,4 hPa 0,0 l/m 4,9 km/h (1 Bft) W 261 0 min 0,000 mm 0,7 UV-I 140 W/m 11,4 C 14,2 C 6,4 km/h (2 Bft) 92,86 %
17.05.2018 13:46 14,2 C 15,6 C 83 % 1014,4 hPa 0,0 l/m 7,1 km/h (2 Bft) W-SW 248 0 min 0,000 mm 0,7 UV-I 146 W/m 11,4 C 13,8 C 12,9 km/h (3 Bft) 100,00 %
17.05.2018 13:48 14,1 C 15,6 C 83 % 1014,4 hPa 0,0 l/m 7,1 km/h (2 Bft) W 266 0 min 0,000 mm 0,8 UV-I 156 W/m 11,3 C 13,7 C 11,3 km/h (2 Bft) 96,43 %
17.05.2018 13:49 14,1 C 15,6 C 83 % 1014,4 hPa 0,0 l/m 11,0 km/h (2 Bft) W-SW 257 0 min 0,000 mm 0,8 UV-I 162 W/m 11,3 C 11,7 C 14,5 km/h (3 Bft) 100,00 %
17.05.2018 13:50 14,2 C 15,6 C 83 % 1014,4 hPa 0,0 l/m 8,0 km/h (2 Bft) W 274 0 min 0,000 mm 0,8 UV-I 162 W/m 11,4 C 13,3 C 11,3 km/h (2 Bft) 96,30 %
17.05.2018 13:51 14,2 C 15,6 C 83 % 1014,4 hPa 0,0 l/m 6,7 km/h (2 Bft) W 267 0 min 0,000 mm 0,8 UV-I 158 W/m 11,4 C 14,0 C 9,7 km/h (2 Bft) 96,55 %
17.05.2018 13:52 14,2 C 15,6 C 84 % 1014,4 hPa 0,0 l/m 6,4 km/h (2 Bft) W-NW 296 0 min 0,000 mm 0,8 UV-I 154 W/m 11,5 C 14,2 C 9,7 km/h (2 Bft) 91,67 %
17.05.2018 13:53 14,2 C 15,6 C 84 % 1014,4 hPa 0,0 l/m 9,0 km/h (2 Bft) W-NW 295 0 min 0,000 mm 0,8 UV-I 152 W/m 11,5 C 12,7 C 14,5 km/h (3 Bft) 100,00 %
17.05.2018 13:54 14,2 C 15,6 C 84 % 1014,4 hPa 0,0 l/m 6,4 km/h (2 Bft) W-SW 257 0 min 0,000 mm 0,8 UV-I 155 W/m 11,5 C 14,2 C 11,3 km/h (2 Bft) 95,83 %
17.05.2018 13:55 14,2 C 15,6 C 84 % 1014,4 hPa 0,0 l/m 6,9 km/h (2 Bft) W 263 0 min 0,000 mm 0,8 UV-I 160 W/m 11,5 C 13,9 C 12,9 km/h (3 Bft) 100,00 %
17.05.2018 13:56 14,1 C 15,6 C 84 % 1014,4 hPa 0,0 l/m 5,2 km/h (1 Bft) W-NW 290 0 min 0,000 mm 0,8 UV-I 164 W/m 11,4 C 14,1 C 9,7 km/h (2 Bft) 95,65 %
17.05.2018 13:57 14,1 C 15,6 C 83 % 1014,5 hPa 0,0 l/m 7,8 km/h (2 Bft) W-NW 296 0 min 0,000 mm 0,9 UV-I 171 W/m 11,3 C 13,3 C 11,3 km/h (2 Bft) 95,83 %
17.05.2018 13:58 14,1 C 15,6 C 83 % 1014,5 hPa 0,0 l/m 11,0 km/h (2 Bft) W 265 0 min 0,000 mm 0,9 UV-I 177 W/m 11,3 C 11,7 C 16,1 km/h (3 Bft) 95,65 %
17.05.2018 13:59 14,1 C 15,6 C 84 % 1014,4 hPa 0,0 l/m 10,3 km/h (2 Bft) W-NW 292 0 min 0,000 mm 0,9 UV-I 182 W/m 11,4 C 12,0 C 19,3 km/h (3 Bft) 96,30 %
17.05.2018 14:00 14,1 C 15,6 C 83 % 1014,4 hPa 0,0 l/m 15,4 km/h (3 Bft) W 266 0 min 0,000 mm 0,9 UV-I 185 W/m 11,3 C 10,0 C 19,3 km/h (3 Bft) 100,00 %
17.05.2018 14:02 14,2 C 15,6 C 84 % 1014,4 hPa 0,0 l/m 12,7 km/h (3 Bft) W-SW 247 0 min 0,101 mm 1,0 UV-I 190 W/m 11,5 C 11,1 C 27,4 km/h (4 Bft) 98,21 %
17.05.2018 14:03 14,2 C 15,6 C 83 % 1014,4 hPa 0,0 l/m 17,6 km/h (3 Bft) W-SW 254 0 min 0,000 mm 1,0 UV-I 196 W/m 11,4 C 9,4 C 25,7 km/h (4 Bft) 96,30 %
17.05.2018 14:04 14,2 C 15,6 C 82 % 1014,4 hPa 0,0 l/m 12,3 km/h (3 Bft) W-SW 257 0 min 0,000 mm 1,0 UV-I 203 W/m 11,2 C 11,2 C 16,1 km/h (3 Bft) 95,65 %
17.05.2018 14:05 14,2 C 15,6 C 82 % 1014,4 hPa 0,0 l/m 10,0 km/h (2 Bft) W-NW 300 0 min 0,000 mm 1,1 UV-I 212 W/m 11,2 C 12,2 C 14,5 km/h (3 Bft) 94,44 %
17.05.2018 14:06 14,2 C 15,6 C 82 % 1014,4 hPa 0,0 l/m 14,3 km/h (3 Bft) W 269 0 min 0,000 mm 1,1 UV-I 217 W/m 11,2 C 10,5 C 20,9 km/h (4 Bft) 96,15 %
17.05.2018 14:07 14,2 C 15,6 C 82 % 1014,4 hPa 0,0 l/m 15,7 km/h (3 Bft) W 267 0 min 0,000 mm 1,2 UV-I 223 W/m 11,2 C 10,0 C 22,5 km/h (4 Bft) 100,00 %
17.05.2018 14:08 14,2 C 15,6 C 82 % 1014,4 hPa 0,0 l/m 12,7 km/h (3 Bft) W 280 0 min 0,000 mm 1,2 UV-I 225 W/m 11,2 C 11,1 C 16,1 km/h (3 Bft) 95,65 %
17.05.2018 14:09 14,2 C 15,6 C 83 % 1014,4 hPa 0,0 l/m 17,0 km/h (3 Bft) W 263 0 min 0,000 mm 1,2 UV-I 224 W/m 11,4 C 9,6 C 22,5 km/h (4 Bft) 100,00 %
17.05.2018 14:10 14,2 C 15,6 C 82 % 1014,4 hPa 0,0 l/m 12,3 km/h (3 Bft) W 278 0 min 0,000 mm 1,2 UV-I 221 W/m 11,2 C 11,2 C 16,1 km/h (3 Bft) 95,65 %
17.05.2018 14:11 14,2 C 15,6 C 83 % 1014,4 hPa 0,0 l/m 14,9 km/h (3 Bft) W-SW 251 0 min 0,000 mm 1,1 UV-I 215 W/m 11,4 C 10,3 C 22,5 km/h (4 Bft) 100,00 %
17.05.2018 14:13 14,2 C 15,6 C 83 % 1014,4 hPa 0,0 l/m 11,0 km/h (2 Bft) W 261 0 min 0,000 mm 1,1 UV-I 217 W/m 11,4 C 11,8 C 16,1 km/h (3 Bft) 96,23 %
17.05.2018 14:14 14,2 C 15,6 C 82 % 1014,4 hPa 0,0 l/m 10,5 km/h (2 Bft) W-SW 256 0 min 0,000 mm 1,2 UV-I 226 W/m 11,2 C 12,0 C 14,5 km/h (3 Bft) 100,00 %
17.05.2018 14:15 14,1 C 15,6 C 83 % 1014,4 hPa 0,0 l/m 11,8 km/h (2 Bft) W-NW 284 0 min 0,000 mm 1,2 UV-I 229 W/m 11,3 C 11,3 C 14,5 km/h (3 Bft) 93,33 %
17.05.2018 14:16 14,1 C 15,6 C 83 % 1014,4 hPa 0,0 l/m 7,3 km/h (2 Bft) W 279 0 min 0,000 mm 1,2 UV-I 229 W/m 11,3 C 13,6 C 11,3 km/h (2 Bft) 100,00 %
17.05.2018 14:17 14,1 C 16,1 C 84 % 1014,4 hPa 0,0 l/m 5,7 km/h (1 Bft) W-SW 258 0 min 0,000 mm 1,2 UV-I 230 W/m 11,4 C 14,1 C 8,0 km/h (2 Bft) 91,67 %
17.05.2018 14:18 14,1 C 15,6 C 83 % 1014,4 hPa 0,0 l/m 12,0 km/h (2 Bft) W 271 0 min 0,000 mm 1,2 UV-I 234 W/m 11,3 C 11,2 C 17,7 km/h (3 Bft) 100,00 %
17.05.2018 14:19 14,1 C 15,6 C 84 % 1014,4 hPa 0,0 l/m 7,0 km/h (2 Bft) W-SW 248 0 min 0,000 mm 1,2 UV-I 237 W/m 11,4 C 13,7 C 9,7 km/h (2 Bft) 97,37 %
17.05.2018 14:20 14,1 C 15,6 C 84 % 1014,3 hPa 0,0 l/m 11,2 km/h (2 Bft) W-SW 252 0 min 0,000 mm 1,2 UV-I 236 W/m 11,4 C 11,6 C 16,1 km/h (3 Bft) 100,00 %
17.05.2018 14:21 14,1 C 15,6 C 85 % 1014,4 hPa 0,0 l/m 11,6 km/h (2 Bft) W 268 0 min 0,000 mm 1,2 UV-I 237 W/m 11,6 C 11,4 C 16,1 km/h (3 Bft) 91,30 %
17.05.2018 14:22 14,1 C 15,6 C 84 % 1014,4 hPa 0,0 l/m 9,3 km/h (2 Bft) W 263 0 min 0,000 mm 1,2 UV-I 237 W/m 11,4 C 12,5 C 11,3 km/h (2 Bft) 100,00 %
17.05.2018 14:23 14,2 C 15,6 C 85 % 1014,4 hPa 0,0 l/m 9,0 km/h (2 Bft) W 265 0 min 0,000 mm 1,3 UV-I 238 W/m 11,7 C 12,7 C 16,1 km/h (3 Bft) 96,15 %
17.05.2018 14:24 14,2 C 15,6 C 84 % 1014,4 hPa 0,0 l/m 9,1 km/h (2 Bft) W 272 0 min 0,000 mm 1,3 UV-I 241 W/m 11,5 C 12,7 C 14,5 km/h (3 Bft) 100,00 %
17.05.2018 14:25 14,2 C 15,6 C 84 % 1014,4 hPa 0,0 l/m 11,3 km/h (2 Bft) W 264 0 min 0,000 mm 1,3 UV-I 244 W/m 11,5 C 11,6 C 14,5 km/h (3 Bft) 96,55 %
17.05.2018 14:26 14,2 C 15,6 C 84 % 1014,4 hPa 0,0 l/m 5,8 km/h (2 Bft) W-SW 242 0 min 0,000 mm 1,3 UV-I 247 W/m 11,5 C 14,2 C 9,7 km/h (2 Bft) 95,83 %
17.05.2018 14:27 14,2 C 15,6 C 85 % 1014,4 hPa 0,0 l/m 8,2 km/h (2 Bft) W 265 0 min 0,000 mm 1,3 UV-I 249 W/m 11,7 C 13,2 C 11,3 km/h (2 Bft) 100,00 %
17.05.2018 14:28 14,3 C 15,6 C 85 % 1014,4 hPa 0,0 l/m 7,6 km/h (2 Bft) W-NW 302 0 min 0,000 mm 1,3 UV-I 250 W/m 11,8 C 13,6 C 11,3 km/h (2 Bft) 83,33 %
17.05.2018 14:29 14,3 C 16,1 C 86 % 1014,4 hPa 0,0 l/m 9,8 km/h (2 Bft) W 272 0 min 0,000 mm 1,3 UV-I 254 W/m 12,0 C 12,4 C 16,1 km/h (3 Bft) 100,00 %
17.05.2018 14:30 14,3 C 15,6 C 84 % 1014,4 hPa 0,0 l/m 9,3 km/h (2 Bft) W-SW 257 0 min 0,000 mm 1,4 UV-I 258 W/m 11,6 C 12,7 C 14,5 km/h (3 Bft) 96,97 %
17.05.2018 14:31 14,3 C 15,6 C 84 % 1014,4 hPa 0,0 l/m 5,7 km/h (1 Bft) W 271 0 min 0,000 mm 1,4 UV-I 260 W/m 11,6 C 14,3 C 8,0 km/h (2 Bft) 100,00 %
17.05.2018 14:32 14,3 C 15,6 C 85 % 1014,4 hPa 0,0 l/m 9,9 km/h (2 Bft) W-SW 242 0 min 0,000 mm 1,4 UV-I 263 W/m 11,8 C 12,4 C 14,5 km/h (3 Bft) 96,15 %
17.05.2018 14:33 14,3 C 16,1 C 84 % 1014,4 hPa 0,0 l/m 7,1 km/h (2 Bft) W-SW 249 0 min 0,000 mm 1,4 UV-I 264 W/m 11,6 C 13,9 C 11,3 km/h (2 Bft) 100,00 %
17.05.2018 14:34 14,4 C 16,1 C 84 % 1014,4 hPa 0,0 l/m 6,7 km/h (2 Bft) W-NW 285 0 min 0,000 mm 1,4 UV-I 264 W/m 11,7 C 14,2 C 11,3 km/h (2 Bft) 95,65 %
17.05.2018 14:35 14,4 C 15,6 C 84 % 1014,4 hPa 0,0 l/m 8,1 km/h (2 Bft) W-NW 290 0 min 0,000 mm 1,4 UV-I 264 W/m 11,7 C 13,4 C 17,7 km/h (3 Bft) 92,59 %
17.05.2018 14:36 14,4 C 16,1 C 84 % 1014,4 hPa 0,0 l/m 10,9 km/h (2 Bft) W-SW 238 0 min 0,000 mm 1,4 UV-I 266 W/m 11,7 C 12,0 C 14,5 km/h (3 Bft) 100,00 %
17.05.2018 14:37 14,4 C 16,1 C 83 % 1014,4 hPa 0,0 l/m 8,2 km/h (2 Bft) W 262 0 min 0,000 mm 1,4 UV-I 273 W/m 11,5 C 13,4 C 12,9 km/h (3 Bft) 93,33 %
17.05.2018 14:38 14,4 C 16,1 C 83 % 1014,4 hPa 0,0 l/m 12,0 km/h (2 Bft) W-SW 258 0 min 0,000 mm 1,5 UV-I 279 W/m 11,5 C 11,6 C 16,1 km/h (3 Bft) 100,00 %
17.05.2018 14:39 14,4 C 16,1 C 83 % 1014,4 hPa 0,0 l/m 10,1 km/h (2 Bft) W 281 0 min 0,000 mm 1,5 UV-I 283 W/m 11,5 C 12,4 C 16,1 km/h (3 Bft) 95,83 %
17.05.2018 14:40 14,5 C 16,1 C 83 % 1014,4 hPa 0,0 l/m 7,5 km/h (2 Bft) W-SW 242 0 min 0,000 mm 1,5 UV-I 286 W/m 11,6 C 13,9 C 12,9 km/h (3 Bft) 100,00 %
17.05.2018 14:41 14,5 C 16,1 C 83 % 1014,4 hPa 0,0 l/m 10,5 km/h (2 Bft) W 269 0 min 0,000 mm 1,5 UV-I 287 W/m 11,6 C 12,3 C 14,5 km/h (3 Bft) 91,67 %
17.05.2018 14:42 14,6 C 16,1 C 83 % 1014,4 hPa 0,0 l/m 11,0 km/h (2 Bft) W 261 0 min 0,000 mm 1,5 UV-I 285 W/m 11,7 C 12,2 C 14,5 km/h (3 Bft) 95,65 %
17.05.2018 14:43 14,6 C 16,1 C 83 % 1014,4 hPa 0,0 l/m 9,5 km/h (2 Bft) W 277 0 min 0,000 mm 1,5 UV-I 285 W/m 11,7 C 12,9 C 14,5 km/h (3 Bft) 96,30 %
17.05.2018 14:44 14,6 C 16,1 C 83 % 1014,3 hPa 0,0 l/m 7,0 km/h (2 Bft) W-SW 242 0 min 0,000 mm 1,5 UV-I 284 W/m 11,7 C 14,3 C 12,9 km/h (3 Bft) 100,00 %
17.05.2018 14:45 14,6 C 16,1 C 83 % 1014,3 hPa 0,0 l/m 15,8 km/h (3 Bft) W-SW 258 0 min 0,000 mm 1,5 UV-I 283 W/m 11,7 C 10,4 C 20,9 km/h (4 Bft) 96,30 %
17.05.2018 14:46 14,6 C 16,1 C 82 % 1014,3 hPa 0,0 l/m 11,4 km/h (2 Bft) W 274 0 min 0,000 mm 1,5 UV-I 283 W/m 11,6 C 12,1 C 20,9 km/h (4 Bft) 92,86 %
17.05.2018 14:47 14,6 C 16,1 C 82 % 1014,3 hPa 0,0 l/m 7,0 km/h (2 Bft) W-NW 284 0 min 0,000 mm 1,5 UV-I 282 W/m 11,6 C 14,3 C 11,3 km/h (2 Bft) 95,83 %
17.05.2018 14:48 14,7 C 16,1 C 82 % 1014,3 hPa 0,0 l/m 10,3 km/h (2 Bft) W-SW 251 0 min 0,000 mm 1,5 UV-I 283 W/m 11,7 C 12,6 C 16,1 km/h (3 Bft) 92,31 %
17.05.2018 14:49 14,7 C 16,1 C 82 % 1014,3 hPa 0,0 l/m 8,9 km/h (2 Bft) W 270 0 min 0,000 mm 1,5 UV-I 285 W/m 11,7 C 13,3 C 12,9 km/h (3 Bft) 96,30 %
17.05.2018 14:50 14,7 C 16,1 C 82 % 1014,3 hPa 0,0 l/m 10,4 km/h (2 Bft) W-NW 301 0 min 0,000 mm 1,5 UV-I 285 W/m 11,7 C 12,6 C 16,1 km/h (3 Bft) 100,00 %
17.05.2018 14:51 14,7 C 16,1 C 82 % 1014,3 hPa 0,0 l/m 7,8 km/h (2 Bft) SW 217 0 min 0,000 mm 1,5 UV-I 206 W/m 11,7 C 13,9 C 12,9 km/h (3 Bft) 96,15 %
17.05.2018 14:52 14,7 C 16,1 C 82 % 1014,3 hPa 0,0 l/m 6,0 km/h (2 Bft) W 264 0 min 0,000 mm 1,4 UV-I 110 W/m 11,7 C 14,7 C 11,3 km/h (2 Bft) 92,59 %
17.05.2018 14:53 14,7 C 16,1 C 83 % 1014,3 hPa 0,0 l/m 4,5 km/h (1 Bft) N-NW 329 0 min 0,000 mm 1,4 UV-I 113 W/m 11,8 C 14,7 C 6,4 km/h (2 Bft) 100,00 %
17.05.2018 14:54 14,7 C 16,1 C 83 % 1014,3 hPa 0,0 l/m 6,8 km/h (2 Bft) W-SW 257 0 min 0,000 mm 1,3 UV-I 107 W/m 11,8 C 14,5 C 12,9 km/h (3 Bft) 95,65 %
17.05.2018 14:55 14,8 C 16,1 C 85 % 1014,3 hPa 0,0 l/m 5,9 km/h (2 Bft) W-SW 249 0 min 0,000 mm 1,3 UV-I 115 W/m 12,3 C 14,8 C 9,7 km/h (2 Bft) 93,33 %
17.05.2018 14:56 14,8 C 16,1 C 83 % 1014,2 hPa 0,0 l/m 5,0 km/h (1 Bft) SW 232 0 min 0,000 mm 1,3 UV-I 254 W/m 11,9 C 14,8 C 11,3 km/h (2 Bft) 96,30 %
17.05.2018 14:57 14,8 C 16,1 C 84 % 1014,2 hPa 0,0 l/m 5,8 km/h (2 Bft) SW 235 0 min 0,000 mm 1,3 UV-I 252 W/m 12,1 C 14,8 C 8,0 km/h (2 Bft) 100,00 %
17.05.2018 14:58 14,8 C 16,1 C 83 % 1014,2 hPa 0,0 l/m 5,5 km/h (1 Bft) W 264 0 min 0,000 mm 1,3 UV-I 251 W/m 11,9 C 14,8 C 9,7 km/h (2 Bft) 96,67 %
17.05.2018 14:59 14,8 C 16,1 C 83 % 1014,2 hPa 0,0 l/m 5,1 km/h (1 Bft) W 271 0 min 0,000 mm 1,3 UV-I 251 W/m 11,9 C 14,8 C 9,7 km/h (2 Bft) 100,00 %
17.05.2018 15:00 14,8 C 16,1 C 82 % 1014,2 hPa 0,0 l/m 7,4 km/h (2 Bft) W 265 0 min 0,000 mm 1,3 UV-I 251 W/m 11,8 C 14,2 C 12,9 km/h (3 Bft) 96,30 %
17.05.2018 15:02 14,8 C 16,1 C 82 % 1014,2 hPa 0,0 l/m 6,6 km/h (2 Bft) W 263 0 min 0,153 mm 1,3 UV-I 258 W/m 11,8 C 14,7 C 12,9 km/h (3 Bft) 96,43 %
17.05.2018 15:03 14,8 C 16,1 C 83 % 1014,2 hPa 0,0 l/m 5,3 km/h (1 Bft) W-SW 242 0 min 0,000 mm 1,3 UV-I 263 W/m 11,9 C 14,8 C 8,0 km/h (2 Bft) 90,91 %
17.05.2018 15:04 14,7 C 16,1 C 82 % 1014,2 hPa 0,0 l/m 6,5 km/h (2 Bft) W 273 0 min 0,000 mm 1,3 UV-I 268 W/m 11,7 C 14,7 C 11,3 km/h (2 Bft) 100,00 %
17.05.2018 15:05 14,7 C 16,1 C 82 % 1014,2 hPa 0,0 l/m 8,2 km/h (2 Bft) W 265 0 min 0,000 mm 1,3 UV-I 272 W/m 11,7 C 13,7 C 11,3 km/h (2 Bft) 95,65 %
17.05.2018 15:06 14,7 C 16,1 C 82 % 1014,3 hPa 0,0 l/m 10,9 km/h (2 Bft) W 264 0 min 0,000 mm 1,4 UV-I 275 W/m 11,7 C 12,4 C 14,5 km/h (3 Bft) 96,30 %
17.05.2018 15:07 14,7 C 16,1 C 82 % 1014,3 hPa 0,2 l/m 13,6 km/h (3 Bft) W-SW 244 0 min 0,000 mm 1,4 UV-I 284 W/m 11,7 C 11,3 C 19,3 km/h (3 Bft) 100,00 %
17.05.2018 15:08 14,7 C 16,1 C 81 % 1014,2 hPa 0,0 l/m 13,4 km/h (3 Bft) W-SW 258 0 min 0,000 mm 1,4 UV-I 293 W/m 11,5 C 11,4 C 17,7 km/h (3 Bft) 100,00 %
17.05.2018 15:09 14,7 C 16,1 C 81 % 1014,2 hPa 0,0 l/m 11,2 km/h (2 Bft) W 281 0 min 0,000 mm 1,5 UV-I 300 W/m 11,5 C 12,3 C 14,5 km/h (3 Bft) 96,15 %
17.05.2018 15:10 14,7 C 16,1 C 82 % 1014,2 hPa 0,0 l/m 10,7 km/h (2 Bft) W-SW 250 0 min 0,000 mm 1,5 UV-I 302 W/m 11,7 C 12,5 C 16,1 km/h (3 Bft) 95,83 %
17.05.2018 15:11 14,7 C 16,1 C 81 % 1014,2 hPa 0,0 l/m 11,4 km/h (2 Bft) W 261 0 min 0,000 mm 1,5 UV-I 301 W/m 11,5 C 12,2 C 16,1 km/h (3 Bft) 100,00 %
17.05.2018 15:12 14,7 C 16,1 C 81 % 1014,2 hPa 0,0 l/m 6,9 km/h (2 Bft) W 260 0 min 0,000 mm 1,5 UV-I 302 W/m 11,5 C 14,4 C 12,9 km/h (3 Bft) 93,33 %
17.05.2018 15:13 14,7 C 16,1 C 82 % 1014,2 hPa 0,0 l/m 7,7 km/h (2 Bft) W 263 0 min 0,000 mm 1,4 UV-I 301 W/m 11,7 C 14,0 C 12,9 km/h (3 Bft) 100,00 %
17.05.2018 15:14 14,8 C 16,1 C 82 % 1014,2 hPa 0,0 l/m 4,6 km/h (1 Bft) SW 230 0 min 0,000 mm 1,4 UV-I 304 W/m 11,8 C 14,8 C 6,4 km/h (2 Bft) 95,65 %
17.05.2018 15:15 14,8 C 16,1 C 83 % 1014,2 hPa 0,0 l/m 4,7 km/h (1 Bft) W-SW 257 0 min 0,000 mm 1,5 UV-I 308 W/m 11,9 C 14,8 C 8,0 km/h (2 Bft) 96,30 %
17.05.2018 15:16 14,8 C 16,1 C 83 % 1014,2 hPa 0,0 l/m 5,0 km/h (1 Bft) W 270 0 min 0,000 mm 1,5 UV-I 312 W/m 11,9 C 14,8 C 9,7 km/h (2 Bft) 95,65 %
17.05.2018 15:17 14,8 C 16,1 C 83 % 1014,3 hPa 0,0 l/m 9,3 km/h (2 Bft) W-SW 241 0 min 0,000 mm 1,5 UV-I 318 W/m 11,9 C 13,2 C 14,5 km/h (3 Bft) 96,30 %
17.05.2018 15:18 14,9 C 16,1 C 82 % 1014,2 hPa 0,0 l/m 12,8 km/h (3 Bft) W-SW 240 0 min 0,000 mm 1,5 UV-I 324 W/m 11,9 C 11,8 C 19,3 km/h (3 Bft) 100,00 %
17.05.2018 15:19 14,9 C 16,1 C 81 % 1014,2 hPa 0,0 l/m 12,3 km/h (3 Bft) W 259 0 min 0,000 mm 1,5 UV-I 328 W/m 11,7 C 12,0 C 16,1 km/h (3 Bft) 100,00 %
17.05.2018 15:20 14,9 C 16,1 C 81 % 1014,2 hPa 0,0 l/m 12,0 km/h (2 Bft) W-SW 255 0 min 0,000 mm 1,5 UV-I 332 W/m 11,7 C 12,2 C 16,1 km/h (3 Bft) 100,00 %
17.05.2018 15:21 14,9 C 16,1 C 81 % 1014,2 hPa 0,0 l/m 11,9 km/h (2 Bft) W 275 0 min 0,000 mm 1,5 UV-I 339 W/m 11,7 C 12,2 C 16,1 km/h (3 Bft) 100,00 %
17.05.2018 15:23 14,9 C 16,1 C 81 % 1014,2 hPa 0,0 l/m 9,8 km/h (2 Bft) SW 229 0 min 0,000 mm 1,6 UV-I 352 W/m 11,7 C 13,1 C 12,9 km/h (3 Bft) 100,00 %
17.05.2018 15:24 15,0 C 16,1 C 82 % 1014,2 hPa 0,0 l/m 8,8 km/h (2 Bft) W-SW 254 0 min 0,000 mm 1,6 UV-I 366 W/m 12,0 C 13,7 C 14,5 km/h (3 Bft) 100,00 %
17.05.2018 15:25 15,0 C 16,1 C 82 % 1014,2 hPa 0,0 l/m 11,3 km/h (2 Bft) W-NW 301 0 min 0,000 mm 1,7 UV-I 376 W/m 12,0 C 12,6 C 16,1 km/h (3 Bft) 100,00 %
17.05.2018 15:26 15,1 C 16,1 C 81 % 1014,2 hPa 0,0 l/m 7,9 km/h (2 Bft) W-SW 249 0 min 0,000 mm 1,6 UV-I 363 W/m 11,9 C 14,3 C 11,3 km/h (2 Bft) 100,00 %
17.05.2018 15:27 15,1 C 16,1 C 81 % 1014,2 hPa 0,0 l/m 8,9 km/h (2 Bft) SW 215 0 min 0,000 mm 1,6 UV-I 356 W/m 11,9 C 13,7 C 11,3 km/h (2 Bft) 100,00 %
17.05.2018 15:28 15,2 C 16,1 C 82 % 1014,1 hPa 0,0 l/m 12,4 km/h (3 Bft) W 270 0 min 0,000 mm 1,6 UV-I 348 W/m 12,1 C 12,3 C 17,7 km/h (3 Bft) 100,00 %
17.05.2018 15:29 15,2 C 16,1 C 80 % 1014,1 hPa 0,0 l/m 15,1 km/h (3 Bft) W 277 0 min 0,000 mm 1,5 UV-I 339 W/m 11,8 C 11,4 C 19,3 km/h (3 Bft) 100,00 %
17.05.2018 15:30 15,2 C 16,1 C 79 % 1014,1 hPa 0,0 l/m 13,7 km/h (3 Bft) W-NW 296 0 min 0,000 mm 1,5 UV-I 328 W/m 11,6 C 11,9 C 17,7 km/h (3 Bft) 100,00 %
17.05.2018 15:31 15,2 C 16,1 C 79 % 1014,1 hPa 0,0 l/m 17,1 km/h (3 Bft) W-SW 244 0 min 0,000 mm 1,5 UV-I 318 W/m 11,6 C 10,8 C 22,5 km/h (4 Bft) 100,00 %
17.05.2018 15:32 15,2 C 16,1 C 79 % 1014,1 hPa 0,0 l/m 17,0 km/h (3 Bft) W-SW 238 0 min 0,000 mm 1,4 UV-I 308 W/m 11,6 C 10,8 C 20,9 km/h (4 Bft) 100,00 %
17.05.2018 15:33 15,2 C 16,1 C 79 % 1014,1 hPa 0,0 l/m 10,7 km/h (2 Bft) W 259 0 min 0,000 mm 1,4 UV-I 301 W/m 11,6 C 13,0 C 16,1 km/h (3 Bft) 100,00 %
17.05.2018 15:34 15,2 C 16,1 C 80 % 1014,1 hPa 0,0 l/m 10,3 km/h (2 Bft) W-SW 255 0 min 0,000 mm 1,4 UV-I 297 W/m 11,8 C 13,2 C 14,5 km/h (3 Bft) 96,30 %
17.05.2018 15:35 15,2 C 16,1 C 79 % 1014,2 hPa 0,0 l/m 9,9 km/h (2 Bft) W 261 0 min 0,000 mm 1,4 UV-I 293 W/m 11,6 C 13,4 C 14,5 km/h (3 Bft) 100,00 %
17.05.2018 15:36 15,2 C 16,1 C 80 % 1014,1 hPa 0,0 l/m 6,6 km/h (2 Bft) W 281 0 min 0,000 mm 1,3 UV-I 286 W/m 11,8 C 15,1 C 11,3 km/h (2 Bft) 100,00 %
17.05.2018 15:37 15,2 C 16,1 C 80 % 1014,2 hPa 0,0 l/m 14,9 km/h (3 Bft) W 261 0 min 0,000 mm 1,3 UV-I 279 W/m 11,8 C 11,5 C 17,7 km/h (3 Bft) 100,00 %
17.05.2018 15:38 15,2 C 16,1 C 79 % 1014,1 hPa 0,0 l/m 14,8 km/h (3 Bft) W 262 0 min 0,000 mm 1,3 UV-I 270 W/m 11,6 C 11,5 C 20,9 km/h (4 Bft) 100,00 %
17.05.2018 15:39 15,2 C 16,1 C 79 % 1014,2 hPa 0,0 l/m 11,2 km/h (2 Bft) W-SW 248 0 min 0,000 mm 1,3 UV-I 262 W/m 11,6 C 12,8 C 17,7 km/h (3 Bft) 100,00 %
17.05.2018 15:40 15,2 C 16,1 C 79 % 1014,2 hPa 0,0 l/m 15,3 km/h (3 Bft) SW 235 0 min 0,000 mm 1,2 UV-I 252 W/m 11,6 C 11,3 C 20,9 km/h (4 Bft) 100,00 %
17.05.2018 15:41 15,1 C 16,1 C 79 % 1014,1 hPa 0,0 l/m 14,5 km/h (3 Bft) W 273 0 min 0,000 mm 1,1 UV-I 244 W/m 11,5 C 11,5 C 20,9 km/h (4 Bft) 100,00 %
17.05.2018 15:42 15,1 C 16,1 C 80 % 1014,1 hPa 0,0 l/m 10,3 km/h (2 Bft) W-SW 244 0 min 0,000 mm 1,1 UV-I 235 W/m 11,7 C 13,1 C 12,9 km/h (3 Bft) 95,65 %
17.05.2018 15:43 15,2 C 16,1 C 80 % 1014,1 hPa 0,0 l/m 11,8 km/h (2 Bft) W 270 0 min 0,000 mm 1,0 UV-I 227 W/m 11,8 C 12,6 C 16,1 km/h (3 Bft) 95,83 %
17.05.2018 15:44 15,2 C 16,1 C 79 % 1014,1 hPa 0,0 l/m 13,4 km/h (3 Bft) W 259 0 min 0,000 mm 1,0 UV-I 217 W/m 11,6 C 12,0 C 20,9 km/h (4 Bft) 100,00 %
17.05.2018 15:45 15,1 C 16,1 C 79 % 1014,1 hPa 0,0 l/m 13,9 km/h (3 Bft) W 269 0 min 0,000 mm 1,0 UV-I 209 W/m 11,5 C 11,7 C 19,3 km/h (3 Bft) 91,67 %
17.05.2018 15:46 15,1 C 16,1 C 79 % 1014,0 hPa 0,0 l/m 8,6 km/h (2 Bft) W-SW 248 0 min 0,000 mm 0,9 UV-I 201 W/m 11,5 C 13,9 C 12,9 km/h (3 Bft) 100,00 %
17.05.2018 15:47 15,1 C 16,1 C 80 % 1014,1 hPa 0,0 l/m 10,1 km/h (2 Bft) W 261 0 min 0,000 mm 0,9 UV-I 197 W/m 11,7 C 13,2 C 12,9 km/h (3 Bft) 91,67 %
17.05.2018 15:48 15,0 C 16,1 C 79 % 1014,1 hPa 0,0 l/m 16,9 km/h (3 Bft) W-SW 249 0 min 0,000 mm 0,9 UV-I 193 W/m 11,4 C 10,6 C 20,9 km/h (4 Bft) 96,15 %
17.05.2018 15:49 14,9 C 16,1 C 80 % 1014,0 hPa 0,0 l/m 9,8 km/h (2 Bft) SW 232 0 min 0,000 mm 0,9 UV-I 191 W/m 11,5 C 13,1 C 19,3 km/h (3 Bft) 100,00 %
17.05.2018 15:50 14,9 C 16,1 C 80 % 1014,0 hPa 0,0 l/m 11,6 km/h (2 Bft) W-SW 238 0 min 0,000 mm 0,8 UV-I 189 W/m 11,5 C 12,3 C 19,3 km/h (3 Bft) 96,15 %
17.05.2018 15:51 14,9 C 16,1 C 79 % 1014,0 hPa 0,0 l/m 18,4 km/h (3 Bft) W-SW 256 0 min 0,000 mm 0,8 UV-I 188 W/m 11,3 C 10,0 C 22,5 km/h (4 Bft) 100,00 %
17.05.2018 15:52 14,9 C 16,1 C 80 % 1014,0 hPa 0,0 l/m 13,6 km/h (3 Bft) W-SW 237 0 min 0,000 mm 0,8 UV-I 186 W/m 11,5 C 11,6 C 19,3 km/h (3 Bft) 96,15 %
17.05.2018 15:53 14,9 C 16,1 C 80 % 1014,1 hPa 0,0 l/m 6,1 km/h (2 Bft) SW 231 0 min 0,000 mm 0,8 UV-I 188 W/m 11,5 C 14,9 C 8,0 km/h (2 Bft) 100,00 %
17.05.2018 15:54 14,9 C 16,1 C 80 % 1014,0 hPa 0,0 l/m 6,8 km/h (2 Bft) W-SW 255 0 min 0,000 mm 0,8 UV-I 189 W/m 11,5 C 14,7 C 9,7 km/h (2 Bft) 95,65 %
17.05.2018 15:55 14,9 C 16,1 C 80 % 1014,1 hPa 0,0 l/m 8,0 km/h (2 Bft) W-SW 252 0 min 0,000 mm 0,8 UV-I 190 W/m 11,5 C 14,0 C 14,5 km/h (3 Bft) 100,00 %
17.05.2018 15:56 14,8 C 16,1 C 80 % 1014,1 hPa 0,0 l/m 14,0 km/h (3 Bft) W-SW 257 0 min 0,000 mm 0,8 UV-I 190 W/m 11,4 C 11,3 C 19,3 km/h (3 Bft) 96,15 %
17.05.2018 15:57 14,8 C 16,1 C 81 % 1014,1 hPa 0,0 l/m 11,3 km/h (2 Bft) W-SW 250 0 min 0,000 mm 0,8 UV-I 193 W/m 11,6 C 12,3 C 16,1 km/h (3 Bft) 96,30 %
17.05.2018 15:58 14,8 C 16,1 C 81 % 1014,0 hPa 0,0 l/m 8,0 km/h (2 Bft) W-SW 241 0 min 0,000 mm 0,9 UV-I 200 W/m 11,6 C 13,9 C 14,5 km/h (3 Bft) 100,00 %
17.05.2018 15:59 14,9 C 16,1 C 81 % 1014,0 hPa 0,0 l/m 10,5 km/h (2 Bft) W-SW 253 0 min 0,000 mm 0,9 UV-I 212 W/m 11,7 C 12,8 C 14,5 km/h (3 Bft) 95,83 %
17.05.2018 16:00 14,8 C 16,1 C 81 % 1014,0 hPa 0,0 l/m 14,5 km/h (3 Bft) W 271 0 min 0,000 mm 1,0 UV-I 221 W/m 11,6 C 11,1 C 16,1 km/h (3 Bft) 100,00 %
17.05.2018 16:01 14,8 C 16,1 C 80 % 1014,0 hPa 0,0 l/m 9,1 km/h (2 Bft) SW 232 0 min 0,178 mm 1,0 UV-I 229 W/m 11,4 C 13,3 C 14,5 km/h (3 Bft) 93,33 %
17.05.2018 16:02 14,9 C 16,1 C 80 % 1014,0 hPa 0,0 l/m 10,9 km/h (2 Bft) W 278 0 min 0,000 mm 1,0 UV-I 235 W/m 11,5 C 12,6 C 14,5 km/h (3 Bft) 100,00 %
17.05.2018 16:03 14,9 C 16,1 C 81 % 1014,0 hPa 0,0 l/m 7,0 km/h (2 Bft) W-NW 286 0 min 0,000 mm 1,0 UV-I 241 W/m 11,7 C 14,6 C 11,3 km/h (2 Bft) 96,67 %
17.05.2018 16:04 14,9 C 16,1 C 81 % 1013,9 hPa 0,0 l/m 8,9 km/h (2 Bft) W 267 0 min 0,000 mm 1,0 UV-I 246 W/m 11,7 C 13,5 C 12,9 km/h (3 Bft) 100,00 %
17.05.2018 16:05 14,9 C 16,1 C 81 % 1013,9 hPa 0,0 l/m 11,8 km/h (2 Bft) W 259 0 min 0,000 mm 1,0 UV-I 252 W/m 11,7 C 12,2 C 14,5 km/h (3 Bft) 96,15 %
17.05.2018 16:06 15,0 C 16,1 C 81 % 1014,0 hPa 0,0 l/m 10,5 km/h (2 Bft) W 274 0 min 0,000 mm 1,1 UV-I 257 W/m 11,8 C 12,9 C 12,9 km/h (3 Bft) 100,00 %
17.05.2018 16:07 15,0 C 16,1 C 81 % 1014,0 hPa 0,0 l/m 6,3 km/h (2 Bft) W-SW 255 0 min 0,000 mm 1,1 UV-I 261 W/m 11,8 C 15,0 C 12,9 km/h (3 Bft) 96,15 %
17.05.2018 16:08 15,1 C 16,1 C 81 % 1013,9 hPa 0,0 l/m 4,7 km/h (1 Bft) W 271 0 min 0,000 mm 1,1 UV-I 265 W/m 11,9 C 15,1 C 6,4 km/h (2 Bft) 96,30 %
17.05.2018 16:09 15,1 C 16,1 C 81 % 1013,9 hPa 0,0 l/m 9,1 km/h (2 Bft) W-SW 244 0 min 0,000 mm 1,1 UV-I 263 W/m 11,9 C 13,6 C 12,9 km/h (3 Bft) 100,00 %
17.05.2018 16:10 15,1 C 16,1 C 80 % 1013,9 hPa 0,0 l/m 11,3 km/h (2 Bft) W-SW 254 0 min 0,000 mm 1,1 UV-I 253 W/m 11,7 C 12,7 C 14,5 km/h (3 Bft) 91,67 %
17.05.2018 16:11 15,1 C 16,1 C 80 % 1013,9 hPa 0,0 l/m 13,8 km/h (3 Bft) W 261 0 min 0,000 mm 1,0 UV-I 245 W/m 11,7 C 11,7 C 16,1 km/h (3 Bft) 100,00 %
17.05.2018 16:12 15,2 C 16,1 C 80 % 1013,9 hPa 0,0 l/m 9,4 km/h (2 Bft) W-SW 257 0 min 0,000 mm 1,0 UV-I 236 W/m 11,8 C 13,6 C 12,9 km/h (3 Bft) 100,00 %
17.05.2018 16:13 15,2 C 16,1 C 80 % 1013,9 hPa 0,0 l/m 9,1 km/h (2 Bft) W-SW 250 0 min 0,000 mm 1,0 UV-I 230 W/m 11,8 C 13,8 C 11,3 km/h (2 Bft) 100,00 %
17.05.2018 16:14 15,2 C 16,1 C 80 % 1013,9 hPa 0,0 l/m 9,5 km/h (2 Bft) W-SW 257 0 min 0,000 mm 0,9 UV-I 223 W/m 11,8 C 13,6 C 12,9 km/h (3 Bft) 100,00 %
17.05.2018 16:15 15,2 C 16,1 C 80 % 1013,9 hPa 0,0 l/m 9,1 km/h (2 Bft) W-SW 258 0 min 0,000 mm 0,9 UV-I 223 W/m 11,8 C 13,8 C 11,3 km/h (2 Bft) 100,00 %
17.05.2018 16:16 15,3 C 16,1 C 80 % 1013,9 hPa 0,0 l/m 8,7 km/h (2 Bft) SW 221 0 min 0,000 mm 0,9 UV-I 225 W/m 11,9 C 14,1 C 12,9 km/h (3 Bft) 100,00 %
17.05.2018 16:17 15,3 C 16,1 C 80 % 1013,9 hPa 0,0 l/m 9,7 km/h (2 Bft) W-SW 252 0 min 0,000 mm 0,9 UV-I 230 W/m 11,9 C 13,6 C 14,5 km/h (3 Bft) 95,65 %
17.05.2018 16:18 15,3 C 16,1 C 80 % 1014,0 hPa 0,0 l/m 9,9 km/h (2 Bft) W-SW 245 0 min 0,000 mm 0,9 UV-I 238 W/m 11,9 C 13,5 C 12,9 km/h (3 Bft) 100,00 %
17.05.2018 16:19 15,3 C 16,1 C 80 % 1014,0 hPa 0,0 l/m 12,2 km/h (2 Bft) W-SW 250 0 min 0,000 mm 1,0 UV-I 249 W/m 11,9 C 12,5 C 17,7 km/h (3 Bft) 100,00 %
17.05.2018 16:20 15,3 C 16,1 C 79 % 1013,9 hPa 0,0 l/m 11,4 km/h (2 Bft) W-SW 256 0 min 0,000 mm 1,1 UV-I 264 W/m 11,7 C 12,9 C 14,5 km/h (3 Bft) 100,00 %
17.05.2018 16:21 15,4 C 16,1 C 79 % 1013,9 hPa 0,0 l/m 10,6 km/h (2 Bft) S-SW 208 0 min 0,000 mm 1,1 UV-I 279 W/m 11,8 C 13,3 C 12,9 km/h (3 Bft) 100,00 %
17.05.2018 16:22 15,4 C 16,1 C 78 % 1014,0 hPa 0,0 l/m 9,7 km/h (2 Bft) W 266 0 min 0,000 mm 1,1 UV-I 286 W/m 11,6 C 13,7 C 12,9 km/h (3 Bft) 100,00 %
17.05.2018 16:23 15,4 C 16,1 C 77 % 1013,9 hPa 0,0 l/m 8,0 km/h (2 Bft) W 268 0 min 0,000 mm 1,1 UV-I 283 W/m 11,4 C 14,5 C 12,9 km/h (3 Bft) 94,44 %
17.05.2018 16:24 15,4 C 16,1 C 78 % 1013,9 hPa 0,0 l/m 9,6 km/h (2 Bft) SW 236 0 min 0,000 mm 1,1 UV-I 278 W/m 11,6 C 13,7 C 14,5 km/h (3 Bft) 100,00 %
17.05.2018 16:25 15,5 C 16,1 C 79 % 1013,9 hPa 0,0 l/m 13,5 km/h (3 Bft) W-SW 242 0 min 0,000 mm 1,1 UV-I 274 W/m 11,9 C 12,3 C 22,5 km/h (4 Bft) 100,00 %
17.05.2018 16:26 15,6 C 16,1 C 78 % 1013,9 hPa 0,0 l/m 10,5 km/h (2 Bft) W-SW 240 0 min 0,000 mm 1,1 UV-I 271 W/m 11,8 C 13,6 C 14,5 km/h (3 Bft) 100,00 %
17.05.2018 16:27 15,6 C 16,1 C 78 % 1013,9 hPa 0,0 l/m 16,9 km/h (3 Bft) W 261 0 min 0,000 mm 1,1 UV-I 271 W/m 11,8 C 11,3 C 25,7 km/h (4 Bft) 100,00 %
17.05.2018 16:28 15,6 C 16,1 C 78 % 1013,9 hPa 0,0 l/m 12,8 km/h (3 Bft) W-SW 246 0 min 0,000 mm 1,1 UV-I 270 W/m 11,8 C 12,7 C 17,7 km/h (3 Bft) 100,00 %
17.05.2018 16:29 15,6 C 16,1 C 77 % 1013,9 hPa 0,0 l/m 11,6 km/h (2 Bft) W-SW 246 0 min 0,000 mm 1,1 UV-I 266 W/m 11,6 C 13,1 C 16,1 km/h (3 Bft) 100,00 %
17.05.2018 16:30 15,6 C 16,1 C 78 % 1013,9 hPa 0,0 l/m 14,3 km/h (3 Bft) W 260 0 min 0,000 mm 1,0 UV-I 258 W/m 11,8 C 12,1 C 17,7 km/h (3 Bft) 100,00 %
17.05.2018 16:31 15,7 C 16,1 C 78 % 1013,9 hPa 0,0 l/m 18,2 km/h (3 Bft) W-SW 243 0 min 0,000 mm 1,0 UV-I 247 W/m 11,9 C 11,1 C 22,5 km/h (4 Bft) 100,00 %
17.05.2018 16:32 15,6 C 16,1 C 76 % 1013,9 hPa 0,0 l/m 13,6 km/h (3 Bft) W-SW 246 0 min 0,000 mm 1,0 UV-I 237 W/m 11,4 C 12,4 C 17,7 km/h (3 Bft) 100,00 %
17.05.2018 16:33 15,6 C 16,1 C 76 % 1013,9 hPa 0,0 l/m 13,9 km/h (3 Bft) S-SW 209 0 min 0,000 mm 0,9 UV-I 226 W/m 11,4 C 12,3 C 17,7 km/h (3 Bft) 100,00 %
17.05.2018 16:34 15,6 C 16,1 C 76 % 1013,9 hPa 0,0 l/m 10,9 km/h (2 Bft) SW 226 0 min 0,000 mm 0,9 UV-I 216 W/m 11,4 C 13,4 C 16,1 km/h (3 Bft) 100,00 %
17.05.2018 16:35 15,6 C 16,1 C 77 % 1013,9 hPa 0,0 l/m 13,5 km/h (3 Bft) SW 223 0 min 0,000 mm 0,8 UV-I 208 W/m 11,6 C 12,4 C 17,7 km/h (3 Bft) 100,00 %
17.05.2018 16:36 15,6 C 16,1 C 76 % 1013,9 hPa 0,0 l/m 10,9 km/h (2 Bft) W-SW 240 0 min 0,000 mm 0,8 UV-I 202 W/m 11,4 C 13,4 C 14,5 km/h (3 Bft) 100,00 %
17.05.2018 16:37 15,6 C 16,1 C 77 % 1013,9 hPa 0,0 l/m 11,5 km/h (2 Bft) W-SW 243 0 min 0,000 mm 0,8 UV-I 197 W/m 11,6 C 13,2 C 19,3 km/h (3 Bft) 100,00 %
17.05.2018 16:38 15,6 C 16,1 C 77 % 1013,9 hPa 0,0 l/m 9,6 km/h (2 Bft) W-SW 248 0 min 0,000 mm 0,7 UV-I 193 W/m 11,6 C 14,0 C 14,5 km/h (3 Bft) 100,00 %
17.05.2018 16:39 15,6 C 16,1 C 78 % 1013,9 hPa 0,0 l/m 10,5 km/h (2 Bft) W-SW 254 0 min 0,000 mm 0,7 UV-I 192 W/m 11,8 C 13,6 C 14,5 km/h (3 Bft) 96,30 %
17.05.2018 16:40 15,6 C 16,1 C 77 % 1014,0 hPa 0,0 l/m 13,6 km/h (3 Bft) W-SW 253 0 min 0,000 mm 0,7 UV-I 196 W/m 11,6 C 12,4 C 16,1 km/h (3 Bft) 96,15 %
17.05.2018 16:41 15,6 C 16,1 C 77 % 1013,9 hPa 0,0 l/m 12,6 km/h (3 Bft) W 279 0 min 0,000 mm 0,8 UV-I 202 W/m 11,6 C 12,7 C 17,7 km/h (3 Bft) 100,00 %
17.05.2018 16:42 15,6 C 16,1 C 77 % 1013,9 hPa 0,0 l/m 15,3 km/h (3 Bft) W-SW 251 0 min 0,000 mm 0,8 UV-I 209 W/m 11,6 C 11,8 C 17,7 km/h (3 Bft) 100,00 %
17.05.2018 16:43 15,6 C 16,1 C 76 % 1013,9 hPa 0,0 l/m 12,7 km/h (3 Bft) W 259 0 min 0,000 mm 0,8 UV-I 215 W/m 11,4 C 12,7 C 16,1 km/h (3 Bft) 100,00 %
17.05.2018 16:44 15,6 C 16,1 C 76 % 1013,9 hPa 0,0 l/m 14,4 km/h (3 Bft) W-SW 255 0 min 0,000 mm 0,8 UV-I 218 W/m 11,4 C 12,1 C 20,9 km/h (4 Bft) 100,00 %
17.05.2018 16:45 15,6 C 16,1 C 77 % 1013,9 hPa 0,0 l/m 12,4 km/h (3 Bft) W 267 0 min 0,000 mm 0,8 UV-I 214 W/m 11,6 C 12,8 C 17,7 km/h (3 Bft) 95,65 %
17.05.2018 16:46 15,6 C 16,1 C 77 % 1014,0 hPa 0,0 l/m 12,5 km/h (3 Bft) W-SW 253 0 min 0,000 mm 0,8 UV-I 208 W/m 11,6 C 12,8 C 19,3 km/h (3 Bft) 100,00 %
17.05.2018 16:47 15,6 C 16,1 C 77 % 1013,9 hPa 0,0 l/m 9,7 km/h (2 Bft) W-NW 288 0 min 0,000 mm 0,7 UV-I 197 W/m 11,6 C 13,9 C 14,5 km/h (3 Bft) 96,55 %
17.05.2018 16:48 15,6 C 16,1 C 76 % 1013,9 hPa 0,0 l/m 15,1 km/h (3 Bft) W 270 0 min 0,000 mm 0,7 UV-I 190 W/m 11,4 C 11,9 C 20,9 km/h (4 Bft) 100,00 %
17.05.2018 16:49 15,6 C 16,1 C 77 % 1013,9 hPa 0,0 l/m 11,7 km/h (2 Bft) W 281 0 min 0,000 mm 0,7 UV-I 185 W/m 11,6 C 13,1 C 16,1 km/h (3 Bft) 100,00 %
17.05.2018 16:50 15,6 C 16,1 C 77 % 1013,9 hPa 0,0 l/m 7,4 km/h (2 Bft) W 274 0 min 0,000 mm 0,7 UV-I 180 W/m 11,6 C 15,1 C 11,3 km/h (2 Bft) 100,00 %
17.05.2018 16:51 15,6 C 16,1 C 77 % 1013,9 hPa 0,0 l/m 10,2 km/h (2 Bft) W 267 0 min 0,000 mm 0,7 UV-I 174 W/m 11,6 C 13,7 C 14,5 km/h (3 Bft) 100,00 %
17.05.2018 16:52 15,6 C 16,1 C 77 % 1013,9 hPa 0,0 l/m 10,3 km/h (2 Bft) W 259 0 min 0,000 mm 0,6 UV-I 168 W/m 11,6 C 13,7 C 16,1 km/h (3 Bft) 100,00 %
17.05.2018 16:53 15,6 C 16,1 C 77 % 1013,9 hPa 0,0 l/m 13,1 km/h (3 Bft) W-SW 257 0 min 0,000 mm 0,6 UV-I 162 W/m 11,6 C 12,6 C 17,7 km/h (3 Bft) 100,00 %
17.05.2018 16:54 15,6 C 16,1 C 78 % 1013,9 hPa 0,0 l/m 14,6 km/h (3 Bft) W 261 0 min 0,000 mm 0,6 UV-I 158 W/m 11,8 C 12,0 C 19,3 km/h (3 Bft) 100,00 %
17.05.2018 16:55 15,6 C 16,1 C 77 % 1013,9 hPa 0,0 l/m 12,9 km/h (3 Bft) W 280 0 min 0,000 mm 0,6 UV-I 156 W/m 11,6 C 12,6 C 20,9 km/h (4 Bft) 100,00 %
17.05.2018 16:56 15,6 C 16,1 C 77 % 1013,8 hPa 0,0 l/m 13,7 km/h (3 Bft) W 279 0 min 0,000 mm 0,6 UV-I 158 W/m 11,6 C 12,3 C 17,7 km/h (3 Bft) 100,00 %
17.05.2018 16:57 15,6 C 16,1 C 77 % 1013,8 hPa 0,0 l/m 12,6 km/h (3 Bft) W-SW 244 0 min 0,000 mm 0,6 UV-I 162 W/m 11,6 C 12,7 C 16,1 km/h (3 Bft) 100,00 %
17.05.2018 16:58 15,6 C 16,1 C 77 % 1013,9 hPa 0,0 l/m 11,4 km/h (2 Bft) SW 232 0 min 0,000 mm 0,6 UV-I 166 W/m 11,6 C 13,2 C 16,1 km/h (3 Bft) 95,83 %
17.05.2018 16:59 15,6 C 16,1 C 77 % 1013,9 hPa 0,0 l/m 13,5 km/h (3 Bft) W-SW 256 0 min 0,000 mm 0,7 UV-I 169 W/m 11,6 C 12,4 C 19,3 km/h (3 Bft) 96,55 %
17.05.2018 17:00 15,6 C 16,1 C 78 % 1013,9 hPa 0,0 l/m 13,5 km/h (3 Bft) W 263 0 min 0,000 mm 0,7 UV-I 169 W/m 11,8 C 12,4 C 17,7 km/h (3 Bft) 100,00 %
17.05.2018 17:02 15,6 C 16,1 C 77 % 1013,9 hPa 0,0 l/m 11,6 km/h (2 Bft) W-SW 247 0 min 0,152 mm 0,6 UV-I 168 W/m 11,6 C 13,1 C 14,5 km/h (3 Bft) 100,00 %
17.05.2018 17:03 15,6 C 16,1 C 78 % 1013,9 hPa 0,0 l/m 10,9 km/h (2 Bft) W 261 0 min 0,000 mm 0,6 UV-I 165 W/m 11,8 C 13,4 C 16,1 km/h (3 Bft) 100,00 %
17.05.2018 17:04 15,6 C 16,1 C 78 % 1013,8 hPa 0,0 l/m 13,0 km/h (3 Bft) W 260 0 min 0,000 mm 0,6 UV-I 165 W/m 11,8 C 12,6 C 17,7 km/h (3 Bft) 100,00 %
17.05.2018 17:05 15,6 C 16,1 C 78 % 1013,8 hPa 0,0 l/m 10,7 km/h (2 Bft) W-SW 242 0 min 0,000 mm 0,6 UV-I 163 W/m 11,8 C 13,5 C 17,7 km/h (3 Bft) 100,00 %
17.05.2018 17:06 15,6 C 16,1 C 78 % 1013,8 hPa 0,0 l/m 9,4 km/h (2 Bft) W-SW 257 0 min 0,000 mm 0,6 UV-I 164 W/m 11,8 C 14,1 C 12,9 km/h (3 Bft) 100,00 %
17.05.2018 17:07 15,7 C 16,1 C 78 % 1013,8 hPa 0,0 l/m 8,6 km/h (2 Bft) W 274 0 min 0,000 mm 0,6 UV-I 166 W/m 11,9 C 14,5 C 14,5 km/h (3 Bft) 100,00 %
17.05.2018 17:08 15,6 C 16,1 C 77 % 1013,7 hPa 0,0 l/m 10,5 km/h (2 Bft) W-SW 250 0 min 0,000 mm 0,6 UV-I 169 W/m 11,6 C 13,6 C 16,1 km/h (3 Bft) 100,00 %
17.05.2018 17:09 15,7 C 16,1 C 78 % 1013,7 hPa 0,0 l/m 13,7 km/h (3 Bft) W 263 0 min 0,000 mm 0,6 UV-I 174 W/m 11,9 C 12,5 C 19,3 km/h (3 Bft) 100,00 %
17.05.2018 17:10 15,7 C 16,1 C 78 % 1013,7 hPa 0,0 l/m 11,2 km/h (2 Bft) SW 223 0 min 0,000 mm 0,6 UV-I 179 W/m 11,9 C 13,4 C 16,1 km/h (3 Bft) 100,00 %
17.05.2018 17:11 15,7 C 16,1 C 77 % 1013,7 hPa 0,0 l/m 13,0 km/h (3 Bft) W-SW 242 0 min 0,000 mm 0,6 UV-I 183 W/m 11,7 C 12,7 C 17,7 km/h (3 Bft) 100,00 %
17.05.2018 17:12 15,7 C 16,1 C 77 % 1013,7 hPa 0,0 l/m 8,4 km/h (2 Bft) SW 223 0 min 0,000 mm 0,6 UV-I 186 W/m 11,7 C 14,6 C 12,9 km/h (3 Bft) 100,00 %
17.05.2018 17:13 15,7 C 16,1 C 77 % 1013,7 hPa 0,0 l/m 11,3 km/h (2 Bft) W-SW 258 0 min 0,000 mm 0,7 UV-I 189 W/m 11,7 C 13,3 C 14,5 km/h (3 Bft) 100,00 %
17.05.2018 17:14 15,7 C 16,1 C 77 % 1013,7 hPa 0,0 l/m 7,2 km/h (2 Bft) SW 225 0 min 0,000 mm 0,7 UV-I 192 W/m 11,7 C 15,3 C 12,9 km/h (3 Bft) 96,15 %
17.05.2018 17:15 15,7 C 16,1 C 77 % 1013,7 hPa 0,0 l/m 12,9 km/h (3 Bft) SW 229 0 min 0,000 mm 0,7 UV-I 194 W/m 11,7 C 12,7 C 17,7 km/h (3 Bft) 100,00 %
17.05.2018 17:16 15,7 C 16,1 C 76 % 1013,7 hPa 0,0 l/m 11,8 km/h (2 Bft) W 270 0 min 0,000 mm 0,7 UV-I 198 W/m 11,5 C 13,2 C 16,1 km/h (3 Bft) 100,00 %
17.05.2018 17:17 15,7 C 16,1 C 76 % 1013,7 hPa 0,0 l/m 8,6 km/h (2 Bft) W-SW 255 0 min 0,000 mm 0,7 UV-I 202 W/m 11,5 C 14,5 C 11,3 km/h (2 Bft) 100,00 %
17.05.2018 17:18 15,8 C 16,1 C 77 % 1013,7 hPa 0,0 l/m 5,0 km/h (1 Bft) W-SW 253 0 min 0,000 mm 0,7 UV-I 201 W/m 11,8 C 15,8 C 11,3 km/h (2 Bft) 100,00 %
17.05.2018 17:19 15,8 C 16,1 C 77 % 1013,8 hPa 0,0 l/m 7,8 km/h (2 Bft) W 263 0 min 0,000 mm 0,7 UV-I 197 W/m 11,8 C 15,0 C 11,3 km/h (2 Bft) 100,00 %
17.05.2018 17:20 15,8 C 16,1 C 77 % 1013,8 hPa 0,0 l/m 8,1 km/h (2 Bft) W 278 0 min 0,000 mm 0,7 UV-I 187 W/m 11,8 C 14,9 C 11,3 km/h (2 Bft) 98,06 %
17.05.2018 17:21 15,8 C 16,1 C 77 % 1013,8 hPa 0,0 l/m 10,7 km/h (2 Bft) W 275 0 min 0,000 mm 0,7 UV-I 172 W/m 11,8 C 13,7 C 14,5 km/h (3 Bft) 97,56 %
17.05.2018 17:22 15,8 C 16,1 C 77 % 1013,8 hPa 0,0 l/m 8,3 km/h (2 Bft) W 262 0 min 0,000 mm 0,6 UV-I 150 W/m 11,8 C 14,8 C 12,9 km/h (3 Bft) 100,00 %
17.05.2018 17:23 15,8 C 16,1 C 76 % 1013,9 hPa 0,0 l/m 14,8 km/h (3 Bft) W-SW 242 0 min 0,000 mm 0,5 UV-I 134 W/m 11,6 C 12,2 C 17,7 km/h (3 Bft) 100,00 %
17.05.2018 17:24 15,8 C 16,1 C 77 % 1013,8 hPa 0,0 l/m 12,3 km/h (3 Bft) W 263 0 min 0,000 mm 0,5 UV-I 128 W/m 11,8 C 13,1 C 16,1 km/h (3 Bft) 100,00 %
17.05.2018 17:25 15,8 C 16,1 C 76 % 1013,9 hPa 0,0 l/m 14,8 km/h (3 Bft) W 273 0 min 0,000 mm 0,5 UV-I 128 W/m 11,6 C 12,2 C 19,3 km/h (3 Bft) 96,55 %
17.05.2018 17:26 15,8 C 16,1 C 76 % 1013,9 hPa 0,0 l/m 10,5 km/h (2 Bft) SW 215 0 min 0,000 mm 0,5 UV-I 128 W/m 11,6 C 13,8 C 16,1 km/h (3 Bft) 100,00 %
17.05.2018 17:27 15,8 C 16,1 C 76 % 1013,9 hPa 0,0 l/m 11,3 km/h (2 Bft) W 277 0 min 0,000 mm 0,0 UV-I 127 W/m 11,6 C 13,5 C 14,5 km/h (3 Bft) 100,00 %
17.05.2018 17:28 15,8 C 16,1 C 77 % 1013,9 hPa 0,0 l/m 10,3 km/h (2 Bft) SW 234 0 min 0,000 mm 0,0 UV-I 126 W/m 11,8 C 13,9 C 14,5 km/h (3 Bft) 100,00 %
17.05.2018 17:29 15,8 C 16,1 C 76 % 1013,9 hPa 0,0 l/m 12,1 km/h (2 Bft) W 262 0 min 0,000 mm 0,0 UV-I 129 W/m 11,6 C 13,2 C 14,5 km/h (3 Bft) 100,00 %
17.05.2018 17:30 15,7 C 16,1 C 76 % 1013,9 hPa 0,0 l/m 9,7 km/h (2 Bft) S-SW 212 0 min 0,000 mm 0,3 UV-I 137 W/m 11,5 C 14,0 C 14,5 km/h (3 Bft) 100,00 %
17.05.2018 17:31 15,7 C 16,1 C 76 % 1013,9 hPa 0,0 l/m 16,3 km/h (3 Bft) W 261 0 min 0,000 mm 0,5 UV-I 142 W/m 11,5 C 11,6 C 19,3 km/h (3 Bft) 96,55 %
17.05.2018 17:33 15,7 C 16,1 C 77 % 1013,9 hPa 0,0 l/m 12,2 km/h (2 Bft) W-SW 249 0 min 0,000 mm 0,5 UV-I 143 W/m 11,7 C 13,0 C 16,1 km/h (3 Bft) 100,00 %
17.05.2018 17:34 15,6 C 16,1 C 77 % 1013,9 hPa 0,0 l/m 15,9 km/h (3 Bft) W-SW 243 0 min 0,000 mm 0,5 UV-I 145 W/m 11,6 C 11,6 C 24,1 km/h (4 Bft) 100,00 %
17.05.2018 17:35 15,6 C 16,1 C 77 % 1013,9 hPa 0,0 l/m 9,7 km/h (2 Bft) SW 225 0 min 0,000 mm 0,5 UV-I 147 W/m 11,6 C 13,9 C 16,1 km/h (3 Bft) 100,00 %
17.05.2018 17:36 15,6 C 16,1 C 77 % 1013,9 hPa 0,0 l/m 14,6 km/h (3 Bft) W 267 0 min 0,000 mm 0,5 UV-I 149 W/m 11,6 C 12,0 C 19,3 km/h (3 Bft) 86,67 %
17.05.2018 17:37 15,6 C 16,1 C 77 % 1013,9 hPa 0,0 l/m 13,4 km/h (3 Bft) W-SW 238 0 min 0,000 mm 0,5 UV-I 151 W/m 11,6 C 12,5 C 17,7 km/h (3 Bft) 100,00 %
17.05.2018 17:38 15,6 C 16,1 C 77 % 1013,9 hPa 0,0 l/m 13,8 km/h (3 Bft) W 272 0 min 0,000 mm 0,5 UV-I 158 W/m 11,6 C 12,3 C 20,9 km/h (4 Bft) 96,15 %
17.05.2018 17:39 15,6 C 16,1 C 77 % 1013,9 hPa 0,0 l/m 15,1 km/h (3 Bft) W-SW 249 0 min 0,000 mm 0,5 UV-I 166 W/m 11,6 C 11,9 C 22,5 km/h (4 Bft) 96,55 %
17.05.2018 17:40 15,6 C 16,1 C 77 % 1013,9 hPa 0,0 l/m 14,5 km/h (3 Bft) SW 222 0 min 0,000 mm 0,5 UV-I 168 W/m 11,6 C 12,1 C 22,5 km/h (4 Bft) 100,00 %
17.05.2018 17:41 15,6 C 16,1 C 77 % 1013,9 hPa 0,0 l/m 18,4 km/h (3 Bft) W-SW 257 0 min 0,000 mm 0,5 UV-I 170 W/m 11,6 C 10,9 C 27,4 km/h (4 Bft) 95,65 %
17.05.2018 17:42 15,6 C 16,1 C 77 % 1013,9 hPa 0,0 l/m 16,3 km/h (3 Bft) W-SW 245 0 min 0,000 mm 0,5 UV-I 184 W/m 11,6 C 11,5 C 22,5 km/h (4 Bft) 100,00 %
17.05.2018 17:43 15,6 C 16,1 C 77 % 1013,9 hPa 0,0 l/m 15,2 km/h (3 Bft) W-SW 245 0 min 0,000 mm 0,6 UV-I 202 W/m 11,6 C 11,9 C 22,5 km/h (4 Bft) 96,30 %
17.05.2018 17:44 15,6 C 16,1 C 77 % 1013,9 hPa 0,0 l/m 17,5 km/h (3 Bft) SW 234 0 min 0,000 mm 0,6 UV-I 216 W/m 11,6 C 11,2 C 25,7 km/h (4 Bft) 100,00 %
17.05.2018 17:45 15,6 C 16,1 C 76 % 1013,9 hPa 0,0 l/m 16,2 km/h (3 Bft) SW 223 0 min 0,000 mm 0,6 UV-I 220 W/m 11,4 C 11,5 C 22,5 km/h (4 Bft) 95,83 %
17.05.2018 17:46 15,6 C 16,1 C 77 % 1013,9 hPa 0,0 l/m 16,8 km/h (3 Bft) SW 236 0 min 0,000 mm 0,6 UV-I 222 W/m 11,6 C 11,4 C 20,9 km/h (4 Bft) 100,00 %
17.05.2018 17:47 15,7 C 16,1 C 77 % 1013,9 hPa 0,0 l/m 15,4 km/h (3 Bft) SW 229 0 min 0,000 mm 0,6 UV-I 223 W/m 11,7 C 11,9 C 20,9 km/h (4 Bft) 96,15 %
17.05.2018 17:48 15,7 C 16,1 C 77 % 1013,9 hPa 0,0 l/m 14,7 km/h (3 Bft) W-SW 254 0 min 0,000 mm 0,6 UV-I 222 W/m 11,7 C 12,1 C 20,9 km/h (4 Bft) 100,00 %
17.05.2018 17:49 15,7 C 16,1 C 77 % 1013,9 hPa 0,0 l/m 12,8 km/h (3 Bft) W-SW 255 0 min 0,000 mm 0,6 UV-I 219 W/m 11,7 C 12,8 C 17,7 km/h (3 Bft) 96,67 %
17.05.2018 17:50 15,7 C 16,1 C 77 % 1013,9 hPa 0,0 l/m 14,2 km/h (3 Bft) W 277 0 min 0,000 mm 0,6 UV-I 215 W/m 11,7 C 12,3 C 17,7 km/h (3 Bft) 96,15 %
17.05.2018 17:51 15,7 C 16,1 C 77 % 1013,9 hPa 0,0 l/m 16,0 km/h (3 Bft) W-SW 243 0 min 0,000 mm 0,6 UV-I 209 W/m 11,7 C 11,7 C 20,9 km/h (4 Bft) 100,00 %
17.05.2018 17:52 15,7 C 16,1 C 77 % 1013,9 hPa 0,0 l/m 13,0 km/h (3 Bft) W-SW 256 0 min 0,000 mm 0,5 UV-I 200 W/m 11,7 C 12,7 C 19,3 km/h (3 Bft) 92,86 %
17.05.2018 17:53 15,8 C 16,1 C 77 % 1013,9 hPa 0,0 l/m 12,8 km/h (3 Bft) W 273 0 min 0,000 mm 0,5 UV-I 188 W/m 11,8 C 12,9 C 16,1 km/h (3 Bft) 100,00 %
17.05.2018 17:54 15,8 C 16,1 C 77 % 1013,9 hPa 0,0 l/m 11,5 km/h (2 Bft) W 270 0 min 0,000 mm 0,5 UV-I 182 W/m 11,8 C 13,4 C 16,1 km/h (3 Bft) 95,65 %
17.05.2018 17:55 15,8 C 16,1 C 77 % 1013,9 hPa 0,0 l/m 12,4 km/h (3 Bft) W-NW 285 0 min 0,000 mm 0,2 UV-I 177 W/m 11,8 C 13,0 C 19,3 km/h (3 Bft) 100,00 %
17.05.2018 17:56 15,8 C 16,1 C 77 % 1013,9 hPa 0,0 l/m 14,7 km/h (3 Bft) W-SW 258 0 min 0,000 mm 0,0 UV-I 174 W/m 11,8 C 12,3 C 19,3 km/h (3 Bft) 95,65 %
17.05.2018 17:57 15,8 C 16,1 C 77 % 1013,9 hPa 0,0 l/m 7,2 km/h (2 Bft) SW 225 0 min 0,000 mm 0,0 UV-I 170 W/m 11,8 C 15,4 C 11,3 km/h (2 Bft) 100,00 %
17.05.2018 17:58 15,8 C 16,1 C 77 % 1013,9 hPa 0,0 l/m 8,6 km/h (2 Bft) SW 226 0 min 0,000 mm 0,0 UV-I 162 W/m 11,8 C 14,6 C 11,3 km/h (2 Bft) 95,83 %
17.05.2018 17:59 15,8 C 16,1 C 77 % 1013,9 hPa 0,0 l/m 12,3 km/h (3 Bft) W-SW 239 0 min 0,000 mm 0,0 UV-I 155 W/m 11,8 C 13,1 C 16,1 km/h (3 Bft) 95,65 %
17.05.2018 18:00 15,8 C 16,1 C 77 % 1013,9 hPa 0,0 l/m 16,2 km/h (3 Bft) S-SW 209 0 min 0,000 mm 0,0 UV-I 150 W/m 11,8 C 11,8 C 19,3 km/h (3 Bft) 96,30 %
17.05.2018 18:02 15,9 C 16,1 C 77 % 1013,9 hPa 0,0 l/m 10,0 km/h (2 Bft) W-SW 243 0 min 0,127 mm 0,0 UV-I 149 W/m 11,9 C 14,1 C 16,1 km/h (3 Bft) 97,56 %
17.05.2018 18:03 15,9 C 16,1 C 77 % 1013,9 hPa 0,0 l/m 14,2 km/h (3 Bft) W 265 0 min 0,000 mm 0,0 UV-I 142 W/m 11,9 C 12,5 C 19,3 km/h (3 Bft) 96,15 %
17.05.2018 18:04 15,8 C 16,1 C 77 % 1013,9 hPa 0,0 l/m 10,7 km/h (2 Bft) SW 232 0 min 0,000 mm 0,0 UV-I 129 W/m 11,8 C 13,7 C 16,1 km/h (3 Bft) 100,00 %
17.05.2018 18:05 15,8 C 16,1 C 77 % 1013,9 hPa 0,0 l/m 14,2 km/h (3 Bft) W 271 0 min 0,000 mm 0,0 UV-I 124 W/m 11,8 C 12,4 C 19,3 km/h (3 Bft) 92,86 %
17.05.2018 18:06 15,8 C 16,1 C 77 % 1014,0 hPa 0,0 l/m 11,4 km/h (2 Bft) W-SW 257 0 min 0,000 mm 0,0 UV-I 123 W/m 11,8 C 13,4 C 14,5 km/h (3 Bft) 100,00 %
17.05.2018 18:07 15,8 C 16,1 C 77 % 1014,0 hPa 0,0 l/m 18,7 km/h (3 Bft) W-SW 254 0 min 0,000 mm 0,0 UV-I 121 W/m 11,8 C 11,1 C 24,1 km/h (4 Bft) 96,15 %
17.05.2018 18:08 15,8 C 16,1 C 77 % 1013,9 hPa 0,0 l/m 15,5 km/h (3 Bft) W 274 0 min 0,000 mm 0,0 UV-I 115 W/m 11,8 C 12,0 C 20,9 km/h (4 Bft) 100,00 %
17.05.2018 18:09 15,8 C 16,1 C 77 % 1013,9 hPa 0,0 l/m 20,3 km/h (4 Bft) W-SW 241 0 min 0,000 mm 0,0 UV-I 107 W/m 11,8 C 10,7 C 30,6 km/h (5 Bft) 92,31 %
17.05.2018 18:10 15,7 C 16,1 C 76 % 1013,9 hPa 0,0 l/m 16,9 km/h (3 Bft) S-SW 205 0 min 0,000 mm 0,0 UV-I 96 W/m 11,5 C 11,5 C 22,5 km/h (4 Bft) 96,30 %
17.05.2018 18:11 15,7 C 16,1 C 77 % 1014,0 hPa 0,0 l/m 17,4 km/h (3 Bft) SW 234 0 min 0,000 mm 0,0 UV-I 90 W/m 11,7 C 11,3 C 25,7 km/h (4 Bft) 95,65 %
17.05.2018 18:12 15,7 C 16,1 C 77 % 1014,0 hPa 0,0 l/m 20,5 km/h (4 Bft) SW 234 0 min 0,000 mm 0,0 UV-I 84 W/m 11,7 C 10,5 C 25,7 km/h (4 Bft) 100,00 %
17.05.2018 18:13 15,6 C 16,1 C 78 % 1014,0 hPa 0,0 l/m 17,2 km/h (3 Bft) W-SW 242 0 min 0,000 mm 0,0 UV-I 77 W/m 11,8 C 11,3 C 22,5 km/h (4 Bft) 100,00 %
17.05.2018 18:14 15,6 C 16,1 C 78 % 1014,0 hPa 0,0 l/m 15,8 km/h (3 Bft) W-SW 238 0 min 0,000 mm 0,0 UV-I 76 W/m 11,8 C 11,7 C 25,7 km/h (4 Bft) 95,83 %
17.05.2018 18:15 15,6 C 16,1 C 78 % 1014,1 hPa 0,0 l/m 17,8 km/h (3 Bft) W 263 0 min 0,000 mm 0,0 UV-I 73 W/m 11,8 C 11,1 C 25,7 km/h (4 Bft) 100,00 %
17.05.2018 18:16 15,5 C 16,1 C 78 % 1014,0 hPa 0,0 l/m 17,9 km/h (3 Bft) W 261 0 min 0,000 mm 0,0 UV-I 71 W/m 11,7 C 10,9 C 22,5 km/h (4 Bft) 100,00 %
17.05.2018 18:17 15,5 C 16,1 C 78 % 1014,1 hPa 0,0 l/m 17,2 km/h (3 Bft) SW 216 0 min 0,000 mm 0,0 UV-I 70 W/m 11,7 C 11,1 C 22,5 km/h (4 Bft) 100,00 %
17.05.2018 18:18 15,5 C 16,1 C 78 % 1014,0 hPa 0,0 l/m 16,6 km/h (3 Bft) SW 231 0 min 0,000 mm 0,0 UV-I 70 W/m 11,7 C 11,3 C 25,7 km/h (4 Bft) 96,15 %
17.05.2018 18:19 15,4 C 16,1 C 78 % 1014,0 hPa 0,0 l/m 19,2 km/h (3 Bft) SW 227 0 min 0,000 mm 0,0 UV-I 70 W/m 11,6 C 10,5 C 25,7 km/h (4 Bft) 96,67 %
17.05.2018 18:20 15,4 C 16,1 C 78 % 1014,1 hPa 0,0 l/m 15,7 km/h (3 Bft) SW 229 0 min 0,000 mm 0,0 UV-I 71 W/m 11,6 C 11,5 C 20,9 km/h (4 Bft) 91,30 %
17.05.2018 18:21 15,4 C 16,1 C 78 % 1014,1 hPa 0,0 l/m 18,5 km/h (3 Bft) W-SW 240 0 min 0,000 mm 0,0 UV-I 77 W/m 11,6 C 10,7 C 22,5 km/h (4 Bft) 100,00 %
17.05.2018 18:22 15,4 C 16,1 C 78 % 1014,1 hPa 0,0 l/m 21,6 km/h (4 Bft) W-SW 238 0 min 0,000 mm 0,0 UV-I 81 W/m 11,6 C 9,9 C 27,4 km/h (4 Bft) 96,88 %
17.05.2018 18:23 15,3 C 16,1 C 78 % 1014,1 hPa 0,0 l/m 18,1 km/h (3 Bft) W-SW 250 0 min 0,000 mm 0,0 UV-I 85 W/m 11,5 C 10,6 C 25,7 km/h (4 Bft) 100,00 %
17.05.2018 18:24 15,3 C 16,1 C 78 % 1014,2 hPa 0,0 l/m 19,7 km/h (3 Bft) W-SW 240 0 min 0,000 mm 0,0 UV-I 87 W/m 11,5 C 10,2 C 25,7 km/h (4 Bft) 96,15 %
17.05.2018 18:25 15,3 C 16,1 C 78 % 1014,1 hPa 0,0 l/m 22,1 km/h (4 Bft) W-SW 238 0 min 0,000 mm 0,0 UV-I 88 W/m 11,5 C 9,6 C 30,6 km/h (5 Bft) 100,00 %
17.05.2018 18:26 15,3 C 16,1 C 78 % 1014,2 hPa 0,0 l/m 15,6 km/h (3 Bft) W 281 0 min 0,000 mm 0,0 UV-I 88 W/m 11,5 C 11,4 C 20,9 km/h (4 Bft) 95,65 %
17.05.2018 18:27 15,2 C 16,1 C 78 % 1014,1 hPa 0,0 l/m 16,7 km/h (3 Bft) W-SW 243 0 min 0,000 mm 0,0 UV-I 88 W/m 11,4 C 10,9 C 22,5 km/h (4 Bft) 96,30 %
17.05.2018 18:28 15,2 C 16,1 C 78 % 1014,2 hPa 0,0 l/m 14,1 km/h (3 Bft) SW 217 0 min 0,000 mm 0,0 UV-I 88 W/m 11,4 C 11,7 C 19,3 km/h (3 Bft) 95,65 %
17.05.2018 18:29 15,2 C 16,1 C 79 % 1014,1 hPa 0,0 l/m 13,6 km/h (3 Bft) SW 221 0 min 0,000 mm 0,0 UV-I 86 W/m 11,6 C 11,9 C 16,1 km/h (3 Bft) 96,67 %
17.05.2018 18:30 15,2 C 16,1 C 79 % 1014,2 hPa 0,0 l/m 12,6 km/h (3 Bft) W-SW 243 0 min 0,000 mm 0,0 UV-I 86 W/m 11,6 C 12,3 C 19,3 km/h (3 Bft) 92,86 %
17.05.2018 18:31 15,2 C 16,1 C 79 % 1014,2 hPa 0,0 l/m 14,8 km/h (3 Bft) W-SW 255 0 min 0,000 mm 0,0 UV-I 86 W/m 11,6 C 11,5 C 22,5 km/h (4 Bft) 96,67 %
17.05.2018 18:33 15,1 C 16,1 C 79 % 1014,2 hPa 0,0 l/m 16,7 km/h (3 Bft) SW 232 0 min 0,000 mm 0,0 UV-I 85 W/m 11,5 C 10,8 C 22,5 km/h (4 Bft) 97,73 %
17.05.2018 18:34 15,1 C 16,1 C 78 % 1014,2 hPa 0,0 l/m 13,9 km/h (3 Bft) SW 227 0 min 0,000 mm 0,0 UV-I 79 W/m 11,3 C 11,7 C 22,5 km/h (4 Bft) 100,00 %
17.05.2018 18:35 15,1 C 16,1 C 78 % 1014,2 hPa 0,0 l/m 16,5 km/h (3 Bft) SW 225 0 min 0,000 mm 0,0 UV-I 76 W/m 11,3 C 10,8 C 20,9 km/h (4 Bft) 93,33 %
17.05.2018 18:36 15,1 C 16,1 C 78 % 1014,2 hPa 0,0 l/m 17,0 km/h (3 Bft) SW 218 0 min 0,000 mm 0,0 UV-I 79 W/m 11,3 C 10,7 C 22,5 km/h (4 Bft) 100,00 %
17.05.2018 18:38 15,1 C 16,1 C 78 % 1014,2 hPa 0,0 l/m 14,2 km/h (3 Bft) W-SW 258 0 min 0,000 mm 0,0 UV-I 83 W/m 11,3 C 11,6 C 24,1 km/h (4 Bft) 97,87 %
17.05.2018 18:39 15,0 C 16,1 C 78 % 1014,2 hPa 0,0 l/m 15,4 km/h (3 Bft) SW 236 0 min 0,000 mm 0,0 UV-I 83 W/m 11,2 C 11,1 C 19,3 km/h (3 Bft) 96,15 %
17.05.2018 18:40 15,0 C 16,1 C 78 % 1014,2 hPa 0,0 l/m 12,8 km/h (3 Bft) S-SW 208 0 min 0,000 mm 0,0 UV-I 82 W/m 11,2 C 12,0 C 17,7 km/h (3 Bft) 100,00 %
17.05.2018 18:41 15,0 C 16,1 C 79 % 1014,2 hPa 0,0 l/m 13,9 km/h (3 Bft) SW 233 0 min 0,000 mm 0,0 UV-I 81 W/m 11,4 C 11,6 C 24,1 km/h (4 Bft) 92,86 %
17.05.2018 18:43 14,9 C 16,1 C 79 % 1014,3 hPa 0,0 l/m 17,8 km/h (3 Bft) W-SW 243 0 min 0,000 mm 0,0 UV-I 81 W/m 11,3 C 10,2 C 27,4 km/h (4 Bft) 97,96 %
17.05.2018 18:44 14,9 C 16,1 C 78 % 1014,3 hPa 0,0 l/m 18,7 km/h (3 Bft) SW 226 0 min 0,000 mm 0,0 UV-I 78 W/m 11,1 C 10,0 C 25,7 km/h (4 Bft) 96,30 %
17.05.2018 18:45 14,9 C 16,1 C 78 % 1014,2 hPa 0,0 l/m 13,7 km/h (3 Bft) SW 223 0 min 0,000 mm 0,0 UV-I 74 W/m 11,1 C 11,5 C 20,9 km/h (4 Bft) 100,00 %
17.05.2018 18:46 14,9 C 16,1 C 78 % 1014,3 hPa 0,0 l/m 18,5 km/h (3 Bft) W-SW 240 0 min 0,000 mm 0,0 UV-I 70 W/m 11,1 C 10,0 C 24,1 km/h (4 Bft) 95,83 %
17.05.2018 18:47 14,9 C 16,1 C 79 % 1014,3 hPa 0,0 l/m 18,3 km/h (3 Bft) SW 235 0 min 0,000 mm 0,0 UV-I 69 W/m 11,3 C 10,1 C 22,5 km/h (4 Bft) 100,00 %
17.05.2018 18:48 14,9 C 16,1 C 79 % 1014,3 hPa 0,0 l/m 11,2 km/h (2 Bft) SW 225 0 min 0,000 mm 0,0 UV-I 69 W/m 11,3 C 12,5 C 19,3 km/h (3 Bft) 91,67 %
17.05.2018 18:49 14,9 C 16,1 C 79 % 1014,3 hPa 0,0 l/m 15,9 km/h (3 Bft) SW 223 0 min 0,000 mm 0,0 UV-I 70 W/m 11,3 C 10,8 C 19,3 km/h (3 Bft) 100,00 %
17.05.2018 18:50 14,8 C 16,1 C 79 % 1014,3 hPa 0,0 l/m 13,8 km/h (3 Bft) W-SW 252 0 min 0,000 mm 0,0 UV-I 69 W/m 11,2 C 11,4 C 19,3 km/h (3 Bft) 96,15 %
17.05.2018 18:51 14,8 C 16,1 C 79 % 1014,3 hPa 0,0 l/m 20,0 km/h (4 Bft) SW 236 0 min 0,000 mm 0,0 UV-I 65 W/m 11,2 C 9,5 C 27,4 km/h (4 Bft) 100,00 %
17.05.2018 18:52 14,8 C 16,1 C 79 % 1014,4 hPa 0,0 l/m 20,5 km/h (4 Bft) W 261 0 min 0,000 mm 0,0 UV-I 59 W/m 11,2 C 9,4 C 25,7 km/h (4 Bft) 98,01 %
17.05.2018 18:53 14,8 C 16,1 C 79 % 1014,3 hPa 0,0 l/m 19,5 km/h (3 Bft) W-SW 246 0 min 0,000 mm 0,0 UV-I 55 W/m 11,2 C 9,6 C 25,7 km/h (4 Bft) 97,78 %
17.05.2018 18:54 14,8 C 16,1 C 79 % 1014,3 hPa 0,0 l/m 19,3 km/h (3 Bft) W-SW 239 0 min 0,000 mm 0,0 UV-I 56 W/m 11,2 C 9,7 C 24,1 km/h (4 Bft) 96,55 %
17.05.2018 18:55 14,8 C 16,1 C 79 % 1014,3 hPa 0,0 l/m 17,2 km/h (3 Bft) W-SW 251 0 min 0,000 mm 0,0 UV-I 63 W/m 11,2 C 10,3 C 25,7 km/h (4 Bft) 95,65 %
17.05.2018 18:56 14,7 C 16,1 C 79 % 1014,3 hPa 0,0 l/m 21,7 km/h (4 Bft) SW 233 0 min 0,000 mm 0,0 UV-I 71 W/m 11,1 C 8,9 C 29,0 km/h (5 Bft) 100,00 %
17.05.2018 18:57 14,7 C 16,1 C 79 % 1014,3 hPa 0,0 l/m 18,2 km/h (3 Bft) W-SW 248 0 min 0,000 mm 0,0 UV-I 75 W/m 11,1 C 9,8 C 24,1 km/h (4 Bft) 95,65 %
17.05.2018 18:58 14,7 C 16,1 C 79 % 1014,3 hPa 0,0 l/m 22,0 km/h (4 Bft) W 268 0 min 0,000 mm 0,0 UV-I 74 W/m 11,1 C 8,9 C 30,6 km/h (5 Bft) 100,00 %
17.05.2018 18:59 14,7 C 16,1 C 79 % 1014,3 hPa 0,0 l/m 20,3 km/h (4 Bft) SW 216 0 min 0,000 mm 0,0 UV-I 70 W/m 11,1 C 9,3 C 27,4 km/h (4 Bft) 95,83 %
17.05.2018 19:00 14,6 C 16,1 C 79 % 1014,3 hPa 0,0 l/m 18,0 km/h (3 Bft) W 273 0 min 0,102 mm 0,0 UV-I 63 W/m 11,0 C 9,8 C 29,0 km/h (5 Bft) 100,00 %
17.05.2018 19:02 14,5 C 16,1 C 80 % 1014,3 hPa 0,0 l/m 19,2 km/h (3 Bft) W-SW 246 0 min 0,000 mm 0,0 UV-I 55 W/m 11,1 C 9,3 C 27,4 km/h (4 Bft) 95,12 %
17.05.2018 19:03 14,4 C 16,1 C 80 % 1014,3 hPa 0,0 l/m 18,2 km/h (3 Bft) W-SW 257 0 min 0,000 mm 0,0 UV-I 51 W/m 11,0 C 9,5 C 25,7 km/h (4 Bft) 96,30 %
17.05.2018 19:04 14,4 C 16,1 C 81 % 1014,4 hPa 0,0 l/m 16,7 km/h (3 Bft) SW 234 0 min 0,000 mm 0,0 UV-I 50 W/m 11,2 C 9,9 C 20,9 km/h (4 Bft) 96,15 %
17.05.2018 19:05 14,3 C 16,1 C 81 % 1014,4 hPa 0,0 l/m 15,2 km/h (3 Bft) W 260 0 min 0,000 mm 0,0 UV-I 49 W/m 11,1 C 10,3 C 19,3 km/h (3 Bft) 100,00 %
17.05.2018 19:06 14,3 C 16,1 C 81 % 1014,4 hPa 0,0 l/m 13,8 km/h (3 Bft) SW 217 0 min 0,000 mm 0,0 UV-I 49 W/m 11,1 C 10,8 C 17,7 km/h (3 Bft) 96,15 %
17.05.2018 19:07 14,3 C 16,1 C 82 % 1014,4 hPa 0,0 l/m 10,5 km/h (2 Bft) W-SW 250 0 min 0,000 mm 0,0 UV-I 47 W/m 11,3 C 12,1 C 16,1 km/h (3 Bft) 100,00 %
17.05.2018 19:08 14,2 C 16,1 C 82 % 1014,4 hPa 0,0 l/m 16,5 km/h (3 Bft) W-SW 238 0 min 0,000 mm 0,0 UV-I 48 W/m 11,2 C 9,7 C 22,5 km/h (4 Bft) 100,00 %
17.05.2018 19:09 14,2 C 16,1 C 82 % 1014,4 hPa 0,0 l/m 19,5 km/h (3 Bft) S-SW 211 0 min 0,000 mm 0,0 UV-I 50 W/m 11,2 C 8,8 C 22,5 km/h (4 Bft) 93,75 %
17.05.2018 19:10 14,2 C 16,1 C 82 % 1014,4 hPa 0,0 l/m 13,4 km/h (3 Bft) W-SW 247 0 min 0,000 mm 0,0 UV-I 51 W/m 11,2 C 10,8 C 17,7 km/h (3 Bft) 97,50 %
17.05.2018 19:11 14,2 C 16,1 C 82 % 1014,4 hPa 0,0 l/m 12,6 km/h (3 Bft) SW 228 0 min 0,000 mm 0,0 UV-I 54 W/m 11,2 C 11,1 C 19,3 km/h (3 Bft) 100,00 %
17.05.2018 19:12 14,1 C 16,1 C 82 % 1014,5 hPa 0,0 l/m 14,7 km/h (3 Bft) SW 229 0 min 0,000 mm 0,0 UV-I 56 W/m 11,1 C 10,2 C 19,3 km/h (3 Bft) 95,83 %
17.05.2018 19:13 14,1 C 16,1 C 83 % 1014,4 hPa 0,0 l/m 11,7 km/h (2 Bft) W-SW 254 0 min 0,000 mm 0,0 UV-I 60 W/m 11,3 C 11,4 C 20,9 km/h (4 Bft) 100,00 %
17.05.2018 19:14 14,1 C 16,1 C 83 % 1014,4 hPa 0,0 l/m 17,8 km/h (3 Bft) W-SW 242 0 min 0,000 mm 0,0 UV-I 61 W/m 11,3 C 9,2 C 25,7 km/h (4 Bft) 96,30 %
17.05.2018 19:15 14,1 C 16,1 C 83 % 1014,4 hPa 0,0 l/m 12,2 km/h (2 Bft) W-SW 250 0 min 0,000 mm 0,0 UV-I 67 W/m 11,3 C 11,2 C 20,9 km/h (4 Bft) 100,00 %
17.05.2018 19:16 14,1 C 16,1 C 83 % 1014,4 hPa 0,0 l/m 15,7 km/h (3 Bft) SW 227 0 min 0,000 mm 0,0 UV-I 75 W/m 11,3 C 9,9 C 25,7 km/h (4 Bft) 96,30 %
17.05.2018 19:18 14,1 C 16,1 C 83 % 1014,4 hPa 0,0 l/m 13,4 km/h (3 Bft) W-SW 237 0 min 0,000 mm 0,0 UV-I 77 W/m 11,3 C 10,7 C 20,9 km/h (4 Bft) 95,12 %
17.05.2018 19:19 14,1 C 16,1 C 83 % 1014,4 hPa 0,0 l/m 8,9 km/h (2 Bft) W-SW 238 0 min 0,000 mm 0,0 UV-I 81 W/m 11,3 C 12,7 C 12,9 km/h (3 Bft) 96,97 %
17.05.2018 19:20 14,1 C 16,1 C 83 % 1014,4 hPa 0,0 l/m 12,2 km/h (2 Bft) W-SW 244 0 min 0,000 mm 0,0 UV-I 83 W/m 11,3 C 11,2 C 17,7 km/h (3 Bft) 100,00 %
17.05.2018 19:21 14,1 C 16,1 C 83 % 1014,4 hPa 0,0 l/m 9,8 km/h (2 Bft) W-SW 250 0 min 0,000 mm 0,0 UV-I 84 W/m 11,3 C 12,2 C 12,9 km/h (3 Bft) 90,91 %
17.05.2018 19:22 14,1 C 16,1 C 83 % 1014,4 hPa 0,0 l/m 12,0 km/h (2 Bft) S-SW 193 0 min 0,000 mm 0,0 UV-I 80 W/m 11,3 C 11,2 C 16,1 km/h (3 Bft) 100,00 %
17.05.2018 19:23 14,1 C 16,1 C 83 % 1014,4 hPa 0,0 l/m 13,5 km/h (3 Bft) SW 226 0 min 0,000 mm 0,0 UV-I 76 W/m 11,3 C 10,6 C 19,3 km/h (3 Bft) 95,12 %
17.05.2018 19:24 14,1 C 16,1 C 83 % 1014,4 hPa 0,0 l/m 15,5 km/h (3 Bft) W-SW 251 0 min 0,000 mm 0,0 UV-I 68 W/m 11,3 C 9,9 C 19,3 km/h (3 Bft) 95,83 %
17.05.2018 19:25 14,1 C 16,1 C 83 % 1014,5 hPa 0,0 l/m 15,3 km/h (3 Bft) SW 218 0 min 0,000 mm 0,0 UV-I 64 W/m 11,3 C 10,0 C 20,9 km/h (4 Bft) 96,15 %
17.05.2018 19:26 14,1 C 16,1 C 83 % 1014,4 hPa 0,0 l/m 12,1 km/h (2 Bft) SW 229 0 min 0,000 mm 0,0 UV-I 62 W/m 11,3 C 11,2 C 16,1 km/h (3 Bft) 100,00 %
17.05.2018 19:28 14,1 C 16,1 C 82 % 1014,4 hPa 0,0 l/m 12,4 km/h (3 Bft) W-SW 254 0 min 0,000 mm 0,0 UV-I 57 W/m 11,1 C 11,1 C 19,3 km/h (3 Bft) 100,00 %
17.05.2018 19:29 14,1 C 16,1 C 82 % 1014,4 hPa 0,0 l/m 12,0 km/h (2 Bft) SW 236 0 min 0,000 mm 0,0 UV-I 51 W/m 11,1 C 11,2 C 14,5 km/h (3 Bft) 100,00 %
17.05.2018 19:30 14,1 C 16,1 C 82 % 1014,5 hPa 0,0 l/m 12,9 km/h (3 Bft) SW 219 0 min 0,000 mm 0,0 UV-I 49 W/m 11,1 C 10,9 C 22,5 km/h (4 Bft) 100,00 %
17.05.2018 19:31 14,1 C 16,1 C 83 % 1014,5 hPa 0,0 l/m 14,6 km/h (3 Bft) SW 219 0 min 0,000 mm 0,0 UV-I 47 W/m 11,3 C 10,2 C 20,9 km/h (4 Bft) 100,00 %
17.05.2018 19:32 14,1 C 16,1 C 82 % 1014,5 hPa 0,0 l/m 14,3 km/h (3 Bft) W-SW 239 0 min 0,000 mm 0,0 UV-I 45 W/m 11,1 C 10,3 C 19,3 km/h (3 Bft) 100,00 %
17.05.2018 19:33 14,2 C 16,1 C 82 % 1014,5 hPa 0,0 l/m 12,8 km/h (3 Bft) W 263 0 min 0,000 mm 0,0 UV-I 43 W/m 11,2 C 11,0 C 17,7 km/h (3 Bft) 100,00 %
17.05.2018 19:34 14,2 C 16,1 C 82 % 1014,5 hPa 0,0 l/m 13,9 km/h (3 Bft) SW 235 0 min 0,000 mm 0,0 UV-I 42 W/m 11,2 C 10,6 C 17,7 km/h (3 Bft) 92,31 %
17.05.2018 19:35 14,2 C 16,1 C 82 % 1014,4 hPa 0,0 l/m 14,1 km/h (3 Bft) SW 226 0 min 0,000 mm 0,0 UV-I 40 W/m 11,2 C 10,5 C 19,3 km/h (3 Bft) 100,00 %
17.05.2018 19:36 14,2 C 16,1 C 82 % 1014,4 hPa 0,0 l/m 12,8 km/h (3 Bft) SW 228 0 min 0,000 mm 0,0 UV-I 40 W/m 11,2 C 11,0 C 16,1 km/h (3 Bft) 96,15 %
17.05.2018 19:37 14,2 C 16,1 C 81 % 1014,4 hPa 0,0 l/m 11,1 km/h (2 Bft) SW 236 0 min 0,000 mm 0,0 UV-I 40 W/m 11,0 C 11,7 C 14,5 km/h (3 Bft) 100,00 %
17.05.2018 19:38 14,2 C 16,1 C 81 % 1014,4 hPa 0,0 l/m 10,5 km/h (2 Bft) W-SW 257 0 min 0,000 mm 0,0 UV-I 40 W/m 11,0 C 12,0 C 17,7 km/h (3 Bft) 95,65 %
17.05.2018 19:39 14,2 C 16,1 C 82 % 1014,5 hPa 0,0 l/m 10,2 km/h (2 Bft) W-SW 254 0 min 0,000 mm 0,0 UV-I 40 W/m 11,2 C 12,1 C 14,5 km/h (3 Bft) 100,00 %
17.05.2018 19:40 14,2 C 16,1 C 82 % 1014,5 hPa 0,0 l/m 10,7 km/h (2 Bft) SW 221 0 min 0,000 mm 0,0 UV-I 40 W/m 11,2 C 11,9 C 14,5 km/h (3 Bft) 95,65 %
17.05.2018 19:41 14,2 C 16,1 C 82 % 1014,5 hPa 0,0 l/m 14,9 km/h (3 Bft) SW 215 0 min 0,000 mm 0,0 UV-I 40 W/m 11,2 C 10,3 C 20,9 km/h (4 Bft) 92,59 %
17.05.2018 19:42 14,2 C 16,1 C 82 % 1014,5 hPa 0,0 l/m 11,0 km/h (2 Bft) W-SW 239 0 min 0,000 mm 0,0 UV-I 41 W/m 11,2 C 11,8 C 17,7 km/h (3 Bft) 100,00 %
17.05.2018 19:43 14,2 C 16,1 C 82 % 1014,5 hPa 0,0 l/m 7,7 km/h (2 Bft) S-SW 213 0 min 0,000 mm 0,0 UV-I 44 W/m 11,2 C 13,4 C 11,3 km/h (2 Bft) 96,30 %
17.05.2018 19:44 14,2 C 16,1 C 82 % 1014,5 hPa 0,0 l/m 12,0 km/h (2 Bft) W-SW 258 0 min 0,000 mm 0,0 UV-I 46 W/m 11,2 C 11,4 C 17,7 km/h (3 Bft) 100,00 %
17.05.2018 19:45 14,2 C 16,1 C 82 % 1014,6 hPa 0,0 l/m 13,4 km/h (3 Bft) W-SW 238 0 min 0,000 mm 0,0 UV-I 48 W/m 11,2 C 10,8 C 17,7 km/h (3 Bft) 96,67 %
17.05.2018 19:46 14,1 C 16,1 C 82 % 1014,5 hPa 0,0 l/m 9,8 km/h (2 Bft) SW 228 0 min 0,000 mm 0,0 UV-I 49 W/m 11,1 C 12,2 C 12,9 km/h (3 Bft) 100,00 %
17.05.2018 19:47 14,1 C 16,1 C 82 % 1014,5 hPa 0,0 l/m 11,3 km/h (2 Bft) W-SW 246 0 min 0,000 mm 0,0 UV-I 49 W/m 11,1 C 11,5 C 17,7 km/h (3 Bft) 91,67 %
17.05.2018 19:48 14,1 C 16,1 C 82 % 1014,5 hPa 0,0 l/m 14,0 km/h (3 Bft) W 261 0 min 0,000 mm 0,0 UV-I 48 W/m 11,1 C 10,5 C 17,7 km/h (3 Bft) 100,00 %
17.05.2018 19:49 14,1 C 16,1 C 82 % 1014,5 hPa 0,0 l/m 11,9 km/h (2 Bft) SW 220 0 min 0,000 mm 0,0 UV-I 47 W/m 11,1 C 11,3 C 17,7 km/h (3 Bft) 96,15 %
17.05.2018 19:50 14,1 C 16,1 C 82 % 1014,5 hPa 0,0 l/m 12,4 km/h (3 Bft) SW 232 0 min 0,000 mm 0,0 UV-I 47 W/m 11,1 C 11,1 C 17,7 km/h (3 Bft) 96,55 %
17.05.2018 19:51 14,1 C 16,1 C 82 % 1014,5 hPa 0,0 l/m 14,7 km/h (3 Bft) SW 233 0 min 0,000 mm 0,0 UV-I 45 W/m 11,1 C 10,2 C 17,7 km/h (3 Bft) 91,67 %
17.05.2018 19:52 14,1 C 16,1 C 82 % 1014,5 hPa 0,0 l/m 12,1 km/h (2 Bft) SW 234 0 min 0,000 mm 0,0 UV-I 44 W/m 11,1 C 11,2 C 19,3 km/h (3 Bft) 96,30 %
17.05.2018 19:53 14,1 C 16,1 C 82 % 1014,5 hPa 0,0 l/m 9,8 km/h (2 Bft) SW 236 0 min 0,000 mm 0,0 UV-I 42 W/m 11,1 C 12,2 C 16,1 km/h (3 Bft) 95,65 %
17.05.2018 19:54 14,1 C 16,1 C 82 % 1014,5 hPa 0,0 l/m 12,9 km/h (3 Bft) SW 217 0 min 0,000 mm 0,0 UV-I 41 W/m 11,1 C 10,9 C 19,3 km/h (3 Bft) 100,00 %
17.05.2018 19:55 14,1 C 16,1 C 82 % 1014,5 hPa 0,0 l/m 13,8 km/h (3 Bft) SW 225 0 min 0,000 mm 0,0 UV-I 40 W/m 11,1 C 10,5 C 17,7 km/h (3 Bft) 97,73 %
17.05.2018 19:56 14,1 C 16,1 C 82 % 1014,5 hPa 0,0 l/m 11,8 km/h (2 Bft) S-SW 213 0 min 0,000 mm 0,0 UV-I 40 W/m 11,1 C 11,3 C 19,3 km/h (3 Bft) 91,67 %
17.05.2018 19:57 14,1 C 16,1 C 82 % 1014,5 hPa 0,0 l/m 11,7 km/h (2 Bft) W-SW 258 0 min 0,000 mm 0,0 UV-I 39 W/m 11,1 C 11,4 C 16,1 km/h (3 Bft) 100,00 %
17.05.2018 19:58 14,1 C 16,1 C 82 % 1014,5 hPa 0,0 l/m 15,4 km/h (3 Bft) S-SW 207 0 min 0,000 mm 0,0 UV-I 37 W/m 11,1 C 10,0 C 22,5 km/h (4 Bft) 95,12 %
17.05.2018 19:59 14,1 C 16,1 C 82 % 1014,6 hPa 0,0 l/m 14,5 km/h (3 Bft) W-SW 239 0 min 0,000 mm 0,0 UV-I 35 W/m 11,1 C 10,3 C 19,3 km/h (3 Bft) 92,86 %
17.05.2018 20:00 14,1 C 16,1 C 82 % 1014,5 hPa 0,0 l/m 12,9 km/h (3 Bft) W-SW 242 0 min 0,000 mm 0,0 UV-I 34 W/m 11,1 C 10,9 C 19,3 km/h (3 Bft) 96,30 %
17.05.2018 20:02 14,1 C 16,1 C 82 % 1014,6 hPa 0,0 l/m 12,3 km/h (3 Bft) W-SW 240 0 min 0,050 mm 0,0 UV-I 33 W/m 11,1 C 11,1 C 19,3 km/h (3 Bft) 96,23 %
17.05.2018 20:03 14,1 C 16,1 C 82 % 1014,5 hPa 0,0 l/m 12,6 km/h (3 Bft) SW 216 0 min 0,000 mm 0,0 UV-I 31 W/m 11,1 C 11,0 C 17,7 km/h (3 Bft) 96,15 %
17.05.2018 20:04 14,1 C 16,1 C 82 % 1014,5 hPa 0,0 l/m 12,7 km/h (3 Bft) W-SW 246 0 min 0,000 mm 0,0 UV-I 28 W/m 11,1 C 11,0 C 14,5 km/h (3 Bft) 100,00 %
17.05.2018 20:05 14,1 C 16,1 C 83 % 1014,6 hPa 0,0 l/m 12,2 km/h (2 Bft) W-SW 245 0 min 0,000 mm 0,0 UV-I 26 W/m 11,3 C 11,2 C 16,1 km/h (3 Bft) 96,15 %
17.05.2018 20:06 14,1 C 16,1 C 83 % 1014,6 hPa 0,0 l/m 11,9 km/h (2 Bft) W-SW 241 0 min 0,000 mm 0,0 UV-I 26 W/m 11,3 C 11,3 C 17,7 km/h (3 Bft) 100,00 %
17.05.2018 20:07 14,1 C 16,1 C 83 % 1014,6 hPa 0,0 l/m 18,6 km/h (3 Bft) W-SW 251 0 min 0,000 mm 0,0 UV-I 24 W/m 11,3 C 9,0 C 24,1 km/h (4 Bft) 96,55 %
17.05.2018 20:08 14,1 C 16,1 C 83 % 1014,6 hPa 0,0 l/m 16,1 km/h (3 Bft) W-SW 244 0 min 0,000 mm 0,0 UV-I 22 W/m 11,3 C 9,7 C 22,5 km/h (4 Bft) 100,00 %
17.05.2018 20:09 14,0 C 16,1 C 83 % 1014,6 hPa 0,0 l/m 16,8 km/h (3 Bft) W 263 0 min 0,000 mm 0,0 UV-I 20 W/m 11,2 C 9,4 C 22,5 km/h (4 Bft) 95,65 %
17.05.2018 20:10 14,0 C 16,1 C 83 % 1014,6 hPa 0,0 l/m 19,6 km/h (3 Bft) W-SW 249 0 min 0,000 mm 0,0 UV-I 19 W/m 11,2 C 8,6 C 27,4 km/h (4 Bft) 96,30 %
17.05.2018 20:11 14,0 C 16,1 C 83 % 1014,7 hPa 0,0 l/m 14,6 km/h (3 Bft) SW 217 0 min 0,000 mm 0,0 UV-I 18 W/m 11,2 C 10,1 C 17,7 km/h (3 Bft) 100,00 %
17.05.2018 20:13 14,0 C 16,1 C 83 % 1014,7 hPa 0,0 l/m 15,0 km/h (3 Bft) W-SW 248 0 min 0,000 mm 0,0 UV-I 17 W/m 11,2 C 10,0 C 24,1 km/h (4 Bft) 97,92 %
17.05.2018 20:14 14,0 C 16,1 C 83 % 1014,7 hPa 0,0 l/m 15,2 km/h (3 Bft) W 277 0 min 0,000 mm 0,0 UV-I 15 W/m 11,2 C 9,9 C 20,9 km/h (4 Bft) 100,00 %
17.05.2018 20:15 14,0 C 16,1 C 83 % 1014,7 hPa 0,0 l/m 14,4 km/h (3 Bft) W-SW 243 0 min 0,000 mm 0,0 UV-I 14 W/m 11,2 C 10,2 C 22,5 km/h (4 Bft) 100,00 %
17.05.2018 20:16 14,0 C 16,1 C 83 % 1014,7 hPa 0,0 l/m 22,4 km/h (4 Bft) W-SW 238 0 min 0,000 mm 0,0 UV-I 12 W/m 11,2 C 7,8 C 32,2 km/h (5 Bft) 100,00 %
17.05.2018 20:18 14,0 C 16,1 C 83 % 1014,7 hPa 0,0 l/m 16,5 km/h (3 Bft) W-SW 245 0 min 0,000 mm 0,0 UV-I 11 W/m 11,2 C 9,5 C 22,5 km/h (4 Bft) 97,56 %
17.05.2018 20:19 14,0 C 16,1 C 84 % 1014,7 hPa 0,0 l/m 17,3 km/h (3 Bft) W-SW 239 0 min 0,000 mm 0,0 UV-I 11 W/m 11,3 C 9,2 C 29,0 km/h (5 Bft) 95,83 %
17.05.2018 20:20 14,0 C 16,1 C 84 % 1014,7 hPa 0,0 l/m 17,0 km/h (3 Bft) W-SW 246 0 min 0,000 mm 0,0 UV-I 11 W/m 11,3 C 9,3 C 20,9 km/h (4 Bft) 100,00 %
17.05.2018 20:21 13,9 C 16,1 C 84 % 1014,7 hPa 0,0 l/m 13,2 km/h (3 Bft) W-SW 241 0 min 0,000 mm 0,0 UV-I 11 W/m 11,2 C 10,5 C 16,1 km/h (3 Bft) 100,00 %
17.05.2018 20:22 13,9 C 16,1 C 84 % 1014,7 hPa 0,0 l/m 15,9 km/h (3 Bft) S-SW 207 0 min 0,000 mm 0,0 UV-I 9 W/m 11,2 C 9,6 C 20,9 km/h (4 Bft) 100,00 %
17.05.2018 20:23 13,9 C 16,1 C 84 % 1014,7 hPa 0,0 l/m 13,4 km/h (3 Bft) SW 227 0 min 0,000 mm 0,0 UV-I 9 W/m 11,2 C 10,4 C 20,9 km/h (4 Bft) 100,00 %
17.05.2018 20:24 13,9 C 16,1 C 84 % 1014,7 hPa 0,0 l/m 15,3 km/h (3 Bft) W-SW 248 0 min 0,000 mm 0,0 UV-I 9 W/m 11,2 C 9,8 C 24,1 km/h (4 Bft) 95,83 %
17.05.2018 20:25 13,9 C 16,1 C 84 % 1014,7 hPa 0,0 l/m 13,0 km/h (3 Bft) SW 226 0 min 0,000 mm 0,0 UV-I 9 W/m 11,2 C 10,6 C 17,7 km/h (3 Bft) 96,15 %
17.05.2018 20:26 13,9 C 16,1 C 85 % 1014,7 hPa 0,0 l/m 20,2 km/h (4 Bft) W-SW 238 0 min 0,000 mm 0,0 UV-I 8 W/m 11,4 C 8,3 C 27,4 km/h (4 Bft) 100,00 %
17.05.2018 20:28 13,8 C 16,1 C 85 % 1014,7 hPa 0,0 l/m 14,5 km/h (3 Bft) W-SW 243 0 min 0,000 mm 0,0 UV-I 7 W/m 11,3 C 9,9 C 24,1 km/h (4 Bft) 98,18 %
17.05.2018 20:29 13,8 C 16,1 C 85 % 1014,7 hPa 0,0 l/m 16,3 km/h (3 Bft) W 263 0 min 0,000 mm 0,0 UV-I 7 W/m 11,3 C 9,3 C 20,9 km/h (4 Bft) 100,00 %
17.05.2018 20:30 13,8 C 16,1 C 85 % 1014,7 hPa 0,0 l/m 17,8 km/h (3 Bft) W 273 0 min 0,000 mm 0,0 UV-I 7 W/m 11,3 C 8,8 C 24,1 km/h (4 Bft) 100,00 %
17.05.2018 20:31 13,8 C 16,1 C 85 % 1014,8 hPa 0,0 l/m 14,7 km/h (3 Bft) W-SW 242 0 min 0,000 mm 0,0 UV-I 6 W/m 11,3 C 9,8 C 19,3 km/h (3 Bft) 100,00 %
17.05.2018 20:32 13,8 C 16,1 C 85 % 1014,8 hPa 0,0 l/m 14,7 km/h (3 Bft) W-SW 251 0 min 0,000 mm 0,0 UV-I 5 W/m 11,3 C 9,8 C 19,3 km/h (3 Bft) 100,00 %
17.05.2018 20:33 13,8 C 16,1 C 85 % 1014,8 hPa 0,0 l/m 17,1 km/h (3 Bft) SW 231 0 min 0,000 mm 0,0 UV-I 5 W/m 11,3 C 9,0 C 24,1 km/h (4 Bft) 100,00 %
17.05.2018 20:34 13,8 C 16,1 C 85 % 1014,9 hPa 0,0 l/m 9,2 km/h (2 Bft) W-SW 242 0 min 0,000 mm 0,0 UV-I 5 W/m 11,3 C 12,2 C 14,5 km/h (3 Bft) 100,00 %
17.05.2018 20:35 13,8 C 16,1 C 85 % 1014,9 hPa 0,0 l/m 14,1 km/h (3 Bft) W 259 0 min 0,000 mm 0,0 UV-I 5 W/m 11,3 C 10,1 C 19,3 km/h (3 Bft) 85,71 %
17.05.2018 20:36 13,8 C 16,1 C 85 % 1014,9 hPa 0,0 l/m 15,6 km/h (3 Bft) W-SW 254 0 min 0,000 mm 0,0 UV-I 5 W/m 11,3 C 9,5 C 19,3 km/h (3 Bft) 100,00 %
17.05.2018 20:38 13,8 C 16,1 C 85 % 1014,9 hPa 0,0 l/m 17,1 km/h (3 Bft) W-SW 254 0 min 0,000 mm 0,0 UV-I 5 W/m 11,3 C 9,0 C 25,7 km/h (4 Bft) 100,00 %
17.05.2018 20:39 13,8 C 16,1 C 85 % 1014,9 hPa 0,0 l/m 17,5 km/h (3 Bft) SW 223 0 min 0,000 mm 0,0 UV-I 5 W/m 11,3 C 8,9 C 20,9 km/h (4 Bft) 100,00 %
17.05.2018 20:40 13,8 C 16,1 C 85 % 1014,9 hPa 0,0 l/m 18,7 km/h (3 Bft) W-SW 245 0 min 0,000 mm 0,0 UV-I 4 W/m 11,3 C 8,6 C 29,0 km/h (5 Bft) 100,00 %
17.05.2018 20:41 13,8 C 16,1 C 84 % 1014,9 hPa 0,0 l/m 21,3 km/h (4 Bft) W 261 0 min 0,000 mm 0,0 UV-I 0 W/m 11,1 C 7,9 C 32,2 km/h (5 Bft) 100,00 %
17.05.2018 20:42 13,8 C 16,1 C 84 % 1014,8 hPa 0,0 l/m 18,8 km/h (3 Bft) W-SW 239 0 min 0,000 mm 0,0 UV-I 0 W/m 11,1 C 8,5 C 24,1 km/h (4 Bft) 100,00 %
17.05.2018 20:43 13,8 C 16,1 C 84 % 1014,8 hPa 0,0 l/m 22,1 km/h (4 Bft) W-SW 238 0 min 0,000 mm 0,0 UV-I 0 W/m 11,1 C 7,7 C 29,0 km/h (5 Bft) 100,00 %
17.05.2018 20:44 13,8 C 16,1 C 84 % 1014,8 hPa 0,0 l/m 21,5 km/h (4 Bft) SW 218 0 min 0,000 mm 0,0 UV-I 0 W/m 11,1 C 7,8 C 30,6 km/h (5 Bft) 96,15 %
17.05.2018 20:45 13,8 C 16,1 C 84 % 1014,8 hPa 0,0 l/m 25,6 km/h (4 Bft) W-SW 240 0 min 0,000 mm 0,0 UV-I 0 W/m 11,1 C 6,9 C 33,8 km/h (5 Bft) 100,00 %
17.05.2018 20:46 13,8 C 16,1 C 84 % 1014,8 hPa 0,0 l/m 21,3 km/h (4 Bft) SW 224 0 min 0,000 mm 0,0 UV-I 0 W/m 11,1 C 7,9 C 30,6 km/h (5 Bft) 100,00 %
17.05.2018 20:47 13,8 C 16,1 C 84 % 1014,8 hPa 0,0 l/m 22,3 km/h (4 Bft) W 272 0 min 0,000 mm 0,0 UV-I 0 W/m 11,1 C 7,6 C 32,2 km/h (5 Bft) 100,00 %
17.05.2018 20:48 13,8 C 16,1 C 84 % 1015,0 hPa 0,0 l/m 17,1 km/h (3 Bft) W-SW 238 0 min 0,000 mm 0,0 UV-I 0 W/m 11,1 C 9,0 C 24,1 km/h (4 Bft) 100,00 %
17.05.2018 20:49 13,8 C 16,1 C 84 % 1015,0 hPa 0,0 l/m 23,0 km/h (4 Bft) W-SW 250 0 min 0,000 mm 0,0 UV-I 0 W/m 11,1 C 7,4 C 29,0 km/h (5 Bft) 100,00 %
17.05.2018 20:50 13,8 C 16,1 C 84 % 1014,9 hPa 0,0 l/m 16,0 km/h (3 Bft) SW 229 0 min 0,000 mm 0,0 UV-I 0 W/m 11,1 C 9,4 C 20,9 km/h (4 Bft) 100,00 %
17.05.2018 20:51 13,8 C 16,1 C 84 % 1014,9 hPa 0,0 l/m 17,6 km/h (3 Bft) W-SW 252 0 min 0,000 mm 0,0 UV-I 0 W/m 11,1 C 8,9 C 22,5 km/h (4 Bft) 100,00 %
17.05.2018 20:52 13,8 C 16,1 C 84 % 1015,0 hPa 0,0 l/m 16,3 km/h (3 Bft) W 262 0 min 0,000 mm 0,0 UV-I 0 W/m 11,1 C 9,3 C 20,9 km/h (4 Bft) 100,00 %
17.05.2018 20:53 13,8 C 16,1 C 84 % 1015,0 hPa 0,0 l/m 19,2 km/h (3 Bft) W-SW 239 0 min 0,000 mm 0,0 UV-I 0 W/m 11,1 C 8,4 C 22,5 km/h (4 Bft) 95,83 %
17.05.2018 20:54 13,8 C 16,1 C 84 % 1015,0 hPa 0,0 l/m 13,3 km/h (3 Bft) SW 234 0 min 0,000 mm 0,0 UV-I 0 W/m 11,1 C 10,4 C 20,9 km/h (4 Bft) 100,00 %
17.05.2018 20:55 13,8 C 16,1 C 84 % 1015,0 hPa 0,0 l/m 15,1 km/h (3 Bft) W-SW 241 0 min 0,000 mm 0,0 UV-I 0 W/m 11,1 C 9,7 C 22,5 km/h (4 Bft) 100,00 %
17.05.2018 20:56 13,8 C 16,1 C 84 % 1015,0 hPa 0,0 l/m 22,1 km/h (4 Bft) SW 233 0 min 0,000 mm 0,0 UV-I 0 W/m 11,1 C 7,7 C 29,0 km/h (5 Bft) 100,00 %
17.05.2018 20:58 13,8 C 16,1 C 84 % 1015,1 hPa 0,0 l/m 17,6 km/h (3 Bft) SW 230 0 min 0,000 mm 0,0 UV-I 0 W/m 11,1 C 8,9 C 25,7 km/h (4 Bft) 100,00 %
17.05.2018 20:59 13,8 C 16,1 C 84 % 1015,1 hPa 0,0 l/m 18,7 km/h (3 Bft) W-SW 252 0 min 0,000 mm 0,0 UV-I 0 W/m 11,1 C 8,6 C 25,7 km/h (4 Bft) 96,30 %
17.05.2018 21:00 13,8 C 16,1 C 84 % 1015,0 hPa 0,0 l/m 15,3 km/h (3 Bft) W-SW 257 0 min 0,000 mm 0,0 UV-I 0 W/m 11,1 C 9,6 C 19,3 km/h (3 Bft) 100,00 %
17.05.2018 21:02 13,8 C 16,1 C 84 % 1015,1 hPa 0,0 l/m 15,4 km/h (3 Bft) W-NW 282 0 min 0,026 mm 0,0 UV-I 0 W/m 11,1 C 9,6 C 19,3 km/h (3 Bft) 100,00 %
17.05.2018 21:03 13,8 C 16,1 C 84 % 1015,1 hPa 0,0 l/m 17,1 km/h (3 Bft) W 263 0 min 0,000 mm 0,0 UV-I 0 W/m 11,1 C 9,0 C 24,1 km/h (4 Bft) 100,00 %
17.05.2018 21:04 13,7 C 16,1 C 84 % 1015,2 hPa 0,0 l/m 16,5 km/h (3 Bft) W-SW 258 0 min 0,000 mm 0,0 UV-I 0 W/m 11,0 C 9,1 C 20,9 km/h (4 Bft) 100,00 %
17.05.2018 21:05 13,7 C 16,1 C 84 % 1015,1 hPa 0,0 l/m 12,1 km/h (2 Bft) W-SW 249 0 min 0,000 mm 0,0 UV-I 0 W/m 11,0 C 10,7 C 17,7 km/h (3 Bft) 100,00 %
17.05.2018 21:06 13,7 C 16,1 C 84 % 1015,2 hPa 0,0 l/m 8,8 km/h (2 Bft) W-SW 237 0 min 0,000 mm 0,0 UV-I 0 W/m 11,0 C 12,3 C 14,5 km/h (3 Bft) 100,00 %
17.05.2018 21:07 13,7 C 16,1 C 85 % 1015,2 hPa 0,0 l/m 15,3 km/h (3 Bft) W-SW 252 0 min 0,000 mm 0,0 UV-I 0 W/m 11,2 C 9,5 C 20,9 km/h (4 Bft) 96,55 %
17.05.2018 21:08 13,7 C 16,1 C 85 % 1015,3 hPa 0,0 l/m 13,8 km/h (3 Bft) W 264 0 min 0,000 mm 0,0 UV-I 0 W/m 11,2 C 10,1 C 19,3 km/h (3 Bft) 100,00 %
17.05.2018 21:09 13,6 C 16,1 C 86 % 1015,2 hPa 0,0 l/m 11,9 km/h (2 Bft) W-SW 252 0 min 0,000 mm 0,0 UV-I 0 W/m 11,3 C 10,7 C 14,5 km/h (3 Bft) 94,12 %
17.05.2018 21:10 13,6 C 16,1 C 86 % 1015,2 hPa 0,0 l/m 8,4 km/h (2 Bft) W 266 0 min 0,000 mm 0,0 UV-I 0 W/m 11,3 C 12,4 C 12,9 km/h (3 Bft) 100,00 %
17.05.2018 21:11 13,5 C 16,1 C 86 % 1015,3 hPa 0,0 l/m 13,0 km/h (3 Bft) W 261 0 min 0,000 mm 0,0 UV-I 0 W/m 11,2 C 10,1 C 17,7 km/h (3 Bft) 100,00 %
17.05.2018 21:13 13,4 C 16,1 C 87 % 1015,3 hPa 0,0 l/m 12,9 km/h (3 Bft) W 259 0 min 0,000 mm 0,0 UV-I 0 W/m 11,3 C 10,1 C 19,3 km/h (3 Bft) 98,00 %
17.05.2018 21:14 13,3 C 16,1 C 87 % 1015,3 hPa 0,0 l/m 15,7 km/h (3 Bft) W-SW 258 0 min 0,000 mm 0,0 UV-I 0 W/m 11,2 C 8,9 C 22,5 km/h (4 Bft) 93,33 %
17.05.2018 21:15 13,3 C 16,1 C 87 % 1015,3 hPa 0,0 l/m 16,6 km/h (3 Bft) W 265 0 min 0,000 mm 0,0 UV-I 0 W/m 11,2 C 8,6 C 24,1 km/h (4 Bft) 96,15 %
17.05.2018 21:16 13,3 C 16,1 C 87 % 1015,3 hPa 0,0 l/m 14,2 km/h (3 Bft) W-SW 244 0 min 0,000 mm 0,0 UV-I 0 W/m 11,2 C 9,4 C 20,9 km/h (4 Bft) 100,00 %
17.05.2018 21:18 13,2 C 16,1 C 87 % 1015,3 hPa 0,0 l/m 12,7 km/h (3 Bft) W-SW 252 0 min 0,000 mm 0,0 UV-I 0 W/m 11,1 C 9,9 C 19,3 km/h (3 Bft) 98,11 %
17.05.2018 21:19 13,2 C 16,1 C 88 % 1015,3 hPa 0,0 l/m 15,2 km/h (3 Bft) SW 232 0 min 0,000 mm 0,0 UV-I 0 W/m 11,3 C 8,9 C 22,5 km/h (4 Bft) 100,00 %
17.05.2018 21:20 13,2 C 16,1 C 88 % 1015,2 hPa 0,0 l/m 12,3 km/h (3 Bft) W-SW 248 0 min 0,000 mm 0,0 UV-I 0 W/m 11,3 C 10,1 C 14,5 km/h (3 Bft) 100,00 %
17.05.2018 21:21 13,2 C 16,1 C 88 % 1015,2 hPa 0,0 l/m 12,2 km/h (2 Bft) W-SW 248 0 min 0,000 mm 0,0 UV-I 0 W/m 11,3 C 10,1 C 20,9 km/h (4 Bft) 100,00 %
17.05.2018 21:22 13,2 C 16,1 C 88 % 1015,3 hPa 0,0 l/m 10,1 km/h (2 Bft) W-SW 252 0 min 0,000 mm 0,0 UV-I 0 W/m 11,3 C 11,1 C 16,1 km/h (3 Bft) 100,00 %
17.05.2018 21:23 13,2 C 16,1 C 88 % 1015,3 hPa 0,0 l/m 13,1 km/h (3 Bft) SW 227 0 min 0,000 mm 0,0 UV-I 0 W/m 11,3 C 9,7 C 17,7 km/h (3 Bft) 91,30 %
17.05.2018 21:24 13,1 C 16,1 C 88 % 1015,3 hPa 0,0 l/m 13,6 km/h (3 Bft) SW 232 0 min 0,000 mm 0,0 UV-I 0 W/m 11,2 C 9,4 C 17,7 km/h (3 Bft) 100,00 %
17.05.2018 21:25 13,1 C 16,1 C 88 % 1015,3 hPa 0,0 l/m 13,4 km/h (3 Bft) W-SW 244 0 min 0,000 mm 0,0 UV-I 0 W/m 11,2 C 9,5 C 19,3 km/h (3 Bft) 100,00 %
17.05.2018 21:26 13,1 C 16,1 C 88 % 1015,3 hPa 0,0 l/m 14,2 km/h (3 Bft) W-SW 238 0 min 0,000 mm 0,0 UV-I 0 W/m 11,2 C 9,2 C 20,9 km/h (4 Bft) 100,00 %
17.05.2018 21:27 13,1 C 16,1 C 88 % 1015,4 hPa 0,0 l/m 14,5 km/h (3 Bft) W-SW 248 0 min 0,000 mm 0,0 UV-I 0 W/m 11,2 C 9,1 C 22,5 km/h (4 Bft) 100,00 %
17.05.2018 21:28 13,1 C 16,1 C 88 % 1015,3 hPa 0,0 l/m 11,8 km/h (2 Bft) W-SW 252 0 min 0,000 mm 0,0 UV-I 0 W/m 11,2 C 10,2 C 16,1 km/h (3 Bft) 100,00 %
17.05.2018 21:29 13,1 C 16,1 C 88 % 1015,3 hPa 0,0 l/m 10,1 km/h (2 Bft) W 265 0 min 0,000 mm 0,0 UV-I 0 W/m 11,2 C 11,0 C 17,7 km/h (3 Bft) 97,62 %
17.05.2018 21:30 13,1 C 16,1 C 89 % 1015,4 hPa 0,2 l/m 13,7 km/h (3 Bft) W-SW 252 0 min 0,000 mm 0,0 UV-I 0 W/m 11,3 C 9,4 C 19,3 km/h (3 Bft) 100,00 %
17.05.2018 21:31 13,1 C 16,1 C 89 % 1015,4 hPa 0,0 l/m 10,7 km/h (2 Bft) SW 231 0 min 0,000 mm 0,0 UV-I 0 W/m 11,3 C 10,7 C 17,7 km/h (3 Bft) 100,00 %
17.05.2018 21:33 13,1 C 16,1 C 89 % 1015,5 hPa 0,0 l/m 14,7 km/h (3 Bft) W-SW 245 0 min 0,000 mm 0,0 UV-I 0 W/m 11,3 C 9,0 C 19,3 km/h (3 Bft) 98,53 %
17.05.2018 21:34 13,1 C 16,1 C 89 % 1015,5 hPa 0,0 l/m 11,7 km/h (2 Bft) W 261 0 min 0,000 mm 0,0 UV-I 0 W/m 11,3 C 10,2 C 17,7 km/h (3 Bft) 91,30 %
17.05.2018 21:35 13,1 C 16,1 C 89 % 1015,4 hPa 0,0 l/m 14,2 km/h (3 Bft) W-NW 283 0 min 0,000 mm 0,0 UV-I 0 W/m 11,3 C 9,2 C 17,7 km/h (3 Bft) 100,00 %
17.05.2018 21:36 13,0 C 16,1 C 89 % 1015,5 hPa 0,0 l/m 18,4 km/h (3 Bft) W 260 0 min 0,000 mm 0,0 UV-I 0 W/m 11,2 C 7,6 C 22,5 km/h (4 Bft) 96,15 %
17.05.2018 21:37 13,0 C 16,1 C 89 % 1015,5 hPa 0,0 l/m 18,0 km/h (3 Bft) W 264 0 min 0,000 mm 0,0 UV-I 0 W/m 11,2 C 7,8 C 24,1 km/h (4 Bft) 100,00 %
17.05.2018 21:38 13,0 C 16,1 C 89 % 1015,5 hPa 0,0 l/m 14,3 km/h (3 Bft) SW 225 0 min 0,000 mm 0,0 UV-I 0 W/m 11,2 C 9,0 C 19,3 km/h (3 Bft) 95,65 %
17.05.2018 21:39 13,0 C 16,1 C 89 % 1015,5 hPa 0,0 l/m 11,5 km/h (2 Bft) W-NW 288 0 min 0,000 mm 0,0 UV-I 0 W/m 11,2 C 10,2 C 17,7 km/h (3 Bft) 100,00 %
17.05.2018 21:40 13,0 C 16,1 C 89 % 1015,5 hPa 0,0 l/m 12,9 km/h (3 Bft) S-SW 213 0 min 0,000 mm 0,0 UV-I 0 W/m 11,2 C 9,6 C 16,1 km/h (3 Bft) 91,67 %
17.05.2018 21:41 13,0 C 16,1 C 89 % 1015,5 hPa 0,0 l/m 19,1 km/h (3 Bft) SW 234 0 min 0,000 mm 0,0 UV-I 0 W/m 11,2 C 7,4 C 25,7 km/h (4 Bft) 96,88 %
17.05.2018 21:42 13,0 C 16,1 C 89 % 1015,5 hPa 0,0 l/m 15,8 km/h (3 Bft) S-SW 213 0 min 0,000 mm 0,0 UV-I 0 W/m 11,2 C 8,5 C 19,3 km/h (3 Bft) 95,83 %
17.05.2018 21:43 12,9 C 16,1 C 89 % 1015,5 hPa 0,0 l/m 12,8 km/h (3 Bft) W-SW 256 0 min 0,000 mm 0,0 UV-I 0 W/m 11,1 C 9,5 C 17,7 km/h (3 Bft) 100,00 %
17.05.2018 21:44 12,9 C 16,1 C 89 % 1015,6 hPa 0,0 l/m 17,2 km/h (3 Bft) SW 217 0 min 0,000 mm 0,0 UV-I 0 W/m 11,1 C 7,9 C 20,9 km/h (4 Bft) 95,83 %
17.05.2018 21:45 12,9 C 16,1 C 89 % 1015,5 hPa 0,0 l/m 11,8 km/h (2 Bft) W 270 0 min 0,000 mm 0,0 UV-I 0 W/m 11,1 C 9,9 C 17,7 km/h (3 Bft) 96,15 %
17.05.2018 21:46 12,9 C 16,1 C 89 % 1015,6 hPa 0,0 l/m 11,2 km/h (2 Bft) W 259 0 min 0,000 mm 0,0 UV-I 0 W/m 11,1 C 10,2 C 16,1 km/h (3 Bft) 100,00 %
17.05.2018 21:47 12,9 C 16,1 C 89 % 1015,6 hPa 0,0 l/m 15,8 km/h (3 Bft) W-SW 252 0 min 0,000 mm 0,0 UV-I 0 W/m 11,1 C 8,4 C 22,5 km/h (4 Bft) 96,15 %
17.05.2018 21:48 12,9 C 16,1 C 89 % 1015,6 hPa 0,0 l/m 17,8 km/h (3 Bft) W 281 0 min 0,000 mm 0,0 UV-I 0 W/m 11,1 C 7,7 C 24,1 km/h (4 Bft) 100,00 %
17.05.2018 21:49 12,9 C 16,1 C 89 % 1015,5 hPa 0,0 l/m 18,6 km/h (3 Bft) SW 215 0 min 0,000 mm 0,0 UV-I 0 W/m 11,1 C 7,4 C 25,7 km/h (4 Bft) 95,65 %
17.05.2018 21:50 12,9 C 16,1 C 89 % 1015,5 hPa 0,0 l/m 14,0 km/h (3 Bft) S-SW 209 0 min 0,000 mm 0,0 UV-I 0 W/m 11,1 C 9,0 C 20,9 km/h (4 Bft) 100,00 %
17.05.2018 21:51 12,9 C 16,1 C 89 % 1015,6 hPa 0,0 l/m 17,4 km/h (3 Bft) W-SW 243 0 min 0,000 mm 0,0 UV-I 0 W/m 11,1 C 7,8 C 22,5 km/h (4 Bft) 94,12 %
17.05.2018 21:52 12,8 C 16,1 C 89 % 1015,5 hPa 0,0 l/m 15,1 km/h (3 Bft) W-SW 250 0 min 0,000 mm 0,0 UV-I 0 W/m 11,0 C 8,5 C 19,3 km/h (3 Bft) 100,00 %
17.05.2018 21:53 12,8 C 16,1 C 89 % 1015,5 hPa 0,0 l/m 11,4 km/h (2 Bft) SW 233 0 min 0,000 mm 0,0 UV-I 0 W/m 11,0 C 10,0 C 16,1 km/h (3 Bft) 92,31 %
17.05.2018 21:54 12,8 C 16,1 C 89 % 1015,5 hPa 0,0 l/m 8,9 km/h (2 Bft) SW 227 0 min 0,000 mm 0,0 UV-I 0 W/m 11,0 C 11,3 C 12,9 km/h (3 Bft) 96,30 %
17.05.2018 21:55 12,8 C 16,1 C 89 % 1015,6 hPa 0,0 l/m 13,3 km/h (3 Bft) W-SW 238 0 min 0,000 mm 0,0 UV-I 0 W/m 11,0 C 9,2 C 17,7 km/h (3 Bft) 100,00 %
17.05.2018 21:56 12,8 C 16,1 C 90 % 1015,6 hPa 0,0 l/m 12,7 km/h (3 Bft) W-SW 252 0 min 0,000 mm 0,0 UV-I 0 W/m 11,2 C 9,4 C 17,7 km/h (3 Bft) 93,10 %
17.05.2018 21:57 12,7 C 15,6 C 90 % 1015,5 hPa 0,0 l/m 12,3 km/h (3 Bft) W 262 0 min 0,000 mm 0,0 UV-I 0 W/m 11,1 C 9,5 C 17,7 km/h (3 Bft) 100,00 %
17.05.2018 21:58 12,7 C 16,1 C 90 % 1015,6 hPa 0,0 l/m 10,0 km/h (2 Bft) SW 219 0 min 0,000 mm 0,0 UV-I 0 W/m 11,1 C 10,6 C 14,5 km/h (3 Bft) 95,83 %
17.05.2018 21:59 12,7 C 16,1 C 90 % 1015,6 hPa 0,0 l/m 11,5 km/h (2 Bft) W 260 0 min 0,000 mm 0,0 UV-I 0 W/m 11,1 C 9,8 C 14,5 km/h (3 Bft) 100,00 %
17.05.2018 22:00 12,7 C 15,6 C 90 % 1015,5 hPa 0,0 l/m 14,8 km/h (3 Bft) SW 224 0 min 0,025 mm 0,0 UV-I 0 W/m 11,1 C 8,5 C 22,5 km/h (4 Bft) 95,83 %
17.05.2018 22:02 12,7 C 15,6 C 90 % 1015,6 hPa 0,0 l/m 13,9 km/h (3 Bft) SW 227 0 min 0,000 mm 0,0 UV-I 0 W/m 11,1 C 8,8 C 19,3 km/h (3 Bft) 97,14 %
17.05.2018 22:03 12,7 C 15,6 C 90 % 1015,6 hPa 0,0 l/m 9,6 km/h (2 Bft) W-SW 253 0 min 0,000 mm 0,0 UV-I 0 W/m 11,1 C 10,8 C 19,3 km/h (3 Bft) 92,59 %
17.05.2018 22:04 12,7 C 16,1 C 90 % 1015,6 hPa 0,0 l/m 11,7 km/h (2 Bft) W 266 0 min 0,000 mm 0,0 UV-I 0 W/m 11,1 C 9,8 C 16,1 km/h (3 Bft) 100,00 %
17.05.2018 22:05 12,7 C 16,1 C 91 % 1015,5 hPa 0,0 l/m 16,1 km/h (3 Bft) W-SW 238 0 min 0,000 mm 0,0 UV-I 0 W/m 11,3 C 8,0 C 20,9 km/h (4 Bft) 93,33 %
17.05.2018 22:06 12,6 C 16,1 C 91 % 1015,6 hPa 0,0 l/m 17,3 km/h (3 Bft) SW 231 0 min 0,000 mm 0,0 UV-I 0 W/m 11,2 C 7,5 C 22,5 km/h (4 Bft) 100,00 %
17.05.2018 22:07 12,6 C 16,1 C 91 % 1015,6 hPa 0,0 l/m 13,4 km/h (3 Bft) SW 229 0 min 0,000 mm 0,0 UV-I 0 W/m 11,2 C 8,9 C 17,7 km/h (3 Bft) 95,24 %
17.05.2018 22:08 12,6 C 15,6 C 91 % 1015,6 hPa 0,0 l/m 14,2 km/h (3 Bft) W 270 0 min 0,000 mm 0,0 UV-I 0 W/m 11,2 C 8,6 C 22,5 km/h (4 Bft) 100,00 %
17.05.2018 22:09 12,6 C 15,6 C 91 % 1015,6 hPa 0,0 l/m 12,0 km/h (2 Bft) SW 233 0 min 0,000 mm 0,0 UV-I 0 W/m 11,2 C 9,5 C 16,1 km/h (3 Bft) 100,00 %
17.05.2018 22:10 12,6 C 16,1 C 91 % 1015,7 hPa 0,0 l/m 11,6 km/h (2 Bft) SW 234 0 min 0,000 mm 0,0 UV-I 0 W/m 11,2 C 9,7 C 17,7 km/h (3 Bft) 100,00 %
17.05.2018 22:11 12,6 C 15,6 C 91 % 1015,6 hPa 0,0 l/m 8,9 km/h (2 Bft) W-SW 245 0 min 0,000 mm 0,0 UV-I 0 W/m 11,2 C 11,1 C 16,1 km/h (3 Bft) 100,00 %
17.05.2018 22:13 12,6 C 16,1 C 91 % 1015,7 hPa 0,0 l/m 12,1 km/h (2 Bft) W-SW 248 0 min 0,000 mm 0,0 UV-I 0 W/m 11,2 C 9,5 C 16,1 km/h (3 Bft) 95,74 %
17.05.2018 22:14 12,6 C 15,6 C 91 % 1015,7 hPa 0,0 l/m 12,1 km/h (2 Bft) SW 227 0 min 0,000 mm 0,0 UV-I 0 W/m 11,2 C 9,5 C 16,1 km/h (3 Bft) 100,00 %
17.05.2018 22:15 12,7 C 15,6 C 91 % 1015,7 hPa 0,0 l/m 13,4 km/h (3 Bft) SW 219 0 min 0,000 mm 0,0 UV-I 0 W/m 11,3 C 9,0 C 17,7 km/h (3 Bft) 96,30 %
17.05.2018 22:16 12,7 C 15,6 C 91 % 1015,7 hPa 0,0 l/m 10,5 km/h (2 Bft) W 275 0 min 0,000 mm 0,0 UV-I 0 W/m 11,3 C 10,3 C 14,5 km/h (3 Bft) 93,10 %
17.05.2018 22:18 12,7 C 16,1 C 91 % 1015,7 hPa 0,0 l/m 14,6 km/h (3 Bft) SW 232 0 min 0,000 mm 0,0 UV-I 0 W/m 11,3 C 8,6 C 20,9 km/h (4 Bft) 97,56 %
17.05.2018 22:19 12,7 C 16,1 C 91 % 1015,7 hPa 0,0 l/m 12,1 km/h (2 Bft) W-SW 250 0 min 0,000 mm 0,0 UV-I 0 W/m 11,3 C 9,6 C 20,9 km/h (4 Bft) 100,00 %
17.05.2018 22:20 12,7 C 15,6 C 91 % 1015,7 hPa 0,0 l/m 16,5 km/h (3 Bft) SW 221 0 min 0,000 mm 0,0 UV-I 0 W/m 11,3 C 7,9 C 19,3 km/h (3 Bft) 96,15 %
17.05.2018 22:21 12,7 C 15,6 C 91 % 1015,7 hPa 0,0 l/m 17,5 km/h (3 Bft) W-SW 250 0 min 0,000 mm 0,0 UV-I 0 W/m 11,3 C 7,5 C 20,9 km/h (4 Bft) 100,00 %
17.05.2018 22:22 12,7 C 15,6 C 90 % 1015,7 hPa 0,0 l/m 13,1 km/h (3 Bft) SW 225 0 min 0,000 mm 0,0 UV-I 0 W/m 11,1 C 9,2 C 17,7 km/h (3 Bft) 93,33 %
17.05.2018 22:23 12,7 C 15,6 C 90 % 1015,8 hPa 0,0 l/m 15,9 km/h (3 Bft) SW 236 0 min 0,000 mm 0,0 UV-I 0 W/m 11,1 C 8,1 C 22,5 km/h (4 Bft) 96,15 %
17.05.2018 22:24 12,8 C 15,6 C 90 % 1015,8 hPa 0,0 l/m 13,6 km/h (3 Bft) W-SW 241 0 min 0,000 mm 0,0 UV-I 0 W/m 11,2 C 9,1 C 19,3 km/h (3 Bft) 96,30 %
17.05.2018 22:25 12,8 C 15,6 C 90 % 1015,8 hPa 0,0 l/m 15,7 km/h (3 Bft) SW 234 0 min 0,000 mm 0,0 UV-I 0 W/m 11,2 C 8,3 C 20,9 km/h (4 Bft) 92,31 %
17.05.2018 22:26 12,8 C 15,6 C 90 % 1015,8 hPa 0,0 l/m 15,4 km/h (3 Bft) W-SW 239 0 min 0,000 mm 0,0 UV-I 0 W/m 11,2 C 8,4 C 19,3 km/h (3 Bft) 100,00 %
17.05.2018 22:27 12,8 C 15,6 C 90 % 1015,8 hPa 0,0 l/m 15,4 km/h (3 Bft) W 266 0 min 0,000 mm 0,0 UV-I 0 W/m 11,2 C 8,4 C 20,9 km/h (4 Bft) 100,00 %
17.05.2018 22:28 12,8 C 15,6 C 90 % 1015,8 hPa 0,0 l/m 12,9 km/h (3 Bft) SW 230 0 min 0,000 mm 0,0 UV-I 0 W/m 11,2 C 9,4 C 17,7 km/h (3 Bft) 96,67 %
17.05.2018 22:29 12,8 C 15,6 C 90 % 1015,9 hPa 0,0 l/m 14,8 km/h (3 Bft) SW 221 0 min 0,000 mm 0,0 UV-I 0 W/m 11,2 C 8,6 C 20,9 km/h (4 Bft) 86,96 %
17.05.2018 22:30 12,8 C 15,6 C 90 % 1015,9 hPa 0,0 l/m 15,0 km/h (3 Bft) W-SW 250 0 min 0,000 mm 0,0 UV-I 0 W/m 11,2 C 8,5 C 17,7 km/h (3 Bft) 100,00 %
17.05.2018 22:31 12,8 C 15,6 C 90 % 1015,8 hPa 0,0 l/m 12,3 km/h (3 Bft) W 279 0 min 0,000 mm 0,0 UV-I 0 W/m 11,2 C 9,6 C 16,1 km/h (3 Bft) 96,15 %
17.05.2018 22:32 12,8 C 15,6 C 90 % 1015,8 hPa 0,0 l/m 9,7 km/h (2 Bft) SW 234 0 min 0,000 mm 0,0 UV-I 0 W/m 11,2 C 10,8 C 12,9 km/h (3 Bft) 100,00 %
17.05.2018 22:33 12,8 C 15,6 C 90 % 1015,9 hPa 0,0 l/m 13,4 km/h (3 Bft) W-SW 244 0 min 0,000 mm 0,0 UV-I 0 W/m 11,2 C 9,1 C 22,5 km/h (4 Bft) 96,15 %
17.05.2018 22:34 12,8 C 15,6 C 90 % 1015,9 hPa 0,0 l/m 13,3 km/h (3 Bft) W 267 0 min 0,000 mm 0,0 UV-I 0 W/m 11,2 C 9,2 C 16,1 km/h (3 Bft) 100,00 %
17.05.2018 22:35 12,8 C 15,6 C 90 % 1015,8 hPa 0,0 l/m 12,4 km/h (3 Bft) W-SW 256 0 min 0,000 mm 0,0 UV-I 0 W/m 11,2 C 9,6 C 16,1 km/h (3 Bft) 91,67 %
17.05.2018 22:36 12,8 C 15,6 C 90 % 1015,9 hPa 0,0 l/m 14,4 km/h (3 Bft) W-SW 257 0 min 0,000 mm 0,0 UV-I 0 W/m 11,2 C 8,8 C 20,9 km/h (4 Bft) 96,15 %
17.05.2018 22:37 12,8 C 15,6 C 90 % 1015,9 hPa 0,0 l/m 15,7 km/h (3 Bft) W-SW 244 0 min 0,000 mm 0,0 UV-I 0 W/m 11,2 C 8,3 C 20,9 km/h (4 Bft) 96,15 %
17.05.2018 22:38 12,8 C 15,6 C 90 % 1015,9 hPa 0,0 l/m 12,4 km/h (3 Bft) W 261 0 min 0,000 mm 0,0 UV-I 0 W/m 11,2 C 9,6 C 17,7 km/h (3 Bft) 96,30 %
17.05.2018 22:39 12,8 C 15,6 C 90 % 1015,9 hPa 0,0 l/m 13,5 km/h (3 Bft) W-SW 238 0 min 0,000 mm 0,0 UV-I 0 W/m 11,2 C 9,1 C 17,7 km/h (3 Bft) 100,00 %
17.05.2018 22:40 12,8 C 15,6 C 90 % 1015,9 hPa 0,0 l/m 11,3 km/h (2 Bft) SW 217 0 min 0,000 mm 0,0 UV-I 0 W/m 11,2 C 10,1 C 16,1 km/h (3 Bft) 97,96 %
17.05.2018 22:41 12,8 C 15,6 C 90 % 1015,9 hPa 0,0 l/m 13,2 km/h (3 Bft) W 261 0 min 0,000 mm 0,0 UV-I 0 W/m 11,2 C 9,2 C 17,7 km/h (3 Bft) 94,87 %
17.05.2018 22:42 12,8 C 15,6 C 89 % 1015,9 hPa 0,0 l/m 11,7 km/h (2 Bft) W-SW 248 0 min 0,000 mm 0,0 UV-I 0 W/m 11,0 C 9,9 C 16,1 km/h (3 Bft) 91,30 %
17.05.2018 22:43 12,9 C 15,6 C 89 % 1015,9 hPa 0,0 l/m 15,6 km/h (3 Bft) W-SW 250 0 min 0,000 mm 0,0 UV-I 0 W/m 11,1 C 8,4 C 20,9 km/h (4 Bft) 100,00 %
17.05.2018 22:44 12,9 C 15,6 C 89 % 1015,9 hPa 0,0 l/m 15,6 km/h (3 Bft) W-SW 254 0 min 0,000 mm 0,0 UV-I 0 W/m 11,1 C 8,4 C 22,5 km/h (4 Bft) 96,15 %
17.05.2018 22:45 12,9 C 15,6 C 89 % 1015,9 hPa 0,0 l/m 13,9 km/h (3 Bft) W-SW 247 0 min 0,000 mm 0,0 UV-I 0 W/m 11,1 C 9,1 C 19,3 km/h (3 Bft) 100,00 %
17.05.2018 22:46 12,9 C 15,6 C 89 % 1015,9 hPa 0,0 l/m 14,2 km/h (3 Bft) W-SW 255 0 min 0,000 mm 0,0 UV-I 0 W/m 11,1 C 8,9 C 20,9 km/h (4 Bft) 95,65 %
17.05.2018 22:47 12,9 C 15,6 C 89 % 1015,9 hPa 0,0 l/m 14,0 km/h (3 Bft) W 267 0 min 0,000 mm 0,0 UV-I 0 W/m 11,1 C 9,0 C 17,7 km/h (3 Bft) 100,00 %
17.05.2018 22:48 12,9 C 15,6 C 89 % 1015,9 hPa 0,0 l/m 15,6 km/h (3 Bft) W-SW 254 0 min 0,000 mm 0,0 UV-I 0 W/m 11,1 C 8,4 C 22,5 km/h (4 Bft) 92,31 %
17.05.2018 22:49 12,9 C 15,6 C 89 % 1015,9 hPa 0,0 l/m 14,1 km/h (3 Bft) W-SW 250 0 min 0,000 mm 0,0 UV-I 0 W/m 11,1 C 9,0 C 17,7 km/h (3 Bft) 96,30 %
17.05.2018 22:50 12,9 C 15,6 C 89 % 1015,9 hPa 0,0 l/m 15,2 km/h (3 Bft) SW 233 0 min 0,000 mm 0,0 UV-I 0 W/m 11,1 C 8,6 C 19,3 km/h (3 Bft) 100,00 %
17.05.2018 22:51 12,9 C 15,6 C 89 % 1015,9 hPa 0,0 l/m 10,6 km/h (2 Bft) W-SW 240 0 min 0,000 mm 0,0 UV-I 0 W/m 11,1 C 10,5 C 16,1 km/h (3 Bft) 96,30 %
17.05.2018 22:53 12,9 C 15,6 C 89 % 1015,8 hPa 0,0 l/m 13,3 km/h (3 Bft) W 261 0 min 0,000 mm 0,0 UV-I 0 W/m 11,1 C 9,3 C 20,9 km/h (4 Bft) 97,87 %
17.05.2018 22:54 12,9 C 15,6 C 89 % 1015,8 hPa 0,0 l/m 11,3 km/h (2 Bft) W-SW 242 0 min 0,000 mm 0,0 UV-I 0 W/m 11,1 C 10,2 C 16,1 km/h (3 Bft) 100,00 %
17.05.2018 22:55 12,9 C 15,6 C 90 % 1015,8 hPa 0,0 l/m 14,4 km/h (3 Bft) SW 230 0 min 0,000 mm 0,0 UV-I 0 W/m 11,3 C 8,9 C 19,3 km/h (3 Bft) 96,30 %
17.05.2018 22:56 12,9 C 15,6 C 90 % 1015,9 hPa 0,0 l/m 14,3 km/h (3 Bft) W 260 0 min 0,000 mm 0,0 UV-I 0 W/m 11,3 C 8,9 C 20,9 km/h (4 Bft) 97,95 %
17.05.2018 22:57 12,9 C 15,6 C 89 % 1015,8 hPa 0,0 l/m 16,2 km/h (3 Bft) W-SW 251 0 min 0,000 mm 0,0 UV-I 0 W/m 11,1 C 8,2 C 20,9 km/h (4 Bft) 97,73 %
17.05.2018 22:58 12,9 C 15,6 C 90 % 1015,9 hPa 0,0 l/m 17,4 km/h (3 Bft) W 266 0 min 0,000 mm 0,0 UV-I 0 W/m 11,3 C 7,8 C 22,5 km/h (4 Bft) 100,00 %
17.05.2018 22:59 12,9 C 15,6 C 90 % 1015,9 hPa 0,0 l/m 11,6 km/h (2 Bft) W 276 0 min 0,000 mm 0,0 UV-I 0 W/m 11,3 C 10,0 C 14,5 km/h (3 Bft) 95,83 %
17.05.2018 23:00 12,9 C 15,6 C 90 % 1015,9 hPa 0,0 l/m 10,2 km/h (2 Bft) W-SW 257 0 min 0,000 mm 0,0 UV-I 0 W/m 11,3 C 10,7 C 14,5 km/h (3 Bft) 100,00 %
17.05.2018 23:02 12,9 C 15,6 C 90 % 1015,9 hPa 0,0 l/m 13,1 km/h (3 Bft) W-NW 288 0 min 0,026 mm 0,0 UV-I 0 W/m 11,3 C 9,4 C 20,9 km/h (4 Bft) 92,00 %
17.05.2018 23:03 12,9 C 15,6 C 90 % 1015,9 hPa 0,0 l/m 11,4 km/h (2 Bft) W 263 0 min 0,000 mm 0,0 UV-I 0 W/m 11,3 C 10,1 C 14,5 km/h (3 Bft) 100,00 %
17.05.2018 23:04 12,8 C 15,6 C 90 % 1015,9 hPa 0,0 l/m 15,2 km/h (3 Bft) SW 236 0 min 0,000 mm 0,0 UV-I 0 W/m 11,2 C 8,5 C 20,9 km/h (4 Bft) 96,30 %
17.05.2018 23:05 12,8 C 15,6 C 90 % 1015,9 hPa 0,0 l/m 14,7 km/h (3 Bft) W-SW 253 0 min 0,000 mm 0,0 UV-I 0 W/m 11,2 C 8,6 C 19,3 km/h (3 Bft) 96,15 %
17.05.2018 23:06 12,9 C 15,6 C 90 % 1015,9 hPa 0,0 l/m 17,9 km/h (3 Bft) W-SW 247 0 min 0,000 mm 0,0 UV-I 0 W/m 11,3 C 7,7 C 24,1 km/h (4 Bft) 96,67 %
17.05.2018 23:07 12,9 C 15,6 C 90 % 1015,9 hPa 0,0 l/m 16,5 km/h (3 Bft) W-SW 253 0 min 0,000 mm 0,0 UV-I 0 W/m 11,3 C 8,1 C 25,7 km/h (4 Bft) 100,00 %
17.05.2018 23:08 12,9 C 15,6 C 90 % 1015,9 hPa 0,0 l/m 14,8 km/h (3 Bft) W 266 0 min 0,000 mm 0,0 UV-I 0 W/m 11,3 C 8,7 C 19,3 km/h (3 Bft) 96,30 %
17.05.2018 23:09 12,9 C 15,6 C 89 % 1016,0 hPa 0,0 l/m 12,8 km/h (3 Bft) W 269 0 min 0,000 mm 0,0 UV-I 0 W/m 11,1 C 9,5 C 16,1 km/h (3 Bft) 100,00 %
17.05.2018 23:10 12,9 C 15,6 C 89 % 1015,9 hPa 0,0 l/m 14,1 km/h (3 Bft) W 267 0 min 0,000 mm 0,0 UV-I 0 W/m 11,1 C 9,0 C 17,7 km/h (3 Bft) 91,67 %
17.05.2018 23:11 12,9 C 15,6 C 89 % 1015,9 hPa 0,0 l/m 12,4 km/h (3 Bft) W 277 0 min 0,000 mm 0,0 UV-I 0 W/m 11,1 C 9,7 C 17,7 km/h (3 Bft) 96,15 %
17.05.2018 23:13 12,9 C 15,6 C 89 % 1015,9 hPa 0,0 l/m 14,1 km/h (3 Bft) W 267 0 min 0,000 mm 0,0 UV-I 0 W/m 11,1 C 9,0 C 20,9 km/h (4 Bft) 94,34 %
17.05.2018 23:14 12,9 C 15,6 C 89 % 1015,9 hPa 0,0 l/m 12,2 km/h (2 Bft) W-SW 249 0 min 0,000 mm 0,0 UV-I 0 W/m 11,1 C 9,8 C 16,1 km/h (3 Bft) 100,00 %
17.05.2018 23:15 12,9 C 15,6 C 90 % 1015,9 hPa 0,0 l/m 12,6 km/h (3 Bft) W-SW 248 0 min 0,000 mm 0,0 UV-I 0 W/m 11,3 C 9,6 C 19,3 km/h (3 Bft) 100,00 %
17.05.2018 23:16 12,9 C 15,6 C 89 % 1015,9 hPa 0,0 l/m 11,4 km/h (2 Bft) W 261 0 min 0,000 mm 0,0 UV-I 0 W/m 11,1 C 10,1 C 14,5 km/h (3 Bft) 100,00 %
17.05.2018 23:17 12,9 C 15,6 C 89 % 1015,8 hPa 0,0 l/m 14,4 km/h (3 Bft) SW 230 0 min 0,000 mm 0,0 UV-I 0 W/m 11,1 C 8,9 C 19,3 km/h (3 Bft) 100,00 %
17.05.2018 23:18 12,9 C 15,6 C 89 % 1015,9 hPa 0,0 l/m 10,6 km/h (2 Bft) W 261 0 min 0,000 mm 0,0 UV-I 0 W/m 11,1 C 10,5 C 14,5 km/h (3 Bft) 96,15 %
17.05.2018 23:19 12,9 C 15,6 C 89 % 1015,9 hPa 0,0 l/m 12,6 km/h (3 Bft) W-SW 249 0 min 0,000 mm 0,0 UV-I 0 W/m 11,1 C 9,6 C 17,7 km/h (3 Bft) 100,00 %
17.05.2018 23:20 12,9 C 15,6 C 89 % 1015,9 hPa 0,0 l/m 16,6 km/h (3 Bft) W-SW 256 0 min 0,000 mm 0,0 UV-I 0 W/m 11,1 C 8,1 C 20,9 km/h (4 Bft) 100,00 %
17.05.2018 23:21 12,9 C 15,6 C 89 % 1015,9 hPa 0,0 l/m 13,0 km/h (3 Bft) W-NW 284 0 min 0,000 mm 0,0 UV-I 0 W/m 11,1 C 9,4 C 16,1 km/h (3 Bft) 100,00 %
17.05.2018 23:22 12,9 C 15,6 C 89 % 1015,9 hPa 0,0 l/m 12,7 km/h (3 Bft) W 263 0 min 0,000 mm 0,0 UV-I 0 W/m 11,1 C 9,6 C 16,1 km/h (3 Bft) 100,00 %
17.05.2018 23:23 12,8 C 15,6 C 89 % 1015,9 hPa 0,0 l/m 14,7 km/h (3 Bft) W-SW 249 0 min 0,000 mm 0,0 UV-I 0 W/m 11,0 C 8,6 C 17,7 km/h (3 Bft) 100,00 %
17.05.2018 23:24 12,9 C 15,6 C 89 % 1015,9 hPa 0,0 l/m 14,2 km/h (3 Bft) W-SW 240 0 min 0,000 mm 0,0 UV-I 0 W/m 11,1 C 8,9 C 19,3 km/h (3 Bft) 96,15 %
17.05.2018 23:25 12,8 C 15,6 C 89 % 1015,9 hPa 0,0 l/m 9,9 km/h (2 Bft) W-NW 299 0 min 0,000 mm 0,0 UV-I 0 W/m 11,0 C 10,7 C 16,1 km/h (3 Bft) 100,00 %
17.05.2018 23:26 12,9 C 15,6 C 89 % 1015,9 hPa 0,0 l/m 14,5 km/h (3 Bft) W 279 0 min 0,000 mm 0,0 UV-I 0 W/m 11,1 C 8,8 C 19,3 km/h (3 Bft) 100,00 %
17.05.2018 23:28 12,8 C 15,6 C 89 % 1015,9 hPa 0,0 l/m 9,4 km/h (2 Bft) NW 305 0 min 0,000 mm 0,0 UV-I 0 W/m 11,0 C 11,0 C 16,1 km/h (3 Bft) 100,00 %
17.05.2018 23:29 12,8 C 15,6 C 89 % 1015,9 hPa 0,0 l/m 5,0 km/h (1 Bft) W-NW 294 0 min 0,000 mm 0,0 UV-I 0 W/m 11,0 C 12,8 C 8,0 km/h (2 Bft) 100,00 %
17.05.2018 23:30 12,8 C 15,6 C 90 % 1015,9 hPa 0,0 l/m 8,7 km/h (2 Bft) W 266 0 min 0,000 mm 0,0 UV-I 0 W/m 11,2 C 11,4 C 14,5 km/h (3 Bft) 92,86 %
17.05.2018 23:31 12,8 C 15,6 C 90 % 1015,9 hPa 0,0 l/m 7,5 km/h (2 Bft) W 261 0 min 0,000 mm 0,0 UV-I 0 W/m 11,2 C 12,1 C 12,9 km/h (3 Bft) 100,00 %
17.05.2018 23:32 12,8 C 15,6 C 90 % 1015,9 hPa 0,0 l/m 14,0 km/h (3 Bft) W-SW 251 0 min 0,000 mm 0,0 UV-I 0 W/m 11,2 C 8,9 C 17,7 km/h (3 Bft) 100,00 %
17.05.2018 23:33 12,8 C 15,6 C 90 % 1015,9 hPa 0,0 l/m 9,0 km/h (2 Bft) W 278 0 min 0,000 mm 0,0 UV-I 0 W/m 11,2 C 11,2 C 11,3 km/h (2 Bft) 100,00 %
17.05.2018 23:34 12,8 C 15,6 C 90 % 1015,9 hPa 0,0 l/m 5,6 km/h (1 Bft) W 278 0 min 0,000 mm 0,0 UV-I 0 W/m 11,2 C 12,8 C 6,4 km/h (2 Bft) 100,00 %
17.05.2018 23:35 12,8 C 15,6 C 90 % 1016,0 hPa 0,0 l/m 6,2 km/h (2 Bft) W 259 0 min 0,000 mm 0,0 UV-I 0 W/m 11,2 C 12,8 C 8,0 km/h (2 Bft) 100,00 %
17.05.2018 23:36 12,8 C 15,6 C 90 % 1016,0 hPa 0,0 l/m 8,5 km/h (2 Bft) W 271 0 min 0,000 mm 0,0 UV-I 0 W/m 11,2 C 11,5 C 12,9 km/h (3 Bft) 92,31 %
17.05.2018 23:38 12,8 C 15,6 C 90 % 1015,9 hPa 0,0 l/m 8,1 km/h (2 Bft) W 261 0 min 0,000 mm 0,0 UV-I 0 W/m 11,2 C 11,7 C 12,9 km/h (3 Bft) 97,92 %
17.05.2018 23:39 12,8 C 15,6 C 90 % 1015,9 hPa 0,0 l/m 6,9 km/h (2 Bft) W 278 0 min 0,000 mm 0,0 UV-I 0 W/m 11,2 C 12,5 C 9,7 km/h (2 Bft) 100,00 %
17.05.2018 23:40 12,8 C 15,6 C 90 % 1016,0 hPa 0,0 l/m 9,7 km/h (2 Bft) W 260 0 min 0,000 mm 0,0 UV-I 0 W/m 11,2 C 10,8 C 14,5 km/h (3 Bft) 96,67 %
17.05.2018 23:41 12,8 C 15,6 C 90 % 1016,0 hPa 0,0 l/m 7,9 km/h (2 Bft) W 264 0 min 0,000 mm 0,0 UV-I 0 W/m 11,2 C 11,9 C 11,3 km/h (2 Bft) 100,00 %
17.05.2018 23:42 12,8 C 15,6 C 90 % 1016,0 hPa 0,0 l/m 9,8 km/h (2 Bft) W 268 0 min 0,000 mm 0,0 UV-I 0 W/m 11,2 C 10,8 C 14,5 km/h (3 Bft) 96,30 %
17.05.2018 23:43 12,8 C 15,6 C 90 % 1015,9 hPa 0,0 l/m 7,0 km/h (2 Bft) W-SW 257 0 min 0,000 mm 0,0 UV-I 0 W/m 11,2 C 12,4 C 14,5 km/h (3 Bft) 100,00 %
17.05.2018 23:44 12,8 C 15,6 C 90 % 1016,0 hPa 0,0 l/m 10,0 km/h (2 Bft) W 277 0 min 0,000 mm 0,0 UV-I 0 W/m 11,2 C 10,7 C 12,9 km/h (3 Bft) 93,94 %
17.05.2018 23:45 12,8 C 15,6 C 90 % 1016,0 hPa 0,0 l/m 10,9 km/h (2 Bft) W 271 0 min 0,000 mm 0,0 UV-I 0 W/m 11,2 C 10,2 C 14,5 km/h (3 Bft) 96,15 %
17.05.2018 23:46 12,8 C 15,6 C 90 % 1016,0 hPa 0,0 l/m 10,9 km/h (2 Bft) NW 306 0 min 0,000 mm 0,0 UV-I 0 W/m 11,2 C 10,2 C 16,1 km/h (3 Bft) 100,00 %
17.05.2018 23:47 12,8 C 15,6 C 90 % 1016,0 hPa 0,0 l/m 12,1 km/h (2 Bft) W-SW 258 0 min 0,000 mm 0,0 UV-I 0 W/m 11,2 C 9,7 C 17,7 km/h (3 Bft) 95,65 %
17.05.2018 23:48 12,8 C 15,6 C 90 % 1015,9 hPa 0,0 l/m 14,0 km/h (3 Bft) W-SW 258 0 min 0,000 mm 0,0 UV-I 0 W/m 11,2 C 8,9 C 19,3 km/h (3 Bft) 96,30 %
17.05.2018 23:49 12,8 C 15,6 C 90 % 1015,9 hPa 0,0 l/m 14,1 km/h (3 Bft) W 259 0 min 0,000 mm 0,0 UV-I 0 W/m 11,2 C 8,9 C 17,7 km/h (3 Bft) 96,15 %
17.05.2018 23:50 12,8 C 15,6 C 90 % 1015,9 hPa 0,0 l/m 14,1 km/h (3 Bft) W-SW 253 0 min 0,000 mm 0,0 UV-I 0 W/m 11,2 C 8,9 C 16,1 km/h (3 Bft) 100,00 %
17.05.2018 23:51 12,8 C 15,6 C 90 % 1015,9 hPa 0,0 l/m 10,5 km/h (2 Bft) W 260 0 min 0,000 mm 0,0 UV-I 0 W/m 11,2 C 10,4 C 14,5 km/h (3 Bft) 93,33 %
17.05.2018 23:52 12,8 C 15,6 C 90 % 1015,9 hPa 0,0 l/m 8,5 km/h (2 Bft) W-SW 252 0 min 0,000 mm 0,0 UV-I 0 W/m 11,2 C 11,5 C 11,3 km/h (2 Bft) 97,06 %
17.05.2018 23:53 12,8 C 15,6 C 90 % 1015,9 hPa 0,0 l/m 13,1 km/h (3 Bft) W 263 0 min 0,000 mm 0,0 UV-I 0 W/m 11,2 C 9,3 C 16,1 km/h (3 Bft) 100,00 %
17.05.2018 23:54 12,8 C 15,6 C 90 % 1015,9 hPa 0,0 l/m 11,1 km/h (2 Bft) W 266 0 min 0,000 mm 0,0 UV-I 0 W/m 11,2 C 10,1 C 17,7 km/h (3 Bft) 91,67 %
17.05.2018 23:55 12,8 C 15,6 C 90 % 1015,9 hPa 0,0 l/m 8,3 km/h (2 Bft) W 259 0 min 0,000 mm 0,0 UV-I 0 W/m 11,2 C 11,6 C 14,5 km/h (3 Bft) 100,00 %
17.05.2018 23:56 12,7 C 15,6 C 90 % 1015,9 hPa 0,0 l/m 10,3 km/h (2 Bft) W 263 0 min 0,000 mm 0,0 UV-I 0 W/m 11,1 C 10,4 C 14,5 km/h (3 Bft) 97,56 %
17.05.2018 23:57 12,7 C 15,6 C 90 % 1016,0 hPa 0,0 l/m 11,8 km/h (2 Bft) W-SW 242 0 min 0,000 mm 0,0 UV-I 0 W/m 11,1 C 9,7 C 16,1 km/h (3 Bft) 100,00 %
17.05.2018 23:58 12,7 C 15,6 C 90 % 1016,0 hPa 0,0 l/m 13,5 km/h (3 Bft) W 261 0 min 0,000 mm 0,0 UV-I 0 W/m 11,1 C 9,0 C 20,9 km/h (4 Bft) 95,65 %
17.05.2018 23:59 12,7 C 15,6 C 90 % 1016,0 hPa 0,0 l/m 11,3 km/h (2 Bft) W-SW 239 0 min 0,000 mm 0,0 UV-I 0 W/m 11,1 C 9,9 C 14,5 km/h (3 Bft) 100,00 %
_ Min-Zeit 04:41 05:41 16:32 02:53 - 03:29 - - - - - - 01:14 05:22 03:20 14:28
Minimum _ 10,9 C 15,6 C 76 % 1012,4 hPa - 4,2 km/h (1 Bft) - - - - - - 9,2 C 4,6 C 6,4 km/h (2 Bft) 83,33 %
_ Max-Zeit 18:00 00:00 04:49 23:09 15:07 20:45 - - 00:00 16:01 15:25 10:24 14:55 17:18 11:49 00:06
Maximum _ 15,9 C 16,1 C 92 % 1016,0 hPa 0,2 l/m 25,6 km/h
W-SW (4 Bft)
- - 0 min 0,178 mm 1,7 UV-I 384 W/m 12,3 C 15,8 C 35,4 km/h
W (5 Bft)
100,00 %
Durchschnitt _ 13,1 C 15,9 C 85 % 1013,8 hPa #0,4 l/m 12,7 km/h (3 Bft) W-SW - #0 min. #1,753 mm 0,9 UV-I 135 W/m 10,5 C 9,9 C 17,9 km/h (3 Bft) 97,93 %